<?xml version="1.0" encoding="UTF-8" standalone="no" ?>
<gpx xmlns="http://www.topografix.com/GPX/1/1" xmlns:xsi="http://www.w3.org/2001/XMLSchema-instance" xsi:schemaLocation="http://www.topografix.com/GPX/1/1 http://www.topografix.com/GPX/1/1/gpx.xsd" version="1.1" creator="VisuGPX - https://www.visugpx.com">
  <metadata>
    <name>Pornichet 22/07/2021</name>
    <desc><![CDATA[Sortie VTT du jeudi 22 juillet 2021]]></desc>
  </metadata>
  <trk>
    <name><![CDATA[Pornichet Cyclisme]]></name>
    <trkseg>
      <trkpt lat="47.26388" lon="-2.3158">
        <ele>9</ele>
        <time>2021-07-22T06:45:50.000Z</time>
      </trkpt>
      <trkpt lat="47.26395" lon="-2.3159">
        <ele>9.2</ele>
        <time>2021-07-22T06:45:54.000Z</time>
      </trkpt>
      <trkpt lat="47.26396" lon="-2.31594">
        <ele>-0.40000000596046</ele>
        <time>2021-07-22T06:45:55.000Z</time>
      </trkpt>
      <trkpt lat="47.26396" lon="-2.31598">
        <ele>-0.40000000596046</ele>
        <time>2021-07-22T06:45:56.000Z</time>
      </trkpt>
      <trkpt lat="47.26399" lon="-2.31635">
        <ele>-0.40000000596046</ele>
        <time>2021-07-22T06:46:05.000Z</time>
      </trkpt>
      <trkpt lat="47.26401" lon="-2.31662">
        <ele>-0.40000000596046</ele>
        <time>2021-07-22T06:46:11.000Z</time>
      </trkpt>
      <trkpt lat="47.26399" lon="-2.31668">
        <ele>-0.40000000596046</ele>
        <time>2021-07-22T06:46:13.000Z</time>
      </trkpt>
      <trkpt lat="47.26397" lon="-2.31669">
        <ele>-0.40000000596046</ele>
        <time>2021-07-22T06:46:14.000Z</time>
      </trkpt>
      <trkpt lat="47.26381" lon="-2.31678">
        <ele>-0.40000000596046</ele>
        <time>2021-07-22T06:46:19.000Z</time>
      </trkpt>
      <trkpt lat="47.26359" lon="-2.3169">
        <ele>-0.40000000596046</ele>
        <time>2021-07-22T06:46:24.000Z</time>
      </trkpt>
      <trkpt lat="47.26335" lon="-2.31705">
        <ele>-0.40000000596046</ele>
        <time>2021-07-22T06:46:29.000Z</time>
      </trkpt>
      <trkpt lat="47.26331" lon="-2.31707">
        <ele>-0.40000000596046</ele>
        <time>2021-07-22T06:46:30.000Z</time>
      </trkpt>
      <trkpt lat="47.26316" lon="-2.31714">
        <ele>-0.40000000596046</ele>
        <time>2021-07-22T06:46:33.000Z</time>
      </trkpt>
      <trkpt lat="47.26311" lon="-2.31716">
        <ele>-0.80000001192093</ele>
        <time>2021-07-22T06:46:34.000Z</time>
      </trkpt>
      <trkpt lat="47.26307" lon="-2.31718">
        <ele>-1.2000000476837</ele>
        <time>2021-07-22T06:46:35.000Z</time>
      </trkpt>
      <trkpt lat="47.26302" lon="-2.31721">
        <ele>-1.7999999523163</ele>
        <time>2021-07-22T06:46:36.000Z</time>
      </trkpt>
      <trkpt lat="47.26299" lon="-2.31724">
        <ele>-2.2000000476837</ele>
        <time>2021-07-22T06:46:37.000Z</time>
      </trkpt>
      <trkpt lat="47.26297" lon="-2.31729">
        <ele>-2.5999999046326</ele>
        <time>2021-07-22T06:46:38.000Z</time>
      </trkpt>
      <trkpt lat="47.26297" lon="-2.31734">
        <ele>-2.5999999046326</ele>
        <time>2021-07-22T06:46:39.000Z</time>
      </trkpt>
      <trkpt lat="47.26299" lon="-2.31746">
        <ele>-2.5999999046326</ele>
        <time>2021-07-22T06:46:41.000Z</time>
      </trkpt>
      <trkpt lat="47.26303" lon="-2.31764">
        <ele>-2.5999999046326</ele>
        <time>2021-07-22T06:46:44.000Z</time>
      </trkpt>
      <trkpt lat="47.26304" lon="-2.31797">
        <ele>-2.5999999046326</ele>
        <time>2021-07-22T06:46:50.000Z</time>
      </trkpt>
      <trkpt lat="47.26301" lon="-2.31838">
        <ele>-2.5999999046326</ele>
        <time>2021-07-22T06:46:57.000Z</time>
      </trkpt>
      <trkpt lat="47.263" lon="-2.31874">
        <ele>-2.5999999046326</ele>
        <time>2021-07-22T06:47:03.000Z</time>
      </trkpt>
      <trkpt lat="47.26298" lon="-2.3188">
        <ele>-2.5999999046326</ele>
        <time>2021-07-22T06:47:04.000Z</time>
      </trkpt>
      <trkpt lat="47.26293" lon="-2.31887">
        <ele>-2.5999999046326</ele>
        <time>2021-07-22T06:47:06.000Z</time>
      </trkpt>
      <trkpt lat="47.26286" lon="-2.31894">
        <ele>-2.5999999046326</ele>
        <time>2021-07-22T06:47:08.000Z</time>
      </trkpt>
      <trkpt lat="47.26274" lon="-2.31908">
        <ele>-2.5999999046326</ele>
        <time>2021-07-22T06:47:12.000Z</time>
      </trkpt>
      <trkpt lat="47.26258" lon="-2.31937">
        <ele>-2.5999999046326</ele>
        <time>2021-07-22T06:47:19.000Z</time>
      </trkpt>
      <trkpt lat="47.26243" lon="-2.31965">
        <ele>-2.5999999046326</ele>
        <time>2021-07-22T06:47:25.000Z</time>
      </trkpt>
      <trkpt lat="47.2624" lon="-2.31968">
        <ele>-2.5999999046326</ele>
        <time>2021-07-22T06:47:26.000Z</time>
      </trkpt>
      <trkpt lat="47.26227" lon="-2.31979">
        <ele>-2.5999999046326</ele>
        <time>2021-07-22T06:47:31.000Z</time>
      </trkpt>
      <trkpt lat="47.26209" lon="-2.31994">
        <ele>-2.5999999046326</ele>
        <time>2021-07-22T06:47:37.000Z</time>
      </trkpt>
      <trkpt lat="47.26204" lon="-2.32">
        <ele>-2.5999999046326</ele>
        <time>2021-07-22T06:47:39.000Z</time>
      </trkpt>
      <trkpt lat="47.26203" lon="-2.32009">
        <ele>-2.5999999046326</ele>
        <time>2021-07-22T06:47:41.000Z</time>
      </trkpt>
      <trkpt lat="47.26198" lon="-2.32019">
        <ele>-2.5999999046326</ele>
        <time>2021-07-22T06:47:45.000Z</time>
      </trkpt>
      <trkpt lat="47.26186" lon="-2.32017">
        <ele>-2.5999999046326</ele>
        <time>2021-07-22T06:47:50.000Z</time>
      </trkpt>
      <trkpt lat="47.26175" lon="-2.32022">
        <ele>-2.5999999046326</ele>
        <time>2021-07-22T06:47:53.000Z</time>
      </trkpt>
      <trkpt lat="47.26167" lon="-2.32027">
        <ele>-2.5999999046326</ele>
        <time>2021-07-22T06:47:55.000Z</time>
      </trkpt>
      <trkpt lat="47.26156" lon="-2.32045">
        <ele>-2.5999999046326</ele>
        <time>2021-07-22T06:47:59.000Z</time>
      </trkpt>
      <trkpt lat="47.26153" lon="-2.32051">
        <ele>-2.5999999046326</ele>
        <time>2021-07-22T06:48:00.000Z</time>
      </trkpt>
      <trkpt lat="47.26151" lon="-2.32057">
        <ele>-2.5999999046326</ele>
        <time>2021-07-22T06:48:01.000Z</time>
      </trkpt>
      <trkpt lat="47.26141" lon="-2.32093">
        <ele>-2.5999999046326</ele>
        <time>2021-07-22T06:48:07.000Z</time>
      </trkpt>
      <trkpt lat="47.26127" lon="-2.32139">
        <ele>-2.5999999046326</ele>
        <time>2021-07-22T06:48:15.000Z</time>
      </trkpt>
      <trkpt lat="47.26114" lon="-2.32174">
        <ele>-2.5999999046326</ele>
        <time>2021-07-22T06:48:21.000Z</time>
      </trkpt>
      <trkpt lat="47.26096" lon="-2.32211">
        <ele>-2.5999999046326</ele>
        <time>2021-07-22T06:48:28.000Z</time>
      </trkpt>
      <trkpt lat="47.26078" lon="-2.32235">
        <ele>-2.5999999046326</ele>
        <time>2021-07-22T06:48:34.000Z</time>
      </trkpt>
      <trkpt lat="47.26057" lon="-2.32259">
        <ele>-2.5999999046326</ele>
        <time>2021-07-22T06:48:41.000Z</time>
      </trkpt>
      <trkpt lat="47.26032" lon="-2.32285">
        <ele>-2.5999999046326</ele>
        <time>2021-07-22T06:48:50.000Z</time>
      </trkpt>
      <trkpt lat="47.2602" lon="-2.32303">
        <ele>-2.5999999046326</ele>
        <time>2021-07-22T06:48:55.000Z</time>
      </trkpt>
      <trkpt lat="47.26006" lon="-2.32324">
        <ele>-2.2000000476837</ele>
        <time>2021-07-22T06:49:00.000Z</time>
      </trkpt>
      <trkpt lat="47.26003" lon="-2.32328">
        <ele>-1.7999999523163</ele>
        <time>2021-07-22T06:49:01.000Z</time>
      </trkpt>
      <trkpt lat="47.25999" lon="-2.32332">
        <ele>-1.3999999761581</ele>
        <time>2021-07-22T06:49:02.000Z</time>
      </trkpt>
      <trkpt lat="47.25996" lon="-2.32336">
        <ele>-1</ele>
        <time>2021-07-22T06:49:03.000Z</time>
      </trkpt>
      <trkpt lat="47.25992" lon="-2.3234">
        <ele>-0.60000002384186</ele>
        <time>2021-07-22T06:49:04.000Z</time>
      </trkpt>
      <trkpt lat="47.25964" lon="-2.32374">
        <ele>-0.60000002384186</ele>
        <time>2021-07-22T06:49:12.000Z</time>
      </trkpt>
      <trkpt lat="47.25934" lon="-2.32413">
        <ele>-0.60000002384186</ele>
        <time>2021-07-22T06:49:21.000Z</time>
      </trkpt>
      <trkpt lat="47.25908" lon="-2.32446">
        <ele>-0.60000002384186</ele>
        <time>2021-07-22T06:49:29.000Z</time>
      </trkpt>
      <trkpt lat="47.25902" lon="-2.32458">
        <ele>-0.60000002384186</ele>
        <time>2021-07-22T06:49:32.000Z</time>
      </trkpt>
      <trkpt lat="47.25903" lon="-2.32462">
        <ele>-0.60000002384186</ele>
        <time>2021-07-22T06:49:33.000Z</time>
      </trkpt>
      <trkpt lat="47.25914" lon="-2.32476">
        <ele>-0.60000002384186</ele>
        <time>2021-07-22T06:49:37.000Z</time>
      </trkpt>
      <trkpt lat="47.25918" lon="-2.32479">
        <ele>-0.60000002384186</ele>
        <time>2021-07-22T06:49:38.000Z</time>
      </trkpt>
      <trkpt lat="47.25927" lon="-2.32494">
        <ele>-0.60000002384186</ele>
        <time>2021-07-22T06:49:41.000Z</time>
      </trkpt>
      <trkpt lat="47.25935" lon="-2.32519">
        <ele>-0.60000002384186</ele>
        <time>2021-07-22T06:49:45.000Z</time>
      </trkpt>
      <trkpt lat="47.25939" lon="-2.32531">
        <ele>-0.60000002384186</ele>
        <time>2021-07-22T06:49:47.000Z</time>
      </trkpt>
      <trkpt lat="47.25953" lon="-2.32582">
        <ele>-0.20000000298023</ele>
        <time>2021-07-22T06:49:55.000Z</time>
      </trkpt>
      <trkpt lat="47.25954" lon="-2.32588">
        <ele>0.20000000298023</ele>
        <time>2021-07-22T06:49:56.000Z</time>
      </trkpt>
      <trkpt lat="47.25956" lon="-2.32595">
        <ele>0.60000002384186</ele>
        <time>2021-07-22T06:49:57.000Z</time>
      </trkpt>
      <trkpt lat="47.25957" lon="-2.32602">
        <ele>1</ele>
        <time>2021-07-22T06:49:58.000Z</time>
      </trkpt>
      <trkpt lat="47.25958" lon="-2.32609">
        <ele>1.3999999761581</ele>
        <time>2021-07-22T06:49:59.000Z</time>
      </trkpt>
      <trkpt lat="47.25962" lon="-2.32635">
        <ele>1.3999999761581</ele>
        <time>2021-07-22T06:50:03.000Z</time>
      </trkpt>
      <trkpt lat="47.25965" lon="-2.32657">
        <ele>1.3999999761581</ele>
        <time>2021-07-22T06:50:07.000Z</time>
      </trkpt>
      <trkpt lat="47.25976" lon="-2.32657">
        <ele>1.3999999761581</ele>
        <time>2021-07-22T06:50:10.000Z</time>
      </trkpt>
      <trkpt lat="47.25992" lon="-2.32658">
        <ele>1.3999999761581</ele>
        <time>2021-07-22T06:50:14.000Z</time>
      </trkpt>
      <trkpt lat="47.25997" lon="-2.32657">
        <ele>1.3999999761581</ele>
        <time>2021-07-22T06:50:15.000Z</time>
      </trkpt>
      <trkpt lat="47.26033" lon="-2.32651">
        <ele>1.3999999761581</ele>
        <time>2021-07-22T06:50:23.000Z</time>
      </trkpt>
      <trkpt lat="47.26041" lon="-2.3265">
        <ele>1.7999999523163</ele>
        <time>2021-07-22T06:50:25.000Z</time>
      </trkpt>
      <trkpt lat="47.26046" lon="-2.3265">
        <ele>2.4000000953674</ele>
        <time>2021-07-22T06:50:26.000Z</time>
      </trkpt>
      <trkpt lat="47.2605" lon="-2.32649">
        <ele>2.7999999523163</ele>
        <time>2021-07-22T06:50:27.000Z</time>
      </trkpt>
      <trkpt lat="47.26054" lon="-2.32648">
        <ele>3.2000000476837</ele>
        <time>2021-07-22T06:50:28.000Z</time>
      </trkpt>
      <trkpt lat="47.26059" lon="-2.32647">
        <ele>3.5999999046326</ele>
        <time>2021-07-22T06:50:29.000Z</time>
      </trkpt>
      <trkpt lat="47.26063" lon="-2.32646">
        <ele>3.5999999046326</ele>
        <time>2021-07-22T06:50:30.000Z</time>
      </trkpt>
      <trkpt lat="47.26092" lon="-2.32641">
        <ele>3.5999999046326</ele>
        <time>2021-07-22T06:50:37.000Z</time>
      </trkpt>
      <trkpt lat="47.26129" lon="-2.32637">
        <ele>3.5999999046326</ele>
        <time>2021-07-22T06:50:46.000Z</time>
      </trkpt>
      <trkpt lat="47.26146" lon="-2.32641">
        <ele>4</ele>
        <time>2021-07-22T06:50:50.000Z</time>
      </trkpt>
      <trkpt lat="47.2615" lon="-2.32642">
        <ele>4.4000000953674</ele>
        <time>2021-07-22T06:50:51.000Z</time>
      </trkpt>
      <trkpt lat="47.26155" lon="-2.32644">
        <ele>4.8000001907349</ele>
        <time>2021-07-22T06:50:52.000Z</time>
      </trkpt>
      <trkpt lat="47.2616" lon="-2.32646">
        <ele>5.1999998092651</ele>
        <time>2021-07-22T06:50:53.000Z</time>
      </trkpt>
      <trkpt lat="47.26164" lon="-2.32648">
        <ele>5.5999999046326</ele>
        <time>2021-07-22T06:50:54.000Z</time>
      </trkpt>
      <trkpt lat="47.26191" lon="-2.32666">
        <ele>5.5999999046326</ele>
        <time>2021-07-22T06:51:00.000Z</time>
      </trkpt>
      <trkpt lat="47.26213" lon="-2.3269">
        <ele>5.5999999046326</ele>
        <time>2021-07-22T06:51:06.000Z</time>
      </trkpt>
      <trkpt lat="47.26238" lon="-2.32724">
        <ele>5.5999999046326</ele>
        <time>2021-07-22T06:51:13.000Z</time>
      </trkpt>
      <trkpt lat="47.26269" lon="-2.32774">
        <ele>5.5999999046326</ele>
        <time>2021-07-22T06:51:22.000Z</time>
      </trkpt>
      <trkpt lat="47.26281" lon="-2.32804">
        <ele>5.5999999046326</ele>
        <time>2021-07-22T06:51:27.000Z</time>
      </trkpt>
      <trkpt lat="47.26285" lon="-2.32817">
        <ele>5.5999999046326</ele>
        <time>2021-07-22T06:51:29.000Z</time>
      </trkpt>
      <trkpt lat="47.26286" lon="-2.32823">
        <ele>5.5999999046326</ele>
        <time>2021-07-22T06:51:30.000Z</time>
      </trkpt>
      <trkpt lat="47.26285" lon="-2.32841">
        <ele>5.5999999046326</ele>
        <time>2021-07-22T06:51:33.000Z</time>
      </trkpt>
      <trkpt lat="47.26291" lon="-2.32857">
        <ele>5.5999999046326</ele>
        <time>2021-07-22T06:51:36.000Z</time>
      </trkpt>
      <trkpt lat="47.26306" lon="-2.32863">
        <ele>5.5999999046326</ele>
        <time>2021-07-22T06:51:39.000Z</time>
      </trkpt>
      <trkpt lat="47.26311" lon="-2.32864">
        <ele>5.5999999046326</ele>
        <time>2021-07-22T06:51:40.000Z</time>
      </trkpt>
      <trkpt lat="47.26322" lon="-2.3288">
        <ele>5.5999999046326</ele>
        <time>2021-07-22T06:51:43.000Z</time>
      </trkpt>
      <trkpt lat="47.26328" lon="-2.32901">
        <ele>5.5999999046326</ele>
        <time>2021-07-22T06:51:46.000Z</time>
      </trkpt>
      <trkpt lat="47.26332" lon="-2.32914">
        <ele>5.5999999046326</ele>
        <time>2021-07-22T06:51:48.000Z</time>
      </trkpt>
      <trkpt lat="47.2635" lon="-2.32964">
        <ele>5.5999999046326</ele>
        <time>2021-07-22T06:51:56.000Z</time>
      </trkpt>
      <trkpt lat="47.26356" lon="-2.32974">
        <ele>5.5999999046326</ele>
        <time>2021-07-22T06:51:58.000Z</time>
      </trkpt>
      <trkpt lat="47.26362" lon="-2.32983">
        <ele>5.5999999046326</ele>
        <time>2021-07-22T06:52:00.000Z</time>
      </trkpt>
      <trkpt lat="47.26365" lon="-2.32989">
        <ele>5.5999999046326</ele>
        <time>2021-07-22T06:52:01.000Z</time>
      </trkpt>
      <trkpt lat="47.26368" lon="-2.33017">
        <ele>5.5999999046326</ele>
        <time>2021-07-22T06:52:05.000Z</time>
      </trkpt>
      <trkpt lat="47.26369" lon="-2.33024">
        <ele>5.5999999046326</ele>
        <time>2021-07-22T06:52:06.000Z</time>
      </trkpt>
      <trkpt lat="47.26373" lon="-2.33105">
        <ele>5.5999999046326</ele>
        <time>2021-07-22T06:52:17.000Z</time>
      </trkpt>
      <trkpt lat="47.26376" lon="-2.33168">
        <ele>5.5999999046326</ele>
        <time>2021-07-22T06:52:26.000Z</time>
      </trkpt>
      <trkpt lat="47.2638" lon="-2.33224">
        <ele>5.5999999046326</ele>
        <time>2021-07-22T06:52:34.000Z</time>
      </trkpt>
      <trkpt lat="47.26387" lon="-2.33257">
        <ele>5.5999999046326</ele>
        <time>2021-07-22T06:52:39.000Z</time>
      </trkpt>
      <trkpt lat="47.26391" lon="-2.33261">
        <ele>5.5999999046326</ele>
        <time>2021-07-22T06:52:40.000Z</time>
      </trkpt>
      <trkpt lat="47.2641" lon="-2.33266">
        <ele>5.5999999046326</ele>
        <time>2021-07-22T06:52:44.000Z</time>
      </trkpt>
      <trkpt lat="47.26451" lon="-2.3327">
        <ele>5.5999999046326</ele>
        <time>2021-07-22T06:52:53.000Z</time>
      </trkpt>
      <trkpt lat="47.26468" lon="-2.33272">
        <ele>5.5999999046326</ele>
        <time>2021-07-22T06:52:57.000Z</time>
      </trkpt>
      <trkpt lat="47.26484" lon="-2.33276">
        <ele>5.5999999046326</ele>
        <time>2021-07-22T06:53:01.000Z</time>
      </trkpt>
      <trkpt lat="47.26503" lon="-2.33279">
        <ele>5.5999999046326</ele>
        <time>2021-07-22T06:53:07.000Z</time>
      </trkpt>
      <trkpt lat="47.26508" lon="-2.33283">
        <ele>5.5999999046326</ele>
        <time>2021-07-22T06:53:11.000Z</time>
      </trkpt>
      <trkpt lat="47.26518" lon="-2.33288">
        <ele>5.5999999046326</ele>
        <time>2021-07-22T06:53:15.000Z</time>
      </trkpt>
      <trkpt lat="47.26531" lon="-2.33287">
        <ele>5.5999999046326</ele>
        <time>2021-07-22T06:53:19.000Z</time>
      </trkpt>
      <trkpt lat="47.26533" lon="-2.33291">
        <ele>5.5999999046326</ele>
        <time>2021-07-22T06:53:21.000Z</time>
      </trkpt>
      <trkpt lat="47.26536" lon="-2.33296">
        <ele>5.5999999046326</ele>
        <time>2021-07-22T06:53:23.000Z</time>
      </trkpt>
      <trkpt lat="47.26544" lon="-2.33291">
        <ele>5.5999999046326</ele>
        <time>2021-07-22T06:53:26.000Z</time>
      </trkpt>
      <trkpt lat="47.26547" lon="-2.33286">
        <ele>6</ele>
        <time>2021-07-22T06:53:27.000Z</time>
      </trkpt>
      <trkpt lat="47.26551" lon="-2.33283">
        <ele>6.4000000953674</ele>
        <time>2021-07-22T06:53:28.000Z</time>
      </trkpt>
      <trkpt lat="47.26554" lon="-2.33279">
        <ele>6.8000001907349</ele>
        <time>2021-07-22T06:53:29.000Z</time>
      </trkpt>
      <trkpt lat="47.26558" lon="-2.33275">
        <ele>7.1999998092651</ele>
        <time>2021-07-22T06:53:30.000Z</time>
      </trkpt>
      <trkpt lat="47.26562" lon="-2.33271">
        <ele>7.5999999046326</ele>
        <time>2021-07-22T06:53:31.000Z</time>
      </trkpt>
      <trkpt lat="47.26569" lon="-2.33263">
        <ele>7.5999999046326</ele>
        <time>2021-07-22T06:53:33.000Z</time>
      </trkpt>
      <trkpt lat="47.26602" lon="-2.33233">
        <ele>7.5999999046326</ele>
        <time>2021-07-22T06:53:41.000Z</time>
      </trkpt>
      <trkpt lat="47.26633" lon="-2.33199">
        <ele>7.5999999046326</ele>
        <time>2021-07-22T06:53:49.000Z</time>
      </trkpt>
      <trkpt lat="47.26662" lon="-2.33169">
        <ele>7.5999999046326</ele>
        <time>2021-07-22T06:53:57.000Z</time>
      </trkpt>
      <trkpt lat="47.26678" lon="-2.33155">
        <ele>8</ele>
        <time>2021-07-22T06:54:01.000Z</time>
      </trkpt>
      <trkpt lat="47.26682" lon="-2.33151">
        <ele>8.6000003814697</ele>
        <time>2021-07-22T06:54:02.000Z</time>
      </trkpt>
      <trkpt lat="47.26686" lon="-2.33147">
        <ele>9</ele>
        <time>2021-07-22T06:54:03.000Z</time>
      </trkpt>
      <trkpt lat="47.2669" lon="-2.33143">
        <ele>9.3999996185303</ele>
        <time>2021-07-22T06:54:04.000Z</time>
      </trkpt>
      <trkpt lat="47.26693" lon="-2.33139">
        <ele>9.8000001907349</ele>
        <time>2021-07-22T06:54:05.000Z</time>
      </trkpt>
      <trkpt lat="47.26697" lon="-2.33135">
        <ele>9.8000001907349</ele>
        <time>2021-07-22T06:54:06.000Z</time>
      </trkpt>
      <trkpt lat="47.26725" lon="-2.33106">
        <ele>9.8000001907349</ele>
        <time>2021-07-22T06:54:14.000Z</time>
      </trkpt>
      <trkpt lat="47.26747" lon="-2.33084">
        <ele>9.8000001907349</ele>
        <time>2021-07-22T06:54:21.000Z</time>
      </trkpt>
      <trkpt lat="47.26754" lon="-2.33085">
        <ele>9.8000001907349</ele>
        <time>2021-07-22T06:54:23.000Z</time>
      </trkpt>
      <trkpt lat="47.26758" lon="-2.33088">
        <ele>9.8000001907349</ele>
        <time>2021-07-22T06:54:24.000Z</time>
      </trkpt>
      <trkpt lat="47.26767" lon="-2.33114">
        <ele>9.8000001907349</ele>
        <time>2021-07-22T06:54:28.000Z</time>
      </trkpt>
      <trkpt lat="47.26761" lon="-2.33145">
        <ele>9.8000001907349</ele>
        <time>2021-07-22T06:54:32.000Z</time>
      </trkpt>
      <trkpt lat="47.26758" lon="-2.33152">
        <ele>9.8000001907349</ele>
        <time>2021-07-22T06:54:33.000Z</time>
      </trkpt>
      <trkpt lat="47.26748" lon="-2.33194">
        <ele>9.8000001907349</ele>
        <time>2021-07-22T06:54:39.000Z</time>
      </trkpt>
      <trkpt lat="47.2673" lon="-2.33249">
        <ele>9.8000001907349</ele>
        <time>2021-07-22T06:54:47.000Z</time>
      </trkpt>
      <trkpt lat="47.26729" lon="-2.33278">
        <ele>9.8000001907349</ele>
        <time>2021-07-22T06:54:51.000Z</time>
      </trkpt>
      <trkpt lat="47.26737" lon="-2.33306">
        <ele>9.8000001907349</ele>
        <time>2021-07-22T06:54:55.000Z</time>
      </trkpt>
      <trkpt lat="47.26751" lon="-2.33366">
        <ele>9.8000001907349</ele>
        <time>2021-07-22T06:55:03.000Z</time>
      </trkpt>
      <trkpt lat="47.26755" lon="-2.33412">
        <ele>9.8000001907349</ele>
        <time>2021-07-22T06:55:09.000Z</time>
      </trkpt>
      <trkpt lat="47.26757" lon="-2.33454">
        <ele>9.8000001907349</ele>
        <time>2021-07-22T06:55:15.000Z</time>
      </trkpt>
      <trkpt lat="47.26763" lon="-2.33505">
        <ele>9.8000001907349</ele>
        <time>2021-07-22T06:55:22.000Z</time>
      </trkpt>
      <trkpt lat="47.26772" lon="-2.33555">
        <ele>9.8000001907349</ele>
        <time>2021-07-22T06:55:29.000Z</time>
      </trkpt>
      <trkpt lat="47.26776" lon="-2.33567">
        <ele>9.8000001907349</ele>
        <time>2021-07-22T06:55:31.000Z</time>
      </trkpt>
      <trkpt lat="47.26784" lon="-2.3357">
        <ele>9.8000001907349</ele>
        <time>2021-07-22T06:55:33.000Z</time>
      </trkpt>
      <trkpt lat="47.26801" lon="-2.33566">
        <ele>9.8000001907349</ele>
        <time>2021-07-22T06:55:37.000Z</time>
      </trkpt>
      <trkpt lat="47.26823" lon="-2.33555">
        <ele>9.8000001907349</ele>
        <time>2021-07-22T06:55:42.000Z</time>
      </trkpt>
      <trkpt lat="47.26828" lon="-2.33553">
        <ele>10.199999809265</ele>
        <time>2021-07-22T06:55:43.000Z</time>
      </trkpt>
      <trkpt lat="47.26833" lon="-2.33551">
        <ele>10.60000038147</ele>
        <time>2021-07-22T06:55:44.000Z</time>
      </trkpt>
      <trkpt lat="47.26837" lon="-2.33549">
        <ele>11</ele>
        <time>2021-07-22T06:55:45.000Z</time>
      </trkpt>
      <trkpt lat="47.2684" lon="-2.33547">
        <ele>11.39999961853</ele>
        <time>2021-07-22T06:55:46.000Z</time>
      </trkpt>
      <trkpt lat="47.26845" lon="-2.33546">
        <ele>11.800000190735</ele>
        <time>2021-07-22T06:55:47.000Z</time>
      </trkpt>
      <trkpt lat="47.26855" lon="-2.3354">
        <ele>11.800000190735</ele>
        <time>2021-07-22T06:55:49.000Z</time>
      </trkpt>
      <trkpt lat="47.26879" lon="-2.33534">
        <ele>11.800000190735</ele>
        <time>2021-07-22T06:55:54.000Z</time>
      </trkpt>
      <trkpt lat="47.26883" lon="-2.33535">
        <ele>11.800000190735</ele>
        <time>2021-07-22T06:55:55.000Z</time>
      </trkpt>
      <trkpt lat="47.26896" lon="-2.33545">
        <ele>11.800000190735</ele>
        <time>2021-07-22T06:55:58.000Z</time>
      </trkpt>
      <trkpt lat="47.26899" lon="-2.3355">
        <ele>12.199999809265</ele>
        <time>2021-07-22T06:55:59.000Z</time>
      </trkpt>
      <trkpt lat="47.26901" lon="-2.33556">
        <ele>12.800000190735</ele>
        <time>2021-07-22T06:56:00.000Z</time>
      </trkpt>
      <trkpt lat="47.26903" lon="-2.33562">
        <ele>13.60000038147</ele>
        <time>2021-07-22T06:56:01.000Z</time>
      </trkpt>
      <trkpt lat="47.26905" lon="-2.33569">
        <ele>14</ele>
        <time>2021-07-22T06:56:02.000Z</time>
      </trkpt>
      <trkpt lat="47.2691" lon="-2.3358">
        <ele>14</ele>
        <time>2021-07-22T06:56:04.000Z</time>
      </trkpt>
      <trkpt lat="47.26912" lon="-2.33587">
        <ele>14</ele>
        <time>2021-07-22T06:56:05.000Z</time>
      </trkpt>
      <trkpt lat="47.26922" lon="-2.33616">
        <ele>14</ele>
        <time>2021-07-22T06:56:10.000Z</time>
      </trkpt>
      <trkpt lat="47.26927" lon="-2.33642">
        <ele>14.39999961853</ele>
        <time>2021-07-22T06:56:14.000Z</time>
      </trkpt>
      <trkpt lat="47.26928" lon="-2.33648">
        <ele>14.800000190735</ele>
        <time>2021-07-22T06:56:15.000Z</time>
      </trkpt>
      <trkpt lat="47.2693" lon="-2.33654">
        <ele>15.199999809265</ele>
        <time>2021-07-22T06:56:16.000Z</time>
      </trkpt>
      <trkpt lat="47.26932" lon="-2.3366">
        <ele>15.800000190735</ele>
        <time>2021-07-22T06:56:17.000Z</time>
      </trkpt>
      <trkpt lat="47.26933" lon="-2.33667">
        <ele>16.200000762939</ele>
        <time>2021-07-22T06:56:18.000Z</time>
      </trkpt>
      <trkpt lat="47.26941" lon="-2.33712">
        <ele>16.200000762939</ele>
        <time>2021-07-22T06:56:25.000Z</time>
      </trkpt>
      <trkpt lat="47.26941" lon="-2.33719">
        <ele>16.200000762939</ele>
        <time>2021-07-22T06:56:26.000Z</time>
      </trkpt>
      <trkpt lat="47.26937" lon="-2.33745">
        <ele>16.200000762939</ele>
        <time>2021-07-22T06:56:30.000Z</time>
      </trkpt>
      <trkpt lat="47.2693" lon="-2.33789">
        <ele>16.200000762939</ele>
        <time>2021-07-22T06:56:36.000Z</time>
      </trkpt>
      <trkpt lat="47.26934" lon="-2.33803">
        <ele>16.200000762939</ele>
        <time>2021-07-22T06:56:38.000Z</time>
      </trkpt>
      <trkpt lat="47.26946" lon="-2.33816">
        <ele>16.200000762939</ele>
        <time>2021-07-22T06:56:41.000Z</time>
      </trkpt>
      <trkpt lat="47.26949" lon="-2.3382">
        <ele>16.200000762939</ele>
        <time>2021-07-22T06:56:42.000Z</time>
      </trkpt>
      <trkpt lat="47.26958" lon="-2.33827">
        <ele>16.60000038147</ele>
        <time>2021-07-22T06:56:44.000Z</time>
      </trkpt>
      <trkpt lat="47.26962" lon="-2.33829">
        <ele>17</ele>
        <time>2021-07-22T06:56:45.000Z</time>
      </trkpt>
      <trkpt lat="47.26966" lon="-2.33831">
        <ele>17.39999961853</ele>
        <time>2021-07-22T06:56:46.000Z</time>
      </trkpt>
      <trkpt lat="47.2697" lon="-2.33833">
        <ele>17.799999237061</ele>
        <time>2021-07-22T06:56:47.000Z</time>
      </trkpt>
      <trkpt lat="47.26974" lon="-2.33835">
        <ele>18.200000762939</ele>
        <time>2021-07-22T06:56:48.000Z</time>
      </trkpt>
      <trkpt lat="47.26986" lon="-2.3384">
        <ele>18.200000762939</ele>
        <time>2021-07-22T06:56:51.000Z</time>
      </trkpt>
      <trkpt lat="47.26993" lon="-2.33845">
        <ele>18.60000038147</ele>
        <time>2021-07-22T06:56:53.000Z</time>
      </trkpt>
      <trkpt lat="47.26997" lon="-2.33847">
        <ele>19</ele>
        <time>2021-07-22T06:56:54.000Z</time>
      </trkpt>
      <trkpt lat="47.27001" lon="-2.3385">
        <ele>19.60000038147</ele>
        <time>2021-07-22T06:56:55.000Z</time>
      </trkpt>
      <trkpt lat="47.27004" lon="-2.33852">
        <ele>20</ele>
        <time>2021-07-22T06:56:56.000Z</time>
      </trkpt>
      <trkpt lat="47.27008" lon="-2.33854">
        <ele>20.39999961853</ele>
        <time>2021-07-22T06:56:57.000Z</time>
      </trkpt>
      <trkpt lat="47.27022" lon="-2.33864">
        <ele>20.799999237061</ele>
        <time>2021-07-22T06:57:01.000Z</time>
      </trkpt>
      <trkpt lat="47.27025" lon="-2.33867">
        <ele>21.200000762939</ele>
        <time>2021-07-22T06:57:02.000Z</time>
      </trkpt>
      <trkpt lat="47.27028" lon="-2.33869">
        <ele>21.799999237061</ele>
        <time>2021-07-22T06:57:03.000Z</time>
      </trkpt>
      <trkpt lat="47.27032" lon="-2.33872">
        <ele>22.200000762939</ele>
        <time>2021-07-22T06:57:04.000Z</time>
      </trkpt>
      <trkpt lat="47.27036" lon="-2.33874">
        <ele>22.60000038147</ele>
        <time>2021-07-22T06:57:05.000Z</time>
      </trkpt>
      <trkpt lat="47.27039" lon="-2.33878">
        <ele>22.60000038147</ele>
        <time>2021-07-22T06:57:06.000Z</time>
      </trkpt>
      <trkpt lat="47.27054" lon="-2.33892">
        <ele>22.60000038147</ele>
        <time>2021-07-22T06:57:10.000Z</time>
      </trkpt>
      <trkpt lat="47.27069" lon="-2.33905">
        <ele>23</ele>
        <time>2021-07-22T06:57:14.000Z</time>
      </trkpt>
      <trkpt lat="47.27072" lon="-2.33908">
        <ele>23.799999237061</ele>
        <time>2021-07-22T06:57:15.000Z</time>
      </trkpt>
      <trkpt lat="47.27075" lon="-2.33911">
        <ele>24.200000762939</ele>
        <time>2021-07-22T06:57:16.000Z</time>
      </trkpt>
      <trkpt lat="47.27078" lon="-2.33914">
        <ele>24.60000038147</ele>
        <time>2021-07-22T06:57:17.000Z</time>
      </trkpt>
      <trkpt lat="47.27081" lon="-2.33917">
        <ele>24.60000038147</ele>
        <time>2021-07-22T06:57:18.000Z</time>
      </trkpt>
      <trkpt lat="47.27087" lon="-2.33922">
        <ele>25</ele>
        <time>2021-07-22T06:57:20.000Z</time>
      </trkpt>
      <trkpt lat="47.2709" lon="-2.33925">
        <ele>25.39999961853</ele>
        <time>2021-07-22T06:57:21.000Z</time>
      </trkpt>
      <trkpt lat="47.27093" lon="-2.33928">
        <ele>25.799999237061</ele>
        <time>2021-07-22T06:57:22.000Z</time>
      </trkpt>
      <trkpt lat="47.27096" lon="-2.3393">
        <ele>26.200000762939</ele>
        <time>2021-07-22T06:57:23.000Z</time>
      </trkpt>
      <trkpt lat="47.27099" lon="-2.33933">
        <ele>26.799999237061</ele>
        <time>2021-07-22T06:57:24.000Z</time>
      </trkpt>
      <trkpt lat="47.27108" lon="-2.33941">
        <ele>26.799999237061</ele>
        <time>2021-07-22T06:57:27.000Z</time>
      </trkpt>
      <trkpt lat="47.27114" lon="-2.33945">
        <ele>27.200000762939</ele>
        <time>2021-07-22T06:57:29.000Z</time>
      </trkpt>
      <trkpt lat="47.27117" lon="-2.33948">
        <ele>27.60000038147</ele>
        <time>2021-07-22T06:57:30.000Z</time>
      </trkpt>
      <trkpt lat="47.27121" lon="-2.33951">
        <ele>28</ele>
        <time>2021-07-22T06:57:31.000Z</time>
      </trkpt>
      <trkpt lat="47.27124" lon="-2.33954">
        <ele>28.39999961853</ele>
        <time>2021-07-22T06:57:32.000Z</time>
      </trkpt>
      <trkpt lat="47.27127" lon="-2.33957">
        <ele>28.799999237061</ele>
        <time>2021-07-22T06:57:33.000Z</time>
      </trkpt>
      <trkpt lat="47.2713" lon="-2.33961">
        <ele>28.799999237061</ele>
        <time>2021-07-22T06:57:34.000Z</time>
      </trkpt>
      <trkpt lat="47.27145" lon="-2.33977">
        <ele>28.799999237061</ele>
        <time>2021-07-22T06:57:39.000Z</time>
      </trkpt>
      <trkpt lat="47.27161" lon="-2.33995">
        <ele>28.799999237061</ele>
        <time>2021-07-22T06:57:45.000Z</time>
      </trkpt>
      <trkpt lat="47.2717" lon="-2.34004">
        <ele>29.200000762939</ele>
        <time>2021-07-22T06:57:48.000Z</time>
      </trkpt>
      <trkpt lat="47.27173" lon="-2.34007">
        <ele>29.60000038147</ele>
        <time>2021-07-22T06:57:49.000Z</time>
      </trkpt>
      <trkpt lat="47.27176" lon="-2.3401">
        <ele>30</ele>
        <time>2021-07-22T06:57:50.000Z</time>
      </trkpt>
      <trkpt lat="47.2718" lon="-2.34014">
        <ele>30.39999961853</ele>
        <time>2021-07-22T06:57:51.000Z</time>
      </trkpt>
      <trkpt lat="47.27184" lon="-2.34017">
        <ele>30.799999237061</ele>
        <time>2021-07-22T06:57:52.000Z</time>
      </trkpt>
      <trkpt lat="47.27187" lon="-2.34021">
        <ele>30.799999237061</ele>
        <time>2021-07-22T06:57:53.000Z</time>
      </trkpt>
      <trkpt lat="47.27211" lon="-2.34044">
        <ele>30.799999237061</ele>
        <time>2021-07-22T06:58:00.000Z</time>
      </trkpt>
      <trkpt lat="47.27222" lon="-2.34051">
        <ele>30.799999237061</ele>
        <time>2021-07-22T06:58:03.000Z</time>
      </trkpt>
      <trkpt lat="47.2723" lon="-2.34051">
        <ele>30.799999237061</ele>
        <time>2021-07-22T06:58:05.000Z</time>
      </trkpt>
      <trkpt lat="47.27234" lon="-2.34051">
        <ele>31.200000762939</ele>
        <time>2021-07-22T06:58:06.000Z</time>
      </trkpt>
      <trkpt lat="47.27238" lon="-2.3405">
        <ele>31.60000038147</ele>
        <time>2021-07-22T06:58:07.000Z</time>
      </trkpt>
      <trkpt lat="47.27242" lon="-2.34049">
        <ele>32</ele>
        <time>2021-07-22T06:58:08.000Z</time>
      </trkpt>
      <trkpt lat="47.27245" lon="-2.34048">
        <ele>32.400001525879</ele>
        <time>2021-07-22T06:58:09.000Z</time>
      </trkpt>
      <trkpt lat="47.27249" lon="-2.34047">
        <ele>33</ele>
        <time>2021-07-22T06:58:10.000Z</time>
      </trkpt>
      <trkpt lat="47.27257" lon="-2.34048">
        <ele>33</ele>
        <time>2021-07-22T06:58:12.000Z</time>
      </trkpt>
      <trkpt lat="47.27271" lon="-2.34061">
        <ele>33</ele>
        <time>2021-07-22T06:58:16.000Z</time>
      </trkpt>
      <trkpt lat="47.27277" lon="-2.3408">
        <ele>33</ele>
        <time>2021-07-22T06:58:20.000Z</time>
      </trkpt>
      <trkpt lat="47.27282" lon="-2.34105">
        <ele>33</ele>
        <time>2021-07-22T06:58:24.000Z</time>
      </trkpt>
      <trkpt lat="47.27286" lon="-2.34117">
        <ele>33</ele>
        <time>2021-07-22T06:58:26.000Z</time>
      </trkpt>
      <trkpt lat="47.27289" lon="-2.34121">
        <ele>33</ele>
        <time>2021-07-22T06:58:27.000Z</time>
      </trkpt>
      <trkpt lat="47.27301" lon="-2.3413">
        <ele>33</ele>
        <time>2021-07-22T06:58:30.000Z</time>
      </trkpt>
      <trkpt lat="47.27305" lon="-2.34134">
        <ele>33</ele>
        <time>2021-07-22T06:58:31.000Z</time>
      </trkpt>
      <trkpt lat="47.27336" lon="-2.34152">
        <ele>33</ele>
        <time>2021-07-22T06:58:38.000Z</time>
      </trkpt>
      <trkpt lat="47.27375" lon="-2.34175">
        <ele>33</ele>
        <time>2021-07-22T06:58:47.000Z</time>
      </trkpt>
      <trkpt lat="47.27394" lon="-2.34196">
        <ele>33</ele>
        <time>2021-07-22T06:58:53.000Z</time>
      </trkpt>
      <trkpt lat="47.27397" lon="-2.34206">
        <ele>33</ele>
        <time>2021-07-22T06:58:55.000Z</time>
      </trkpt>
      <trkpt lat="47.27398" lon="-2.34213">
        <ele>33</ele>
        <time>2021-07-22T06:58:57.000Z</time>
      </trkpt>
      <trkpt lat="47.274" lon="-2.34217">
        <ele>33</ele>
        <time>2021-07-22T06:58:59.000Z</time>
      </trkpt>
      <trkpt lat="47.27402" lon="-2.34225">
        <ele>33</ele>
        <time>2021-07-22T06:59:01.000Z</time>
      </trkpt>
      <trkpt lat="47.27407" lon="-2.34238">
        <ele>33</ele>
        <time>2021-07-22T06:59:06.000Z</time>
      </trkpt>
      <trkpt lat="47.2741" lon="-2.34237">
        <ele>33</ele>
        <time>2021-07-22T06:59:08.000Z</time>
      </trkpt>
      <trkpt lat="47.27416" lon="-2.34235">
        <ele>33</ele>
        <time>2021-07-22T06:59:11.000Z</time>
      </trkpt>
      <trkpt lat="47.27422" lon="-2.34244">
        <ele>33</ele>
        <time>2021-07-22T06:59:15.000Z</time>
      </trkpt>
      <trkpt lat="47.27421" lon="-2.34285">
        <ele>33</ele>
        <time>2021-07-22T06:59:21.000Z</time>
      </trkpt>
      <trkpt lat="47.27419" lon="-2.34311">
        <ele>33</ele>
        <time>2021-07-22T06:59:25.000Z</time>
      </trkpt>
      <trkpt lat="47.27418" lon="-2.34325">
        <ele>33</ele>
        <time>2021-07-22T06:59:27.000Z</time>
      </trkpt>
      <trkpt lat="47.27418" lon="-2.34347">
        <ele>33</ele>
        <time>2021-07-22T06:59:30.000Z</time>
      </trkpt>
      <trkpt lat="47.27417" lon="-2.34363">
        <ele>33.400001525879</ele>
        <time>2021-07-22T06:59:32.000Z</time>
      </trkpt>
      <trkpt lat="47.27417" lon="-2.34369">
        <ele>33.799999237061</ele>
        <time>2021-07-22T06:59:33.000Z</time>
      </trkpt>
      <trkpt lat="47.27418" lon="-2.34375">
        <ele>34.200000762939</ele>
        <time>2021-07-22T06:59:34.000Z</time>
      </trkpt>
      <trkpt lat="47.27419" lon="-2.34382">
        <ele>34.599998474121</ele>
        <time>2021-07-22T06:59:35.000Z</time>
      </trkpt>
      <trkpt lat="47.27421" lon="-2.34388">
        <ele>35</ele>
        <time>2021-07-22T06:59:36.000Z</time>
      </trkpt>
      <trkpt lat="47.27423" lon="-2.34407">
        <ele>35</ele>
        <time>2021-07-22T06:59:39.000Z</time>
      </trkpt>
      <trkpt lat="47.27425" lon="-2.34457">
        <ele>35</ele>
        <time>2021-07-22T06:59:46.000Z</time>
      </trkpt>
      <trkpt lat="47.2743" lon="-2.34508">
        <ele>35</ele>
        <time>2021-07-22T06:59:54.000Z</time>
      </trkpt>
      <trkpt lat="47.27432" lon="-2.34518">
        <ele>35.400001525879</ele>
        <time>2021-07-22T06:59:56.000Z</time>
      </trkpt>
      <trkpt lat="47.27433" lon="-2.34522">
        <ele>35.799999237061</ele>
        <time>2021-07-22T06:59:57.000Z</time>
      </trkpt>
      <trkpt lat="47.27434" lon="-2.34527">
        <ele>36.200000762939</ele>
        <time>2021-07-22T06:59:58.000Z</time>
      </trkpt>
      <trkpt lat="47.27436" lon="-2.34531">
        <ele>36.599998474121</ele>
        <time>2021-07-22T06:59:59.000Z</time>
      </trkpt>
      <trkpt lat="47.27437" lon="-2.34536">
        <ele>37</ele>
        <time>2021-07-22T07:00:00.000Z</time>
      </trkpt>
      <trkpt lat="47.27445" lon="-2.34569">
        <ele>37</ele>
        <time>2021-07-22T07:00:06.000Z</time>
      </trkpt>
      <trkpt lat="47.27451" lon="-2.34595">
        <ele>37</ele>
        <time>2021-07-22T07:00:10.000Z</time>
      </trkpt>
      <trkpt lat="47.27454" lon="-2.34608">
        <ele>37</ele>
        <time>2021-07-22T07:00:12.000Z</time>
      </trkpt>
      <trkpt lat="47.27454" lon="-2.34616">
        <ele>37</ele>
        <time>2021-07-22T07:00:13.000Z</time>
      </trkpt>
      <trkpt lat="47.27457" lon="-2.34647">
        <ele>37</ele>
        <time>2021-07-22T07:00:17.000Z</time>
      </trkpt>
      <trkpt lat="47.27458" lon="-2.34668">
        <ele>37</ele>
        <time>2021-07-22T07:00:20.000Z</time>
      </trkpt>
      <trkpt lat="47.2746" lon="-2.3469">
        <ele>37</ele>
        <time>2021-07-22T07:00:23.000Z</time>
      </trkpt>
      <trkpt lat="47.27469" lon="-2.34695">
        <ele>37</ele>
        <time>2021-07-22T07:00:26.000Z</time>
      </trkpt>
      <trkpt lat="47.27489" lon="-2.34685">
        <ele>37</ele>
        <time>2021-07-22T07:00:30.000Z</time>
      </trkpt>
      <trkpt lat="47.27495" lon="-2.34683">
        <ele>37</ele>
        <time>2021-07-22T07:00:31.000Z</time>
      </trkpt>
      <trkpt lat="47.27522" lon="-2.34677">
        <ele>37</ele>
        <time>2021-07-22T07:00:36.000Z</time>
      </trkpt>
      <trkpt lat="47.27544" lon="-2.34671">
        <ele>37</ele>
        <time>2021-07-22T07:00:40.000Z</time>
      </trkpt>
      <trkpt lat="47.27558" lon="-2.34664">
        <ele>37</ele>
        <time>2021-07-22T07:00:43.000Z</time>
      </trkpt>
      <trkpt lat="47.27572" lon="-2.34655">
        <ele>37</ele>
        <time>2021-07-22T07:00:46.000Z</time>
      </trkpt>
      <trkpt lat="47.2759" lon="-2.34638">
        <ele>37</ele>
        <time>2021-07-22T07:00:50.000Z</time>
      </trkpt>
      <trkpt lat="47.27634" lon="-2.34595">
        <ele>37</ele>
        <time>2021-07-22T07:01:00.000Z</time>
      </trkpt>
      <trkpt lat="47.27666" lon="-2.34562">
        <ele>37</ele>
        <time>2021-07-22T07:01:08.000Z</time>
      </trkpt>
      <trkpt lat="47.2767" lon="-2.34559">
        <ele>37</ele>
        <time>2021-07-22T07:01:09.000Z</time>
      </trkpt>
      <trkpt lat="47.2768" lon="-2.34561">
        <ele>37</ele>
        <time>2021-07-22T07:01:12.000Z</time>
      </trkpt>
      <trkpt lat="47.27682" lon="-2.34563">
        <ele>37</ele>
        <time>2021-07-22T07:01:13.000Z</time>
      </trkpt>
      <trkpt lat="47.27682" lon="-2.34565">
        <ele>37</ele>
        <time>2021-07-22T07:01:14.000Z</time>
      </trkpt>
      <trkpt lat="47.27687" lon="-2.34578">
        <ele>37</ele>
        <time>2021-07-22T07:01:17.000Z</time>
      </trkpt>
      <trkpt lat="47.27695" lon="-2.34602">
        <ele>37</ele>
        <time>2021-07-22T07:01:21.000Z</time>
      </trkpt>
      <trkpt lat="47.27696" lon="-2.34609">
        <ele>37</ele>
        <time>2021-07-22T07:01:22.000Z</time>
      </trkpt>
      <trkpt lat="47.27694" lon="-2.34633">
        <ele>37</ele>
        <time>2021-07-22T07:01:25.000Z</time>
      </trkpt>
      <trkpt lat="47.27695" lon="-2.34655">
        <ele>37</ele>
        <time>2021-07-22T07:01:28.000Z</time>
      </trkpt>
      <trkpt lat="47.27698" lon="-2.34668">
        <ele>37</ele>
        <time>2021-07-22T07:01:30.000Z</time>
      </trkpt>
      <trkpt lat="47.27697" lon="-2.34676">
        <ele>37</ele>
        <time>2021-07-22T07:01:32.000Z</time>
      </trkpt>
      <trkpt lat="47.27699" lon="-2.3468">
        <ele>37</ele>
        <time>2021-07-22T07:01:33.000Z</time>
      </trkpt>
      <trkpt lat="47.27702" lon="-2.34697">
        <ele>37</ele>
        <time>2021-07-22T07:01:36.000Z</time>
      </trkpt>
      <trkpt lat="47.27704" lon="-2.34702">
        <ele>37</ele>
        <time>2021-07-22T07:01:37.000Z</time>
      </trkpt>
      <trkpt lat="47.2772" lon="-2.3474">
        <ele>37</ele>
        <time>2021-07-22T07:01:43.000Z</time>
      </trkpt>
      <trkpt lat="47.27747" lon="-2.34794">
        <ele>37</ele>
        <time>2021-07-22T07:01:51.000Z</time>
      </trkpt>
      <trkpt lat="47.27766" lon="-2.34832">
        <ele>37</ele>
        <time>2021-07-22T07:01:57.000Z</time>
      </trkpt>
      <trkpt lat="47.27768" lon="-2.34839">
        <ele>37</ele>
        <time>2021-07-22T07:01:58.000Z</time>
      </trkpt>
      <trkpt lat="47.27776" lon="-2.34858">
        <ele>37</ele>
        <time>2021-07-22T07:02:01.000Z</time>
      </trkpt>
      <trkpt lat="47.27783" lon="-2.34867">
        <ele>37</ele>
        <time>2021-07-22T07:02:03.000Z</time>
      </trkpt>
      <trkpt lat="47.27786" lon="-2.34868">
        <ele>36.599998474121</ele>
        <time>2021-07-22T07:02:05.000Z</time>
      </trkpt>
      <trkpt lat="47.27787" lon="-2.34868">
        <ele>36</ele>
        <time>2021-07-22T07:02:06.000Z</time>
      </trkpt>
      <trkpt lat="47.27788" lon="-2.34869">
        <ele>35.599998474121</ele>
        <time>2021-07-22T07:02:07.000Z</time>
      </trkpt>
      <trkpt lat="47.27789" lon="-2.34871">
        <ele>35.200000762939</ele>
        <time>2021-07-22T07:02:08.000Z</time>
      </trkpt>
      <trkpt lat="47.27791" lon="-2.34873">
        <ele>34.599998474121</ele>
        <time>2021-07-22T07:02:09.000Z</time>
      </trkpt>
      <trkpt lat="47.27794" lon="-2.34877">
        <ele>34.599998474121</ele>
        <time>2021-07-22T07:02:10.000Z</time>
      </trkpt>
      <trkpt lat="47.27802" lon="-2.34884">
        <ele>34.599998474121</ele>
        <time>2021-07-22T07:02:12.000Z</time>
      </trkpt>
      <trkpt lat="47.27811" lon="-2.34889">
        <ele>34.599998474121</ele>
        <time>2021-07-22T07:02:14.000Z</time>
      </trkpt>
      <trkpt lat="47.27824" lon="-2.349">
        <ele>34.599998474121</ele>
        <time>2021-07-22T07:02:17.000Z</time>
      </trkpt>
      <trkpt lat="47.27836" lon="-2.34913">
        <ele>34.599998474121</ele>
        <time>2021-07-22T07:02:20.000Z</time>
      </trkpt>
      <trkpt lat="47.27866" lon="-2.34949">
        <ele>34.599998474121</ele>
        <time>2021-07-22T07:02:28.000Z</time>
      </trkpt>
      <trkpt lat="47.27873" lon="-2.34959">
        <ele>34.599998474121</ele>
        <time>2021-07-22T07:02:30.000Z</time>
      </trkpt>
      <trkpt lat="47.27884" lon="-2.34984">
        <ele>34.599998474121</ele>
        <time>2021-07-22T07:02:34.000Z</time>
      </trkpt>
      <trkpt lat="47.27895" lon="-2.35012">
        <ele>34.599998474121</ele>
        <time>2021-07-22T07:02:38.000Z</time>
      </trkpt>
      <trkpt lat="47.27902" lon="-2.35036">
        <ele>34.599998474121</ele>
        <time>2021-07-22T07:02:41.000Z</time>
      </trkpt>
      <trkpt lat="47.27908" lon="-2.35088">
        <ele>34.599998474121</ele>
        <time>2021-07-22T07:02:47.000Z</time>
      </trkpt>
      <trkpt lat="47.27911" lon="-2.35146">
        <ele>34.599998474121</ele>
        <time>2021-07-22T07:02:53.000Z</time>
      </trkpt>
      <trkpt lat="47.27914" lon="-2.35207">
        <ele>34.599998474121</ele>
        <time>2021-07-22T07:02:59.000Z</time>
      </trkpt>
      <trkpt lat="47.27923" lon="-2.3527">
        <ele>34.599998474121</ele>
        <time>2021-07-22T07:03:06.000Z</time>
      </trkpt>
      <trkpt lat="47.2793" lon="-2.35301">
        <ele>34.599998474121</ele>
        <time>2021-07-22T07:03:10.000Z</time>
      </trkpt>
      <trkpt lat="47.27933" lon="-2.35316">
        <ele>34.599998474121</ele>
        <time>2021-07-22T07:03:12.000Z</time>
      </trkpt>
      <trkpt lat="47.27929" lon="-2.35339">
        <ele>34.599998474121</ele>
        <time>2021-07-22T07:03:15.000Z</time>
      </trkpt>
      <trkpt lat="47.27929" lon="-2.35371">
        <ele>34.599998474121</ele>
        <time>2021-07-22T07:03:19.000Z</time>
      </trkpt>
      <trkpt lat="47.27932" lon="-2.35405">
        <ele>34.599998474121</ele>
        <time>2021-07-22T07:03:23.000Z</time>
      </trkpt>
      <trkpt lat="47.27938" lon="-2.3542">
        <ele>34.599998474121</ele>
        <time>2021-07-22T07:03:25.000Z</time>
      </trkpt>
      <trkpt lat="47.27949" lon="-2.35438">
        <ele>34.599998474121</ele>
        <time>2021-07-22T07:03:28.000Z</time>
      </trkpt>
      <trkpt lat="47.27952" lon="-2.35444">
        <ele>34.599998474121</ele>
        <time>2021-07-22T07:03:29.000Z</time>
      </trkpt>
      <trkpt lat="47.27954" lon="-2.35451">
        <ele>34.599998474121</ele>
        <time>2021-07-22T07:03:30.000Z</time>
      </trkpt>
      <trkpt lat="47.27962" lon="-2.35468">
        <ele>34.599998474121</ele>
        <time>2021-07-22T07:03:33.000Z</time>
      </trkpt>
      <trkpt lat="47.27979" lon="-2.35486">
        <ele>34.599998474121</ele>
        <time>2021-07-22T07:03:37.000Z</time>
      </trkpt>
      <trkpt lat="47.27983" lon="-2.35492">
        <ele>34.200000762939</ele>
        <time>2021-07-22T07:03:38.000Z</time>
      </trkpt>
      <trkpt lat="47.27986" lon="-2.35498">
        <ele>33.799999237061</ele>
        <time>2021-07-22T07:03:39.000Z</time>
      </trkpt>
      <trkpt lat="47.27989" lon="-2.35505">
        <ele>33.400001525879</ele>
        <time>2021-07-22T07:03:40.000Z</time>
      </trkpt>
      <trkpt lat="47.27992" lon="-2.35511">
        <ele>33</ele>
        <time>2021-07-22T07:03:41.000Z</time>
      </trkpt>
      <trkpt lat="47.27995" lon="-2.35517">
        <ele>32.599998474121</ele>
        <time>2021-07-22T07:03:42.000Z</time>
      </trkpt>
      <trkpt lat="47.27998" lon="-2.35523">
        <ele>32.599998474121</ele>
        <time>2021-07-22T07:03:43.000Z</time>
      </trkpt>
      <trkpt lat="47.28006" lon="-2.35547">
        <ele>32.599998474121</ele>
        <time>2021-07-22T07:03:48.000Z</time>
      </trkpt>
      <trkpt lat="47.28009" lon="-2.35549">
        <ele>32.599998474121</ele>
        <time>2021-07-22T07:03:49.000Z</time>
      </trkpt>
      <trkpt lat="47.28012" lon="-2.3555">
        <ele>33</ele>
        <time>2021-07-22T07:03:50.000Z</time>
      </trkpt>
      <trkpt lat="47.28015" lon="-2.35551">
        <ele>33.400001525879</ele>
        <time>2021-07-22T07:03:51.000Z</time>
      </trkpt>
      <trkpt lat="47.28018" lon="-2.3555">
        <ele>33.799999237061</ele>
        <time>2021-07-22T07:03:52.000Z</time>
      </trkpt>
      <trkpt lat="47.28021" lon="-2.3555">
        <ele>34.400001525879</ele>
        <time>2021-07-22T07:03:53.000Z</time>
      </trkpt>
      <trkpt lat="47.28025" lon="-2.35548">
        <ele>34.799999237061</ele>
        <time>2021-07-22T07:03:54.000Z</time>
      </trkpt>
      <trkpt lat="47.28042" lon="-2.35547">
        <ele>34.799999237061</ele>
        <time>2021-07-22T07:03:59.000Z</time>
      </trkpt>
      <trkpt lat="47.2805" lon="-2.35548">
        <ele>34.799999237061</ele>
        <time>2021-07-22T07:04:02.000Z</time>
      </trkpt>
      <trkpt lat="47.28052" lon="-2.35553">
        <ele>34.799999237061</ele>
        <time>2021-07-22T07:04:04.000Z</time>
      </trkpt>
      <trkpt lat="47.2805" lon="-2.35563">
        <ele>34.799999237061</ele>
        <time>2021-07-22T07:04:07.000Z</time>
      </trkpt>
      <trkpt lat="47.28049" lon="-2.35567">
        <ele>34.799999237061</ele>
        <time>2021-07-22T07:04:08.000Z</time>
      </trkpt>
      <trkpt lat="47.28053" lon="-2.35577">
        <ele>34.799999237061</ele>
        <time>2021-07-22T07:04:11.000Z</time>
      </trkpt>
      <trkpt lat="47.28062" lon="-2.35583">
        <ele>35.599998474121</ele>
        <time>2021-07-22T07:04:14.000Z</time>
      </trkpt>
      <trkpt lat="47.28064" lon="-2.35584">
        <ele>36</ele>
        <time>2021-07-22T07:04:15.000Z</time>
      </trkpt>
      <trkpt lat="47.28067" lon="-2.35587">
        <ele>36.400001525879</ele>
        <time>2021-07-22T07:04:16.000Z</time>
      </trkpt>
      <trkpt lat="47.28069" lon="-2.3559">
        <ele>37</ele>
        <time>2021-07-22T07:04:17.000Z</time>
      </trkpt>
      <trkpt lat="47.28077" lon="-2.35604">
        <ele>37</ele>
        <time>2021-07-22T07:04:21.000Z</time>
      </trkpt>
      <trkpt lat="47.28079" lon="-2.35608">
        <ele>37</ele>
        <time>2021-07-22T07:04:22.000Z</time>
      </trkpt>
      <trkpt lat="47.28086" lon="-2.35621">
        <ele>37</ele>
        <time>2021-07-22T07:04:27.000Z</time>
      </trkpt>
      <trkpt lat="47.28088" lon="-2.35627">
        <ele>37</ele>
        <time>2021-07-22T07:04:32.000Z</time>
      </trkpt>
      <trkpt lat="47.28089" lon="-2.35626">
        <ele>39</ele>
        <time>2021-07-22T07:07:55.000Z</time>
      </trkpt>
      <trkpt lat="47.28082" lon="-2.35612">
        <ele>39</ele>
        <time>2021-07-22T07:08:02.000Z</time>
      </trkpt>
      <trkpt lat="47.28074" lon="-2.35607">
        <ele>39</ele>
        <time>2021-07-22T07:08:07.000Z</time>
      </trkpt>
      <trkpt lat="47.28072" lon="-2.35609">
        <ele>39</ele>
        <time>2021-07-22T07:08:09.000Z</time>
      </trkpt>
      <trkpt lat="47.2807" lon="-2.35611">
        <ele>39</ele>
        <time>2021-07-22T07:08:11.000Z</time>
      </trkpt>
      <trkpt lat="47.28066" lon="-2.35613">
        <ele>39</ele>
        <time>2021-07-22T07:08:14.000Z</time>
      </trkpt>
      <trkpt lat="47.28054" lon="-2.35606">
        <ele>39</ele>
        <time>2021-07-22T07:08:19.000Z</time>
      </trkpt>
      <trkpt lat="47.28048" lon="-2.35607">
        <ele>39</ele>
        <time>2021-07-22T07:08:21.000Z</time>
      </trkpt>
      <trkpt lat="47.28037" lon="-2.35605">
        <ele>39</ele>
        <time>2021-07-22T07:08:25.000Z</time>
      </trkpt>
      <trkpt lat="47.28026" lon="-2.35598">
        <ele>39</ele>
        <time>2021-07-22T07:08:31.000Z</time>
      </trkpt>
      <trkpt lat="47.28029" lon="-2.3558">
        <ele>39</ele>
        <time>2021-07-22T07:08:35.000Z</time>
      </trkpt>
      <trkpt lat="47.28028" lon="-2.35564">
        <ele>39</ele>
        <time>2021-07-22T07:08:39.000Z</time>
      </trkpt>
      <trkpt lat="47.28027" lon="-2.35563">
        <ele>39</ele>
        <time>2021-07-22T07:08:40.000Z</time>
      </trkpt>
      <trkpt lat="47.28027" lon="-2.35563">
        <ele>39</ele>
        <time>2021-07-22T07:08:41.000Z</time>
      </trkpt>
      <trkpt lat="47.28026" lon="-2.35561">
        <ele>39</ele>
        <time>2021-07-22T07:09:09.000Z</time>
      </trkpt>
      <trkpt lat="47.28022" lon="-2.35557">
        <ele>39</ele>
        <time>2021-07-22T07:09:11.000Z</time>
      </trkpt>
      <trkpt lat="47.28011" lon="-2.35552">
        <ele>39</ele>
        <time>2021-07-22T07:09:15.000Z</time>
      </trkpt>
      <trkpt lat="47.28006" lon="-2.35536">
        <ele>39</ele>
        <time>2021-07-22T07:09:19.000Z</time>
      </trkpt>
      <trkpt lat="47.27995" lon="-2.35511">
        <ele>39</ele>
        <time>2021-07-22T07:09:23.000Z</time>
      </trkpt>
      <trkpt lat="47.2799" lon="-2.35503">
        <ele>39</ele>
        <time>2021-07-22T07:09:24.000Z</time>
      </trkpt>
      <trkpt lat="47.27981" lon="-2.35488">
        <ele>39</ele>
        <time>2021-07-22T07:09:26.000Z</time>
      </trkpt>
      <trkpt lat="47.27978" lon="-2.35481">
        <ele>38.400001525879</ele>
        <time>2021-07-22T07:09:27.000Z</time>
      </trkpt>
      <trkpt lat="47.27976" lon="-2.35473">
        <ele>38</ele>
        <time>2021-07-22T07:09:28.000Z</time>
      </trkpt>
      <trkpt lat="47.27976" lon="-2.35466">
        <ele>37.599998474121</ele>
        <time>2021-07-22T07:09:29.000Z</time>
      </trkpt>
      <trkpt lat="47.27979" lon="-2.35463">
        <ele>37.200000762939</ele>
        <time>2021-07-22T07:09:30.000Z</time>
      </trkpt>
      <trkpt lat="47.27982" lon="-2.35461">
        <ele>36.599998474121</ele>
        <time>2021-07-22T07:09:31.000Z</time>
      </trkpt>
      <trkpt lat="47.27991" lon="-2.35459">
        <ele>36.599998474121</ele>
        <time>2021-07-22T07:09:33.000Z</time>
      </trkpt>
      <trkpt lat="47.27995" lon="-2.35458">
        <ele>36.599998474121</ele>
        <time>2021-07-22T07:09:34.000Z</time>
      </trkpt>
      <trkpt lat="47.28004" lon="-2.35457">
        <ele>36.599998474121</ele>
        <time>2021-07-22T07:09:36.000Z</time>
      </trkpt>
      <trkpt lat="47.28018" lon="-2.35459">
        <ele>36.599998474121</ele>
        <time>2021-07-22T07:09:39.000Z</time>
      </trkpt>
      <trkpt lat="47.2805" lon="-2.35478">
        <ele>36.599998474121</ele>
        <time>2021-07-22T07:09:46.000Z</time>
      </trkpt>
      <trkpt lat="47.28054" lon="-2.35481">
        <ele>36.599998474121</ele>
        <time>2021-07-22T07:09:47.000Z</time>
      </trkpt>
      <trkpt lat="47.28067" lon="-2.35484">
        <ele>36.599998474121</ele>
        <time>2021-07-22T07:09:50.000Z</time>
      </trkpt>
      <trkpt lat="47.28083" lon="-2.3548">
        <ele>36.599998474121</ele>
        <time>2021-07-22T07:09:54.000Z</time>
      </trkpt>
      <trkpt lat="47.28088" lon="-2.35479">
        <ele>37.200000762939</ele>
        <time>2021-07-22T07:09:55.000Z</time>
      </trkpt>
      <trkpt lat="47.28093" lon="-2.35477">
        <ele>37.599998474121</ele>
        <time>2021-07-22T07:09:56.000Z</time>
      </trkpt>
      <trkpt lat="47.28097" lon="-2.35475">
        <ele>38</ele>
        <time>2021-07-22T07:09:57.000Z</time>
      </trkpt>
      <trkpt lat="47.28102" lon="-2.35473">
        <ele>38.400001525879</ele>
        <time>2021-07-22T07:09:58.000Z</time>
      </trkpt>
      <trkpt lat="47.28106" lon="-2.35471">
        <ele>38.799999237061</ele>
        <time>2021-07-22T07:09:59.000Z</time>
      </trkpt>
      <trkpt lat="47.28124" lon="-2.35463">
        <ele>38.799999237061</ele>
        <time>2021-07-22T07:10:03.000Z</time>
      </trkpt>
      <trkpt lat="47.2815" lon="-2.35453">
        <ele>38.799999237061</ele>
        <time>2021-07-22T07:10:09.000Z</time>
      </trkpt>
      <trkpt lat="47.28163" lon="-2.35448">
        <ele>39.200000762939</ele>
        <time>2021-07-22T07:10:12.000Z</time>
      </trkpt>
      <trkpt lat="47.28168" lon="-2.35446">
        <ele>39.799999237061</ele>
        <time>2021-07-22T07:10:13.000Z</time>
      </trkpt>
      <trkpt lat="47.28172" lon="-2.35444">
        <ele>40.200000762939</ele>
        <time>2021-07-22T07:10:14.000Z</time>
      </trkpt>
      <trkpt lat="47.28177" lon="-2.35442">
        <ele>40.599998474121</ele>
        <time>2021-07-22T07:10:15.000Z</time>
      </trkpt>
      <trkpt lat="47.28181" lon="-2.3544">
        <ele>41</ele>
        <time>2021-07-22T07:10:16.000Z</time>
      </trkpt>
      <trkpt lat="47.28186" lon="-2.35439">
        <ele>41</ele>
        <time>2021-07-22T07:10:17.000Z</time>
      </trkpt>
      <trkpt lat="47.28211" lon="-2.35427">
        <ele>41</ele>
        <time>2021-07-22T07:10:23.000Z</time>
      </trkpt>
      <trkpt lat="47.28229" lon="-2.35408">
        <ele>41</ele>
        <time>2021-07-22T07:10:29.000Z</time>
      </trkpt>
      <trkpt lat="47.28238" lon="-2.35403">
        <ele>41</ele>
        <time>2021-07-22T07:10:34.000Z</time>
      </trkpt>
      <trkpt lat="47.28245" lon="-2.35407">
        <ele>41</ele>
        <time>2021-07-22T07:10:38.000Z</time>
      </trkpt>
      <trkpt lat="47.28248" lon="-2.35402">
        <ele>41</ele>
        <time>2021-07-22T07:10:40.000Z</time>
      </trkpt>
      <trkpt lat="47.2825" lon="-2.35401">
        <ele>41</ele>
        <time>2021-07-22T07:10:41.000Z</time>
      </trkpt>
      <trkpt lat="47.28252" lon="-2.35401">
        <ele>41</ele>
        <time>2021-07-22T07:10:42.000Z</time>
      </trkpt>
      <trkpt lat="47.28264" lon="-2.35401">
        <ele>41</ele>
        <time>2021-07-22T07:10:48.000Z</time>
      </trkpt>
      <trkpt lat="47.28267" lon="-2.354">
        <ele>41.400001525879</ele>
        <time>2021-07-22T07:10:49.000Z</time>
      </trkpt>
      <trkpt lat="47.28269" lon="-2.35399">
        <ele>42.200000762939</ele>
        <time>2021-07-22T07:10:50.000Z</time>
      </trkpt>
      <trkpt lat="47.28272" lon="-2.35398">
        <ele>42.599998474121</ele>
        <time>2021-07-22T07:10:51.000Z</time>
      </trkpt>
      <trkpt lat="47.28274" lon="-2.35397">
        <ele>43</ele>
        <time>2021-07-22T07:10:52.000Z</time>
      </trkpt>
      <trkpt lat="47.28281" lon="-2.35384">
        <ele>43</ele>
        <time>2021-07-22T07:10:56.000Z</time>
      </trkpt>
      <trkpt lat="47.28295" lon="-2.35364">
        <ele>43</ele>
        <time>2021-07-22T07:11:01.000Z</time>
      </trkpt>
      <trkpt lat="47.28316" lon="-2.35349">
        <ele>43</ele>
        <time>2021-07-22T07:11:07.000Z</time>
      </trkpt>
      <trkpt lat="47.28336" lon="-2.35337">
        <ele>43</ele>
        <time>2021-07-22T07:11:13.000Z</time>
      </trkpt>
      <trkpt lat="47.28354" lon="-2.35329">
        <ele>43</ele>
        <time>2021-07-22T07:11:19.000Z</time>
      </trkpt>
      <trkpt lat="47.28356" lon="-2.35332">
        <ele>43</ele>
        <time>2021-07-22T07:11:20.000Z</time>
      </trkpt>
      <trkpt lat="47.2836" lon="-2.35341">
        <ele>43</ele>
        <time>2021-07-22T07:11:23.000Z</time>
      </trkpt>
      <trkpt lat="47.28362" lon="-2.35344">
        <ele>43</ele>
        <time>2021-07-22T07:11:24.000Z</time>
      </trkpt>
      <trkpt lat="47.28364" lon="-2.35354">
        <ele>43.400001525879</ele>
        <time>2021-07-22T07:11:28.000Z</time>
      </trkpt>
      <trkpt lat="47.28365" lon="-2.35357">
        <ele>43.799999237061</ele>
        <time>2021-07-22T07:11:29.000Z</time>
      </trkpt>
      <trkpt lat="47.28365" lon="-2.3536">
        <ele>44.400001525879</ele>
        <time>2021-07-22T07:11:30.000Z</time>
      </trkpt>
      <trkpt lat="47.28366" lon="-2.35362">
        <ele>44.799999237061</ele>
        <time>2021-07-22T07:11:31.000Z</time>
      </trkpt>
      <trkpt lat="47.28367" lon="-2.35365">
        <ele>45.200000762939</ele>
        <time>2021-07-22T07:11:32.000Z</time>
      </trkpt>
      <trkpt lat="47.2837" lon="-2.35374">
        <ele>45.599998474121</ele>
        <time>2021-07-22T07:11:35.000Z</time>
      </trkpt>
      <trkpt lat="47.28371" lon="-2.35376">
        <ele>46</ele>
        <time>2021-07-22T07:11:36.000Z</time>
      </trkpt>
      <trkpt lat="47.28371" lon="-2.35378">
        <ele>46.400001525879</ele>
        <time>2021-07-22T07:11:37.000Z</time>
      </trkpt>
      <trkpt lat="47.28372" lon="-2.35381">
        <ele>46.799999237061</ele>
        <time>2021-07-22T07:11:38.000Z</time>
      </trkpt>
      <trkpt lat="47.28373" lon="-2.35383">
        <ele>47.599998474121</ele>
        <time>2021-07-22T07:11:39.000Z</time>
      </trkpt>
      <trkpt lat="47.28374" lon="-2.35385">
        <ele>48</ele>
        <time>2021-07-22T07:11:40.000Z</time>
      </trkpt>
      <trkpt lat="47.28375" lon="-2.35388">
        <ele>48.400001525879</ele>
        <time>2021-07-22T07:11:41.000Z</time>
      </trkpt>
      <trkpt lat="47.28375" lon="-2.3539">
        <ele>48.799999237061</ele>
        <time>2021-07-22T07:11:42.000Z</time>
      </trkpt>
      <trkpt lat="47.28376" lon="-2.35392">
        <ele>49.200000762939</ele>
        <time>2021-07-22T07:11:43.000Z</time>
      </trkpt>
      <trkpt lat="47.28377" lon="-2.35396">
        <ele>49.799999237061</ele>
        <time>2021-07-22T07:11:45.000Z</time>
      </trkpt>
      <trkpt lat="47.28378" lon="-2.35398">
        <ele>50.200000762939</ele>
        <time>2021-07-22T07:11:46.000Z</time>
      </trkpt>
      <trkpt lat="47.28379" lon="-2.354">
        <ele>50.599998474121</ele>
        <time>2021-07-22T07:11:47.000Z</time>
      </trkpt>
      <trkpt lat="47.28381" lon="-2.35402">
        <ele>51.200000762939</ele>
        <time>2021-07-22T07:11:48.000Z</time>
      </trkpt>
      <trkpt lat="47.28383" lon="-2.35403">
        <ele>51.599998474121</ele>
        <time>2021-07-22T07:11:49.000Z</time>
      </trkpt>
      <trkpt lat="47.28388" lon="-2.35409">
        <ele>51.599998474121</ele>
        <time>2021-07-22T07:11:52.000Z</time>
      </trkpt>
      <trkpt lat="47.28389" lon="-2.3541">
        <ele>52</ele>
        <time>2021-07-22T07:11:53.000Z</time>
      </trkpt>
      <trkpt lat="47.2839" lon="-2.35411">
        <ele>52.400001525879</ele>
        <time>2021-07-22T07:11:54.000Z</time>
      </trkpt>
      <trkpt lat="47.2839" lon="-2.35413">
        <ele>52.799999237061</ele>
        <time>2021-07-22T07:11:55.000Z</time>
      </trkpt>
      <trkpt lat="47.28391" lon="-2.35414">
        <ele>53.200000762939</ele>
        <time>2021-07-22T07:11:56.000Z</time>
      </trkpt>
      <trkpt lat="47.28392" lon="-2.35415">
        <ele>53.799999237061</ele>
        <time>2021-07-22T07:11:57.000Z</time>
      </trkpt>
      <trkpt lat="47.28393" lon="-2.35416">
        <ele>53.799999237061</ele>
        <time>2021-07-22T07:11:58.000Z</time>
      </trkpt>
      <trkpt lat="47.28403" lon="-2.35426">
        <ele>53.799999237061</ele>
        <time>2021-07-22T07:12:07.000Z</time>
      </trkpt>
      <trkpt lat="47.28411" lon="-2.35421">
        <ele>53.799999237061</ele>
        <time>2021-07-22T07:12:12.000Z</time>
      </trkpt>
      <trkpt lat="47.28418" lon="-2.35414">
        <ele>53.799999237061</ele>
        <time>2021-07-22T07:12:17.000Z</time>
      </trkpt>
      <trkpt lat="47.28422" lon="-2.35412">
        <ele>54.200000762939</ele>
        <time>2021-07-22T07:12:19.000Z</time>
      </trkpt>
      <trkpt lat="47.28423" lon="-2.35411">
        <ele>54.599998474121</ele>
        <time>2021-07-22T07:12:20.000Z</time>
      </trkpt>
      <trkpt lat="47.28424" lon="-2.3541">
        <ele>55</ele>
        <time>2021-07-22T07:12:21.000Z</time>
      </trkpt>
      <trkpt lat="47.28426" lon="-2.3541">
        <ele>55.400001525879</ele>
        <time>2021-07-22T07:12:22.000Z</time>
      </trkpt>
      <trkpt lat="47.28428" lon="-2.35409">
        <ele>55.799999237061</ele>
        <time>2021-07-22T07:12:23.000Z</time>
      </trkpt>
      <trkpt lat="47.28434" lon="-2.35408">
        <ele>55.799999237061</ele>
        <time>2021-07-22T07:12:29.000Z</time>
      </trkpt>
      <trkpt lat="47.28435" lon="-2.35405">
        <ele>55.400001525879</ele>
        <time>2021-07-22T07:12:30.000Z</time>
      </trkpt>
      <trkpt lat="47.28436" lon="-2.35403">
        <ele>55</ele>
        <time>2021-07-22T07:12:31.000Z</time>
      </trkpt>
      <trkpt lat="47.28437" lon="-2.35401">
        <ele>54.599998474121</ele>
        <time>2021-07-22T07:12:32.000Z</time>
      </trkpt>
      <trkpt lat="47.28439" lon="-2.35398">
        <ele>54.200000762939</ele>
        <time>2021-07-22T07:12:33.000Z</time>
      </trkpt>
      <trkpt lat="47.2844" lon="-2.35392">
        <ele>53.799999237061</ele>
        <time>2021-07-22T07:12:34.000Z</time>
      </trkpt>
      <trkpt lat="47.28441" lon="-2.35388">
        <ele>53.200000762939</ele>
        <time>2021-07-22T07:12:35.000Z</time>
      </trkpt>
      <trkpt lat="47.28442" lon="-2.35381">
        <ele>52.799999237061</ele>
        <time>2021-07-22T07:12:36.000Z</time>
      </trkpt>
      <trkpt lat="47.28445" lon="-2.35373">
        <ele>52.400001525879</ele>
        <time>2021-07-22T07:12:37.000Z</time>
      </trkpt>
      <trkpt lat="47.28446" lon="-2.35364">
        <ele>52</ele>
        <time>2021-07-22T07:12:38.000Z</time>
      </trkpt>
      <trkpt lat="47.28449" lon="-2.35356">
        <ele>51.400001525879</ele>
        <time>2021-07-22T07:12:39.000Z</time>
      </trkpt>
      <trkpt lat="47.28453" lon="-2.35348">
        <ele>50.799999237061</ele>
        <time>2021-07-22T07:12:40.000Z</time>
      </trkpt>
      <trkpt lat="47.28455" lon="-2.35344">
        <ele>50.200000762939</ele>
        <time>2021-07-22T07:12:41.000Z</time>
      </trkpt>
      <trkpt lat="47.28458" lon="-2.35343">
        <ele>49.599998474121</ele>
        <time>2021-07-22T07:12:42.000Z</time>
      </trkpt>
      <trkpt lat="47.28461" lon="-2.35343">
        <ele>49</ele>
        <time>2021-07-22T07:12:43.000Z</time>
      </trkpt>
      <trkpt lat="47.28468" lon="-2.35348">
        <ele>48.599998474121</ele>
        <time>2021-07-22T07:12:45.000Z</time>
      </trkpt>
      <trkpt lat="47.28471" lon="-2.35352">
        <ele>48.200000762939</ele>
        <time>2021-07-22T07:12:46.000Z</time>
      </trkpt>
      <trkpt lat="47.28474" lon="-2.35356">
        <ele>47.799999237061</ele>
        <time>2021-07-22T07:12:47.000Z</time>
      </trkpt>
      <trkpt lat="47.28476" lon="-2.3536">
        <ele>47.400001525879</ele>
        <time>2021-07-22T07:12:48.000Z</time>
      </trkpt>
      <trkpt lat="47.28479" lon="-2.35366">
        <ele>47</ele>
        <time>2021-07-22T07:12:49.000Z</time>
      </trkpt>
      <trkpt lat="47.2848" lon="-2.35372">
        <ele>47</ele>
        <time>2021-07-22T07:12:50.000Z</time>
      </trkpt>
      <trkpt lat="47.28484" lon="-2.35383">
        <ele>47</ele>
        <time>2021-07-22T07:12:52.000Z</time>
      </trkpt>
      <trkpt lat="47.28493" lon="-2.35415">
        <ele>47.400001525879</ele>
        <time>2021-07-22T07:12:58.000Z</time>
      </trkpt>
      <trkpt lat="47.28494" lon="-2.35419">
        <ele>48</ele>
        <time>2021-07-22T07:12:59.000Z</time>
      </trkpt>
      <trkpt lat="47.28495" lon="-2.35423">
        <ele>48.400001525879</ele>
        <time>2021-07-22T07:13:00.000Z</time>
      </trkpt>
      <trkpt lat="47.28496" lon="-2.35427">
        <ele>48.799999237061</ele>
        <time>2021-07-22T07:13:01.000Z</time>
      </trkpt>
      <trkpt lat="47.28497" lon="-2.35431">
        <ele>49.200000762939</ele>
        <time>2021-07-22T07:13:02.000Z</time>
      </trkpt>
      <trkpt lat="47.28499" lon="-2.35438">
        <ele>49.200000762939</ele>
        <time>2021-07-22T07:13:05.000Z</time>
      </trkpt>
      <trkpt lat="47.28502" lon="-2.35444">
        <ele>50.200000762939</ele>
        <time>2021-07-22T07:13:08.000Z</time>
      </trkpt>
      <trkpt lat="47.28503" lon="-2.35447">
        <ele>50.599998474121</ele>
        <time>2021-07-22T07:13:09.000Z</time>
      </trkpt>
      <trkpt lat="47.28504" lon="-2.35449">
        <ele>51</ele>
        <time>2021-07-22T07:13:10.000Z</time>
      </trkpt>
      <trkpt lat="47.28505" lon="-2.35451">
        <ele>51.400001525879</ele>
        <time>2021-07-22T07:13:11.000Z</time>
      </trkpt>
      <trkpt lat="47.28507" lon="-2.35453">
        <ele>51.400001525879</ele>
        <time>2021-07-22T07:13:12.000Z</time>
      </trkpt>
      <trkpt lat="47.28513" lon="-2.35465">
        <ele>51.400001525879</ele>
        <time>2021-07-22T07:13:18.000Z</time>
      </trkpt>
      <trkpt lat="47.28515" lon="-2.35468">
        <ele>51.400001525879</ele>
        <time>2021-07-22T07:13:20.000Z</time>
      </trkpt>
      <trkpt lat="47.28521" lon="-2.35487">
        <ele>51.400001525879</ele>
        <time>2021-07-22T07:13:38.000Z</time>
      </trkpt>
      <trkpt lat="47.28521" lon="-2.35493">
        <ele>51.400001525879</ele>
        <time>2021-07-22T07:13:40.000Z</time>
      </trkpt>
      <trkpt lat="47.28522" lon="-2.35501">
        <ele>51.400001525879</ele>
        <time>2021-07-22T07:13:42.000Z</time>
      </trkpt>
      <trkpt lat="47.28523" lon="-2.35514">
        <ele>51.400001525879</ele>
        <time>2021-07-22T07:13:46.000Z</time>
      </trkpt>
      <trkpt lat="47.28524" lon="-2.35519">
        <ele>51.799999237061</ele>
        <time>2021-07-22T07:13:48.000Z</time>
      </trkpt>
      <trkpt lat="47.28525" lon="-2.35522">
        <ele>52.400001525879</ele>
        <time>2021-07-22T07:13:49.000Z</time>
      </trkpt>
      <trkpt lat="47.28526" lon="-2.35525">
        <ele>52.799999237061</ele>
        <time>2021-07-22T07:13:50.000Z</time>
      </trkpt>
      <trkpt lat="47.28526" lon="-2.35527">
        <ele>53.200000762939</ele>
        <time>2021-07-22T07:13:51.000Z</time>
      </trkpt>
      <trkpt lat="47.28527" lon="-2.3553">
        <ele>53.599998474121</ele>
        <time>2021-07-22T07:13:52.000Z</time>
      </trkpt>
      <trkpt lat="47.28529" lon="-2.35546">
        <ele>53.599998474121</ele>
        <time>2021-07-22T07:13:59.000Z</time>
      </trkpt>
      <trkpt lat="47.2853" lon="-2.3555">
        <ele>54</ele>
        <time>2021-07-22T07:14:01.000Z</time>
      </trkpt>
      <trkpt lat="47.2853" lon="-2.35552">
        <ele>54.400001525879</ele>
        <time>2021-07-22T07:14:02.000Z</time>
      </trkpt>
      <trkpt lat="47.2853" lon="-2.35555">
        <ele>54.799999237061</ele>
        <time>2021-07-22T07:14:03.000Z</time>
      </trkpt>
      <trkpt lat="47.2853" lon="-2.35557">
        <ele>55.200000762939</ele>
        <time>2021-07-22T07:14:04.000Z</time>
      </trkpt>
      <trkpt lat="47.28529" lon="-2.35559">
        <ele>55.599998474121</ele>
        <time>2021-07-22T07:14:05.000Z</time>
      </trkpt>
      <trkpt lat="47.28528" lon="-2.35562">
        <ele>55.599998474121</ele>
        <time>2021-07-22T07:14:06.000Z</time>
      </trkpt>
      <trkpt lat="47.28525" lon="-2.35576">
        <ele>56.200000762939</ele>
        <time>2021-07-22T07:14:11.000Z</time>
      </trkpt>
      <trkpt lat="47.28524" lon="-2.35579">
        <ele>56.599998474121</ele>
        <time>2021-07-22T07:14:12.000Z</time>
      </trkpt>
      <trkpt lat="47.28523" lon="-2.35581">
        <ele>57</ele>
        <time>2021-07-22T07:14:13.000Z</time>
      </trkpt>
      <trkpt lat="47.28523" lon="-2.35583">
        <ele>57.400001525879</ele>
        <time>2021-07-22T07:14:14.000Z</time>
      </trkpt>
      <trkpt lat="47.28522" lon="-2.35586">
        <ele>57.799999237061</ele>
        <time>2021-07-22T07:14:15.000Z</time>
      </trkpt>
      <trkpt lat="47.28523" lon="-2.35592">
        <ele>57.799999237061</ele>
        <time>2021-07-22T07:14:18.000Z</time>
      </trkpt>
      <trkpt lat="47.28526" lon="-2.35597">
        <ele>57.799999237061</ele>
        <time>2021-07-22T07:14:20.000Z</time>
      </trkpt>
      <trkpt lat="47.28532" lon="-2.35601">
        <ele>57.799999237061</ele>
        <time>2021-07-22T07:14:25.000Z</time>
      </trkpt>
      <trkpt lat="47.28539" lon="-2.35605">
        <ele>57.799999237061</ele>
        <time>2021-07-22T07:14:30.000Z</time>
      </trkpt>
      <trkpt lat="47.28535" lon="-2.35617">
        <ele>57.799999237061</ele>
        <time>2021-07-22T07:14:34.000Z</time>
      </trkpt>
      <trkpt lat="47.28533" lon="-2.35626">
        <ele>57.799999237061</ele>
        <time>2021-07-22T07:14:36.000Z</time>
      </trkpt>
      <trkpt lat="47.28533" lon="-2.35636">
        <ele>57.400001525879</ele>
        <time>2021-07-22T07:14:38.000Z</time>
      </trkpt>
      <trkpt lat="47.28534" lon="-2.35644">
        <ele>56.799999237061</ele>
        <time>2021-07-22T07:14:39.000Z</time>
      </trkpt>
      <trkpt lat="47.28534" lon="-2.35653">
        <ele>56.400001525879</ele>
        <time>2021-07-22T07:14:40.000Z</time>
      </trkpt>
      <trkpt lat="47.28534" lon="-2.35661">
        <ele>55.799999237061</ele>
        <time>2021-07-22T07:14:41.000Z</time>
      </trkpt>
      <trkpt lat="47.28533" lon="-2.35669">
        <ele>55.400001525879</ele>
        <time>2021-07-22T07:14:42.000Z</time>
      </trkpt>
      <trkpt lat="47.28532" lon="-2.35675">
        <ele>55.400001525879</ele>
        <time>2021-07-22T07:14:43.000Z</time>
      </trkpt>
      <trkpt lat="47.28531" lon="-2.35683">
        <ele>55</ele>
        <time>2021-07-22T07:14:44.000Z</time>
      </trkpt>
      <trkpt lat="47.28531" lon="-2.35691">
        <ele>54.599998474121</ele>
        <time>2021-07-22T07:14:45.000Z</time>
      </trkpt>
      <trkpt lat="47.28531" lon="-2.35695">
        <ele>54.200000762939</ele>
        <time>2021-07-22T07:14:46.000Z</time>
      </trkpt>
      <trkpt lat="47.28531" lon="-2.35698">
        <ele>53.799999237061</ele>
        <time>2021-07-22T07:14:47.000Z</time>
      </trkpt>
      <trkpt lat="47.28531" lon="-2.35701">
        <ele>53.400001525879</ele>
        <time>2021-07-22T07:14:48.000Z</time>
      </trkpt>
      <trkpt lat="47.28531" lon="-2.35707">
        <ele>53.400001525879</ele>
        <time>2021-07-22T07:14:52.000Z</time>
      </trkpt>
      <trkpt lat="47.2853" lon="-2.35724">
        <ele>53.400001525879</ele>
        <time>2021-07-22T07:15:03.000Z</time>
      </trkpt>
      <trkpt lat="47.28531" lon="-2.35727">
        <ele>53.400001525879</ele>
        <time>2021-07-22T07:15:04.000Z</time>
      </trkpt>
      <trkpt lat="47.28542" lon="-2.35748">
        <ele>53.400001525879</ele>
        <time>2021-07-22T07:15:11.000Z</time>
      </trkpt>
      <trkpt lat="47.28551" lon="-2.35776">
        <ele>53.400001525879</ele>
        <time>2021-07-22T07:15:18.000Z</time>
      </trkpt>
      <trkpt lat="47.28554" lon="-2.35798">
        <ele>53.400001525879</ele>
        <time>2021-07-22T07:15:24.000Z</time>
      </trkpt>
      <trkpt lat="47.28556" lon="-2.35811">
        <ele>53.400001525879</ele>
        <time>2021-07-22T07:15:30.000Z</time>
      </trkpt>
      <trkpt lat="47.28559" lon="-2.35812">
        <ele>53.400001525879</ele>
        <time>2021-07-22T07:15:33.000Z</time>
      </trkpt>
      <trkpt lat="47.28559" lon="-2.35811">
        <ele>53.400001525879</ele>
        <time>2021-07-22T07:15:34.000Z</time>
      </trkpt>
      <trkpt lat="47.28563" lon="-2.35805">
        <ele>53.400001525879</ele>
        <time>2021-07-22T07:15:37.000Z</time>
      </trkpt>
      <trkpt lat="47.28569" lon="-2.35794">
        <ele>53.400001525879</ele>
        <time>2021-07-22T07:15:40.000Z</time>
      </trkpt>
      <trkpt lat="47.28587" lon="-2.35765">
        <ele>53.400001525879</ele>
        <time>2021-07-22T07:15:48.000Z</time>
      </trkpt>
      <trkpt lat="47.28604" lon="-2.35741">
        <ele>53.400001525879</ele>
        <time>2021-07-22T07:15:54.000Z</time>
      </trkpt>
      <trkpt lat="47.28608" lon="-2.3574">
        <ele>53.400001525879</ele>
        <time>2021-07-22T07:15:55.000Z</time>
      </trkpt>
      <trkpt lat="47.28616" lon="-2.35747">
        <ele>53.400001525879</ele>
        <time>2021-07-22T07:15:57.000Z</time>
      </trkpt>
      <trkpt lat="47.28627" lon="-2.35771">
        <ele>53.400001525879</ele>
        <time>2021-07-22T07:16:01.000Z</time>
      </trkpt>
      <trkpt lat="47.28639" lon="-2.35809">
        <ele>53.400001525879</ele>
        <time>2021-07-22T07:16:07.000Z</time>
      </trkpt>
      <trkpt lat="47.2864" lon="-2.35825">
        <ele>53.400001525879</ele>
        <time>2021-07-22T07:16:11.000Z</time>
      </trkpt>
      <trkpt lat="47.28644" lon="-2.35851">
        <ele>53.400001525879</ele>
        <time>2021-07-22T07:16:16.000Z</time>
      </trkpt>
      <trkpt lat="47.28661" lon="-2.35892">
        <ele>53.400001525879</ele>
        <time>2021-07-22T07:16:23.000Z</time>
      </trkpt>
      <trkpt lat="47.28674" lon="-2.35918">
        <ele>53.400001525879</ele>
        <time>2021-07-22T07:16:29.000Z</time>
      </trkpt>
      <trkpt lat="47.28676" lon="-2.35918">
        <ele>53.799999237061</ele>
        <time>2021-07-22T07:16:30.000Z</time>
      </trkpt>
      <trkpt lat="47.28679" lon="-2.35915">
        <ele>54.200000762939</ele>
        <time>2021-07-22T07:16:31.000Z</time>
      </trkpt>
      <trkpt lat="47.28683" lon="-2.35912">
        <ele>54.599998474121</ele>
        <time>2021-07-22T07:16:32.000Z</time>
      </trkpt>
      <trkpt lat="47.28686" lon="-2.35908">
        <ele>55</ele>
        <time>2021-07-22T07:16:33.000Z</time>
      </trkpt>
      <trkpt lat="47.28689" lon="-2.35904">
        <ele>55.400001525879</ele>
        <time>2021-07-22T07:16:34.000Z</time>
      </trkpt>
      <trkpt lat="47.28707" lon="-2.3588">
        <ele>55.400001525879</ele>
        <time>2021-07-22T07:16:39.000Z</time>
      </trkpt>
      <trkpt lat="47.28723" lon="-2.35852">
        <ele>55.799999237061</ele>
        <time>2021-07-22T07:16:44.000Z</time>
      </trkpt>
      <trkpt lat="47.28726" lon="-2.35846">
        <ele>56.200000762939</ele>
        <time>2021-07-22T07:16:45.000Z</time>
      </trkpt>
      <trkpt lat="47.28729" lon="-2.3584">
        <ele>56.599998474121</ele>
        <time>2021-07-22T07:16:46.000Z</time>
      </trkpt>
      <trkpt lat="47.28732" lon="-2.35834">
        <ele>57</ele>
        <time>2021-07-22T07:16:47.000Z</time>
      </trkpt>
      <trkpt lat="47.28736" lon="-2.35828">
        <ele>57.599998474121</ele>
        <time>2021-07-22T07:16:48.000Z</time>
      </trkpt>
      <trkpt lat="47.28763" lon="-2.35773">
        <ele>57.599998474121</ele>
        <time>2021-07-22T07:16:57.000Z</time>
      </trkpt>
      <trkpt lat="47.2879" lon="-2.35722">
        <ele>57.599998474121</ele>
        <time>2021-07-22T07:17:05.000Z</time>
      </trkpt>
      <trkpt lat="47.28812" lon="-2.3568">
        <ele>57.599998474121</ele>
        <time>2021-07-22T07:17:12.000Z</time>
      </trkpt>
      <trkpt lat="47.2884" lon="-2.35644">
        <ele>57.599998474121</ele>
        <time>2021-07-22T07:17:19.000Z</time>
      </trkpt>
      <trkpt lat="47.28874" lon="-2.35608">
        <ele>57.599998474121</ele>
        <time>2021-07-22T07:17:27.000Z</time>
      </trkpt>
      <trkpt lat="47.28904" lon="-2.35575">
        <ele>57.599998474121</ele>
        <time>2021-07-22T07:17:34.000Z</time>
      </trkpt>
      <trkpt lat="47.28919" lon="-2.35556">
        <ele>57.599998474121</ele>
        <time>2021-07-22T07:17:39.000Z</time>
      </trkpt>
      <trkpt lat="47.28926" lon="-2.35553">
        <ele>57.599998474121</ele>
        <time>2021-07-22T07:17:41.000Z</time>
      </trkpt>
      <trkpt lat="47.2893" lon="-2.35556">
        <ele>57.599998474121</ele>
        <time>2021-07-22T07:17:42.000Z</time>
      </trkpt>
      <trkpt lat="47.28935" lon="-2.35572">
        <ele>57.599998474121</ele>
        <time>2021-07-22T07:17:45.000Z</time>
      </trkpt>
      <trkpt lat="47.28954" lon="-2.35623">
        <ele>57.599998474121</ele>
        <time>2021-07-22T07:17:53.000Z</time>
      </trkpt>
      <trkpt lat="47.28977" lon="-2.35678">
        <ele>57.599998474121</ele>
        <time>2021-07-22T07:18:01.000Z</time>
      </trkpt>
      <trkpt lat="47.28984" lon="-2.3569">
        <ele>57.599998474121</ele>
        <time>2021-07-22T07:18:03.000Z</time>
      </trkpt>
      <trkpt lat="47.28993" lon="-2.35699">
        <ele>57.599998474121</ele>
        <time>2021-07-22T07:18:05.000Z</time>
      </trkpt>
      <trkpt lat="47.29004" lon="-2.35704">
        <ele>58</ele>
        <time>2021-07-22T07:18:07.000Z</time>
      </trkpt>
      <trkpt lat="47.29009" lon="-2.35705">
        <ele>58.400001525879</ele>
        <time>2021-07-22T07:18:08.000Z</time>
      </trkpt>
      <trkpt lat="47.29015" lon="-2.35704">
        <ele>58.799999237061</ele>
        <time>2021-07-22T07:18:09.000Z</time>
      </trkpt>
      <trkpt lat="47.2902" lon="-2.35702">
        <ele>59.200000762939</ele>
        <time>2021-07-22T07:18:10.000Z</time>
      </trkpt>
      <trkpt lat="47.29025" lon="-2.35699">
        <ele>59.599998474121</ele>
        <time>2021-07-22T07:18:11.000Z</time>
      </trkpt>
      <trkpt lat="47.29036" lon="-2.35691">
        <ele>59.599998474121</ele>
        <time>2021-07-22T07:18:13.000Z</time>
      </trkpt>
      <trkpt lat="47.29044" lon="-2.35681">
        <ele>59.599998474121</ele>
        <time>2021-07-22T07:18:15.000Z</time>
      </trkpt>
      <trkpt lat="47.2906" lon="-2.35662">
        <ele>59.599998474121</ele>
        <time>2021-07-22T07:18:19.000Z</time>
      </trkpt>
      <trkpt lat="47.29082" lon="-2.35642">
        <ele>59.599998474121</ele>
        <time>2021-07-22T07:18:25.000Z</time>
      </trkpt>
      <trkpt lat="47.29084" lon="-2.35639">
        <ele>59.599998474121</ele>
        <time>2021-07-22T07:18:26.000Z</time>
      </trkpt>
      <trkpt lat="47.29082" lon="-2.3563">
        <ele>59.599998474121</ele>
        <time>2021-07-22T07:18:28.000Z</time>
      </trkpt>
      <trkpt lat="47.29074" lon="-2.35614">
        <ele>59.599998474121</ele>
        <time>2021-07-22T07:18:31.000Z</time>
      </trkpt>
      <trkpt lat="47.29071" lon="-2.35607">
        <ele>59.599998474121</ele>
        <time>2021-07-22T07:18:32.000Z</time>
      </trkpt>
      <trkpt lat="47.2905" lon="-2.35557">
        <ele>59.599998474121</ele>
        <time>2021-07-22T07:18:39.000Z</time>
      </trkpt>
      <trkpt lat="47.2904" lon="-2.35527">
        <ele>59.599998474121</ele>
        <time>2021-07-22T07:18:43.000Z</time>
      </trkpt>
      <trkpt lat="47.29041" lon="-2.35519">
        <ele>59.599998474121</ele>
        <time>2021-07-22T07:18:44.000Z</time>
      </trkpt>
      <trkpt lat="47.29051" lon="-2.35497">
        <ele>59.599998474121</ele>
        <time>2021-07-22T07:18:47.000Z</time>
      </trkpt>
      <trkpt lat="47.29055" lon="-2.3549">
        <ele>59.599998474121</ele>
        <time>2021-07-22T07:18:48.000Z</time>
      </trkpt>
      <trkpt lat="47.29076" lon="-2.35457">
        <ele>59.599998474121</ele>
        <time>2021-07-22T07:18:54.000Z</time>
      </trkpt>
      <trkpt lat="47.29087" lon="-2.35453">
        <ele>59.599998474121</ele>
        <time>2021-07-22T07:18:57.000Z</time>
      </trkpt>
      <trkpt lat="47.29092" lon="-2.35463">
        <ele>59.599998474121</ele>
        <time>2021-07-22T07:19:00.000Z</time>
      </trkpt>
      <trkpt lat="47.29092" lon="-2.35466">
        <ele>59.599998474121</ele>
        <time>2021-07-22T07:19:01.000Z</time>
      </trkpt>
      <trkpt lat="47.29098" lon="-2.35474">
        <ele>59.599998474121</ele>
        <time>2021-07-22T07:19:05.000Z</time>
      </trkpt>
      <trkpt lat="47.29105" lon="-2.35464">
        <ele>59.599998474121</ele>
        <time>2021-07-22T07:19:08.000Z</time>
      </trkpt>
      <trkpt lat="47.29116" lon="-2.35464">
        <ele>59.599998474121</ele>
        <time>2021-07-22T07:19:11.000Z</time>
      </trkpt>
      <trkpt lat="47.29134" lon="-2.3546">
        <ele>59.599998474121</ele>
        <time>2021-07-22T07:19:15.000Z</time>
      </trkpt>
      <trkpt lat="47.29143" lon="-2.35455">
        <ele>59.599998474121</ele>
        <time>2021-07-22T07:19:17.000Z</time>
      </trkpt>
      <trkpt lat="47.29147" lon="-2.35454">
        <ele>59.599998474121</ele>
        <time>2021-07-22T07:19:18.000Z</time>
      </trkpt>
      <trkpt lat="47.29162" lon="-2.35447">
        <ele>59.599998474121</ele>
        <time>2021-07-22T07:19:21.000Z</time>
      </trkpt>
      <trkpt lat="47.29202" lon="-2.35434">
        <ele>59.599998474121</ele>
        <time>2021-07-22T07:19:28.000Z</time>
      </trkpt>
      <trkpt lat="47.29236" lon="-2.35417">
        <ele>59.599998474121</ele>
        <time>2021-07-22T07:19:34.000Z</time>
      </trkpt>
      <trkpt lat="47.29274" lon="-2.35398">
        <ele>59.599998474121</ele>
        <time>2021-07-22T07:19:41.000Z</time>
      </trkpt>
      <trkpt lat="47.29305" lon="-2.35371">
        <ele>59.599998474121</ele>
        <time>2021-07-22T07:19:47.000Z</time>
      </trkpt>
      <trkpt lat="47.29342" lon="-2.35332">
        <ele>59.599998474121</ele>
        <time>2021-07-22T07:19:54.000Z</time>
      </trkpt>
      <trkpt lat="47.29384" lon="-2.35284">
        <ele>59.599998474121</ele>
        <time>2021-07-22T07:20:02.000Z</time>
      </trkpt>
      <trkpt lat="47.29419" lon="-2.35232">
        <ele>59.599998474121</ele>
        <time>2021-07-22T07:20:10.000Z</time>
      </trkpt>
      <trkpt lat="47.29438" lon="-2.35195">
        <ele>59.200000762939</ele>
        <time>2021-07-22T07:20:15.000Z</time>
      </trkpt>
      <trkpt lat="47.29442" lon="-2.35187">
        <ele>58.799999237061</ele>
        <time>2021-07-22T07:20:16.000Z</time>
      </trkpt>
      <trkpt lat="47.29445" lon="-2.35179">
        <ele>58.400001525879</ele>
        <time>2021-07-22T07:20:17.000Z</time>
      </trkpt>
      <trkpt lat="47.29447" lon="-2.35171">
        <ele>57.400001525879</ele>
        <time>2021-07-22T07:20:18.000Z</time>
      </trkpt>
      <trkpt lat="47.29455" lon="-2.35148">
        <ele>57.400001525879</ele>
        <time>2021-07-22T07:20:21.000Z</time>
      </trkpt>
      <trkpt lat="47.29471" lon="-2.35099">
        <ele>57.400001525879</ele>
        <time>2021-07-22T07:20:27.000Z</time>
      </trkpt>
      <trkpt lat="47.29493" lon="-2.35034">
        <ele>57.400001525879</ele>
        <time>2021-07-22T07:20:34.000Z</time>
      </trkpt>
      <trkpt lat="47.29504" lon="-2.35002">
        <ele>57.400001525879</ele>
        <time>2021-07-22T07:20:37.000Z</time>
      </trkpt>
      <trkpt lat="47.29516" lon="-2.3498">
        <ele>57.400001525879</ele>
        <time>2021-07-22T07:20:39.000Z</time>
      </trkpt>
      <trkpt lat="47.29528" lon="-2.3496">
        <ele>57</ele>
        <time>2021-07-22T07:20:41.000Z</time>
      </trkpt>
      <trkpt lat="47.29534" lon="-2.3495">
        <ele>56</ele>
        <time>2021-07-22T07:20:42.000Z</time>
      </trkpt>
      <trkpt lat="47.2954" lon="-2.3494">
        <ele>55.599998474121</ele>
        <time>2021-07-22T07:20:43.000Z</time>
      </trkpt>
      <trkpt lat="47.29546" lon="-2.34932">
        <ele>55</ele>
        <time>2021-07-22T07:20:44.000Z</time>
      </trkpt>
      <trkpt lat="47.29551" lon="-2.34924">
        <ele>55</ele>
        <time>2021-07-22T07:20:45.000Z</time>
      </trkpt>
      <trkpt lat="47.2958" lon="-2.34887">
        <ele>55</ele>
        <time>2021-07-22T07:20:51.000Z</time>
      </trkpt>
      <trkpt lat="47.29596" lon="-2.34864">
        <ele>55</ele>
        <time>2021-07-22T07:20:55.000Z</time>
      </trkpt>
      <trkpt lat="47.29604" lon="-2.34851">
        <ele>55</ele>
        <time>2021-07-22T07:20:57.000Z</time>
      </trkpt>
      <trkpt lat="47.29612" lon="-2.3484">
        <ele>55</ele>
        <time>2021-07-22T07:20:59.000Z</time>
      </trkpt>
      <trkpt lat="47.29622" lon="-2.34835">
        <ele>55</ele>
        <time>2021-07-22T07:21:01.000Z</time>
      </trkpt>
      <trkpt lat="47.29639" lon="-2.34842">
        <ele>55</ele>
        <time>2021-07-22T07:21:04.000Z</time>
      </trkpt>
      <trkpt lat="47.29656" lon="-2.34861">
        <ele>55</ele>
        <time>2021-07-22T07:21:07.000Z</time>
      </trkpt>
      <trkpt lat="47.29662" lon="-2.34868">
        <ele>55</ele>
        <time>2021-07-22T07:21:08.000Z</time>
      </trkpt>
      <trkpt lat="47.29681" lon="-2.34886">
        <ele>55</ele>
        <time>2021-07-22T07:21:11.000Z</time>
      </trkpt>
      <trkpt lat="47.29688" lon="-2.34888">
        <ele>55</ele>
        <time>2021-07-22T07:21:12.000Z</time>
      </trkpt>
      <trkpt lat="47.29711" lon="-2.34885">
        <ele>55</ele>
        <time>2021-07-22T07:21:15.000Z</time>
      </trkpt>
      <trkpt lat="47.29719" lon="-2.3488">
        <ele>55</ele>
        <time>2021-07-22T07:21:16.000Z</time>
      </trkpt>
      <trkpt lat="47.29739" lon="-2.3487">
        <ele>55</ele>
        <time>2021-07-22T07:21:19.000Z</time>
      </trkpt>
      <trkpt lat="47.29782" lon="-2.34855">
        <ele>55</ele>
        <time>2021-07-22T07:21:26.000Z</time>
      </trkpt>
      <trkpt lat="47.2981" lon="-2.34848">
        <ele>55</ele>
        <time>2021-07-22T07:21:30.000Z</time>
      </trkpt>
      <trkpt lat="47.29829" lon="-2.34844">
        <ele>55</ele>
        <time>2021-07-22T07:21:33.000Z</time>
      </trkpt>
      <trkpt lat="47.29875" lon="-2.34836">
        <ele>55</ele>
        <time>2021-07-22T07:21:40.000Z</time>
      </trkpt>
      <trkpt lat="47.29907" lon="-2.34829">
        <ele>55</ele>
        <time>2021-07-22T07:21:46.000Z</time>
      </trkpt>
      <trkpt lat="47.29912" lon="-2.34828">
        <ele>55.400001525879</ele>
        <time>2021-07-22T07:21:47.000Z</time>
      </trkpt>
      <trkpt lat="47.29918" lon="-2.34828">
        <ele>55.799999237061</ele>
        <time>2021-07-22T07:21:48.000Z</time>
      </trkpt>
      <trkpt lat="47.29922" lon="-2.34827">
        <ele>56.200000762939</ele>
        <time>2021-07-22T07:21:49.000Z</time>
      </trkpt>
      <trkpt lat="47.29927" lon="-2.34826">
        <ele>56.599998474121</ele>
        <time>2021-07-22T07:21:50.000Z</time>
      </trkpt>
      <trkpt lat="47.29932" lon="-2.34826">
        <ele>57</ele>
        <time>2021-07-22T07:21:51.000Z</time>
      </trkpt>
      <trkpt lat="47.29946" lon="-2.34823">
        <ele>57</ele>
        <time>2021-07-22T07:21:54.000Z</time>
      </trkpt>
      <trkpt lat="47.29969" lon="-2.34819">
        <ele>57</ele>
        <time>2021-07-22T07:22:00.000Z</time>
      </trkpt>
      <trkpt lat="47.2998" lon="-2.34808">
        <ele>57</ele>
        <time>2021-07-22T07:22:04.000Z</time>
      </trkpt>
      <trkpt lat="47.29978" lon="-2.34787">
        <ele>57</ele>
        <time>2021-07-22T07:22:07.000Z</time>
      </trkpt>
      <trkpt lat="47.2997" lon="-2.34732">
        <ele>57</ele>
        <time>2021-07-22T07:22:13.000Z</time>
      </trkpt>
      <trkpt lat="47.29961" lon="-2.34654">
        <ele>57</ele>
        <time>2021-07-22T07:22:21.000Z</time>
      </trkpt>
      <trkpt lat="47.29951" lon="-2.34585">
        <ele>57</ele>
        <time>2021-07-22T07:22:29.000Z</time>
      </trkpt>
      <trkpt lat="47.29947" lon="-2.34547">
        <ele>57.599998474121</ele>
        <time>2021-07-22T07:22:34.000Z</time>
      </trkpt>
      <trkpt lat="47.29946" lon="-2.3454">
        <ele>58</ele>
        <time>2021-07-22T07:22:35.000Z</time>
      </trkpt>
      <trkpt lat="47.29945" lon="-2.34532">
        <ele>58.400001525879</ele>
        <time>2021-07-22T07:22:36.000Z</time>
      </trkpt>
      <trkpt lat="47.29944" lon="-2.34524">
        <ele>58.799999237061</ele>
        <time>2021-07-22T07:22:37.000Z</time>
      </trkpt>
      <trkpt lat="47.29943" lon="-2.34516">
        <ele>59.200000762939</ele>
        <time>2021-07-22T07:22:38.000Z</time>
      </trkpt>
      <trkpt lat="47.29934" lon="-2.34437">
        <ele>59.200000762939</ele>
        <time>2021-07-22T07:22:47.000Z</time>
      </trkpt>
      <trkpt lat="47.29925" lon="-2.34362">
        <ele>59.200000762939</ele>
        <time>2021-07-22T07:22:55.000Z</time>
      </trkpt>
      <trkpt lat="47.29913" lon="-2.3428">
        <ele>59.200000762939</ele>
        <time>2021-07-22T07:23:04.000Z</time>
      </trkpt>
      <trkpt lat="47.29912" lon="-2.34272">
        <ele>59.200000762939</ele>
        <time>2021-07-22T07:23:05.000Z</time>
      </trkpt>
      <trkpt lat="47.29915" lon="-2.34256">
        <ele>59.200000762939</ele>
        <time>2021-07-22T07:23:07.000Z</time>
      </trkpt>
      <trkpt lat="47.29927" lon="-2.34239">
        <ele>59.200000762939</ele>
        <time>2021-07-22T07:23:10.000Z</time>
      </trkpt>
      <trkpt lat="47.29932" lon="-2.34233">
        <ele>59.200000762939</ele>
        <time>2021-07-22T07:23:11.000Z</time>
      </trkpt>
      <trkpt lat="47.29962" lon="-2.34197">
        <ele>59.200000762939</ele>
        <time>2021-07-22T07:23:18.000Z</time>
      </trkpt>
      <trkpt lat="47.29998" lon="-2.34149">
        <ele>59.200000762939</ele>
        <time>2021-07-22T07:23:27.000Z</time>
      </trkpt>
      <trkpt lat="47.30032" lon="-2.34102">
        <ele>59.200000762939</ele>
        <time>2021-07-22T07:23:35.000Z</time>
      </trkpt>
      <trkpt lat="47.30074" lon="-2.34047">
        <ele>59.200000762939</ele>
        <time>2021-07-22T07:23:44.000Z</time>
      </trkpt>
      <trkpt lat="47.30079" lon="-2.3404">
        <ele>58.799999237061</ele>
        <time>2021-07-22T07:23:45.000Z</time>
      </trkpt>
      <trkpt lat="47.30084" lon="-2.34034">
        <ele>58.400001525879</ele>
        <time>2021-07-22T07:23:46.000Z</time>
      </trkpt>
      <trkpt lat="47.30089" lon="-2.34027">
        <ele>58</ele>
        <time>2021-07-22T07:23:47.000Z</time>
      </trkpt>
      <trkpt lat="47.30094" lon="-2.3402">
        <ele>57.599998474121</ele>
        <time>2021-07-22T07:23:48.000Z</time>
      </trkpt>
      <trkpt lat="47.30099" lon="-2.34013">
        <ele>57.200000762939</ele>
        <time>2021-07-22T07:23:49.000Z</time>
      </trkpt>
      <trkpt lat="47.30109" lon="-2.34001">
        <ele>57.200000762939</ele>
        <time>2021-07-22T07:23:51.000Z</time>
      </trkpt>
      <trkpt lat="47.30134" lon="-2.33971">
        <ele>57.200000762939</ele>
        <time>2021-07-22T07:23:57.000Z</time>
      </trkpt>
      <trkpt lat="47.30138" lon="-2.33967">
        <ele>57.200000762939</ele>
        <time>2021-07-22T07:23:58.000Z</time>
      </trkpt>
      <trkpt lat="47.30155" lon="-2.33957">
        <ele>57.200000762939</ele>
        <time>2021-07-22T07:24:02.000Z</time>
      </trkpt>
      <trkpt lat="47.30159" lon="-2.33954">
        <ele>57.200000762939</ele>
        <time>2021-07-22T07:24:03.000Z</time>
      </trkpt>
      <trkpt lat="47.30167" lon="-2.33948">
        <ele>57.200000762939</ele>
        <time>2021-07-22T07:24:05.000Z</time>
      </trkpt>
      <trkpt lat="47.30174" lon="-2.33941">
        <ele>57.200000762939</ele>
        <time>2021-07-22T07:24:07.000Z</time>
      </trkpt>
      <trkpt lat="47.3018" lon="-2.33934">
        <ele>57.599998474121</ele>
        <time>2021-07-22T07:24:09.000Z</time>
      </trkpt>
      <trkpt lat="47.30183" lon="-2.33929">
        <ele>58</ele>
        <time>2021-07-22T07:24:10.000Z</time>
      </trkpt>
      <trkpt lat="47.30187" lon="-2.33924">
        <ele>58.400001525879</ele>
        <time>2021-07-22T07:24:11.000Z</time>
      </trkpt>
      <trkpt lat="47.30191" lon="-2.33919">
        <ele>58.799999237061</ele>
        <time>2021-07-22T07:24:12.000Z</time>
      </trkpt>
      <trkpt lat="47.30194" lon="-2.33914">
        <ele>59.200000762939</ele>
        <time>2021-07-22T07:24:13.000Z</time>
      </trkpt>
      <trkpt lat="47.30221" lon="-2.33887">
        <ele>59.200000762939</ele>
        <time>2021-07-22T07:24:19.000Z</time>
      </trkpt>
      <trkpt lat="47.30249" lon="-2.3387">
        <ele>59.200000762939</ele>
        <time>2021-07-22T07:24:25.000Z</time>
      </trkpt>
      <trkpt lat="47.30253" lon="-2.33868">
        <ele>59.599998474121</ele>
        <time>2021-07-22T07:24:26.000Z</time>
      </trkpt>
      <trkpt lat="47.30257" lon="-2.33865">
        <ele>60</ele>
        <time>2021-07-22T07:24:27.000Z</time>
      </trkpt>
      <trkpt lat="47.30261" lon="-2.33863">
        <ele>60.400001525879</ele>
        <time>2021-07-22T07:24:28.000Z</time>
      </trkpt>
      <trkpt lat="47.30265" lon="-2.3386">
        <ele>60.799999237061</ele>
        <time>2021-07-22T07:24:29.000Z</time>
      </trkpt>
      <trkpt lat="47.30269" lon="-2.33858">
        <ele>61.200000762939</ele>
        <time>2021-07-22T07:24:30.000Z</time>
      </trkpt>
      <trkpt lat="47.30273" lon="-2.33854">
        <ele>61.200000762939</ele>
        <time>2021-07-22T07:24:31.000Z</time>
      </trkpt>
      <trkpt lat="47.30303" lon="-2.3383">
        <ele>61.200000762939</ele>
        <time>2021-07-22T07:24:38.000Z</time>
      </trkpt>
      <trkpt lat="47.30313" lon="-2.33823">
        <ele>61.200000762939</ele>
        <time>2021-07-22T07:24:42.000Z</time>
      </trkpt>
      <trkpt lat="47.30316" lon="-2.33822">
        <ele>61.200000762939</ele>
        <time>2021-07-22T07:24:46.000Z</time>
      </trkpt>
      <trkpt lat="47.30319" lon="-2.3382">
        <ele>61.200000762939</ele>
        <time>2021-07-22T07:25:04.000Z</time>
      </trkpt>
      <trkpt lat="47.3032" lon="-2.33818">
        <ele>61.200000762939</ele>
        <time>2021-07-22T07:25:05.000Z</time>
      </trkpt>
      <trkpt lat="47.30331" lon="-2.33806">
        <ele>61.200000762939</ele>
        <time>2021-07-22T07:25:11.000Z</time>
      </trkpt>
      <trkpt lat="47.30353" lon="-2.33782">
        <ele>61.200000762939</ele>
        <time>2021-07-22T07:25:17.000Z</time>
      </trkpt>
      <trkpt lat="47.30377" lon="-2.33752">
        <ele>61.200000762939</ele>
        <time>2021-07-22T07:25:23.000Z</time>
      </trkpt>
      <trkpt lat="47.30401" lon="-2.33712">
        <ele>61.200000762939</ele>
        <time>2021-07-22T07:25:30.000Z</time>
      </trkpt>
      <trkpt lat="47.30412" lon="-2.33695">
        <ele>61.200000762939</ele>
        <time>2021-07-22T07:25:33.000Z</time>
      </trkpt>
      <trkpt lat="47.30421" lon="-2.33688">
        <ele>61.200000762939</ele>
        <time>2021-07-22T07:25:35.000Z</time>
      </trkpt>
      <trkpt lat="47.30432" lon="-2.33685">
        <ele>61.200000762939</ele>
        <time>2021-07-22T07:25:37.000Z</time>
      </trkpt>
      <trkpt lat="47.30437" lon="-2.33682">
        <ele>61.200000762939</ele>
        <time>2021-07-22T07:25:38.000Z</time>
      </trkpt>
      <trkpt lat="47.30443" lon="-2.33679">
        <ele>61.200000762939</ele>
        <time>2021-07-22T07:25:39.000Z</time>
      </trkpt>
      <trkpt lat="47.30459" lon="-2.33671">
        <ele>61.200000762939</ele>
        <time>2021-07-22T07:25:42.000Z</time>
      </trkpt>
      <trkpt lat="47.30471" lon="-2.33665">
        <ele>61.200000762939</ele>
        <time>2021-07-22T07:25:44.000Z</time>
      </trkpt>
      <trkpt lat="47.30489" lon="-2.33656">
        <ele>61.200000762939</ele>
        <time>2021-07-22T07:25:47.000Z</time>
      </trkpt>
      <trkpt lat="47.30509" lon="-2.33649">
        <ele>61.200000762939</ele>
        <time>2021-07-22T07:25:50.000Z</time>
      </trkpt>
      <trkpt lat="47.30541" lon="-2.33643">
        <ele>61.200000762939</ele>
        <time>2021-07-22T07:25:55.000Z</time>
      </trkpt>
      <trkpt lat="47.30547" lon="-2.33643">
        <ele>61.200000762939</ele>
        <time>2021-07-22T07:25:56.000Z</time>
      </trkpt>
      <trkpt lat="47.30552" lon="-2.33646">
        <ele>61.200000762939</ele>
        <time>2021-07-22T07:25:57.000Z</time>
      </trkpt>
      <trkpt lat="47.30559" lon="-2.33656">
        <ele>61.200000762939</ele>
        <time>2021-07-22T07:25:59.000Z</time>
      </trkpt>
      <trkpt lat="47.30574" lon="-2.33693">
        <ele>61.200000762939</ele>
        <time>2021-07-22T07:26:05.000Z</time>
      </trkpt>
      <trkpt lat="47.30576" lon="-2.337">
        <ele>61.200000762939</ele>
        <time>2021-07-22T07:26:06.000Z</time>
      </trkpt>
      <trkpt lat="47.30579" lon="-2.33727">
        <ele>61.799999237061</ele>
        <time>2021-07-22T07:26:09.000Z</time>
      </trkpt>
      <trkpt lat="47.3058" lon="-2.33735">
        <ele>62.200000762939</ele>
        <time>2021-07-22T07:26:10.000Z</time>
      </trkpt>
      <trkpt lat="47.30581" lon="-2.33744">
        <ele>62.599998474121</ele>
        <time>2021-07-22T07:26:11.000Z</time>
      </trkpt>
      <trkpt lat="47.30582" lon="-2.33752">
        <ele>63</ele>
        <time>2021-07-22T07:26:12.000Z</time>
      </trkpt>
      <trkpt lat="47.30582" lon="-2.33761">
        <ele>63.400001525879</ele>
        <time>2021-07-22T07:26:13.000Z</time>
      </trkpt>
      <trkpt lat="47.30593" lon="-2.33815">
        <ele>63.400001525879</ele>
        <time>2021-07-22T07:26:20.000Z</time>
      </trkpt>
      <trkpt lat="47.30599" lon="-2.33855">
        <ele>63.400001525879</ele>
        <time>2021-07-22T07:26:26.000Z</time>
      </trkpt>
      <trkpt lat="47.306" lon="-2.3389">
        <ele>63.400001525879</ele>
        <time>2021-07-22T07:26:32.000Z</time>
      </trkpt>
      <trkpt lat="47.30603" lon="-2.33939">
        <ele>63.400001525879</ele>
        <time>2021-07-22T07:26:39.000Z</time>
      </trkpt>
      <trkpt lat="47.30608" lon="-2.33961">
        <ele>63.400001525879</ele>
        <time>2021-07-22T07:26:42.000Z</time>
      </trkpt>
      <trkpt lat="47.30616" lon="-2.33968">
        <ele>63.400001525879</ele>
        <time>2021-07-22T07:26:44.000Z</time>
      </trkpt>
      <trkpt lat="47.30624" lon="-2.33974">
        <ele>63.400001525879</ele>
        <time>2021-07-22T07:26:46.000Z</time>
      </trkpt>
      <trkpt lat="47.3064" lon="-2.33987">
        <ele>63.400001525879</ele>
        <time>2021-07-22T07:26:49.000Z</time>
      </trkpt>
      <trkpt lat="47.30645" lon="-2.33991">
        <ele>63.400001525879</ele>
        <time>2021-07-22T07:26:50.000Z</time>
      </trkpt>
      <trkpt lat="47.30664" lon="-2.33994">
        <ele>63.400001525879</ele>
        <time>2021-07-22T07:26:53.000Z</time>
      </trkpt>
      <trkpt lat="47.3067" lon="-2.33993">
        <ele>63.400001525879</ele>
        <time>2021-07-22T07:26:54.000Z</time>
      </trkpt>
      <trkpt lat="47.30701" lon="-2.33986">
        <ele>63.400001525879</ele>
        <time>2021-07-22T07:26:59.000Z</time>
      </trkpt>
      <trkpt lat="47.30742" lon="-2.33976">
        <ele>63.400001525879</ele>
        <time>2021-07-22T07:27:06.000Z</time>
      </trkpt>
      <trkpt lat="47.30748" lon="-2.33974">
        <ele>63.799999237061</ele>
        <time>2021-07-22T07:27:07.000Z</time>
      </trkpt>
      <trkpt lat="47.30754" lon="-2.33972">
        <ele>64.199996948242</ele>
        <time>2021-07-22T07:27:08.000Z</time>
      </trkpt>
      <trkpt lat="47.3076" lon="-2.3397">
        <ele>64.599998474121</ele>
        <time>2021-07-22T07:27:09.000Z</time>
      </trkpt>
      <trkpt lat="47.30766" lon="-2.33969">
        <ele>65</ele>
        <time>2021-07-22T07:27:10.000Z</time>
      </trkpt>
      <trkpt lat="47.30771" lon="-2.33968">
        <ele>65.400001525879</ele>
        <time>2021-07-22T07:27:11.000Z</time>
      </trkpt>
      <trkpt lat="47.30782" lon="-2.33967">
        <ele>65.400001525879</ele>
        <time>2021-07-22T07:27:13.000Z</time>
      </trkpt>
      <trkpt lat="47.30813" lon="-2.33959">
        <ele>65.400001525879</ele>
        <time>2021-07-22T07:27:18.000Z</time>
      </trkpt>
      <trkpt lat="47.30855" lon="-2.33949">
        <ele>65.400001525879</ele>
        <time>2021-07-22T07:27:25.000Z</time>
      </trkpt>
      <trkpt lat="47.30891" lon="-2.33944">
        <ele>65.800003051758</ele>
        <time>2021-07-22T07:27:31.000Z</time>
      </trkpt>
      <trkpt lat="47.30897" lon="-2.33944">
        <ele>66.199996948242</ele>
        <time>2021-07-22T07:27:32.000Z</time>
      </trkpt>
      <trkpt lat="47.30902" lon="-2.33943">
        <ele>66.599998474121</ele>
        <time>2021-07-22T07:27:33.000Z</time>
      </trkpt>
      <trkpt lat="47.30908" lon="-2.33943">
        <ele>67</ele>
        <time>2021-07-22T07:27:34.000Z</time>
      </trkpt>
      <trkpt lat="47.30914" lon="-2.33944">
        <ele>67.400001525879</ele>
        <time>2021-07-22T07:27:35.000Z</time>
      </trkpt>
      <trkpt lat="47.30937" lon="-2.33947">
        <ele>67.400001525879</ele>
        <time>2021-07-22T07:27:39.000Z</time>
      </trkpt>
      <trkpt lat="47.30973" lon="-2.33954">
        <ele>67.400001525879</ele>
        <time>2021-07-22T07:27:45.000Z</time>
      </trkpt>
      <trkpt lat="47.31023" lon="-2.33951">
        <ele>67.400001525879</ele>
        <time>2021-07-22T07:27:53.000Z</time>
      </trkpt>
      <trkpt lat="47.31048" lon="-2.33945">
        <ele>67</ele>
        <time>2021-07-22T07:27:57.000Z</time>
      </trkpt>
      <trkpt lat="47.31054" lon="-2.33945">
        <ele>66.599998474121</ele>
        <time>2021-07-22T07:27:58.000Z</time>
      </trkpt>
      <trkpt lat="47.31057" lon="-2.33944">
        <ele>66.199996948242</ele>
        <time>2021-07-22T07:27:59.000Z</time>
      </trkpt>
      <trkpt lat="47.3106" lon="-2.3394">
        <ele>65.800003051758</ele>
        <time>2021-07-22T07:28:00.000Z</time>
      </trkpt>
      <trkpt lat="47.31062" lon="-2.33936">
        <ele>65.400001525879</ele>
        <time>2021-07-22T07:28:01.000Z</time>
      </trkpt>
      <trkpt lat="47.31063" lon="-2.33929">
        <ele>65.400001525879</ele>
        <time>2021-07-22T07:28:02.000Z</time>
      </trkpt>
      <trkpt lat="47.31063" lon="-2.33916">
        <ele>65.400001525879</ele>
        <time>2021-07-22T07:28:04.000Z</time>
      </trkpt>
      <trkpt lat="47.31064" lon="-2.33891">
        <ele>65.400001525879</ele>
        <time>2021-07-22T07:28:07.000Z</time>
      </trkpt>
      <trkpt lat="47.31065" lon="-2.33843">
        <ele>65.400001525879</ele>
        <time>2021-07-22T07:28:13.000Z</time>
      </trkpt>
      <trkpt lat="47.31072" lon="-2.33793">
        <ele>65.400001525879</ele>
        <time>2021-07-22T07:28:19.000Z</time>
      </trkpt>
      <trkpt lat="47.31075" lon="-2.33785">
        <ele>65.400001525879</ele>
        <time>2021-07-22T07:28:20.000Z</time>
      </trkpt>
      <trkpt lat="47.31094" lon="-2.33736">
        <ele>65.400001525879</ele>
        <time>2021-07-22T07:28:26.000Z</time>
      </trkpt>
      <trkpt lat="47.31102" lon="-2.33683">
        <ele>65.400001525879</ele>
        <time>2021-07-22T07:28:32.000Z</time>
      </trkpt>
      <trkpt lat="47.31109" lon="-2.3362">
        <ele>65.400001525879</ele>
        <time>2021-07-22T07:28:39.000Z</time>
      </trkpt>
      <trkpt lat="47.3111" lon="-2.33603">
        <ele>65.400001525879</ele>
        <time>2021-07-22T07:28:41.000Z</time>
      </trkpt>
      <trkpt lat="47.31109" lon="-2.33576">
        <ele>65.400001525879</ele>
        <time>2021-07-22T07:28:44.000Z</time>
      </trkpt>
      <trkpt lat="47.31103" lon="-2.33523">
        <ele>65.400001525879</ele>
        <time>2021-07-22T07:28:50.000Z</time>
      </trkpt>
      <trkpt lat="47.31088" lon="-2.33455">
        <ele>65.400001525879</ele>
        <time>2021-07-22T07:28:57.000Z</time>
      </trkpt>
      <trkpt lat="47.31088" lon="-2.33444">
        <ele>65.400001525879</ele>
        <time>2021-07-22T07:28:58.000Z</time>
      </trkpt>
      <trkpt lat="47.31087" lon="-2.33409">
        <ele>65</ele>
        <time>2021-07-22T07:29:01.000Z</time>
      </trkpt>
      <trkpt lat="47.31087" lon="-2.33398">
        <ele>64.400001525879</ele>
        <time>2021-07-22T07:29:02.000Z</time>
      </trkpt>
      <trkpt lat="47.31087" lon="-2.33387">
        <ele>64</ele>
        <time>2021-07-22T07:29:03.000Z</time>
      </trkpt>
      <trkpt lat="47.31086" lon="-2.33376">
        <ele>63.599998474121</ele>
        <time>2021-07-22T07:29:04.000Z</time>
      </trkpt>
      <trkpt lat="47.31086" lon="-2.33365">
        <ele>63.200000762939</ele>
        <time>2021-07-22T07:29:05.000Z</time>
      </trkpt>
      <trkpt lat="47.31091" lon="-2.33286">
        <ele>63.200000762939</ele>
        <time>2021-07-22T07:29:12.000Z</time>
      </trkpt>
      <trkpt lat="47.31093" lon="-2.33274">
        <ele>63.200000762939</ele>
        <time>2021-07-22T07:29:13.000Z</time>
      </trkpt>
      <trkpt lat="47.311" lon="-2.33225">
        <ele>63.200000762939</ele>
        <time>2021-07-22T07:29:18.000Z</time>
      </trkpt>
      <trkpt lat="47.31105" lon="-2.33216">
        <ele>63.200000762939</ele>
        <time>2021-07-22T07:29:19.000Z</time>
      </trkpt>
      <trkpt lat="47.31117" lon="-2.33203">
        <ele>62.799999237061</ele>
        <time>2021-07-22T07:29:21.000Z</time>
      </trkpt>
      <trkpt lat="47.31124" lon="-2.33198">
        <ele>62.400001525879</ele>
        <time>2021-07-22T07:29:22.000Z</time>
      </trkpt>
      <trkpt lat="47.3113" lon="-2.33194">
        <ele>62</ele>
        <time>2021-07-22T07:29:23.000Z</time>
      </trkpt>
      <trkpt lat="47.31137" lon="-2.3319">
        <ele>61.599998474121</ele>
        <time>2021-07-22T07:29:24.000Z</time>
      </trkpt>
      <trkpt lat="47.31144" lon="-2.33186">
        <ele>61.200000762939</ele>
        <time>2021-07-22T07:29:25.000Z</time>
      </trkpt>
      <trkpt lat="47.31171" lon="-2.3317">
        <ele>61.200000762939</ele>
        <time>2021-07-22T07:29:29.000Z</time>
      </trkpt>
      <trkpt lat="47.31218" lon="-2.33149">
        <ele>61.200000762939</ele>
        <time>2021-07-22T07:29:36.000Z</time>
      </trkpt>
      <trkpt lat="47.31226" lon="-2.33148">
        <ele>60.799999237061</ele>
        <time>2021-07-22T07:29:37.000Z</time>
      </trkpt>
      <trkpt lat="47.31233" lon="-2.33148">
        <ele>60.400001525879</ele>
        <time>2021-07-22T07:29:38.000Z</time>
      </trkpt>
      <trkpt lat="47.31241" lon="-2.33149">
        <ele>60</ele>
        <time>2021-07-22T07:29:39.000Z</time>
      </trkpt>
      <trkpt lat="47.31248" lon="-2.3315">
        <ele>59.599998474121</ele>
        <time>2021-07-22T07:29:40.000Z</time>
      </trkpt>
      <trkpt lat="47.31255" lon="-2.33152">
        <ele>59</ele>
        <time>2021-07-22T07:29:41.000Z</time>
      </trkpt>
      <trkpt lat="47.31261" lon="-2.33154">
        <ele>59</ele>
        <time>2021-07-22T07:29:42.000Z</time>
      </trkpt>
      <trkpt lat="47.31281" lon="-2.33162">
        <ele>59</ele>
        <time>2021-07-22T07:29:45.000Z</time>
      </trkpt>
      <trkpt lat="47.31316" lon="-2.33185">
        <ele>59</ele>
        <time>2021-07-22T07:29:51.000Z</time>
      </trkpt>
      <trkpt lat="47.31352" lon="-2.33218">
        <ele>59</ele>
        <time>2021-07-22T07:29:58.000Z</time>
      </trkpt>
      <trkpt lat="47.31395" lon="-2.33248">
        <ele>59</ele>
        <time>2021-07-22T07:30:06.000Z</time>
      </trkpt>
      <trkpt lat="47.31434" lon="-2.33282">
        <ele>59</ele>
        <time>2021-07-22T07:30:14.000Z</time>
      </trkpt>
      <trkpt lat="47.31458" lon="-2.33316">
        <ele>59</ele>
        <time>2021-07-22T07:30:20.000Z</time>
      </trkpt>
      <trkpt lat="47.31468" lon="-2.33341">
        <ele>59.599998474121</ele>
        <time>2021-07-22T07:30:24.000Z</time>
      </trkpt>
      <trkpt lat="47.3147" lon="-2.33347">
        <ele>60</ele>
        <time>2021-07-22T07:30:25.000Z</time>
      </trkpt>
      <trkpt lat="47.31473" lon="-2.33353">
        <ele>60.400001525879</ele>
        <time>2021-07-22T07:30:26.000Z</time>
      </trkpt>
      <trkpt lat="47.31476" lon="-2.33359">
        <ele>60.799999237061</ele>
        <time>2021-07-22T07:30:27.000Z</time>
      </trkpt>
      <trkpt lat="47.3148" lon="-2.33363">
        <ele>61.200000762939</ele>
        <time>2021-07-22T07:30:28.000Z</time>
      </trkpt>
      <trkpt lat="47.3149" lon="-2.33366">
        <ele>61.200000762939</ele>
        <time>2021-07-22T07:30:30.000Z</time>
      </trkpt>
      <trkpt lat="47.31506" lon="-2.33358">
        <ele>61.200000762939</ele>
        <time>2021-07-22T07:30:33.000Z</time>
      </trkpt>
      <trkpt lat="47.3151" lon="-2.33354">
        <ele>61.200000762939</ele>
        <time>2021-07-22T07:30:34.000Z</time>
      </trkpt>
      <trkpt lat="47.31552" lon="-2.33334">
        <ele>61.200000762939</ele>
        <time>2021-07-22T07:30:42.000Z</time>
      </trkpt>
      <trkpt lat="47.31599" lon="-2.33311">
        <ele>61.200000762939</ele>
        <time>2021-07-22T07:30:51.000Z</time>
      </trkpt>
      <trkpt lat="47.31642" lon="-2.33286">
        <ele>61.200000762939</ele>
        <time>2021-07-22T07:30:59.000Z</time>
      </trkpt>
      <trkpt lat="47.3167" lon="-2.33271">
        <ele>61.200000762939</ele>
        <time>2021-07-22T07:31:04.000Z</time>
      </trkpt>
      <trkpt lat="47.31679" lon="-2.33268">
        <ele>61.200000762939</ele>
        <time>2021-07-22T07:31:06.000Z</time>
      </trkpt>
      <trkpt lat="47.31703" lon="-2.33254">
        <ele>61.200000762939</ele>
        <time>2021-07-22T07:31:12.000Z</time>
      </trkpt>
      <trkpt lat="47.31722" lon="-2.33243">
        <ele>60.799999237061</ele>
        <time>2021-07-22T07:31:16.000Z</time>
      </trkpt>
      <trkpt lat="47.31727" lon="-2.33241">
        <ele>60.400001525879</ele>
        <time>2021-07-22T07:31:17.000Z</time>
      </trkpt>
      <trkpt lat="47.31732" lon="-2.3324">
        <ele>59.799999237061</ele>
        <time>2021-07-22T07:31:18.000Z</time>
      </trkpt>
      <trkpt lat="47.31736" lon="-2.33242">
        <ele>59.400001525879</ele>
        <time>2021-07-22T07:31:19.000Z</time>
      </trkpt>
      <trkpt lat="47.31742" lon="-2.33243">
        <ele>59</ele>
        <time>2021-07-22T07:31:20.000Z</time>
      </trkpt>
      <trkpt lat="47.31746" lon="-2.33245">
        <ele>59</ele>
        <time>2021-07-22T07:31:21.000Z</time>
      </trkpt>
      <trkpt lat="47.31762" lon="-2.33262">
        <ele>59</ele>
        <time>2021-07-22T07:31:25.000Z</time>
      </trkpt>
      <trkpt lat="47.3177" lon="-2.3329">
        <ele>59</ele>
        <time>2021-07-22T07:31:29.000Z</time>
      </trkpt>
      <trkpt lat="47.31772" lon="-2.33296">
        <ele>59</ele>
        <time>2021-07-22T07:31:30.000Z</time>
      </trkpt>
      <trkpt lat="47.31775" lon="-2.33302">
        <ele>59</ele>
        <time>2021-07-22T07:31:31.000Z</time>
      </trkpt>
      <trkpt lat="47.3178" lon="-2.33306">
        <ele>58.599998474121</ele>
        <time>2021-07-22T07:31:32.000Z</time>
      </trkpt>
      <trkpt lat="47.31784" lon="-2.33307">
        <ele>58.200000762939</ele>
        <time>2021-07-22T07:31:33.000Z</time>
      </trkpt>
      <trkpt lat="47.31789" lon="-2.33306">
        <ele>57.799999237061</ele>
        <time>2021-07-22T07:31:34.000Z</time>
      </trkpt>
      <trkpt lat="47.31794" lon="-2.33304">
        <ele>57.400001525879</ele>
        <time>2021-07-22T07:31:35.000Z</time>
      </trkpt>
      <trkpt lat="47.31799" lon="-2.33302">
        <ele>57</ele>
        <time>2021-07-22T07:31:36.000Z</time>
      </trkpt>
      <trkpt lat="47.3181" lon="-2.33296">
        <ele>56.599998474121</ele>
        <time>2021-07-22T07:31:38.000Z</time>
      </trkpt>
      <trkpt lat="47.31816" lon="-2.33291">
        <ele>56.200000762939</ele>
        <time>2021-07-22T07:31:39.000Z</time>
      </trkpt>
      <trkpt lat="47.31822" lon="-2.33287">
        <ele>55.599998474121</ele>
        <time>2021-07-22T07:31:40.000Z</time>
      </trkpt>
      <trkpt lat="47.31828" lon="-2.33282">
        <ele>55.200000762939</ele>
        <time>2021-07-22T07:31:41.000Z</time>
      </trkpt>
      <trkpt lat="47.31833" lon="-2.33278">
        <ele>54.799999237061</ele>
        <time>2021-07-22T07:31:42.000Z</time>
      </trkpt>
      <trkpt lat="47.31838" lon="-2.33273">
        <ele>54.400001525879</ele>
        <time>2021-07-22T07:31:43.000Z</time>
      </trkpt>
      <trkpt lat="47.31842" lon="-2.33268">
        <ele>54</ele>
        <time>2021-07-22T07:31:44.000Z</time>
      </trkpt>
      <trkpt lat="47.31846" lon="-2.33263">
        <ele>53.599998474121</ele>
        <time>2021-07-22T07:31:45.000Z</time>
      </trkpt>
      <trkpt lat="47.3185" lon="-2.33257">
        <ele>53.200000762939</ele>
        <time>2021-07-22T07:31:46.000Z</time>
      </trkpt>
      <trkpt lat="47.31853" lon="-2.33249">
        <ele>52.799999237061</ele>
        <time>2021-07-22T07:31:47.000Z</time>
      </trkpt>
      <trkpt lat="47.31861" lon="-2.33225">
        <ele>52.400001525879</ele>
        <time>2021-07-22T07:31:50.000Z</time>
      </trkpt>
      <trkpt lat="47.31862" lon="-2.33216">
        <ele>52</ele>
        <time>2021-07-22T07:31:51.000Z</time>
      </trkpt>
      <trkpt lat="47.31863" lon="-2.33206">
        <ele>51.599998474121</ele>
        <time>2021-07-22T07:31:52.000Z</time>
      </trkpt>
      <trkpt lat="47.31865" lon="-2.33197">
        <ele>51.200000762939</ele>
        <time>2021-07-22T07:31:53.000Z</time>
      </trkpt>
      <trkpt lat="47.31866" lon="-2.33187">
        <ele>50.799999237061</ele>
        <time>2021-07-22T07:31:54.000Z</time>
      </trkpt>
      <trkpt lat="47.3187" lon="-2.33166">
        <ele>50.799999237061</ele>
        <time>2021-07-22T07:31:56.000Z</time>
      </trkpt>
      <trkpt lat="47.31876" lon="-2.33119">
        <ele>50.400001525879</ele>
        <time>2021-07-22T07:32:01.000Z</time>
      </trkpt>
      <trkpt lat="47.31878" lon="-2.33106">
        <ele>49.799999237061</ele>
        <time>2021-07-22T07:32:02.000Z</time>
      </trkpt>
      <trkpt lat="47.31881" lon="-2.33092">
        <ele>49.400001525879</ele>
        <time>2021-07-22T07:32:03.000Z</time>
      </trkpt>
      <trkpt lat="47.31883" lon="-2.33079">
        <ele>49</ele>
        <time>2021-07-22T07:32:04.000Z</time>
      </trkpt>
      <trkpt lat="47.31884" lon="-2.33067">
        <ele>48.599998474121</ele>
        <time>2021-07-22T07:32:05.000Z</time>
      </trkpt>
      <trkpt lat="47.31889" lon="-2.33019">
        <ele>48.599998474121</ele>
        <time>2021-07-22T07:32:09.000Z</time>
      </trkpt>
      <trkpt lat="47.31888" lon="-2.32966">
        <ele>48.599998474121</ele>
        <time>2021-07-22T07:32:14.000Z</time>
      </trkpt>
      <trkpt lat="47.3189" lon="-2.32934">
        <ele>48.599998474121</ele>
        <time>2021-07-22T07:32:18.000Z</time>
      </trkpt>
      <trkpt lat="47.31891" lon="-2.3288">
        <ele>48.599998474121</ele>
        <time>2021-07-22T07:32:24.000Z</time>
      </trkpt>
      <trkpt lat="47.31891" lon="-2.32822">
        <ele>48.599998474121</ele>
        <time>2021-07-22T07:32:30.000Z</time>
      </trkpt>
      <trkpt lat="47.31891" lon="-2.32761">
        <ele>48.599998474121</ele>
        <time>2021-07-22T07:32:37.000Z</time>
      </trkpt>
      <trkpt lat="47.3189" lon="-2.32754">
        <ele>48.599998474121</ele>
        <time>2021-07-22T07:32:38.000Z</time>
      </trkpt>
      <trkpt lat="47.31888" lon="-2.3274">
        <ele>48.599998474121</ele>
        <time>2021-07-22T07:32:40.000Z</time>
      </trkpt>
      <trkpt lat="47.31883" lon="-2.32727">
        <ele>48.599998474121</ele>
        <time>2021-07-22T07:32:42.000Z</time>
      </trkpt>
      <trkpt lat="47.31864" lon="-2.32683">
        <ele>48.599998474121</ele>
        <time>2021-07-22T07:32:49.000Z</time>
      </trkpt>
      <trkpt lat="47.31861" lon="-2.32678">
        <ele>48.599998474121</ele>
        <time>2021-07-22T07:32:50.000Z</time>
      </trkpt>
      <trkpt lat="47.31848" lon="-2.32649">
        <ele>48.599998474121</ele>
        <time>2021-07-22T07:32:55.000Z</time>
      </trkpt>
      <trkpt lat="47.31846" lon="-2.32643">
        <ele>49</ele>
        <time>2021-07-22T07:32:56.000Z</time>
      </trkpt>
      <trkpt lat="47.31844" lon="-2.32637">
        <ele>49.400001525879</ele>
        <time>2021-07-22T07:32:57.000Z</time>
      </trkpt>
      <trkpt lat="47.31843" lon="-2.32632">
        <ele>49.799999237061</ele>
        <time>2021-07-22T07:32:58.000Z</time>
      </trkpt>
      <trkpt lat="47.31841" lon="-2.32626">
        <ele>50.200000762939</ele>
        <time>2021-07-22T07:32:59.000Z</time>
      </trkpt>
      <trkpt lat="47.3184" lon="-2.3262">
        <ele>50.599998474121</ele>
        <time>2021-07-22T07:33:00.000Z</time>
      </trkpt>
      <trkpt lat="47.31836" lon="-2.32605">
        <ele>50.599998474121</ele>
        <time>2021-07-22T07:33:03.000Z</time>
      </trkpt>
      <trkpt lat="47.31827" lon="-2.32563">
        <ele>50.599998474121</ele>
        <time>2021-07-22T07:33:11.000Z</time>
      </trkpt>
      <trkpt lat="47.31825" lon="-2.32554">
        <ele>51</ele>
        <time>2021-07-22T07:33:13.000Z</time>
      </trkpt>
      <trkpt lat="47.31824" lon="-2.32549">
        <ele>51.400001525879</ele>
        <time>2021-07-22T07:33:14.000Z</time>
      </trkpt>
      <trkpt lat="47.31822" lon="-2.32545">
        <ele>51.799999237061</ele>
        <time>2021-07-22T07:33:15.000Z</time>
      </trkpt>
      <trkpt lat="47.31821" lon="-2.32541">
        <ele>52.200000762939</ele>
        <time>2021-07-22T07:33:16.000Z</time>
      </trkpt>
      <trkpt lat="47.3182" lon="-2.32537">
        <ele>52.599998474121</ele>
        <time>2021-07-22T07:33:17.000Z</time>
      </trkpt>
      <trkpt lat="47.31814" lon="-2.32512">
        <ele>52.599998474121</ele>
        <time>2021-07-22T07:33:23.000Z</time>
      </trkpt>
      <trkpt lat="47.3181" lon="-2.32496">
        <ele>53.200000762939</ele>
        <time>2021-07-22T07:33:27.000Z</time>
      </trkpt>
      <trkpt lat="47.31808" lon="-2.32492">
        <ele>53.599998474121</ele>
        <time>2021-07-22T07:33:28.000Z</time>
      </trkpt>
      <trkpt lat="47.31807" lon="-2.32488">
        <ele>54</ele>
        <time>2021-07-22T07:33:29.000Z</time>
      </trkpt>
      <trkpt lat="47.31806" lon="-2.32485">
        <ele>54.400001525879</ele>
        <time>2021-07-22T07:33:30.000Z</time>
      </trkpt>
      <trkpt lat="47.31805" lon="-2.32482">
        <ele>54.799999237061</ele>
        <time>2021-07-22T07:33:31.000Z</time>
      </trkpt>
      <trkpt lat="47.31799" lon="-2.32462">
        <ele>54.799999237061</ele>
        <time>2021-07-22T07:33:38.000Z</time>
      </trkpt>
      <trkpt lat="47.31798" lon="-2.32461">
        <ele>55.200000762939</ele>
        <time>2021-07-22T07:33:39.000Z</time>
      </trkpt>
      <trkpt lat="47.31796" lon="-2.32458">
        <ele>55.599998474121</ele>
        <time>2021-07-22T07:33:40.000Z</time>
      </trkpt>
      <trkpt lat="47.31796" lon="-2.32456">
        <ele>56</ele>
        <time>2021-07-22T07:33:41.000Z</time>
      </trkpt>
      <trkpt lat="47.31794" lon="-2.32452">
        <ele>56.400001525879</ele>
        <time>2021-07-22T07:33:42.000Z</time>
      </trkpt>
      <trkpt lat="47.31793" lon="-2.32449">
        <ele>56.799999237061</ele>
        <time>2021-07-22T07:33:43.000Z</time>
      </trkpt>
      <trkpt lat="47.31791" lon="-2.32445">
        <ele>56.799999237061</ele>
        <time>2021-07-22T07:33:44.000Z</time>
      </trkpt>
      <trkpt lat="47.31788" lon="-2.3242">
        <ele>57.200000762939</ele>
        <time>2021-07-22T07:33:48.000Z</time>
      </trkpt>
      <trkpt lat="47.31786" lon="-2.32414">
        <ele>57.599998474121</ele>
        <time>2021-07-22T07:33:49.000Z</time>
      </trkpt>
      <trkpt lat="47.31785" lon="-2.32407">
        <ele>58</ele>
        <time>2021-07-22T07:33:50.000Z</time>
      </trkpt>
      <trkpt lat="47.31783" lon="-2.32401">
        <ele>58.400001525879</ele>
        <time>2021-07-22T07:33:51.000Z</time>
      </trkpt>
      <trkpt lat="47.31782" lon="-2.32395">
        <ele>58.799999237061</ele>
        <time>2021-07-22T07:33:52.000Z</time>
      </trkpt>
      <trkpt lat="47.31776" lon="-2.32365">
        <ele>58.799999237061</ele>
        <time>2021-07-22T07:33:57.000Z</time>
      </trkpt>
      <trkpt lat="47.31772" lon="-2.32347">
        <ele>58.799999237061</ele>
        <time>2021-07-22T07:34:00.000Z</time>
      </trkpt>
      <trkpt lat="47.31771" lon="-2.32341">
        <ele>59.200000762939</ele>
        <time>2021-07-22T07:34:01.000Z</time>
      </trkpt>
      <trkpt lat="47.3177" lon="-2.32335">
        <ele>59.599998474121</ele>
        <time>2021-07-22T07:34:02.000Z</time>
      </trkpt>
      <trkpt lat="47.31768" lon="-2.32329">
        <ele>60.200000762939</ele>
        <time>2021-07-22T07:34:03.000Z</time>
      </trkpt>
      <trkpt lat="47.31767" lon="-2.32323">
        <ele>60.599998474121</ele>
        <time>2021-07-22T07:34:04.000Z</time>
      </trkpt>
      <trkpt lat="47.31765" lon="-2.32316">
        <ele>61</ele>
        <time>2021-07-22T07:34:05.000Z</time>
      </trkpt>
      <trkpt lat="47.31758" lon="-2.32279">
        <ele>61</ele>
        <time>2021-07-22T07:34:11.000Z</time>
      </trkpt>
      <trkpt lat="47.31754" lon="-2.32256">
        <ele>61</ele>
        <time>2021-07-22T07:34:15.000Z</time>
      </trkpt>
      <trkpt lat="47.31752" lon="-2.32245">
        <ele>61</ele>
        <time>2021-07-22T07:34:17.000Z</time>
      </trkpt>
      <trkpt lat="47.31755" lon="-2.32228">
        <ele>61</ele>
        <time>2021-07-22T07:34:21.000Z</time>
      </trkpt>
      <trkpt lat="47.31759" lon="-2.32227">
        <ele>61</ele>
        <time>2021-07-22T07:34:22.000Z</time>
      </trkpt>
      <trkpt lat="47.31767" lon="-2.32226">
        <ele>61</ele>
        <time>2021-07-22T07:34:24.000Z</time>
      </trkpt>
      <trkpt lat="47.31798" lon="-2.32226">
        <ele>61</ele>
        <time>2021-07-22T07:34:30.000Z</time>
      </trkpt>
      <trkpt lat="47.31811" lon="-2.32227">
        <ele>61</ele>
        <time>2021-07-22T07:34:34.000Z</time>
      </trkpt>
      <trkpt lat="47.31832" lon="-2.32224">
        <ele>61</ele>
        <time>2021-07-22T07:34:40.000Z</time>
      </trkpt>
      <trkpt lat="47.31845" lon="-2.32219">
        <ele>60.599998474121</ele>
        <time>2021-07-22T07:34:43.000Z</time>
      </trkpt>
      <trkpt lat="47.3185" lon="-2.32216">
        <ele>60.200000762939</ele>
        <time>2021-07-22T07:34:44.000Z</time>
      </trkpt>
      <trkpt lat="47.31856" lon="-2.32214">
        <ele>59.799999237061</ele>
        <time>2021-07-22T07:34:45.000Z</time>
      </trkpt>
      <trkpt lat="47.31862" lon="-2.32212">
        <ele>59.400001525879</ele>
        <time>2021-07-22T07:34:46.000Z</time>
      </trkpt>
      <trkpt lat="47.31868" lon="-2.32209">
        <ele>59</ele>
        <time>2021-07-22T07:34:47.000Z</time>
      </trkpt>
      <trkpt lat="47.31889" lon="-2.32202">
        <ele>58.400001525879</ele>
        <time>2021-07-22T07:34:50.000Z</time>
      </trkpt>
      <trkpt lat="47.31895" lon="-2.32201">
        <ele>58</ele>
        <time>2021-07-22T07:34:51.000Z</time>
      </trkpt>
      <trkpt lat="47.31901" lon="-2.32201">
        <ele>57.599998474121</ele>
        <time>2021-07-22T07:34:52.000Z</time>
      </trkpt>
      <trkpt lat="47.31909" lon="-2.32201">
        <ele>57.200000762939</ele>
        <time>2021-07-22T07:34:53.000Z</time>
      </trkpt>
      <trkpt lat="47.31917" lon="-2.32203">
        <ele>56.799999237061</ele>
        <time>2021-07-22T07:34:54.000Z</time>
      </trkpt>
      <trkpt lat="47.31925" lon="-2.32204">
        <ele>56.200000762939</ele>
        <time>2021-07-22T07:34:55.000Z</time>
      </trkpt>
      <trkpt lat="47.31932" lon="-2.32206">
        <ele>55.799999237061</ele>
        <time>2021-07-22T07:34:56.000Z</time>
      </trkpt>
      <trkpt lat="47.31938" lon="-2.32208">
        <ele>55.400001525879</ele>
        <time>2021-07-22T07:34:57.000Z</time>
      </trkpt>
      <trkpt lat="47.31945" lon="-2.3221">
        <ele>54.799999237061</ele>
        <time>2021-07-22T07:34:58.000Z</time>
      </trkpt>
      <trkpt lat="47.31949" lon="-2.32213">
        <ele>54.400001525879</ele>
        <time>2021-07-22T07:34:59.000Z</time>
      </trkpt>
      <trkpt lat="47.31952" lon="-2.32217">
        <ele>53.799999237061</ele>
        <time>2021-07-22T07:35:00.000Z</time>
      </trkpt>
      <trkpt lat="47.31953" lon="-2.32223">
        <ele>53.200000762939</ele>
        <time>2021-07-22T07:35:01.000Z</time>
      </trkpt>
      <trkpt lat="47.31953" lon="-2.32229">
        <ele>52.599998474121</ele>
        <time>2021-07-22T07:35:02.000Z</time>
      </trkpt>
      <trkpt lat="47.31951" lon="-2.32234">
        <ele>52</ele>
        <time>2021-07-22T07:35:03.000Z</time>
      </trkpt>
      <trkpt lat="47.31949" lon="-2.32239">
        <ele>52</ele>
        <time>2021-07-22T07:35:04.000Z</time>
      </trkpt>
      <trkpt lat="47.31946" lon="-2.32252">
        <ele>52</ele>
        <time>2021-07-22T07:35:06.000Z</time>
      </trkpt>
      <trkpt lat="47.31948" lon="-2.32263">
        <ele>51.599998474121</ele>
        <time>2021-07-22T07:35:08.000Z</time>
      </trkpt>
      <trkpt lat="47.3195" lon="-2.32265">
        <ele>51.200000762939</ele>
        <time>2021-07-22T07:35:09.000Z</time>
      </trkpt>
      <trkpt lat="47.31954" lon="-2.32263">
        <ele>50.799999237061</ele>
        <time>2021-07-22T07:35:10.000Z</time>
      </trkpt>
      <trkpt lat="47.31957" lon="-2.32256">
        <ele>50.200000762939</ele>
        <time>2021-07-22T07:35:11.000Z</time>
      </trkpt>
      <trkpt lat="47.31961" lon="-2.32248">
        <ele>49.799999237061</ele>
        <time>2021-07-22T07:35:12.000Z</time>
      </trkpt>
      <trkpt lat="47.31977" lon="-2.32226">
        <ele>49.400001525879</ele>
        <time>2021-07-22T07:35:15.000Z</time>
      </trkpt>
      <trkpt lat="47.31984" lon="-2.3222">
        <ele>49</ele>
        <time>2021-07-22T07:35:16.000Z</time>
      </trkpt>
      <trkpt lat="47.3199" lon="-2.32214">
        <ele>48.599998474121</ele>
        <time>2021-07-22T07:35:17.000Z</time>
      </trkpt>
      <trkpt lat="47.31996" lon="-2.32207">
        <ele>48.200000762939</ele>
        <time>2021-07-22T07:35:18.000Z</time>
      </trkpt>
      <trkpt lat="47.32002" lon="-2.32201">
        <ele>47.799999237061</ele>
        <time>2021-07-22T07:35:19.000Z</time>
      </trkpt>
      <trkpt lat="47.32035" lon="-2.32188">
        <ele>47.799999237061</ele>
        <time>2021-07-22T07:35:23.000Z</time>
      </trkpt>
      <trkpt lat="47.32088" lon="-2.3218">
        <ele>47.799999237061</ele>
        <time>2021-07-22T07:35:29.000Z</time>
      </trkpt>
      <trkpt lat="47.32106" lon="-2.32178">
        <ele>47.400001525879</ele>
        <time>2021-07-22T07:35:31.000Z</time>
      </trkpt>
      <trkpt lat="47.32115" lon="-2.32176">
        <ele>47</ele>
        <time>2021-07-22T07:35:32.000Z</time>
      </trkpt>
      <trkpt lat="47.32124" lon="-2.32173">
        <ele>46.400001525879</ele>
        <time>2021-07-22T07:35:33.000Z</time>
      </trkpt>
      <trkpt lat="47.32133" lon="-2.32168">
        <ele>46</ele>
        <time>2021-07-22T07:35:34.000Z</time>
      </trkpt>
      <trkpt lat="47.32142" lon="-2.32163">
        <ele>45.599998474121</ele>
        <time>2021-07-22T07:35:35.000Z</time>
      </trkpt>
      <trkpt lat="47.32164" lon="-2.32143">
        <ele>45.200000762939</ele>
        <time>2021-07-22T07:35:38.000Z</time>
      </trkpt>
      <trkpt lat="47.32171" lon="-2.32136">
        <ele>44.799999237061</ele>
        <time>2021-07-22T07:35:39.000Z</time>
      </trkpt>
      <trkpt lat="47.32178" lon="-2.32131">
        <ele>44.400001525879</ele>
        <time>2021-07-22T07:35:40.000Z</time>
      </trkpt>
      <trkpt lat="47.32183" lon="-2.32126">
        <ele>44</ele>
        <time>2021-07-22T07:35:41.000Z</time>
      </trkpt>
      <trkpt lat="47.32188" lon="-2.32122">
        <ele>43.599998474121</ele>
        <time>2021-07-22T07:35:42.000Z</time>
      </trkpt>
      <trkpt lat="47.32194" lon="-2.32118">
        <ele>43.599998474121</ele>
        <time>2021-07-22T07:35:43.000Z</time>
      </trkpt>
      <trkpt lat="47.32204" lon="-2.32114">
        <ele>43.599998474121</ele>
        <time>2021-07-22T07:35:46.000Z</time>
      </trkpt>
      <trkpt lat="47.32224" lon="-2.3211">
        <ele>43.599998474121</ele>
        <time>2021-07-22T07:35:51.000Z</time>
      </trkpt>
      <trkpt lat="47.32254" lon="-2.32102">
        <ele>43.599998474121</ele>
        <time>2021-07-22T07:35:57.000Z</time>
      </trkpt>
      <trkpt lat="47.32296" lon="-2.32096">
        <ele>43.599998474121</ele>
        <time>2021-07-22T07:36:05.000Z</time>
      </trkpt>
      <trkpt lat="47.32329" lon="-2.32101">
        <ele>43.599998474121</ele>
        <time>2021-07-22T07:36:12.000Z</time>
      </trkpt>
      <trkpt lat="47.32348" lon="-2.32101">
        <ele>43.599998474121</ele>
        <time>2021-07-22T07:36:17.000Z</time>
      </trkpt>
      <trkpt lat="47.32352" lon="-2.32102">
        <ele>43.599998474121</ele>
        <time>2021-07-22T07:36:18.000Z</time>
      </trkpt>
      <trkpt lat="47.32367" lon="-2.32106">
        <ele>43.599998474121</ele>
        <time>2021-07-22T07:36:21.000Z</time>
      </trkpt>
      <trkpt lat="47.32373" lon="-2.32106">
        <ele>43.599998474121</ele>
        <time>2021-07-22T07:36:22.000Z</time>
      </trkpt>
      <trkpt lat="47.32396" lon="-2.32103">
        <ele>43.599998474121</ele>
        <time>2021-07-22T07:36:26.000Z</time>
      </trkpt>
      <trkpt lat="47.32436" lon="-2.32101">
        <ele>43.599998474121</ele>
        <time>2021-07-22T07:36:33.000Z</time>
      </trkpt>
      <trkpt lat="47.32478" lon="-2.32098">
        <ele>43.599998474121</ele>
        <time>2021-07-22T07:36:40.000Z</time>
      </trkpt>
      <trkpt lat="47.32496" lon="-2.32092">
        <ele>43.599998474121</ele>
        <time>2021-07-22T07:36:44.000Z</time>
      </trkpt>
      <trkpt lat="47.32499" lon="-2.32085">
        <ele>43.599998474121</ele>
        <time>2021-07-22T07:36:45.000Z</time>
      </trkpt>
      <trkpt lat="47.32502" lon="-2.32065">
        <ele>43.599998474121</ele>
        <time>2021-07-22T07:36:48.000Z</time>
      </trkpt>
      <trkpt lat="47.32503" lon="-2.32056">
        <ele>43.599998474121</ele>
        <time>2021-07-22T07:36:49.000Z</time>
      </trkpt>
      <trkpt lat="47.32504" lon="-2.32029">
        <ele>43.599998474121</ele>
        <time>2021-07-22T07:36:52.000Z</time>
      </trkpt>
      <trkpt lat="47.32504" lon="-2.3202">
        <ele>43.599998474121</ele>
        <time>2021-07-22T07:36:53.000Z</time>
      </trkpt>
      <trkpt lat="47.32506" lon="-2.31952">
        <ele>43.599998474121</ele>
        <time>2021-07-22T07:37:00.000Z</time>
      </trkpt>
      <trkpt lat="47.32508" lon="-2.31942">
        <ele>43.599998474121</ele>
        <time>2021-07-22T07:37:01.000Z</time>
      </trkpt>
      <trkpt lat="47.32513" lon="-2.31905">
        <ele>43.599998474121</ele>
        <time>2021-07-22T07:37:05.000Z</time>
      </trkpt>
      <trkpt lat="47.32515" lon="-2.31885">
        <ele>44</ele>
        <time>2021-07-22T07:37:07.000Z</time>
      </trkpt>
      <trkpt lat="47.32516" lon="-2.31876">
        <ele>44.400001525879</ele>
        <time>2021-07-22T07:37:08.000Z</time>
      </trkpt>
      <trkpt lat="47.32517" lon="-2.31866">
        <ele>45.200000762939</ele>
        <time>2021-07-22T07:37:09.000Z</time>
      </trkpt>
      <trkpt lat="47.32518" lon="-2.31855">
        <ele>45.599998474121</ele>
        <time>2021-07-22T07:37:10.000Z</time>
      </trkpt>
      <trkpt lat="47.32519" lon="-2.31837">
        <ele>45.599998474121</ele>
        <time>2021-07-22T07:37:12.000Z</time>
      </trkpt>
      <trkpt lat="47.32516" lon="-2.31785">
        <ele>45.599998474121</ele>
        <time>2021-07-22T07:37:18.000Z</time>
      </trkpt>
      <trkpt lat="47.32511" lon="-2.31729">
        <ele>45.599998474121</ele>
        <time>2021-07-22T07:37:24.000Z</time>
      </trkpt>
      <trkpt lat="47.32506" lon="-2.31664">
        <ele>45.599998474121</ele>
        <time>2021-07-22T07:37:31.000Z</time>
      </trkpt>
      <trkpt lat="47.32508" lon="-2.31648">
        <ele>45.599998474121</ele>
        <time>2021-07-22T07:37:33.000Z</time>
      </trkpt>
      <trkpt lat="47.32516" lon="-2.31635">
        <ele>45.599998474121</ele>
        <time>2021-07-22T07:37:35.000Z</time>
      </trkpt>
      <trkpt lat="47.32526" lon="-2.31622">
        <ele>45.599998474121</ele>
        <time>2021-07-22T07:37:37.000Z</time>
      </trkpt>
      <trkpt lat="47.32544" lon="-2.31597">
        <ele>45.599998474121</ele>
        <time>2021-07-22T07:37:41.000Z</time>
      </trkpt>
      <trkpt lat="47.32554" lon="-2.31584">
        <ele>45.599998474121</ele>
        <time>2021-07-22T07:37:43.000Z</time>
      </trkpt>
      <trkpt lat="47.32556" lon="-2.31576">
        <ele>45.599998474121</ele>
        <time>2021-07-22T07:37:44.000Z</time>
      </trkpt>
      <trkpt lat="47.32558" lon="-2.31538">
        <ele>45.599998474121</ele>
        <time>2021-07-22T07:37:49.000Z</time>
      </trkpt>
      <trkpt lat="47.3256" lon="-2.31479">
        <ele>45.599998474121</ele>
        <time>2021-07-22T07:37:56.000Z</time>
      </trkpt>
      <trkpt lat="47.32555" lon="-2.31438">
        <ele>45.599998474121</ele>
        <time>2021-07-22T07:38:01.000Z</time>
      </trkpt>
      <trkpt lat="47.32548" lon="-2.31409">
        <ele>45.599998474121</ele>
        <time>2021-07-22T07:38:06.000Z</time>
      </trkpt>
      <trkpt lat="47.32548" lon="-2.31401">
        <ele>45.599998474121</ele>
        <time>2021-07-22T07:38:08.000Z</time>
      </trkpt>
      <trkpt lat="47.32551" lon="-2.31392">
        <ele>45.599998474121</ele>
        <time>2021-07-22T07:38:10.000Z</time>
      </trkpt>
      <trkpt lat="47.32554" lon="-2.31378">
        <ele>45.599998474121</ele>
        <time>2021-07-22T07:38:12.000Z</time>
      </trkpt>
      <trkpt lat="47.32555" lon="-2.31354">
        <ele>45.599998474121</ele>
        <time>2021-07-22T07:38:15.000Z</time>
      </trkpt>
      <trkpt lat="47.32556" lon="-2.3134">
        <ele>45.599998474121</ele>
        <time>2021-07-22T07:38:17.000Z</time>
      </trkpt>
      <trkpt lat="47.32562" lon="-2.3132">
        <ele>45.599998474121</ele>
        <time>2021-07-22T07:38:20.000Z</time>
      </trkpt>
      <trkpt lat="47.32567" lon="-2.31305">
        <ele>45.599998474121</ele>
        <time>2021-07-22T07:38:22.000Z</time>
      </trkpt>
      <trkpt lat="47.32568" lon="-2.31288">
        <ele>45.599998474121</ele>
        <time>2021-07-22T07:38:24.000Z</time>
      </trkpt>
      <trkpt lat="47.32568" lon="-2.31263">
        <ele>45.599998474121</ele>
        <time>2021-07-22T07:38:27.000Z</time>
      </trkpt>
      <trkpt lat="47.3257" lon="-2.31235">
        <ele>45.599998474121</ele>
        <time>2021-07-22T07:38:30.000Z</time>
      </trkpt>
      <trkpt lat="47.3257" lon="-2.31217">
        <ele>45.599998474121</ele>
        <time>2021-07-22T07:38:32.000Z</time>
      </trkpt>
      <trkpt lat="47.32564" lon="-2.31203">
        <ele>45.599998474121</ele>
        <time>2021-07-22T07:38:34.000Z</time>
      </trkpt>
      <trkpt lat="47.32557" lon="-2.3119">
        <ele>45.599998474121</ele>
        <time>2021-07-22T07:38:36.000Z</time>
      </trkpt>
      <trkpt lat="47.32557" lon="-2.3118">
        <ele>45.599998474121</ele>
        <time>2021-07-22T07:38:37.000Z</time>
      </trkpt>
      <trkpt lat="47.32556" lon="-2.31172">
        <ele>45.599998474121</ele>
        <time>2021-07-22T07:38:38.000Z</time>
      </trkpt>
      <trkpt lat="47.32563" lon="-2.31111">
        <ele>45.599998474121</ele>
        <time>2021-07-22T07:38:45.000Z</time>
      </trkpt>
      <trkpt lat="47.32566" lon="-2.31067">
        <ele>45.599998474121</ele>
        <time>2021-07-22T07:38:50.000Z</time>
      </trkpt>
      <trkpt lat="47.32566" lon="-2.31059">
        <ele>45.599998474121</ele>
        <time>2021-07-22T07:38:51.000Z</time>
      </trkpt>
      <trkpt lat="47.32562" lon="-2.31034">
        <ele>46</ele>
        <time>2021-07-22T07:38:54.000Z</time>
      </trkpt>
      <trkpt lat="47.32561" lon="-2.31026">
        <ele>46.599998474121</ele>
        <time>2021-07-22T07:38:55.000Z</time>
      </trkpt>
      <trkpt lat="47.32559" lon="-2.31018">
        <ele>47</ele>
        <time>2021-07-22T07:38:56.000Z</time>
      </trkpt>
      <trkpt lat="47.32558" lon="-2.31009">
        <ele>47.400001525879</ele>
        <time>2021-07-22T07:38:57.000Z</time>
      </trkpt>
      <trkpt lat="47.32558" lon="-2.31">
        <ele>48</ele>
        <time>2021-07-22T07:38:58.000Z</time>
      </trkpt>
      <trkpt lat="47.32557" lon="-2.30971">
        <ele>48</ele>
        <time>2021-07-22T07:39:01.000Z</time>
      </trkpt>
      <trkpt lat="47.32558" lon="-2.30908">
        <ele>48</ele>
        <time>2021-07-22T07:39:07.000Z</time>
      </trkpt>
      <trkpt lat="47.32557" lon="-2.30831">
        <ele>48</ele>
        <time>2021-07-22T07:39:14.000Z</time>
      </trkpt>
      <trkpt lat="47.32549" lon="-2.30755">
        <ele>48</ele>
        <time>2021-07-22T07:39:21.000Z</time>
      </trkpt>
      <trkpt lat="47.32537" lon="-2.30686">
        <ele>48</ele>
        <time>2021-07-22T07:39:28.000Z</time>
      </trkpt>
      <trkpt lat="47.32532" lon="-2.30649">
        <ele>48</ele>
        <time>2021-07-22T07:39:32.000Z</time>
      </trkpt>
      <trkpt lat="47.32529" lon="-2.30631">
        <ele>48</ele>
        <time>2021-07-22T07:39:34.000Z</time>
      </trkpt>
      <trkpt lat="47.32518" lon="-2.30568">
        <ele>48</ele>
        <time>2021-07-22T07:39:41.000Z</time>
      </trkpt>
      <trkpt lat="47.32509" lon="-2.30507">
        <ele>48</ele>
        <time>2021-07-22T07:39:48.000Z</time>
      </trkpt>
      <trkpt lat="47.32499" lon="-2.30456">
        <ele>48</ele>
        <time>2021-07-22T07:39:54.000Z</time>
      </trkpt>
      <trkpt lat="47.32493" lon="-2.30426">
        <ele>48</ele>
        <time>2021-07-22T07:39:58.000Z</time>
      </trkpt>
      <trkpt lat="47.32495" lon="-2.30412">
        <ele>48</ele>
        <time>2021-07-22T07:40:00.000Z</time>
      </trkpt>
      <trkpt lat="47.32509" lon="-2.30406">
        <ele>48</ele>
        <time>2021-07-22T07:40:03.000Z</time>
      </trkpt>
      <trkpt lat="47.32526" lon="-2.304">
        <ele>48</ele>
        <time>2021-07-22T07:40:06.000Z</time>
      </trkpt>
      <trkpt lat="47.32535" lon="-2.30391">
        <ele>48</ele>
        <time>2021-07-22T07:40:08.000Z</time>
      </trkpt>
      <trkpt lat="47.32536" lon="-2.30377">
        <ele>48</ele>
        <time>2021-07-22T07:40:10.000Z</time>
      </trkpt>
      <trkpt lat="47.32535" lon="-2.30371">
        <ele>48</ele>
        <time>2021-07-22T07:40:11.000Z</time>
      </trkpt>
      <trkpt lat="47.32529" lon="-2.30334">
        <ele>48</ele>
        <time>2021-07-22T07:40:16.000Z</time>
      </trkpt>
      <trkpt lat="47.3252" lon="-2.3029">
        <ele>48.400001525879</ele>
        <time>2021-07-22T07:40:22.000Z</time>
      </trkpt>
      <trkpt lat="47.32519" lon="-2.30282">
        <ele>48.799999237061</ele>
        <time>2021-07-22T07:40:23.000Z</time>
      </trkpt>
      <trkpt lat="47.32517" lon="-2.30275">
        <ele>49.200000762939</ele>
        <time>2021-07-22T07:40:24.000Z</time>
      </trkpt>
      <trkpt lat="47.32516" lon="-2.30267">
        <ele>49.599998474121</ele>
        <time>2021-07-22T07:40:25.000Z</time>
      </trkpt>
      <trkpt lat="47.32515" lon="-2.30259">
        <ele>50</ele>
        <time>2021-07-22T07:40:26.000Z</time>
      </trkpt>
      <trkpt lat="47.3251" lon="-2.30218">
        <ele>50</ele>
        <time>2021-07-22T07:40:31.000Z</time>
      </trkpt>
      <trkpt lat="47.32505" lon="-2.30186">
        <ele>50.400001525879</ele>
        <time>2021-07-22T07:40:35.000Z</time>
      </trkpt>
      <trkpt lat="47.32504" lon="-2.30178">
        <ele>50.799999237061</ele>
        <time>2021-07-22T07:40:36.000Z</time>
      </trkpt>
      <trkpt lat="47.32503" lon="-2.3017">
        <ele>51.200000762939</ele>
        <time>2021-07-22T07:40:37.000Z</time>
      </trkpt>
      <trkpt lat="47.32501" lon="-2.30163">
        <ele>51.599998474121</ele>
        <time>2021-07-22T07:40:38.000Z</time>
      </trkpt>
      <trkpt lat="47.325" lon="-2.30154">
        <ele>52</ele>
        <time>2021-07-22T07:40:39.000Z</time>
      </trkpt>
      <trkpt lat="47.32493" lon="-2.30099">
        <ele>52</ele>
        <time>2021-07-22T07:40:46.000Z</time>
      </trkpt>
      <trkpt lat="47.32492" lon="-2.30091">
        <ele>52</ele>
        <time>2021-07-22T07:40:47.000Z</time>
      </trkpt>
      <trkpt lat="47.32489" lon="-2.30059">
        <ele>52</ele>
        <time>2021-07-22T07:40:51.000Z</time>
      </trkpt>
      <trkpt lat="47.32476" lon="-2.30016">
        <ele>52</ele>
        <time>2021-07-22T07:40:57.000Z</time>
      </trkpt>
      <trkpt lat="47.32467" lon="-2.29995">
        <ele>52</ele>
        <time>2021-07-22T07:41:00.000Z</time>
      </trkpt>
      <trkpt lat="47.3246" lon="-2.29983">
        <ele>52</ele>
        <time>2021-07-22T07:41:02.000Z</time>
      </trkpt>
      <trkpt lat="47.3245" lon="-2.29968">
        <ele>52</ele>
        <time>2021-07-22T07:41:05.000Z</time>
      </trkpt>
      <trkpt lat="47.32447" lon="-2.2996">
        <ele>52</ele>
        <time>2021-07-22T07:41:07.000Z</time>
      </trkpt>
      <trkpt lat="47.32446" lon="-2.29956">
        <ele>52</ele>
        <time>2021-07-22T07:41:11.000Z</time>
      </trkpt>
      <trkpt lat="47.32444" lon="-2.29952">
        <ele>52</ele>
        <time>2021-07-22T07:41:53.000Z</time>
      </trkpt>
      <trkpt lat="47.32444" lon="-2.2995">
        <ele>52</ele>
        <time>2021-07-22T07:41:54.000Z</time>
      </trkpt>
      <trkpt lat="47.32444" lon="-2.29947">
        <ele>52</ele>
        <time>2021-07-22T07:41:55.000Z</time>
      </trkpt>
      <trkpt lat="47.32447" lon="-2.29928">
        <ele>52</ele>
        <time>2021-07-22T07:41:59.000Z</time>
      </trkpt>
      <trkpt lat="47.32444" lon="-2.299">
        <ele>52</ele>
        <time>2021-07-22T07:42:03.000Z</time>
      </trkpt>
      <trkpt lat="47.32441" lon="-2.29871">
        <ele>52</ele>
        <time>2021-07-22T07:42:07.000Z</time>
      </trkpt>
      <trkpt lat="47.32441" lon="-2.29866">
        <ele>52</ele>
        <time>2021-07-22T07:42:08.000Z</time>
      </trkpt>
      <trkpt lat="47.32451" lon="-2.29851">
        <ele>52</ele>
        <time>2021-07-22T07:42:11.000Z</time>
      </trkpt>
      <trkpt lat="47.32465" lon="-2.29839">
        <ele>52</ele>
        <time>2021-07-22T07:42:14.000Z</time>
      </trkpt>
      <trkpt lat="47.3248" lon="-2.29825">
        <ele>52</ele>
        <time>2021-07-22T07:42:17.000Z</time>
      </trkpt>
      <trkpt lat="47.32514" lon="-2.29792">
        <ele>52</ele>
        <time>2021-07-22T07:42:24.000Z</time>
      </trkpt>
      <trkpt lat="47.32544" lon="-2.29763">
        <ele>52</ele>
        <time>2021-07-22T07:42:30.000Z</time>
      </trkpt>
      <trkpt lat="47.32565" lon="-2.29732">
        <ele>52</ele>
        <time>2021-07-22T07:42:35.000Z</time>
      </trkpt>
      <trkpt lat="47.32596" lon="-2.29682">
        <ele>52</ele>
        <time>2021-07-22T07:42:43.000Z</time>
      </trkpt>
      <trkpt lat="47.3262" lon="-2.29643">
        <ele>51.599998474121</ele>
        <time>2021-07-22T07:42:49.000Z</time>
      </trkpt>
      <trkpt lat="47.32625" lon="-2.29635">
        <ele>51.200000762939</ele>
        <time>2021-07-22T07:42:50.000Z</time>
      </trkpt>
      <trkpt lat="47.32629" lon="-2.29628">
        <ele>50.799999237061</ele>
        <time>2021-07-22T07:42:51.000Z</time>
      </trkpt>
      <trkpt lat="47.32634" lon="-2.29619">
        <ele>50.200000762939</ele>
        <time>2021-07-22T07:42:52.000Z</time>
      </trkpt>
      <trkpt lat="47.32638" lon="-2.29609">
        <ele>49.799999237061</ele>
        <time>2021-07-22T07:42:53.000Z</time>
      </trkpt>
      <trkpt lat="47.32648" lon="-2.2959">
        <ele>49.799999237061</ele>
        <time>2021-07-22T07:42:55.000Z</time>
      </trkpt>
      <trkpt lat="47.32658" lon="-2.29559">
        <ele>49.400001525879</ele>
        <time>2021-07-22T07:42:58.000Z</time>
      </trkpt>
      <trkpt lat="47.32661" lon="-2.29548">
        <ele>49</ele>
        <time>2021-07-22T07:42:59.000Z</time>
      </trkpt>
      <trkpt lat="47.32664" lon="-2.29537">
        <ele>48.599998474121</ele>
        <time>2021-07-22T07:43:00.000Z</time>
      </trkpt>
      <trkpt lat="47.32666" lon="-2.29527">
        <ele>48.200000762939</ele>
        <time>2021-07-22T07:43:01.000Z</time>
      </trkpt>
      <trkpt lat="47.32668" lon="-2.29516">
        <ele>47.599998474121</ele>
        <time>2021-07-22T07:43:02.000Z</time>
      </trkpt>
      <trkpt lat="47.32676" lon="-2.29476">
        <ele>47.599998474121</ele>
        <time>2021-07-22T07:43:06.000Z</time>
      </trkpt>
      <trkpt lat="47.32691" lon="-2.2943">
        <ele>47.599998474121</ele>
        <time>2021-07-22T07:43:11.000Z</time>
      </trkpt>
      <trkpt lat="47.32697" lon="-2.29424">
        <ele>47.599998474121</ele>
        <time>2021-07-22T07:43:12.000Z</time>
      </trkpt>
      <trkpt lat="47.32703" lon="-2.29419">
        <ele>47.200000762939</ele>
        <time>2021-07-22T07:43:13.000Z</time>
      </trkpt>
      <trkpt lat="47.32709" lon="-2.29416">
        <ele>46.799999237061</ele>
        <time>2021-07-22T07:43:14.000Z</time>
      </trkpt>
      <trkpt lat="47.32714" lon="-2.29413">
        <ele>46.400001525879</ele>
        <time>2021-07-22T07:43:15.000Z</time>
      </trkpt>
      <trkpt lat="47.32719" lon="-2.2941">
        <ele>46</ele>
        <time>2021-07-22T07:43:16.000Z</time>
      </trkpt>
      <trkpt lat="47.32724" lon="-2.29406">
        <ele>45.599998474121</ele>
        <time>2021-07-22T07:43:17.000Z</time>
      </trkpt>
      <trkpt lat="47.32742" lon="-2.29392">
        <ele>45.599998474121</ele>
        <time>2021-07-22T07:43:21.000Z</time>
      </trkpt>
      <trkpt lat="47.32755" lon="-2.29382">
        <ele>45.599998474121</ele>
        <time>2021-07-22T07:43:24.000Z</time>
      </trkpt>
      <trkpt lat="47.32768" lon="-2.29368">
        <ele>45.599998474121</ele>
        <time>2021-07-22T07:43:27.000Z</time>
      </trkpt>
      <trkpt lat="47.32772" lon="-2.29362">
        <ele>45.599998474121</ele>
        <time>2021-07-22T07:43:28.000Z</time>
      </trkpt>
      <trkpt lat="47.3278" lon="-2.29351">
        <ele>45.599998474121</ele>
        <time>2021-07-22T07:43:30.000Z</time>
      </trkpt>
      <trkpt lat="47.32788" lon="-2.29339">
        <ele>45.599998474121</ele>
        <time>2021-07-22T07:43:32.000Z</time>
      </trkpt>
      <trkpt lat="47.32791" lon="-2.29333">
        <ele>45.599998474121</ele>
        <time>2021-07-22T07:43:33.000Z</time>
      </trkpt>
      <trkpt lat="47.32798" lon="-2.2931">
        <ele>45.599998474121</ele>
        <time>2021-07-22T07:43:36.000Z</time>
      </trkpt>
      <trkpt lat="47.32808" lon="-2.29277">
        <ele>45.599998474121</ele>
        <time>2021-07-22T07:43:40.000Z</time>
      </trkpt>
      <trkpt lat="47.32811" lon="-2.2926">
        <ele>45.599998474121</ele>
        <time>2021-07-22T07:43:42.000Z</time>
      </trkpt>
      <trkpt lat="47.32812" lon="-2.29244">
        <ele>45.599998474121</ele>
        <time>2021-07-22T07:43:44.000Z</time>
      </trkpt>
      <trkpt lat="47.32809" lon="-2.29229">
        <ele>45.599998474121</ele>
        <time>2021-07-22T07:43:46.000Z</time>
      </trkpt>
      <trkpt lat="47.32803" lon="-2.29214">
        <ele>45.200000762939</ele>
        <time>2021-07-22T07:43:48.000Z</time>
      </trkpt>
      <trkpt lat="47.328" lon="-2.29206">
        <ele>44.799999237061</ele>
        <time>2021-07-22T07:43:49.000Z</time>
      </trkpt>
      <trkpt lat="47.32797" lon="-2.29199">
        <ele>44.400001525879</ele>
        <time>2021-07-22T07:43:50.000Z</time>
      </trkpt>
      <trkpt lat="47.32794" lon="-2.29193">
        <ele>44</ele>
        <time>2021-07-22T07:43:51.000Z</time>
      </trkpt>
      <trkpt lat="47.32792" lon="-2.29187">
        <ele>43.599998474121</ele>
        <time>2021-07-22T07:43:52.000Z</time>
      </trkpt>
      <trkpt lat="47.32788" lon="-2.29172">
        <ele>43.599998474121</ele>
        <time>2021-07-22T07:43:55.000Z</time>
      </trkpt>
      <trkpt lat="47.32789" lon="-2.29163">
        <ele>43.599998474121</ele>
        <time>2021-07-22T07:43:57.000Z</time>
      </trkpt>
      <trkpt lat="47.32792" lon="-2.2916">
        <ele>43.599998474121</ele>
        <time>2021-07-22T07:43:58.000Z</time>
      </trkpt>
      <trkpt lat="47.328" lon="-2.29159">
        <ele>43.200000762939</ele>
        <time>2021-07-22T07:44:00.000Z</time>
      </trkpt>
      <trkpt lat="47.32804" lon="-2.2916">
        <ele>42.799999237061</ele>
        <time>2021-07-22T07:44:01.000Z</time>
      </trkpt>
      <trkpt lat="47.32808" lon="-2.2916">
        <ele>42.400001525879</ele>
        <time>2021-07-22T07:44:02.000Z</time>
      </trkpt>
      <trkpt lat="47.32812" lon="-2.29161">
        <ele>41.799999237061</ele>
        <time>2021-07-22T07:44:03.000Z</time>
      </trkpt>
      <trkpt lat="47.32817" lon="-2.29162">
        <ele>41.400001525879</ele>
        <time>2021-07-22T07:44:04.000Z</time>
      </trkpt>
      <trkpt lat="47.32822" lon="-2.29162">
        <ele>41.400001525879</ele>
        <time>2021-07-22T07:44:05.000Z</time>
      </trkpt>
      <trkpt lat="47.32832" lon="-2.29161">
        <ele>41.400001525879</ele>
        <time>2021-07-22T07:44:07.000Z</time>
      </trkpt>
      <trkpt lat="47.32858" lon="-2.29154">
        <ele>41.400001525879</ele>
        <time>2021-07-22T07:44:12.000Z</time>
      </trkpt>
      <trkpt lat="47.329" lon="-2.29137">
        <ele>41.400001525879</ele>
        <time>2021-07-22T07:44:20.000Z</time>
      </trkpt>
      <trkpt lat="47.32917" lon="-2.29132">
        <ele>41.799999237061</ele>
        <time>2021-07-22T07:44:23.000Z</time>
      </trkpt>
      <trkpt lat="47.32922" lon="-2.2913">
        <ele>42.200000762939</ele>
        <time>2021-07-22T07:44:24.000Z</time>
      </trkpt>
      <trkpt lat="47.32928" lon="-2.29128">
        <ele>42.599998474121</ele>
        <time>2021-07-22T07:44:25.000Z</time>
      </trkpt>
      <trkpt lat="47.32934" lon="-2.29126">
        <ele>43</ele>
        <time>2021-07-22T07:44:26.000Z</time>
      </trkpt>
      <trkpt lat="47.3294" lon="-2.29124">
        <ele>43.400001525879</ele>
        <time>2021-07-22T07:44:27.000Z</time>
      </trkpt>
      <trkpt lat="47.32993" lon="-2.29103">
        <ele>43.400001525879</ele>
        <time>2021-07-22T07:44:36.000Z</time>
      </trkpt>
      <trkpt lat="47.33038" lon="-2.29086">
        <ele>43.400001525879</ele>
        <time>2021-07-22T07:44:44.000Z</time>
      </trkpt>
      <trkpt lat="47.33066" lon="-2.29077">
        <ele>43.799999237061</ele>
        <time>2021-07-22T07:44:49.000Z</time>
      </trkpt>
      <trkpt lat="47.33072" lon="-2.29074">
        <ele>44.200000762939</ele>
        <time>2021-07-22T07:44:50.000Z</time>
      </trkpt>
      <trkpt lat="47.33077" lon="-2.29072">
        <ele>44.599998474121</ele>
        <time>2021-07-22T07:44:51.000Z</time>
      </trkpt>
      <trkpt lat="47.33082" lon="-2.29071">
        <ele>45</ele>
        <time>2021-07-22T07:44:52.000Z</time>
      </trkpt>
      <trkpt lat="47.33087" lon="-2.29068">
        <ele>45.599998474121</ele>
        <time>2021-07-22T07:44:53.000Z</time>
      </trkpt>
      <trkpt lat="47.33093" lon="-2.29053">
        <ele>45.599998474121</ele>
        <time>2021-07-22T07:44:56.000Z</time>
      </trkpt>
      <trkpt lat="47.33093" lon="-2.29045">
        <ele>45.599998474121</ele>
        <time>2021-07-22T07:44:57.000Z</time>
      </trkpt>
      <trkpt lat="47.33095" lon="-2.2903">
        <ele>45.599998474121</ele>
        <time>2021-07-22T07:44:59.000Z</time>
      </trkpt>
      <trkpt lat="47.33099" lon="-2.29016">
        <ele>45.599998474121</ele>
        <time>2021-07-22T07:45:01.000Z</time>
      </trkpt>
      <trkpt lat="47.33113" lon="-2.28965">
        <ele>45.599998474121</ele>
        <time>2021-07-22T07:45:08.000Z</time>
      </trkpt>
      <trkpt lat="47.33121" lon="-2.28933">
        <ele>45.599998474121</ele>
        <time>2021-07-22T07:45:13.000Z</time>
      </trkpt>
      <trkpt lat="47.33123" lon="-2.28921">
        <ele>45.599998474121</ele>
        <time>2021-07-22T07:45:19.000Z</time>
      </trkpt>
      <trkpt lat="47.33125" lon="-2.2892">
        <ele>45.599998474121</ele>
        <time>2021-07-22T07:45:21.000Z</time>
      </trkpt>
      <trkpt lat="47.33126" lon="-2.28924">
        <ele>45.599998474121</ele>
        <time>2021-07-22T07:45:23.000Z</time>
      </trkpt>
      <trkpt lat="47.33123" lon="-2.28931">
        <ele>45.599998474121</ele>
        <time>2021-07-22T07:45:25.000Z</time>
      </trkpt>
      <trkpt lat="47.33119" lon="-2.28941">
        <ele>45.599998474121</ele>
        <time>2021-07-22T07:45:27.000Z</time>
      </trkpt>
      <trkpt lat="47.33113" lon="-2.2897">
        <ele>45.599998474121</ele>
        <time>2021-07-22T07:45:32.000Z</time>
      </trkpt>
      <trkpt lat="47.33109" lon="-2.28982">
        <ele>45.599998474121</ele>
        <time>2021-07-22T07:45:35.000Z</time>
      </trkpt>
      <trkpt lat="47.33107" lon="-2.28982">
        <ele>45.599998474121</ele>
        <time>2021-07-22T07:45:36.000Z</time>
      </trkpt>
      <trkpt lat="47.33105" lon="-2.28974">
        <ele>45.599998474121</ele>
        <time>2021-07-22T07:45:39.000Z</time>
      </trkpt>
      <trkpt lat="47.33105" lon="-2.28965">
        <ele>45.599998474121</ele>
        <time>2021-07-22T07:45:41.000Z</time>
      </trkpt>
      <trkpt lat="47.33107" lon="-2.28953">
        <ele>45.599998474121</ele>
        <time>2021-07-22T07:45:43.000Z</time>
      </trkpt>
      <trkpt lat="47.33112" lon="-2.28906">
        <ele>45.599998474121</ele>
        <time>2021-07-22T07:45:49.000Z</time>
      </trkpt>
      <trkpt lat="47.33113" lon="-2.28888">
        <ele>45.599998474121</ele>
        <time>2021-07-22T07:45:51.000Z</time>
      </trkpt>
      <trkpt lat="47.3311" lon="-2.2887">
        <ele>45.599998474121</ele>
        <time>2021-07-22T07:45:53.000Z</time>
      </trkpt>
      <trkpt lat="47.33101" lon="-2.28825">
        <ele>45.599998474121</ele>
        <time>2021-07-22T07:45:58.000Z</time>
      </trkpt>
      <trkpt lat="47.33088" lon="-2.28818">
        <ele>45.599998474121</ele>
        <time>2021-07-22T07:46:01.000Z</time>
      </trkpt>
      <trkpt lat="47.33077" lon="-2.28823">
        <ele>45.599998474121</ele>
        <time>2021-07-22T07:46:03.000Z</time>
      </trkpt>
      <trkpt lat="47.33066" lon="-2.28828">
        <ele>45.599998474121</ele>
        <time>2021-07-22T07:46:05.000Z</time>
      </trkpt>
      <trkpt lat="47.3302" lon="-2.28854">
        <ele>45.599998474121</ele>
        <time>2021-07-22T07:46:13.000Z</time>
      </trkpt>
      <trkpt lat="47.32986" lon="-2.28877">
        <ele>45.599998474121</ele>
        <time>2021-07-22T07:46:19.000Z</time>
      </trkpt>
      <trkpt lat="47.32941" lon="-2.28915">
        <ele>45.599998474121</ele>
        <time>2021-07-22T07:46:27.000Z</time>
      </trkpt>
      <trkpt lat="47.32916" lon="-2.28937">
        <ele>45.599998474121</ele>
        <time>2021-07-22T07:46:31.000Z</time>
      </trkpt>
      <trkpt lat="47.32909" lon="-2.2894">
        <ele>45.599998474121</ele>
        <time>2021-07-22T07:46:32.000Z</time>
      </trkpt>
      <trkpt lat="47.32887" lon="-2.28942">
        <ele>45.599998474121</ele>
        <time>2021-07-22T07:46:35.000Z</time>
      </trkpt>
      <trkpt lat="47.32879" lon="-2.28941">
        <ele>45.599998474121</ele>
        <time>2021-07-22T07:46:36.000Z</time>
      </trkpt>
      <trkpt lat="47.32871" lon="-2.28941">
        <ele>45.599998474121</ele>
        <time>2021-07-22T07:46:37.000Z</time>
      </trkpt>
      <trkpt lat="47.32856" lon="-2.28948">
        <ele>45</ele>
        <time>2021-07-22T07:46:39.000Z</time>
      </trkpt>
      <trkpt lat="47.32849" lon="-2.28953">
        <ele>44.599998474121</ele>
        <time>2021-07-22T07:46:40.000Z</time>
      </trkpt>
      <trkpt lat="47.32842" lon="-2.28959">
        <ele>44.200000762939</ele>
        <time>2021-07-22T07:46:41.000Z</time>
      </trkpt>
      <trkpt lat="47.32835" lon="-2.28964">
        <ele>43.799999237061</ele>
        <time>2021-07-22T07:46:42.000Z</time>
      </trkpt>
      <trkpt lat="47.32828" lon="-2.2897">
        <ele>43.400001525879</ele>
        <time>2021-07-22T07:46:43.000Z</time>
      </trkpt>
      <trkpt lat="47.32813" lon="-2.28982">
        <ele>43.400001525879</ele>
        <time>2021-07-22T07:46:45.000Z</time>
      </trkpt>
      <trkpt lat="47.32781" lon="-2.29004">
        <ele>43.400001525879</ele>
        <time>2021-07-22T07:46:50.000Z</time>
      </trkpt>
      <trkpt lat="47.32775" lon="-2.29006">
        <ele>43.400001525879</ele>
        <time>2021-07-22T07:46:51.000Z</time>
      </trkpt>
      <trkpt lat="47.32765" lon="-2.29005">
        <ele>43.400001525879</ele>
        <time>2021-07-22T07:46:53.000Z</time>
      </trkpt>
      <trkpt lat="47.32761" lon="-2.28994">
        <ele>43</ele>
        <time>2021-07-22T07:46:55.000Z</time>
      </trkpt>
      <trkpt lat="47.32761" lon="-2.28987">
        <ele>42.599998474121</ele>
        <time>2021-07-22T07:46:56.000Z</time>
      </trkpt>
      <trkpt lat="47.32762" lon="-2.28979">
        <ele>42.200000762939</ele>
        <time>2021-07-22T07:46:57.000Z</time>
      </trkpt>
      <trkpt lat="47.32763" lon="-2.28972">
        <ele>41.799999237061</ele>
        <time>2021-07-22T07:46:58.000Z</time>
      </trkpt>
      <trkpt lat="47.32764" lon="-2.28963">
        <ele>41.400001525879</ele>
        <time>2021-07-22T07:46:59.000Z</time>
      </trkpt>
      <trkpt lat="47.3277" lon="-2.28905">
        <ele>41.400001525879</ele>
        <time>2021-07-22T07:47:05.000Z</time>
      </trkpt>
      <trkpt lat="47.32787" lon="-2.28837">
        <ele>41.400001525879</ele>
        <time>2021-07-22T07:47:12.000Z</time>
      </trkpt>
      <trkpt lat="47.32799" lon="-2.28788">
        <ele>41.400001525879</ele>
        <time>2021-07-22T07:47:17.000Z</time>
      </trkpt>
      <trkpt lat="47.328" lon="-2.28778">
        <ele>41.400001525879</ele>
        <time>2021-07-22T07:47:18.000Z</time>
      </trkpt>
      <trkpt lat="47.328" lon="-2.28749">
        <ele>41.400001525879</ele>
        <time>2021-07-22T07:47:21.000Z</time>
      </trkpt>
      <trkpt lat="47.32797" lon="-2.28729">
        <ele>41.400001525879</ele>
        <time>2021-07-22T07:47:23.000Z</time>
      </trkpt>
      <trkpt lat="47.3279" lon="-2.2869">
        <ele>41.799999237061</ele>
        <time>2021-07-22T07:47:27.000Z</time>
      </trkpt>
      <trkpt lat="47.32787" lon="-2.28681">
        <ele>42.599998474121</ele>
        <time>2021-07-22T07:47:28.000Z</time>
      </trkpt>
      <trkpt lat="47.32784" lon="-2.28672">
        <ele>43</ele>
        <time>2021-07-22T07:47:29.000Z</time>
      </trkpt>
      <trkpt lat="47.3278" lon="-2.28663">
        <ele>43.400001525879</ele>
        <time>2021-07-22T07:47:30.000Z</time>
      </trkpt>
      <trkpt lat="47.32776" lon="-2.28655">
        <ele>43.400001525879</ele>
        <time>2021-07-22T07:47:31.000Z</time>
      </trkpt>
      <trkpt lat="47.32763" lon="-2.2863">
        <ele>43.400001525879</ele>
        <time>2021-07-22T07:47:34.000Z</time>
      </trkpt>
      <trkpt lat="47.32733" lon="-2.2857">
        <ele>43.400001525879</ele>
        <time>2021-07-22T07:47:41.000Z</time>
      </trkpt>
      <trkpt lat="47.3273" lon="-2.2856">
        <ele>43.400001525879</ele>
        <time>2021-07-22T07:47:42.000Z</time>
      </trkpt>
      <trkpt lat="47.32725" lon="-2.2853">
        <ele>43.400001525879</ele>
        <time>2021-07-22T07:47:45.000Z</time>
      </trkpt>
      <trkpt lat="47.32718" lon="-2.28447">
        <ele>43.400001525879</ele>
        <time>2021-07-22T07:47:53.000Z</time>
      </trkpt>
      <trkpt lat="47.3271" lon="-2.2836">
        <ele>43.400001525879</ele>
        <time>2021-07-22T07:48:01.000Z</time>
      </trkpt>
      <trkpt lat="47.32708" lon="-2.28339">
        <ele>43</ele>
        <time>2021-07-22T07:48:03.000Z</time>
      </trkpt>
      <trkpt lat="47.32707" lon="-2.28329">
        <ele>42.400001525879</ele>
        <time>2021-07-22T07:48:04.000Z</time>
      </trkpt>
      <trkpt lat="47.32705" lon="-2.2832">
        <ele>42</ele>
        <time>2021-07-22T07:48:05.000Z</time>
      </trkpt>
      <trkpt lat="47.32702" lon="-2.28314">
        <ele>41.599998474121</ele>
        <time>2021-07-22T07:48:06.000Z</time>
      </trkpt>
      <trkpt lat="47.32698" lon="-2.28312">
        <ele>41</ele>
        <time>2021-07-22T07:48:07.000Z</time>
      </trkpt>
      <trkpt lat="47.32692" lon="-2.28313">
        <ele>41</ele>
        <time>2021-07-22T07:48:08.000Z</time>
      </trkpt>
      <trkpt lat="47.32681" lon="-2.28319">
        <ele>40.599998474121</ele>
        <time>2021-07-22T07:48:10.000Z</time>
      </trkpt>
      <trkpt lat="47.32676" lon="-2.28324">
        <ele>40.200000762939</ele>
        <time>2021-07-22T07:48:11.000Z</time>
      </trkpt>
      <trkpt lat="47.3267" lon="-2.28328">
        <ele>39.799999237061</ele>
        <time>2021-07-22T07:48:12.000Z</time>
      </trkpt>
      <trkpt lat="47.32665" lon="-2.28333">
        <ele>39.400001525879</ele>
        <time>2021-07-22T07:48:13.000Z</time>
      </trkpt>
      <trkpt lat="47.32658" lon="-2.28337">
        <ele>39</ele>
        <time>2021-07-22T07:48:14.000Z</time>
      </trkpt>
      <trkpt lat="47.32645" lon="-2.28344">
        <ele>39</ele>
        <time>2021-07-22T07:48:16.000Z</time>
      </trkpt>
      <trkpt lat="47.32639" lon="-2.28345">
        <ele>39</ele>
        <time>2021-07-22T07:48:17.000Z</time>
      </trkpt>
      <trkpt lat="47.3262" lon="-2.28332">
        <ele>39</ele>
        <time>2021-07-22T07:48:20.000Z</time>
      </trkpt>
      <trkpt lat="47.32615" lon="-2.28326">
        <ele>39</ele>
        <time>2021-07-22T07:48:21.000Z</time>
      </trkpt>
      <trkpt lat="47.3261" lon="-2.28318">
        <ele>39</ele>
        <time>2021-07-22T07:48:22.000Z</time>
      </trkpt>
      <trkpt lat="47.32601" lon="-2.28299">
        <ele>39</ele>
        <time>2021-07-22T07:48:24.000Z</time>
      </trkpt>
      <trkpt lat="47.32593" lon="-2.28253">
        <ele>39</ele>
        <time>2021-07-22T07:48:28.000Z</time>
      </trkpt>
      <trkpt lat="47.32582" lon="-2.28169">
        <ele>39</ele>
        <time>2021-07-22T07:48:36.000Z</time>
      </trkpt>
      <trkpt lat="47.32565" lon="-2.28085">
        <ele>39</ele>
        <time>2021-07-22T07:48:45.000Z</time>
      </trkpt>
      <trkpt lat="47.3255" lon="-2.28002">
        <ele>39</ele>
        <time>2021-07-22T07:48:54.000Z</time>
      </trkpt>
      <trkpt lat="47.32546" lon="-2.27985">
        <ele>39</ele>
        <time>2021-07-22T07:48:56.000Z</time>
      </trkpt>
      <trkpt lat="47.32529" lon="-2.27905">
        <ele>39</ele>
        <time>2021-07-22T07:49:05.000Z</time>
      </trkpt>
      <trkpt lat="47.32517" lon="-2.27853">
        <ele>39</ele>
        <time>2021-07-22T07:49:11.000Z</time>
      </trkpt>
      <trkpt lat="47.32513" lon="-2.27846">
        <ele>39</ele>
        <time>2021-07-22T07:49:12.000Z</time>
      </trkpt>
      <trkpt lat="47.32498" lon="-2.27832">
        <ele>39</ele>
        <time>2021-07-22T07:49:15.000Z</time>
      </trkpt>
      <trkpt lat="47.32471" lon="-2.2783">
        <ele>39</ele>
        <time>2021-07-22T07:49:19.000Z</time>
      </trkpt>
      <trkpt lat="47.32447" lon="-2.27832">
        <ele>39</ele>
        <time>2021-07-22T07:49:24.000Z</time>
      </trkpt>
      <trkpt lat="47.32439" lon="-2.27829">
        <ele>39</ele>
        <time>2021-07-22T07:49:28.000Z</time>
      </trkpt>
      <trkpt lat="47.32438" lon="-2.27825">
        <ele>39</ele>
        <time>2021-07-22T07:49:31.000Z</time>
      </trkpt>
      <trkpt lat="47.3244" lon="-2.27814">
        <ele>39</ele>
        <time>2021-07-22T07:49:48.000Z</time>
      </trkpt>
      <trkpt lat="47.3244" lon="-2.27799">
        <ele>39</ele>
        <time>2021-07-22T07:49:54.000Z</time>
      </trkpt>
      <trkpt lat="47.32437" lon="-2.27779">
        <ele>39</ele>
        <time>2021-07-22T07:50:01.000Z</time>
      </trkpt>
      <trkpt lat="47.32434" lon="-2.27757">
        <ele>39</ele>
        <time>2021-07-22T07:50:07.000Z</time>
      </trkpt>
      <trkpt lat="47.32435" lon="-2.27735">
        <ele>39</ele>
        <time>2021-07-22T07:50:12.000Z</time>
      </trkpt>
      <trkpt lat="47.32434" lon="-2.27712">
        <ele>39</ele>
        <time>2021-07-22T07:50:17.000Z</time>
      </trkpt>
      <trkpt lat="47.32432" lon="-2.2768">
        <ele>39</ele>
        <time>2021-07-22T07:50:23.000Z</time>
      </trkpt>
      <trkpt lat="47.3243" lon="-2.2765">
        <ele>39</ele>
        <time>2021-07-22T07:50:28.000Z</time>
      </trkpt>
      <trkpt lat="47.32429" lon="-2.27644">
        <ele>39</ele>
        <time>2021-07-22T07:50:29.000Z</time>
      </trkpt>
      <trkpt lat="47.32423" lon="-2.27627">
        <ele>39</ele>
        <time>2021-07-22T07:50:32.000Z</time>
      </trkpt>
      <trkpt lat="47.32419" lon="-2.27615">
        <ele>39</ele>
        <time>2021-07-22T07:50:34.000Z</time>
      </trkpt>
      <trkpt lat="47.32405" lon="-2.27579">
        <ele>39</ele>
        <time>2021-07-22T07:50:40.000Z</time>
      </trkpt>
      <trkpt lat="47.32404" lon="-2.27573">
        <ele>39</ele>
        <time>2021-07-22T07:50:41.000Z</time>
      </trkpt>
      <trkpt lat="47.32402" lon="-2.2756">
        <ele>39</ele>
        <time>2021-07-22T07:50:43.000Z</time>
      </trkpt>
      <trkpt lat="47.32405" lon="-2.27551">
        <ele>39</ele>
        <time>2021-07-22T07:50:45.000Z</time>
      </trkpt>
      <trkpt lat="47.3242" lon="-2.27546">
        <ele>39</ele>
        <time>2021-07-22T07:50:48.000Z</time>
      </trkpt>
      <trkpt lat="47.3244" lon="-2.27554">
        <ele>39</ele>
        <time>2021-07-22T07:50:52.000Z</time>
      </trkpt>
      <trkpt lat="47.3245" lon="-2.2756">
        <ele>39</ele>
        <time>2021-07-22T07:50:54.000Z</time>
      </trkpt>
      <trkpt lat="47.32459" lon="-2.27565">
        <ele>39</ele>
        <time>2021-07-22T07:50:56.000Z</time>
      </trkpt>
      <trkpt lat="47.32463" lon="-2.27568">
        <ele>39</ele>
        <time>2021-07-22T07:50:57.000Z</time>
      </trkpt>
      <trkpt lat="47.32478" lon="-2.27574">
        <ele>39</ele>
        <time>2021-07-22T07:51:00.000Z</time>
      </trkpt>
      <trkpt lat="47.32496" lon="-2.27568">
        <ele>39</ele>
        <time>2021-07-22T07:51:04.000Z</time>
      </trkpt>
      <trkpt lat="47.32505" lon="-2.27563">
        <ele>39</ele>
        <time>2021-07-22T07:51:06.000Z</time>
      </trkpt>
      <trkpt lat="47.32514" lon="-2.27556">
        <ele>39</ele>
        <time>2021-07-22T07:51:08.000Z</time>
      </trkpt>
      <trkpt lat="47.32553" lon="-2.27519">
        <ele>39</ele>
        <time>2021-07-22T07:51:17.000Z</time>
      </trkpt>
      <trkpt lat="47.32575" lon="-2.27491">
        <ele>39</ele>
        <time>2021-07-22T07:51:23.000Z</time>
      </trkpt>
      <trkpt lat="47.32579" lon="-2.27465">
        <ele>39</ele>
        <time>2021-07-22T07:51:29.000Z</time>
      </trkpt>
      <trkpt lat="47.3258" lon="-2.27438">
        <ele>39</ele>
        <time>2021-07-22T07:51:34.000Z</time>
      </trkpt>
      <trkpt lat="47.32582" lon="-2.27395">
        <ele>39</ele>
        <time>2021-07-22T07:51:40.000Z</time>
      </trkpt>
      <trkpt lat="47.32585" lon="-2.27353">
        <ele>39</ele>
        <time>2021-07-22T07:51:46.000Z</time>
      </trkpt>
      <trkpt lat="47.32586" lon="-2.27347">
        <ele>39</ele>
        <time>2021-07-22T07:51:47.000Z</time>
      </trkpt>
      <trkpt lat="47.32591" lon="-2.27302">
        <ele>39</ele>
        <time>2021-07-22T07:51:54.000Z</time>
      </trkpt>
      <trkpt lat="47.32595" lon="-2.27261">
        <ele>39</ele>
        <time>2021-07-22T07:52:01.000Z</time>
      </trkpt>
      <trkpt lat="47.32596" lon="-2.27251">
        <ele>39</ele>
        <time>2021-07-22T07:52:06.000Z</time>
      </trkpt>
      <trkpt lat="47.32596" lon="-2.2725">
        <ele>39</ele>
        <time>2021-07-22T07:52:07.000Z</time>
      </trkpt>
      <trkpt lat="47.32599" lon="-2.2718">
        <ele>39</ele>
        <time>2021-07-22T07:53:56.000Z</time>
      </trkpt>
      <trkpt lat="47.32597" lon="-2.27173">
        <ele>39</ele>
        <time>2021-07-22T07:53:58.000Z</time>
      </trkpt>
      <trkpt lat="47.32596" lon="-2.27154">
        <ele>39</ele>
        <time>2021-07-22T07:54:03.000Z</time>
      </trkpt>
      <trkpt lat="47.32602" lon="-2.27125">
        <ele>39</ele>
        <time>2021-07-22T07:54:08.000Z</time>
      </trkpt>
      <trkpt lat="47.32609" lon="-2.27098">
        <ele>39</ele>
        <time>2021-07-22T07:54:14.000Z</time>
      </trkpt>
      <trkpt lat="47.32618" lon="-2.2707">
        <ele>39</ele>
        <time>2021-07-22T07:54:20.000Z</time>
      </trkpt>
      <trkpt lat="47.32616" lon="-2.27049">
        <ele>39</ele>
        <time>2021-07-22T07:54:24.000Z</time>
      </trkpt>
      <trkpt lat="47.32599" lon="-2.27022">
        <ele>39</ele>
        <time>2021-07-22T07:54:31.000Z</time>
      </trkpt>
      <trkpt lat="47.32581" lon="-2.26999">
        <ele>39</ele>
        <time>2021-07-22T07:54:37.000Z</time>
      </trkpt>
      <trkpt lat="47.3257" lon="-2.26977">
        <ele>39</ele>
        <time>2021-07-22T07:54:41.000Z</time>
      </trkpt>
      <trkpt lat="47.32568" lon="-2.26972">
        <ele>39</ele>
        <time>2021-07-22T07:54:42.000Z</time>
      </trkpt>
      <trkpt lat="47.32555" lon="-2.26947">
        <ele>39</ele>
        <time>2021-07-22T07:54:47.000Z</time>
      </trkpt>
      <trkpt lat="47.32551" lon="-2.26936">
        <ele>39</ele>
        <time>2021-07-22T07:54:49.000Z</time>
      </trkpt>
      <trkpt lat="47.32539" lon="-2.26913">
        <ele>39</ele>
        <time>2021-07-22T07:54:54.000Z</time>
      </trkpt>
      <trkpt lat="47.32526" lon="-2.26887">
        <ele>39</ele>
        <time>2021-07-22T07:54:59.000Z</time>
      </trkpt>
      <trkpt lat="47.32524" lon="-2.26881">
        <ele>39</ele>
        <time>2021-07-22T07:55:00.000Z</time>
      </trkpt>
      <trkpt lat="47.32515" lon="-2.26855">
        <ele>39</ele>
        <time>2021-07-22T07:55:05.000Z</time>
      </trkpt>
      <trkpt lat="47.32509" lon="-2.26825">
        <ele>39</ele>
        <time>2021-07-22T07:55:11.000Z</time>
      </trkpt>
      <trkpt lat="47.3251" lon="-2.26796">
        <ele>39</ele>
        <time>2021-07-22T07:55:16.000Z</time>
      </trkpt>
      <trkpt lat="47.32514" lon="-2.26776">
        <ele>39</ele>
        <time>2021-07-22T07:55:19.000Z</time>
      </trkpt>
      <trkpt lat="47.32517" lon="-2.26763">
        <ele>39</ele>
        <time>2021-07-22T07:55:21.000Z</time>
      </trkpt>
      <trkpt lat="47.32527" lon="-2.26725">
        <ele>39</ele>
        <time>2021-07-22T07:55:27.000Z</time>
      </trkpt>
      <trkpt lat="47.32533" lon="-2.26699">
        <ele>39</ele>
        <time>2021-07-22T07:55:32.000Z</time>
      </trkpt>
      <trkpt lat="47.32543" lon="-2.26659">
        <ele>39</ele>
        <time>2021-07-22T07:55:39.000Z</time>
      </trkpt>
      <trkpt lat="47.3255" lon="-2.26643">
        <ele>39</ele>
        <time>2021-07-22T07:55:42.000Z</time>
      </trkpt>
      <trkpt lat="47.32555" lon="-2.26632">
        <ele>39</ele>
        <time>2021-07-22T07:55:44.000Z</time>
      </trkpt>
      <trkpt lat="47.32557" lon="-2.26625">
        <ele>39</ele>
        <time>2021-07-22T07:55:45.000Z</time>
      </trkpt>
      <trkpt lat="47.32568" lon="-2.26598">
        <ele>39</ele>
        <time>2021-07-22T07:55:50.000Z</time>
      </trkpt>
      <trkpt lat="47.32583" lon="-2.26563">
        <ele>39</ele>
        <time>2021-07-22T07:55:57.000Z</time>
      </trkpt>
      <trkpt lat="47.32592" lon="-2.26535">
        <ele>39</ele>
        <time>2021-07-22T07:56:02.000Z</time>
      </trkpt>
      <trkpt lat="47.32594" lon="-2.26529">
        <ele>39</ele>
        <time>2021-07-22T07:56:03.000Z</time>
      </trkpt>
      <trkpt lat="47.32604" lon="-2.26493">
        <ele>39</ele>
        <time>2021-07-22T07:56:09.000Z</time>
      </trkpt>
      <trkpt lat="47.3261" lon="-2.26476">
        <ele>39</ele>
        <time>2021-07-22T07:56:12.000Z</time>
      </trkpt>
      <trkpt lat="47.32618" lon="-2.2646">
        <ele>39</ele>
        <time>2021-07-22T07:56:15.000Z</time>
      </trkpt>
      <trkpt lat="47.32628" lon="-2.26437">
        <ele>39</ele>
        <time>2021-07-22T07:56:21.000Z</time>
      </trkpt>
      <trkpt lat="47.32627" lon="-2.26435">
        <ele>39</ele>
        <time>2021-07-22T07:56:22.000Z</time>
      </trkpt>
      <trkpt lat="47.32622" lon="-2.26434">
        <ele>39</ele>
        <time>2021-07-22T07:56:25.000Z</time>
      </trkpt>
      <trkpt lat="47.3262" lon="-2.26438">
        <ele>39</ele>
        <time>2021-07-22T07:56:28.000Z</time>
      </trkpt>
      <trkpt lat="47.32619" lon="-2.26439">
        <ele>39</ele>
        <time>2021-07-22T07:56:30.000Z</time>
      </trkpt>
      <trkpt lat="47.32615" lon="-2.2644">
        <ele>39</ele>
        <time>2021-07-22T07:57:32.000Z</time>
      </trkpt>
      <trkpt lat="47.32607" lon="-2.26441">
        <ele>39</ele>
        <time>2021-07-22T07:57:36.000Z</time>
      </trkpt>
      <trkpt lat="47.32588" lon="-2.26448">
        <ele>39</ele>
        <time>2021-07-22T07:57:42.000Z</time>
      </trkpt>
      <trkpt lat="47.32567" lon="-2.26455">
        <ele>39</ele>
        <time>2021-07-22T07:57:48.000Z</time>
      </trkpt>
      <trkpt lat="47.32538" lon="-2.26468">
        <ele>39</ele>
        <time>2021-07-22T07:57:56.000Z</time>
      </trkpt>
      <trkpt lat="47.32513" lon="-2.26481">
        <ele>39</ele>
        <time>2021-07-22T07:58:02.000Z</time>
      </trkpt>
      <trkpt lat="47.32481" lon="-2.26496">
        <ele>39</ele>
        <time>2021-07-22T07:58:09.000Z</time>
      </trkpt>
      <trkpt lat="47.32476" lon="-2.26498">
        <ele>39</ele>
        <time>2021-07-22T07:58:10.000Z</time>
      </trkpt>
      <trkpt lat="47.32445" lon="-2.26514">
        <ele>39</ele>
        <time>2021-07-22T07:58:17.000Z</time>
      </trkpt>
      <trkpt lat="47.32402" lon="-2.26531">
        <ele>39</ele>
        <time>2021-07-22T07:58:26.000Z</time>
      </trkpt>
      <trkpt lat="47.32368" lon="-2.26534">
        <ele>39</ele>
        <time>2021-07-22T07:58:32.000Z</time>
      </trkpt>
      <trkpt lat="47.32362" lon="-2.26536">
        <ele>39</ele>
        <time>2021-07-22T07:58:33.000Z</time>
      </trkpt>
      <trkpt lat="47.32341" lon="-2.26546">
        <ele>39</ele>
        <time>2021-07-22T07:58:37.000Z</time>
      </trkpt>
      <trkpt lat="47.32323" lon="-2.26562">
        <ele>39</ele>
        <time>2021-07-22T07:58:41.000Z</time>
      </trkpt>
      <trkpt lat="47.32315" lon="-2.26573">
        <ele>39</ele>
        <time>2021-07-22T07:58:43.000Z</time>
      </trkpt>
      <trkpt lat="47.32286" lon="-2.26607">
        <ele>39</ele>
        <time>2021-07-22T07:58:50.000Z</time>
      </trkpt>
      <trkpt lat="47.32282" lon="-2.2661">
        <ele>39</ele>
        <time>2021-07-22T07:58:51.000Z</time>
      </trkpt>
      <trkpt lat="47.32271" lon="-2.26612">
        <ele>39.400001525879</ele>
        <time>2021-07-22T07:58:53.000Z</time>
      </trkpt>
      <trkpt lat="47.32266" lon="-2.26612">
        <ele>39.799999237061</ele>
        <time>2021-07-22T07:58:54.000Z</time>
      </trkpt>
      <trkpt lat="47.32261" lon="-2.26613">
        <ele>40.200000762939</ele>
        <time>2021-07-22T07:58:55.000Z</time>
      </trkpt>
      <trkpt lat="47.32255" lon="-2.26612">
        <ele>40.599998474121</ele>
        <time>2021-07-22T07:58:56.000Z</time>
      </trkpt>
      <trkpt lat="47.3225" lon="-2.26612">
        <ele>41</ele>
        <time>2021-07-22T07:58:57.000Z</time>
      </trkpt>
      <trkpt lat="47.32226" lon="-2.26613">
        <ele>41</ele>
        <time>2021-07-22T07:59:02.000Z</time>
      </trkpt>
      <trkpt lat="47.32195" lon="-2.26614">
        <ele>41</ele>
        <time>2021-07-22T07:59:07.000Z</time>
      </trkpt>
      <trkpt lat="47.32181" lon="-2.26613">
        <ele>41.400001525879</ele>
        <time>2021-07-22T07:59:09.000Z</time>
      </trkpt>
      <trkpt lat="47.32175" lon="-2.26613">
        <ele>41.799999237061</ele>
        <time>2021-07-22T07:59:10.000Z</time>
      </trkpt>
      <trkpt lat="47.32169" lon="-2.26612">
        <ele>42.200000762939</ele>
        <time>2021-07-22T07:59:11.000Z</time>
      </trkpt>
      <trkpt lat="47.32162" lon="-2.26612">
        <ele>42.799999237061</ele>
        <time>2021-07-22T07:59:12.000Z</time>
      </trkpt>
      <trkpt lat="47.32155" lon="-2.2661">
        <ele>43.200000762939</ele>
        <time>2021-07-22T07:59:13.000Z</time>
      </trkpt>
      <trkpt lat="47.32114" lon="-2.26593">
        <ele>43.200000762939</ele>
        <time>2021-07-22T07:59:20.000Z</time>
      </trkpt>
      <trkpt lat="47.32098" lon="-2.26588">
        <ele>43.200000762939</ele>
        <time>2021-07-22T07:59:23.000Z</time>
      </trkpt>
      <trkpt lat="47.32086" lon="-2.26588">
        <ele>43.200000762939</ele>
        <time>2021-07-22T07:59:25.000Z</time>
      </trkpt>
      <trkpt lat="47.32055" lon="-2.26596">
        <ele>43.200000762939</ele>
        <time>2021-07-22T07:59:30.000Z</time>
      </trkpt>
      <trkpt lat="47.32049" lon="-2.26599">
        <ele>43.200000762939</ele>
        <time>2021-07-22T07:59:31.000Z</time>
      </trkpt>
      <trkpt lat="47.32018" lon="-2.26616">
        <ele>43.200000762939</ele>
        <time>2021-07-22T07:59:36.000Z</time>
      </trkpt>
      <trkpt lat="47.31984" lon="-2.26637">
        <ele>43.200000762939</ele>
        <time>2021-07-22T07:59:42.000Z</time>
      </trkpt>
      <trkpt lat="47.31954" lon="-2.26661">
        <ele>43.599998474121</ele>
        <time>2021-07-22T07:59:48.000Z</time>
      </trkpt>
      <trkpt lat="47.31949" lon="-2.26665">
        <ele>44.599998474121</ele>
        <time>2021-07-22T07:59:49.000Z</time>
      </trkpt>
      <trkpt lat="47.31944" lon="-2.26668">
        <ele>45</ele>
        <time>2021-07-22T07:59:50.000Z</time>
      </trkpt>
      <trkpt lat="47.31939" lon="-2.26672">
        <ele>45.400001525879</ele>
        <time>2021-07-22T07:59:51.000Z</time>
      </trkpt>
      <trkpt lat="47.31911" lon="-2.26696">
        <ele>45.400001525879</ele>
        <time>2021-07-22T07:59:57.000Z</time>
      </trkpt>
      <trkpt lat="47.31876" lon="-2.26725">
        <ele>45.400001525879</ele>
        <time>2021-07-22T08:00:04.000Z</time>
      </trkpt>
      <trkpt lat="47.3185" lon="-2.26742">
        <ele>45.400001525879</ele>
        <time>2021-07-22T08:00:09.000Z</time>
      </trkpt>
      <trkpt lat="47.31844" lon="-2.26742">
        <ele>45.400001525879</ele>
        <time>2021-07-22T08:00:10.000Z</time>
      </trkpt>
      <trkpt lat="47.31826" lon="-2.26734">
        <ele>45.400001525879</ele>
        <time>2021-07-22T08:00:13.000Z</time>
      </trkpt>
      <trkpt lat="47.31813" lon="-2.26713">
        <ele>45.400001525879</ele>
        <time>2021-07-22T08:00:16.000Z</time>
      </trkpt>
      <trkpt lat="47.31811" lon="-2.26706">
        <ele>45.400001525879</ele>
        <time>2021-07-22T08:00:17.000Z</time>
      </trkpt>
      <trkpt lat="47.31807" lon="-2.26701">
        <ele>45.400001525879</ele>
        <time>2021-07-22T08:00:18.000Z</time>
      </trkpt>
      <trkpt lat="47.31797" lon="-2.26698">
        <ele>45.400001525879</ele>
        <time>2021-07-22T08:00:20.000Z</time>
      </trkpt>
      <trkpt lat="47.31786" lon="-2.26702">
        <ele>45.400001525879</ele>
        <time>2021-07-22T08:00:22.000Z</time>
      </trkpt>
      <trkpt lat="47.31772" lon="-2.26706">
        <ele>45.400001525879</ele>
        <time>2021-07-22T08:00:24.000Z</time>
      </trkpt>
      <trkpt lat="47.31724" lon="-2.26721">
        <ele>45</ele>
        <time>2021-07-22T08:00:31.000Z</time>
      </trkpt>
      <trkpt lat="47.31718" lon="-2.26723">
        <ele>44.599998474121</ele>
        <time>2021-07-22T08:00:32.000Z</time>
      </trkpt>
      <trkpt lat="47.31711" lon="-2.26725">
        <ele>44.200000762939</ele>
        <time>2021-07-22T08:00:33.000Z</time>
      </trkpt>
      <trkpt lat="47.31705" lon="-2.26726">
        <ele>43.799999237061</ele>
        <time>2021-07-22T08:00:34.000Z</time>
      </trkpt>
      <trkpt lat="47.31699" lon="-2.26728">
        <ele>43.400001525879</ele>
        <time>2021-07-22T08:00:35.000Z</time>
      </trkpt>
      <trkpt lat="47.31692" lon="-2.26728">
        <ele>43.400001525879</ele>
        <time>2021-07-22T08:00:36.000Z</time>
      </trkpt>
      <trkpt lat="47.31685" lon="-2.26729">
        <ele>43.400001525879</ele>
        <time>2021-07-22T08:00:37.000Z</time>
      </trkpt>
      <trkpt lat="47.31644" lon="-2.26739">
        <ele>43.400001525879</ele>
        <time>2021-07-22T08:00:43.000Z</time>
      </trkpt>
      <trkpt lat="47.31633" lon="-2.26746">
        <ele>43.400001525879</ele>
        <time>2021-07-22T08:00:45.000Z</time>
      </trkpt>
      <trkpt lat="47.31618" lon="-2.26758">
        <ele>43.400001525879</ele>
        <time>2021-07-22T08:00:48.000Z</time>
      </trkpt>
      <trkpt lat="47.316" lon="-2.26758">
        <ele>43.400001525879</ele>
        <time>2021-07-22T08:00:51.000Z</time>
      </trkpt>
      <trkpt lat="47.31594" lon="-2.26757">
        <ele>43.400001525879</ele>
        <time>2021-07-22T08:00:52.000Z</time>
      </trkpt>
      <trkpt lat="47.31581" lon="-2.26755">
        <ele>43</ele>
        <time>2021-07-22T08:00:54.000Z</time>
      </trkpt>
      <trkpt lat="47.31575" lon="-2.26755">
        <ele>42.599998474121</ele>
        <time>2021-07-22T08:00:55.000Z</time>
      </trkpt>
      <trkpt lat="47.31569" lon="-2.26759">
        <ele>42.200000762939</ele>
        <time>2021-07-22T08:00:56.000Z</time>
      </trkpt>
      <trkpt lat="47.31564" lon="-2.26764">
        <ele>41.799999237061</ele>
        <time>2021-07-22T08:00:57.000Z</time>
      </trkpt>
      <trkpt lat="47.31559" lon="-2.2677">
        <ele>41.200000762939</ele>
        <time>2021-07-22T08:00:58.000Z</time>
      </trkpt>
      <trkpt lat="47.31556" lon="-2.26776">
        <ele>41.200000762939</ele>
        <time>2021-07-22T08:00:59.000Z</time>
      </trkpt>
      <trkpt lat="47.31548" lon="-2.26798">
        <ele>41.200000762939</ele>
        <time>2021-07-22T08:01:02.000Z</time>
      </trkpt>
      <trkpt lat="47.31544" lon="-2.2681">
        <ele>41.200000762939</ele>
        <time>2021-07-22T08:01:04.000Z</time>
      </trkpt>
      <trkpt lat="47.31532" lon="-2.26848">
        <ele>41.200000762939</ele>
        <time>2021-07-22T08:01:10.000Z</time>
      </trkpt>
      <trkpt lat="47.31516" lon="-2.26892">
        <ele>41.200000762939</ele>
        <time>2021-07-22T08:01:17.000Z</time>
      </trkpt>
      <trkpt lat="47.315" lon="-2.26941">
        <ele>41.200000762939</ele>
        <time>2021-07-22T08:01:24.000Z</time>
      </trkpt>
      <trkpt lat="47.31497" lon="-2.26956">
        <ele>41.200000762939</ele>
        <time>2021-07-22T08:01:26.000Z</time>
      </trkpt>
      <trkpt lat="47.31491" lon="-2.26975">
        <ele>41.200000762939</ele>
        <time>2021-07-22T08:01:29.000Z</time>
      </trkpt>
      <trkpt lat="47.31477" lon="-2.26993">
        <ele>41.200000762939</ele>
        <time>2021-07-22T08:01:33.000Z</time>
      </trkpt>
      <trkpt lat="47.31447" lon="-2.27014">
        <ele>41.200000762939</ele>
        <time>2021-07-22T08:01:38.000Z</time>
      </trkpt>
      <trkpt lat="47.31424" lon="-2.27028">
        <ele>41.799999237061</ele>
        <time>2021-07-22T08:01:42.000Z</time>
      </trkpt>
      <trkpt lat="47.31418" lon="-2.27032">
        <ele>42.200000762939</ele>
        <time>2021-07-22T08:01:43.000Z</time>
      </trkpt>
      <trkpt lat="47.31413" lon="-2.27037">
        <ele>42.599998474121</ele>
        <time>2021-07-22T08:01:44.000Z</time>
      </trkpt>
      <trkpt lat="47.31407" lon="-2.27041">
        <ele>43</ele>
        <time>2021-07-22T08:01:45.000Z</time>
      </trkpt>
      <trkpt lat="47.31402" lon="-2.27045">
        <ele>43.400001525879</ele>
        <time>2021-07-22T08:01:46.000Z</time>
      </trkpt>
      <trkpt lat="47.31368" lon="-2.27064">
        <ele>43.400001525879</ele>
        <time>2021-07-22T08:01:52.000Z</time>
      </trkpt>
      <trkpt lat="47.31322" lon="-2.2708">
        <ele>43.400001525879</ele>
        <time>2021-07-22T08:02:00.000Z</time>
      </trkpt>
      <trkpt lat="47.31316" lon="-2.27082">
        <ele>43.799999237061</ele>
        <time>2021-07-22T08:02:01.000Z</time>
      </trkpt>
      <trkpt lat="47.31311" lon="-2.27084">
        <ele>44.200000762939</ele>
        <time>2021-07-22T08:02:02.000Z</time>
      </trkpt>
      <trkpt lat="47.31305" lon="-2.27087">
        <ele>44.599998474121</ele>
        <time>2021-07-22T08:02:03.000Z</time>
      </trkpt>
      <trkpt lat="47.31299" lon="-2.27089">
        <ele>45.200000762939</ele>
        <time>2021-07-22T08:02:04.000Z</time>
      </trkpt>
      <trkpt lat="47.31293" lon="-2.27092">
        <ele>45.599998474121</ele>
        <time>2021-07-22T08:02:05.000Z</time>
      </trkpt>
      <trkpt lat="47.31277" lon="-2.27102">
        <ele>45.599998474121</ele>
        <time>2021-07-22T08:02:08.000Z</time>
      </trkpt>
      <trkpt lat="47.31233" lon="-2.27134">
        <ele>45.599998474121</ele>
        <time>2021-07-22T08:02:16.000Z</time>
      </trkpt>
      <trkpt lat="47.3119" lon="-2.27174">
        <ele>45.599998474121</ele>
        <time>2021-07-22T08:02:24.000Z</time>
      </trkpt>
      <trkpt lat="47.31152" lon="-2.27212">
        <ele>45.599998474121</ele>
        <time>2021-07-22T08:02:32.000Z</time>
      </trkpt>
      <trkpt lat="47.31125" lon="-2.27234">
        <ele>45.599998474121</ele>
        <time>2021-07-22T08:02:38.000Z</time>
      </trkpt>
      <trkpt lat="47.31114" lon="-2.27237">
        <ele>45.599998474121</ele>
        <time>2021-07-22T08:02:40.000Z</time>
      </trkpt>
      <trkpt lat="47.31077" lon="-2.27249">
        <ele>45.599998474121</ele>
        <time>2021-07-22T08:02:47.000Z</time>
      </trkpt>
      <trkpt lat="47.31056" lon="-2.27255">
        <ele>45.599998474121</ele>
        <time>2021-07-22T08:02:52.000Z</time>
      </trkpt>
      <trkpt lat="47.31032" lon="-2.27257">
        <ele>45.599998474121</ele>
        <time>2021-07-22T08:02:59.000Z</time>
      </trkpt>
      <trkpt lat="47.31019" lon="-2.27254">
        <ele>45.599998474121</ele>
        <time>2021-07-22T08:03:02.000Z</time>
      </trkpt>
      <trkpt lat="47.31013" lon="-2.27246">
        <ele>45.599998474121</ele>
        <time>2021-07-22T08:03:04.000Z</time>
      </trkpt>
      <trkpt lat="47.31005" lon="-2.27216">
        <ele>45.599998474121</ele>
        <time>2021-07-22T08:03:08.000Z</time>
      </trkpt>
      <trkpt lat="47.31004" lon="-2.27208">
        <ele>45.599998474121</ele>
        <time>2021-07-22T08:03:09.000Z</time>
      </trkpt>
      <trkpt lat="47.31002" lon="-2.27192">
        <ele>45.599998474121</ele>
        <time>2021-07-22T08:03:11.000Z</time>
      </trkpt>
      <trkpt lat="47.31" lon="-2.2716">
        <ele>45.599998474121</ele>
        <time>2021-07-22T08:03:15.000Z</time>
      </trkpt>
      <trkpt lat="47.30997" lon="-2.2709">
        <ele>45.599998474121</ele>
        <time>2021-07-22T08:03:24.000Z</time>
      </trkpt>
      <trkpt lat="47.30994" lon="-2.27028">
        <ele>45.599998474121</ele>
        <time>2021-07-22T08:03:30.000Z</time>
      </trkpt>
      <trkpt lat="47.30992" lon="-2.27004">
        <ele>45</ele>
        <time>2021-07-22T08:03:32.000Z</time>
      </trkpt>
      <trkpt lat="47.3099" lon="-2.26992">
        <ele>44.599998474121</ele>
        <time>2021-07-22T08:03:33.000Z</time>
      </trkpt>
      <trkpt lat="47.30986" lon="-2.26981">
        <ele>44.200000762939</ele>
        <time>2021-07-22T08:03:34.000Z</time>
      </trkpt>
      <trkpt lat="47.3098" lon="-2.26973">
        <ele>43.599998474121</ele>
        <time>2021-07-22T08:03:35.000Z</time>
      </trkpt>
      <trkpt lat="47.30974" lon="-2.26965">
        <ele>43.200000762939</ele>
        <time>2021-07-22T08:03:36.000Z</time>
      </trkpt>
      <trkpt lat="47.30967" lon="-2.26959">
        <ele>43.200000762939</ele>
        <time>2021-07-22T08:03:37.000Z</time>
      </trkpt>
      <trkpt lat="47.30952" lon="-2.2695">
        <ele>43.200000762939</ele>
        <time>2021-07-22T08:03:39.000Z</time>
      </trkpt>
      <trkpt lat="47.3093" lon="-2.26937">
        <ele>43.200000762939</ele>
        <time>2021-07-22T08:03:42.000Z</time>
      </trkpt>
      <trkpt lat="47.30919" lon="-2.26927">
        <ele>43.200000762939</ele>
        <time>2021-07-22T08:03:44.000Z</time>
      </trkpt>
      <trkpt lat="47.30911" lon="-2.26912">
        <ele>43.200000762939</ele>
        <time>2021-07-22T08:03:46.000Z</time>
      </trkpt>
      <trkpt lat="47.30904" lon="-2.26879">
        <ele>43.200000762939</ele>
        <time>2021-07-22T08:03:50.000Z</time>
      </trkpt>
      <trkpt lat="47.30903" lon="-2.2687">
        <ele>43.200000762939</ele>
        <time>2021-07-22T08:03:51.000Z</time>
      </trkpt>
      <trkpt lat="47.30903" lon="-2.26853">
        <ele>43.200000762939</ele>
        <time>2021-07-22T08:03:53.000Z</time>
      </trkpt>
      <trkpt lat="47.30906" lon="-2.26837">
        <ele>43.200000762939</ele>
        <time>2021-07-22T08:03:55.000Z</time>
      </trkpt>
      <trkpt lat="47.30918" lon="-2.26778">
        <ele>43.200000762939</ele>
        <time>2021-07-22T08:04:01.000Z</time>
      </trkpt>
      <trkpt lat="47.30938" lon="-2.26695">
        <ele>43.200000762939</ele>
        <time>2021-07-22T08:04:09.000Z</time>
      </trkpt>
      <trkpt lat="47.30942" lon="-2.26674">
        <ele>43.200000762939</ele>
        <time>2021-07-22T08:04:11.000Z</time>
      </trkpt>
      <trkpt lat="47.30955" lon="-2.26604">
        <ele>43.200000762939</ele>
        <time>2021-07-22T08:04:18.000Z</time>
      </trkpt>
      <trkpt lat="47.30965" lon="-2.26542">
        <ele>43.200000762939</ele>
        <time>2021-07-22T08:04:25.000Z</time>
      </trkpt>
      <trkpt lat="47.30978" lon="-2.26471">
        <ele>43.200000762939</ele>
        <time>2021-07-22T08:04:33.000Z</time>
      </trkpt>
      <trkpt lat="47.30992" lon="-2.26389">
        <ele>43.200000762939</ele>
        <time>2021-07-22T08:04:42.000Z</time>
      </trkpt>
      <trkpt lat="47.30995" lon="-2.26371">
        <ele>43.200000762939</ele>
        <time>2021-07-22T08:04:44.000Z</time>
      </trkpt>
      <trkpt lat="47.31007" lon="-2.26305">
        <ele>43.200000762939</ele>
        <time>2021-07-22T08:04:52.000Z</time>
      </trkpt>
      <trkpt lat="47.31015" lon="-2.26269">
        <ele>43.200000762939</ele>
        <time>2021-07-22T08:04:58.000Z</time>
      </trkpt>
      <trkpt lat="47.3102" lon="-2.26228">
        <ele>43.200000762939</ele>
        <time>2021-07-22T08:05:04.000Z</time>
      </trkpt>
      <trkpt lat="47.31028" lon="-2.26167">
        <ele>43.200000762939</ele>
        <time>2021-07-22T08:05:11.000Z</time>
      </trkpt>
      <trkpt lat="47.31037" lon="-2.26108">
        <ele>43.200000762939</ele>
        <time>2021-07-22T08:05:18.000Z</time>
      </trkpt>
      <trkpt lat="47.31048" lon="-2.26044">
        <ele>43.200000762939</ele>
        <time>2021-07-22T08:05:26.000Z</time>
      </trkpt>
      <trkpt lat="47.31053" lon="-2.26029">
        <ele>43.200000762939</ele>
        <time>2021-07-22T08:05:28.000Z</time>
      </trkpt>
      <trkpt lat="47.31058" lon="-2.26022">
        <ele>43.599998474121</ele>
        <time>2021-07-22T08:05:29.000Z</time>
      </trkpt>
      <trkpt lat="47.31062" lon="-2.26016">
        <ele>44</ele>
        <time>2021-07-22T08:05:30.000Z</time>
      </trkpt>
      <trkpt lat="47.31067" lon="-2.26011">
        <ele>44.400001525879</ele>
        <time>2021-07-22T08:05:31.000Z</time>
      </trkpt>
      <trkpt lat="47.31072" lon="-2.26006">
        <ele>44.799999237061</ele>
        <time>2021-07-22T08:05:32.000Z</time>
      </trkpt>
      <trkpt lat="47.31076" lon="-2.26002">
        <ele>45.400001525879</ele>
        <time>2021-07-22T08:05:33.000Z</time>
      </trkpt>
      <trkpt lat="47.31081" lon="-2.26">
        <ele>45.400001525879</ele>
        <time>2021-07-22T08:05:34.000Z</time>
      </trkpt>
      <trkpt lat="47.31086" lon="-2.26">
        <ele>45.400001525879</ele>
        <time>2021-07-22T08:05:35.000Z</time>
      </trkpt>
      <trkpt lat="47.31105" lon="-2.26008">
        <ele>45.400001525879</ele>
        <time>2021-07-22T08:05:38.000Z</time>
      </trkpt>
      <trkpt lat="47.31117" lon="-2.26015">
        <ele>45.400001525879</ele>
        <time>2021-07-22T08:05:40.000Z</time>
      </trkpt>
      <trkpt lat="47.31143" lon="-2.26032">
        <ele>45.400001525879</ele>
        <time>2021-07-22T08:05:44.000Z</time>
      </trkpt>
      <trkpt lat="47.31157" lon="-2.26042">
        <ele>45</ele>
        <time>2021-07-22T08:05:46.000Z</time>
      </trkpt>
      <trkpt lat="47.31164" lon="-2.26047">
        <ele>44.599998474121</ele>
        <time>2021-07-22T08:05:47.000Z</time>
      </trkpt>
      <trkpt lat="47.31171" lon="-2.26052">
        <ele>44.200000762939</ele>
        <time>2021-07-22T08:05:48.000Z</time>
      </trkpt>
      <trkpt lat="47.31177" lon="-2.26057">
        <ele>43.799999237061</ele>
        <time>2021-07-22T08:05:49.000Z</time>
      </trkpt>
      <trkpt lat="47.3118" lon="-2.26059">
        <ele>43.400001525879</ele>
        <time>2021-07-22T08:05:50.000Z</time>
      </trkpt>
      <trkpt lat="47.31191" lon="-2.26058">
        <ele>43.400001525879</ele>
        <time>2021-07-22T08:05:54.000Z</time>
      </trkpt>
      <trkpt lat="47.31212" lon="-2.26041">
        <ele>43.400001525879</ele>
        <time>2021-07-22T08:06:01.000Z</time>
      </trkpt>
      <trkpt lat="47.31237" lon="-2.26025">
        <ele>43.400001525879</ele>
        <time>2021-07-22T08:06:07.000Z</time>
      </trkpt>
      <trkpt lat="47.31251" lon="-2.26013">
        <ele>43.400001525879</ele>
        <time>2021-07-22T08:06:11.000Z</time>
      </trkpt>
      <trkpt lat="47.31276" lon="-2.25994">
        <ele>43.400001525879</ele>
        <time>2021-07-22T08:06:17.000Z</time>
      </trkpt>
      <trkpt lat="47.3128" lon="-2.25989">
        <ele>43.400001525879</ele>
        <time>2021-07-22T08:06:18.000Z</time>
      </trkpt>
      <trkpt lat="47.31285" lon="-2.25974">
        <ele>43.400001525879</ele>
        <time>2021-07-22T08:06:21.000Z</time>
      </trkpt>
      <trkpt lat="47.31281" lon="-2.2595">
        <ele>43.799999237061</ele>
        <time>2021-07-22T08:06:25.000Z</time>
      </trkpt>
      <trkpt lat="47.3128" lon="-2.25945">
        <ele>44.200000762939</ele>
        <time>2021-07-22T08:06:26.000Z</time>
      </trkpt>
      <trkpt lat="47.31279" lon="-2.2594">
        <ele>44.599998474121</ele>
        <time>2021-07-22T08:06:27.000Z</time>
      </trkpt>
      <trkpt lat="47.31277" lon="-2.25936">
        <ele>45</ele>
        <time>2021-07-22T08:06:28.000Z</time>
      </trkpt>
      <trkpt lat="47.31276" lon="-2.25932">
        <ele>45.400001525879</ele>
        <time>2021-07-22T08:06:29.000Z</time>
      </trkpt>
      <trkpt lat="47.31275" lon="-2.25927">
        <ele>45.400001525879</ele>
        <time>2021-07-22T08:06:30.000Z</time>
      </trkpt>
      <trkpt lat="47.31269" lon="-2.25894">
        <ele>45.400001525879</ele>
        <time>2021-07-22T08:06:37.000Z</time>
      </trkpt>
      <trkpt lat="47.31261" lon="-2.25857">
        <ele>45.400001525879</ele>
        <time>2021-07-22T08:06:44.000Z</time>
      </trkpt>
      <trkpt lat="47.31251" lon="-2.25823">
        <ele>45.400001525879</ele>
        <time>2021-07-22T08:06:51.000Z</time>
      </trkpt>
      <trkpt lat="47.3125" lon="-2.25801">
        <ele>45.400001525879</ele>
        <time>2021-07-22T08:06:56.000Z</time>
      </trkpt>
      <trkpt lat="47.31261" lon="-2.2579">
        <ele>45.400001525879</ele>
        <time>2021-07-22T08:06:59.000Z</time>
      </trkpt>
      <trkpt lat="47.31279" lon="-2.2577">
        <ele>45.799999237061</ele>
        <time>2021-07-22T08:07:03.000Z</time>
      </trkpt>
      <trkpt lat="47.31284" lon="-2.25765">
        <ele>46.200000762939</ele>
        <time>2021-07-22T08:07:04.000Z</time>
      </trkpt>
      <trkpt lat="47.3129" lon="-2.25761">
        <ele>46.599998474121</ele>
        <time>2021-07-22T08:07:05.000Z</time>
      </trkpt>
      <trkpt lat="47.31296" lon="-2.25756">
        <ele>47</ele>
        <time>2021-07-22T08:07:06.000Z</time>
      </trkpt>
      <trkpt lat="47.31302" lon="-2.25752">
        <ele>47.400001525879</ele>
        <time>2021-07-22T08:07:07.000Z</time>
      </trkpt>
      <trkpt lat="47.31333" lon="-2.25734">
        <ele>47.400001525879</ele>
        <time>2021-07-22T08:07:12.000Z</time>
      </trkpt>
      <trkpt lat="47.31385" lon="-2.25708">
        <ele>47.400001525879</ele>
        <time>2021-07-22T08:07:20.000Z</time>
      </trkpt>
      <trkpt lat="47.31392" lon="-2.25705">
        <ele>47.400001525879</ele>
        <time>2021-07-22T08:07:21.000Z</time>
      </trkpt>
      <trkpt lat="47.31435" lon="-2.25681">
        <ele>47</ele>
        <time>2021-07-22T08:07:28.000Z</time>
      </trkpt>
      <trkpt lat="47.31441" lon="-2.25678">
        <ele>46.599998474121</ele>
        <time>2021-07-22T08:07:29.000Z</time>
      </trkpt>
      <trkpt lat="47.31447" lon="-2.25675">
        <ele>46.200000762939</ele>
        <time>2021-07-22T08:07:30.000Z</time>
      </trkpt>
      <trkpt lat="47.31454" lon="-2.25671">
        <ele>45.799999237061</ele>
        <time>2021-07-22T08:07:31.000Z</time>
      </trkpt>
      <trkpt lat="47.3146" lon="-2.25667">
        <ele>45.400001525879</ele>
        <time>2021-07-22T08:07:32.000Z</time>
      </trkpt>
      <trkpt lat="47.31466" lon="-2.25664">
        <ele>45.400001525879</ele>
        <time>2021-07-22T08:07:33.000Z</time>
      </trkpt>
      <trkpt lat="47.31491" lon="-2.25653">
        <ele>45.400001525879</ele>
        <time>2021-07-22T08:07:37.000Z</time>
      </trkpt>
      <trkpt lat="47.31503" lon="-2.25648">
        <ele>45.400001525879</ele>
        <time>2021-07-22T08:07:39.000Z</time>
      </trkpt>
      <trkpt lat="47.31509" lon="-2.25643">
        <ele>44.599998474121</ele>
        <time>2021-07-22T08:07:40.000Z</time>
      </trkpt>
      <trkpt lat="47.31512" lon="-2.25635">
        <ele>44.200000762939</ele>
        <time>2021-07-22T08:07:41.000Z</time>
      </trkpt>
      <trkpt lat="47.31514" lon="-2.25627">
        <ele>43.799999237061</ele>
        <time>2021-07-22T08:07:42.000Z</time>
      </trkpt>
      <trkpt lat="47.31515" lon="-2.25619">
        <ele>43.400001525879</ele>
        <time>2021-07-22T08:07:43.000Z</time>
      </trkpt>
      <trkpt lat="47.31513" lon="-2.25612">
        <ele>43.400001525879</ele>
        <time>2021-07-22T08:07:44.000Z</time>
      </trkpt>
      <trkpt lat="47.31511" lon="-2.25605">
        <ele>43.400001525879</ele>
        <time>2021-07-22T08:07:45.000Z</time>
      </trkpt>
      <trkpt lat="47.31501" lon="-2.25582">
        <ele>43.400001525879</ele>
        <time>2021-07-22T08:07:48.000Z</time>
      </trkpt>
      <trkpt lat="47.31492" lon="-2.2557">
        <ele>43.400001525879</ele>
        <time>2021-07-22T08:07:50.000Z</time>
      </trkpt>
      <trkpt lat="47.31475" lon="-2.25555">
        <ele>43.400001525879</ele>
        <time>2021-07-22T08:07:53.000Z</time>
      </trkpt>
      <trkpt lat="47.31463" lon="-2.25546">
        <ele>43.400001525879</ele>
        <time>2021-07-22T08:07:55.000Z</time>
      </trkpt>
      <trkpt lat="47.31438" lon="-2.25515">
        <ele>43.400001525879</ele>
        <time>2021-07-22T08:08:00.000Z</time>
      </trkpt>
      <trkpt lat="47.31409" lon="-2.25463">
        <ele>43.400001525879</ele>
        <time>2021-07-22T08:08:07.000Z</time>
      </trkpt>
      <trkpt lat="47.31381" lon="-2.25409">
        <ele>43.400001525879</ele>
        <time>2021-07-22T08:08:14.000Z</time>
      </trkpt>
      <trkpt lat="47.31371" lon="-2.25398">
        <ele>43.400001525879</ele>
        <time>2021-07-22T08:08:16.000Z</time>
      </trkpt>
      <trkpt lat="47.3136" lon="-2.25386">
        <ele>43.400001525879</ele>
        <time>2021-07-22T08:08:18.000Z</time>
      </trkpt>
      <trkpt lat="47.31356" lon="-2.25379">
        <ele>43.400001525879</ele>
        <time>2021-07-22T08:08:19.000Z</time>
      </trkpt>
      <trkpt lat="47.31346" lon="-2.25353">
        <ele>43.400001525879</ele>
        <time>2021-07-22T08:08:22.000Z</time>
      </trkpt>
      <trkpt lat="47.31341" lon="-2.25312">
        <ele>43.400001525879</ele>
        <time>2021-07-22T08:08:26.000Z</time>
      </trkpt>
      <trkpt lat="47.31336" lon="-2.25274">
        <ele>43.400001525879</ele>
        <time>2021-07-22T08:08:30.000Z</time>
      </trkpt>
      <trkpt lat="47.31333" lon="-2.25265">
        <ele>43.400001525879</ele>
        <time>2021-07-22T08:08:31.000Z</time>
      </trkpt>
      <trkpt lat="47.31313" lon="-2.25236">
        <ele>43.400001525879</ele>
        <time>2021-07-22T08:08:35.000Z</time>
      </trkpt>
      <trkpt lat="47.31307" lon="-2.2523">
        <ele>43.400001525879</ele>
        <time>2021-07-22T08:08:36.000Z</time>
      </trkpt>
      <trkpt lat="47.31271" lon="-2.25181">
        <ele>43.400001525879</ele>
        <time>2021-07-22T08:08:43.000Z</time>
      </trkpt>
      <trkpt lat="47.31242" lon="-2.25128">
        <ele>43.400001525879</ele>
        <time>2021-07-22T08:08:50.000Z</time>
      </trkpt>
      <trkpt lat="47.31219" lon="-2.25076">
        <ele>43.400001525879</ele>
        <time>2021-07-22T08:08:57.000Z</time>
      </trkpt>
      <trkpt lat="47.31202" lon="-2.25027">
        <ele>43.400001525879</ele>
        <time>2021-07-22T08:09:04.000Z</time>
      </trkpt>
      <trkpt lat="47.31188" lon="-2.24995">
        <ele>43.400001525879</ele>
        <time>2021-07-22T08:09:09.000Z</time>
      </trkpt>
      <trkpt lat="47.31183" lon="-2.24991">
        <ele>43.400001525879</ele>
        <time>2021-07-22T08:09:10.000Z</time>
      </trkpt>
      <trkpt lat="47.31167" lon="-2.24985">
        <ele>43.400001525879</ele>
        <time>2021-07-22T08:09:13.000Z</time>
      </trkpt>
      <trkpt lat="47.31158" lon="-2.24968">
        <ele>43.400001525879</ele>
        <time>2021-07-22T08:09:16.000Z</time>
      </trkpt>
      <trkpt lat="47.31155" lon="-2.24953">
        <ele>43.400001525879</ele>
        <time>2021-07-22T08:09:18.000Z</time>
      </trkpt>
      <trkpt lat="47.31155" lon="-2.24945">
        <ele>43.400001525879</ele>
        <time>2021-07-22T08:09:19.000Z</time>
      </trkpt>
      <trkpt lat="47.31155" lon="-2.24937">
        <ele>43.400001525879</ele>
        <time>2021-07-22T08:09:20.000Z</time>
      </trkpt>
      <trkpt lat="47.31155" lon="-2.24927">
        <ele>43.400001525879</ele>
        <time>2021-07-22T08:09:21.000Z</time>
      </trkpt>
      <trkpt lat="47.31153" lon="-2.249">
        <ele>43.400001525879</ele>
        <time>2021-07-22T08:09:24.000Z</time>
      </trkpt>
      <trkpt lat="47.31146" lon="-2.24852">
        <ele>43.400001525879</ele>
        <time>2021-07-22T08:09:29.000Z</time>
      </trkpt>
      <trkpt lat="47.31144" lon="-2.24842">
        <ele>43.400001525879</ele>
        <time>2021-07-22T08:09:30.000Z</time>
      </trkpt>
      <trkpt lat="47.31134" lon="-2.24784">
        <ele>43.400001525879</ele>
        <time>2021-07-22T08:09:36.000Z</time>
      </trkpt>
      <trkpt lat="47.31134" lon="-2.24774">
        <ele>43.400001525879</ele>
        <time>2021-07-22T08:09:37.000Z</time>
      </trkpt>
      <trkpt lat="47.31143" lon="-2.24745">
        <ele>43.400001525879</ele>
        <time>2021-07-22T08:09:41.000Z</time>
      </trkpt>
      <trkpt lat="47.31147" lon="-2.24739">
        <ele>43.400001525879</ele>
        <time>2021-07-22T08:09:44.000Z</time>
      </trkpt>
      <trkpt lat="47.31149" lon="-2.24738">
        <ele>43.400001525879</ele>
        <time>2021-07-22T08:09:45.000Z</time>
      </trkpt>
      <trkpt lat="47.31156" lon="-2.24727">
        <ele>43.400001525879</ele>
        <time>2021-07-22T08:09:49.000Z</time>
      </trkpt>
      <trkpt lat="47.31174" lon="-2.24703">
        <ele>43.400001525879</ele>
        <time>2021-07-22T08:09:56.000Z</time>
      </trkpt>
      <trkpt lat="47.31193" lon="-2.24678">
        <ele>43.400001525879</ele>
        <time>2021-07-22T08:10:02.000Z</time>
      </trkpt>
      <trkpt lat="47.31217" lon="-2.24653">
        <ele>43.400001525879</ele>
        <time>2021-07-22T08:10:08.000Z</time>
      </trkpt>
      <trkpt lat="47.31234" lon="-2.24635">
        <ele>43.400001525879</ele>
        <time>2021-07-22T08:10:12.000Z</time>
      </trkpt>
      <trkpt lat="47.31245" lon="-2.2462">
        <ele>43.400001525879</ele>
        <time>2021-07-22T08:10:15.000Z</time>
      </trkpt>
      <trkpt lat="47.31272" lon="-2.24595">
        <ele>43.400001525879</ele>
        <time>2021-07-22T08:10:21.000Z</time>
      </trkpt>
      <trkpt lat="47.31277" lon="-2.24589">
        <ele>43.400001525879</ele>
        <time>2021-07-22T08:10:22.000Z</time>
      </trkpt>
      <trkpt lat="47.31297" lon="-2.24569">
        <ele>43.400001525879</ele>
        <time>2021-07-22T08:10:26.000Z</time>
      </trkpt>
      <trkpt lat="47.31306" lon="-2.24559">
        <ele>43.400001525879</ele>
        <time>2021-07-22T08:10:28.000Z</time>
      </trkpt>
      <trkpt lat="47.31326" lon="-2.24539">
        <ele>43.400001525879</ele>
        <time>2021-07-22T08:10:32.000Z</time>
      </trkpt>
      <trkpt lat="47.31362" lon="-2.24501">
        <ele>43.400001525879</ele>
        <time>2021-07-22T08:10:39.000Z</time>
      </trkpt>
      <trkpt lat="47.31394" lon="-2.24468">
        <ele>43.400001525879</ele>
        <time>2021-07-22T08:10:45.000Z</time>
      </trkpt>
      <trkpt lat="47.3143" lon="-2.2443">
        <ele>43.400001525879</ele>
        <time>2021-07-22T08:10:52.000Z</time>
      </trkpt>
      <trkpt lat="47.31462" lon="-2.24391">
        <ele>43.400001525879</ele>
        <time>2021-07-22T08:10:59.000Z</time>
      </trkpt>
      <trkpt lat="47.31489" lon="-2.24379">
        <ele>43.400001525879</ele>
        <time>2021-07-22T08:11:04.000Z</time>
      </trkpt>
      <trkpt lat="47.31494" lon="-2.24378">
        <ele>43.400001525879</ele>
        <time>2021-07-22T08:11:05.000Z</time>
      </trkpt>
      <trkpt lat="47.3151" lon="-2.24374">
        <ele>43.400001525879</ele>
        <time>2021-07-22T08:11:08.000Z</time>
      </trkpt>
      <trkpt lat="47.31539" lon="-2.24375">
        <ele>43.400001525879</ele>
        <time>2021-07-22T08:11:13.000Z</time>
      </trkpt>
      <trkpt lat="47.31559" lon="-2.24377">
        <ele>43.400001525879</ele>
        <time>2021-07-22T08:11:17.000Z</time>
      </trkpt>
      <trkpt lat="47.31563" lon="-2.24379">
        <ele>43.400001525879</ele>
        <time>2021-07-22T08:11:18.000Z</time>
      </trkpt>
      <trkpt lat="47.31585" lon="-2.24393">
        <ele>43.400001525879</ele>
        <time>2021-07-22T08:11:23.000Z</time>
      </trkpt>
      <trkpt lat="47.31602" lon="-2.24402">
        <ele>43.400001525879</ele>
        <time>2021-07-22T08:11:28.000Z</time>
      </trkpt>
      <trkpt lat="47.31616" lon="-2.24409">
        <ele>43.400001525879</ele>
        <time>2021-07-22T08:11:32.000Z</time>
      </trkpt>
      <trkpt lat="47.31619" lon="-2.24412">
        <ele>43.400001525879</ele>
        <time>2021-07-22T08:11:33.000Z</time>
      </trkpt>
      <trkpt lat="47.31641" lon="-2.24424">
        <ele>43.400001525879</ele>
        <time>2021-07-22T08:11:39.000Z</time>
      </trkpt>
      <trkpt lat="47.31649" lon="-2.24428">
        <ele>43.400001525879</ele>
        <time>2021-07-22T08:11:41.000Z</time>
      </trkpt>
      <trkpt lat="47.31658" lon="-2.24436">
        <ele>43.400001525879</ele>
        <time>2021-07-22T08:11:43.000Z</time>
      </trkpt>
      <trkpt lat="47.31664" lon="-2.24438">
        <ele>43.400001525879</ele>
        <time>2021-07-22T08:11:45.000Z</time>
      </trkpt>
      <trkpt lat="47.31666" lon="-2.24438">
        <ele>43.400001525879</ele>
        <time>2021-07-22T08:11:46.000Z</time>
      </trkpt>
      <trkpt lat="47.31667" lon="-2.24438">
        <ele>43</ele>
        <time>2021-07-22T08:11:47.000Z</time>
      </trkpt>
      <trkpt lat="47.31668" lon="-2.24438">
        <ele>42.200000762939</ele>
        <time>2021-07-22T08:11:48.000Z</time>
      </trkpt>
      <trkpt lat="47.31669" lon="-2.24439">
        <ele>41.599998474121</ele>
        <time>2021-07-22T08:11:49.000Z</time>
      </trkpt>
      <trkpt lat="47.31671" lon="-2.24438">
        <ele>41.200000762939</ele>
        <time>2021-07-22T08:11:50.000Z</time>
      </trkpt>
      <trkpt lat="47.31673" lon="-2.24437">
        <ele>41.200000762939</ele>
        <time>2021-07-22T08:11:51.000Z</time>
      </trkpt>
      <trkpt lat="47.31688" lon="-2.24435">
        <ele>41.200000762939</ele>
        <time>2021-07-22T08:11:57.000Z</time>
      </trkpt>
      <trkpt lat="47.31705" lon="-2.24441">
        <ele>41.200000762939</ele>
        <time>2021-07-22T08:12:02.000Z</time>
      </trkpt>
      <trkpt lat="47.31715" lon="-2.24458">
        <ele>41.200000762939</ele>
        <time>2021-07-22T08:12:06.000Z</time>
      </trkpt>
      <trkpt lat="47.31728" lon="-2.24486">
        <ele>41.200000762939</ele>
        <time>2021-07-22T08:12:12.000Z</time>
      </trkpt>
      <trkpt lat="47.31735" lon="-2.24512">
        <ele>41.200000762939</ele>
        <time>2021-07-22T08:12:17.000Z</time>
      </trkpt>
      <trkpt lat="47.3174" lon="-2.24525">
        <ele>41.200000762939</ele>
        <time>2021-07-22T08:12:19.000Z</time>
      </trkpt>
      <trkpt lat="47.31748" lon="-2.24543">
        <ele>41.200000762939</ele>
        <time>2021-07-22T08:12:22.000Z</time>
      </trkpt>
      <trkpt lat="47.31753" lon="-2.24556">
        <ele>41.200000762939</ele>
        <time>2021-07-22T08:12:24.000Z</time>
      </trkpt>
      <trkpt lat="47.31758" lon="-2.2457">
        <ele>41.200000762939</ele>
        <time>2021-07-22T08:12:26.000Z</time>
      </trkpt>
      <trkpt lat="47.31771" lon="-2.24601">
        <ele>41.200000762939</ele>
        <time>2021-07-22T08:12:31.000Z</time>
      </trkpt>
      <trkpt lat="47.31785" lon="-2.24625">
        <ele>41.200000762939</ele>
        <time>2021-07-22T08:12:36.000Z</time>
      </trkpt>
      <trkpt lat="47.31789" lon="-2.24624">
        <ele>41.200000762939</ele>
        <time>2021-07-22T08:12:37.000Z</time>
      </trkpt>
      <trkpt lat="47.31805" lon="-2.24615">
        <ele>41.200000762939</ele>
        <time>2021-07-22T08:12:40.000Z</time>
      </trkpt>
      <trkpt lat="47.3181" lon="-2.24614">
        <ele>41.200000762939</ele>
        <time>2021-07-22T08:12:41.000Z</time>
      </trkpt>
      <trkpt lat="47.31831" lon="-2.24608">
        <ele>41.200000762939</ele>
        <time>2021-07-22T08:12:45.000Z</time>
      </trkpt>
      <trkpt lat="47.31851" lon="-2.24599">
        <ele>41.200000762939</ele>
        <time>2021-07-22T08:12:49.000Z</time>
      </trkpt>
      <trkpt lat="47.3186" lon="-2.24597">
        <ele>41.200000762939</ele>
        <time>2021-07-22T08:12:51.000Z</time>
      </trkpt>
      <trkpt lat="47.3188" lon="-2.24607">
        <ele>41.200000762939</ele>
        <time>2021-07-22T08:12:55.000Z</time>
      </trkpt>
      <trkpt lat="47.31888" lon="-2.24621">
        <ele>41.200000762939</ele>
        <time>2021-07-22T08:12:58.000Z</time>
      </trkpt>
      <trkpt lat="47.3189" lon="-2.24626">
        <ele>41.200000762939</ele>
        <time>2021-07-22T08:12:59.000Z</time>
      </trkpt>
      <trkpt lat="47.31905" lon="-2.24636">
        <ele>41.200000762939</ele>
        <time>2021-07-22T08:13:03.000Z</time>
      </trkpt>
      <trkpt lat="47.31925" lon="-2.24638">
        <ele>41.200000762939</ele>
        <time>2021-07-22T08:13:07.000Z</time>
      </trkpt>
      <trkpt lat="47.3193" lon="-2.24638">
        <ele>41.200000762939</ele>
        <time>2021-07-22T08:13:08.000Z</time>
      </trkpt>
      <trkpt lat="47.31943" lon="-2.24642">
        <ele>41.200000762939</ele>
        <time>2021-07-22T08:13:11.000Z</time>
      </trkpt>
      <trkpt lat="47.31955" lon="-2.2465">
        <ele>41.200000762939</ele>
        <time>2021-07-22T08:13:14.000Z</time>
      </trkpt>
      <trkpt lat="47.3196" lon="-2.2465">
        <ele>41.200000762939</ele>
        <time>2021-07-22T08:13:16.000Z</time>
      </trkpt>
      <trkpt lat="47.31968" lon="-2.24662">
        <ele>41.200000762939</ele>
        <time>2021-07-22T08:13:22.000Z</time>
      </trkpt>
      <trkpt lat="47.31978" lon="-2.24684">
        <ele>41.200000762939</ele>
        <time>2021-07-22T08:13:26.000Z</time>
      </trkpt>
      <trkpt lat="47.31992" lon="-2.24713">
        <ele>41.200000762939</ele>
        <time>2021-07-22T08:13:31.000Z</time>
      </trkpt>
      <trkpt lat="47.31998" lon="-2.24725">
        <ele>41.200000762939</ele>
        <time>2021-07-22T08:13:33.000Z</time>
      </trkpt>
      <trkpt lat="47.32004" lon="-2.24728">
        <ele>41.200000762939</ele>
        <time>2021-07-22T08:13:35.000Z</time>
      </trkpt>
      <trkpt lat="47.32009" lon="-2.24726">
        <ele>41.200000762939</ele>
        <time>2021-07-22T08:13:36.000Z</time>
      </trkpt>
      <trkpt lat="47.3203" lon="-2.24722">
        <ele>41.200000762939</ele>
        <time>2021-07-22T08:13:40.000Z</time>
      </trkpt>
      <trkpt lat="47.32034" lon="-2.24731">
        <ele>41.200000762939</ele>
        <time>2021-07-22T08:13:41.000Z</time>
      </trkpt>
      <trkpt lat="47.3204" lon="-2.24745">
        <ele>41.200000762939</ele>
        <time>2021-07-22T08:13:43.000Z</time>
      </trkpt>
      <trkpt lat="47.3205" lon="-2.24765">
        <ele>41.200000762939</ele>
        <time>2021-07-22T08:13:46.000Z</time>
      </trkpt>
      <trkpt lat="47.32053" lon="-2.24772">
        <ele>41.200000762939</ele>
        <time>2021-07-22T08:13:47.000Z</time>
      </trkpt>
      <trkpt lat="47.32067" lon="-2.24798">
        <ele>41.200000762939</ele>
        <time>2021-07-22T08:13:51.000Z</time>
      </trkpt>
      <trkpt lat="47.32076" lon="-2.24818">
        <ele>41.200000762939</ele>
        <time>2021-07-22T08:13:54.000Z</time>
      </trkpt>
      <trkpt lat="47.32094" lon="-2.24854">
        <ele>41.200000762939</ele>
        <time>2021-07-22T08:13:59.000Z</time>
      </trkpt>
      <trkpt lat="47.32114" lon="-2.24897">
        <ele>41.200000762939</ele>
        <time>2021-07-22T08:14:05.000Z</time>
      </trkpt>
      <trkpt lat="47.32135" lon="-2.24938">
        <ele>41.200000762939</ele>
        <time>2021-07-22T08:14:11.000Z</time>
      </trkpt>
      <trkpt lat="47.32148" lon="-2.24967">
        <ele>41.200000762939</ele>
        <time>2021-07-22T08:14:16.000Z</time>
      </trkpt>
      <trkpt lat="47.32157" lon="-2.24981">
        <ele>41.200000762939</ele>
        <time>2021-07-22T08:14:21.000Z</time>
      </trkpt>
      <trkpt lat="47.32156" lon="-2.2498">
        <ele>41.200000762939</ele>
        <time>2021-07-22T08:15:31.000Z</time>
      </trkpt>
      <trkpt lat="47.32153" lon="-2.24974">
        <ele>41.200000762939</ele>
        <time>2021-07-22T08:15:34.000Z</time>
      </trkpt>
      <trkpt lat="47.32144" lon="-2.24953">
        <ele>41.200000762939</ele>
        <time>2021-07-22T08:15:40.000Z</time>
      </trkpt>
      <trkpt lat="47.32131" lon="-2.24927">
        <ele>41.200000762939</ele>
        <time>2021-07-22T08:15:45.000Z</time>
      </trkpt>
      <trkpt lat="47.32109" lon="-2.24882">
        <ele>41.200000762939</ele>
        <time>2021-07-22T08:15:53.000Z</time>
      </trkpt>
      <trkpt lat="47.3209" lon="-2.24843">
        <ele>41.200000762939</ele>
        <time>2021-07-22T08:16:00.000Z</time>
      </trkpt>
      <trkpt lat="47.32069" lon="-2.24801">
        <ele>41.200000762939</ele>
        <time>2021-07-22T08:16:07.000Z</time>
      </trkpt>
      <trkpt lat="47.3205" lon="-2.24762">
        <ele>41.200000762939</ele>
        <time>2021-07-22T08:16:14.000Z</time>
      </trkpt>
      <trkpt lat="47.32031" lon="-2.24727">
        <ele>41.200000762939</ele>
        <time>2021-07-22T08:16:21.000Z</time>
      </trkpt>
      <trkpt lat="47.32028" lon="-2.24725">
        <ele>41.200000762939</ele>
        <time>2021-07-22T08:16:22.000Z</time>
      </trkpt>
      <trkpt lat="47.3202" lon="-2.24727">
        <ele>41.200000762939</ele>
        <time>2021-07-22T08:16:24.000Z</time>
      </trkpt>
      <trkpt lat="47.32001" lon="-2.24737">
        <ele>41.200000762939</ele>
        <time>2021-07-22T08:16:30.000Z</time>
      </trkpt>
      <trkpt lat="47.32" lon="-2.24739">
        <ele>41.200000762939</ele>
        <time>2021-07-22T08:16:31.000Z</time>
      </trkpt>
      <trkpt lat="47.31999" lon="-2.24749">
        <ele>41.200000762939</ele>
        <time>2021-07-22T08:16:34.000Z</time>
      </trkpt>
      <trkpt lat="47.32002" lon="-2.24773">
        <ele>41.200000762939</ele>
        <time>2021-07-22T08:16:40.000Z</time>
      </trkpt>
      <trkpt lat="47.31999" lon="-2.24796">
        <ele>41.200000762939</ele>
        <time>2021-07-22T08:16:45.000Z</time>
      </trkpt>
      <trkpt lat="47.31993" lon="-2.24819">
        <ele>41.200000762939</ele>
        <time>2021-07-22T08:16:50.000Z</time>
      </trkpt>
      <trkpt lat="47.31991" lon="-2.24847">
        <ele>41.200000762939</ele>
        <time>2021-07-22T08:16:55.000Z</time>
      </trkpt>
      <trkpt lat="47.31995" lon="-2.24882">
        <ele>41.200000762939</ele>
        <time>2021-07-22T08:17:01.000Z</time>
      </trkpt>
      <trkpt lat="47.31994" lon="-2.24889">
        <ele>41.200000762939</ele>
        <time>2021-07-22T08:17:05.000Z</time>
      </trkpt>
      <trkpt lat="47.31994" lon="-2.24889">
        <ele>41.200000762939</ele>
        <time>2021-07-22T08:17:06.000Z</time>
      </trkpt>
      <trkpt lat="47.31994" lon="-2.24882">
        <ele>41.200000762939</ele>
        <time>2021-07-22T08:17:44.000Z</time>
      </trkpt>
      <trkpt lat="47.31994" lon="-2.24877">
        <ele>41.200000762939</ele>
        <time>2021-07-22T08:17:46.000Z</time>
      </trkpt>
      <trkpt lat="47.31992" lon="-2.24871">
        <ele>41.200000762939</ele>
        <time>2021-07-22T08:17:48.000Z</time>
      </trkpt>
      <trkpt lat="47.31992" lon="-2.24859">
        <ele>41.200000762939</ele>
        <time>2021-07-22T08:17:51.000Z</time>
      </trkpt>
      <trkpt lat="47.31991" lon="-2.24822">
        <ele>41.200000762939</ele>
        <time>2021-07-22T08:17:58.000Z</time>
      </trkpt>
      <trkpt lat="47.31997" lon="-2.24797">
        <ele>41.200000762939</ele>
        <time>2021-07-22T08:18:03.000Z</time>
      </trkpt>
      <trkpt lat="47.32001" lon="-2.24774">
        <ele>41.200000762939</ele>
        <time>2021-07-22T08:18:07.000Z</time>
      </trkpt>
      <trkpt lat="47.32001" lon="-2.24761">
        <ele>41.200000762939</ele>
        <time>2021-07-22T08:18:09.000Z</time>
      </trkpt>
      <trkpt lat="47.31999" lon="-2.24735">
        <ele>41.200000762939</ele>
        <time>2021-07-22T08:18:13.000Z</time>
      </trkpt>
      <trkpt lat="47.31997" lon="-2.24729">
        <ele>41.200000762939</ele>
        <time>2021-07-22T08:18:14.000Z</time>
      </trkpt>
      <trkpt lat="47.31987" lon="-2.24711">
        <ele>41.200000762939</ele>
        <time>2021-07-22T08:18:18.000Z</time>
      </trkpt>
      <trkpt lat="47.31983" lon="-2.24702">
        <ele>41.200000762939</ele>
        <time>2021-07-22T08:18:20.000Z</time>
      </trkpt>
      <trkpt lat="47.31974" lon="-2.24687">
        <ele>41.200000762939</ele>
        <time>2021-07-22T08:18:23.000Z</time>
      </trkpt>
      <trkpt lat="47.31961" lon="-2.24667">
        <ele>41.200000762939</ele>
        <time>2021-07-22T08:18:28.000Z</time>
      </trkpt>
      <trkpt lat="47.3196" lon="-2.24665">
        <ele>41.200000762939</ele>
        <time>2021-07-22T08:18:29.000Z</time>
      </trkpt>
      <trkpt lat="47.31955" lon="-2.24659">
        <ele>41.200000762939</ele>
        <time>2021-07-22T08:18:32.000Z</time>
      </trkpt>
      <trkpt lat="47.31952" lon="-2.24657">
        <ele>41.200000762939</ele>
        <time>2021-07-22T08:18:33.000Z</time>
      </trkpt>
      <trkpt lat="47.31937" lon="-2.24647">
        <ele>41.200000762939</ele>
        <time>2021-07-22T08:18:37.000Z</time>
      </trkpt>
      <trkpt lat="47.31932" lon="-2.24645">
        <ele>41.200000762939</ele>
        <time>2021-07-22T08:18:38.000Z</time>
      </trkpt>
      <trkpt lat="47.31918" lon="-2.2464">
        <ele>41.200000762939</ele>
        <time>2021-07-22T08:18:41.000Z</time>
      </trkpt>
      <trkpt lat="47.31913" lon="-2.2464">
        <ele>41.200000762939</ele>
        <time>2021-07-22T08:18:42.000Z</time>
      </trkpt>
      <trkpt lat="47.3189" lon="-2.24636">
        <ele>41.200000762939</ele>
        <time>2021-07-22T08:18:48.000Z</time>
      </trkpt>
      <trkpt lat="47.31882" lon="-2.2462">
        <ele>41.200000762939</ele>
        <time>2021-07-22T08:18:51.000Z</time>
      </trkpt>
      <trkpt lat="47.31874" lon="-2.24606">
        <ele>41.200000762939</ele>
        <time>2021-07-22T08:18:54.000Z</time>
      </trkpt>
      <trkpt lat="47.31857" lon="-2.246">
        <ele>41.200000762939</ele>
        <time>2021-07-22T08:18:58.000Z</time>
      </trkpt>
      <trkpt lat="47.31842" lon="-2.24605">
        <ele>41.200000762939</ele>
        <time>2021-07-22T08:19:01.000Z</time>
      </trkpt>
      <trkpt lat="47.31832" lon="-2.2461">
        <ele>41.200000762939</ele>
        <time>2021-07-22T08:19:03.000Z</time>
      </trkpt>
      <trkpt lat="47.31801" lon="-2.24621">
        <ele>41.200000762939</ele>
        <time>2021-07-22T08:19:09.000Z</time>
      </trkpt>
      <trkpt lat="47.31791" lon="-2.24626">
        <ele>41.200000762939</ele>
        <time>2021-07-22T08:19:11.000Z</time>
      </trkpt>
      <trkpt lat="47.31783" lon="-2.24624">
        <ele>41.200000762939</ele>
        <time>2021-07-22T08:19:13.000Z</time>
      </trkpt>
      <trkpt lat="47.31773" lon="-2.24609">
        <ele>41.200000762939</ele>
        <time>2021-07-22T08:19:16.000Z</time>
      </trkpt>
      <trkpt lat="47.31768" lon="-2.24595">
        <ele>41.200000762939</ele>
        <time>2021-07-22T08:19:18.000Z</time>
      </trkpt>
      <trkpt lat="47.31759" lon="-2.24573">
        <ele>41.200000762939</ele>
        <time>2021-07-22T08:19:21.000Z</time>
      </trkpt>
      <trkpt lat="47.31751" lon="-2.24549">
        <ele>41.200000762939</ele>
        <time>2021-07-22T08:19:24.000Z</time>
      </trkpt>
      <trkpt lat="47.31745" lon="-2.24534">
        <ele>41.200000762939</ele>
        <time>2021-07-22T08:19:26.000Z</time>
      </trkpt>
      <trkpt lat="47.31735" lon="-2.24506">
        <ele>41.200000762939</ele>
        <time>2021-07-22T08:19:30.000Z</time>
      </trkpt>
      <trkpt lat="47.31732" lon="-2.24492">
        <ele>41.200000762939</ele>
        <time>2021-07-22T08:19:32.000Z</time>
      </trkpt>
      <trkpt lat="47.31722" lon="-2.24472">
        <ele>41.200000762939</ele>
        <time>2021-07-22T08:19:36.000Z</time>
      </trkpt>
      <trkpt lat="47.31708" lon="-2.24441">
        <ele>41.200000762939</ele>
        <time>2021-07-22T08:19:42.000Z</time>
      </trkpt>
      <trkpt lat="47.31705" lon="-2.24438">
        <ele>41.200000762939</ele>
        <time>2021-07-22T08:19:43.000Z</time>
      </trkpt>
      <trkpt lat="47.31696" lon="-2.24436">
        <ele>41.200000762939</ele>
        <time>2021-07-22T08:19:45.000Z</time>
      </trkpt>
      <trkpt lat="47.31678" lon="-2.24438">
        <ele>41.200000762939</ele>
        <time>2021-07-22T08:19:50.000Z</time>
      </trkpt>
      <trkpt lat="47.31674" lon="-2.24441">
        <ele>41.200000762939</ele>
        <time>2021-07-22T08:19:54.000Z</time>
      </trkpt>
      <trkpt lat="47.31672" lon="-2.24442">
        <ele>41.200000762939</ele>
        <time>2021-07-22T08:20:00.000Z</time>
      </trkpt>
      <trkpt lat="47.31668" lon="-2.24446">
        <ele>41.200000762939</ele>
        <time>2021-07-22T08:20:03.000Z</time>
      </trkpt>
      <trkpt lat="47.31667" lon="-2.24447">
        <ele>41.200000762939</ele>
        <time>2021-07-22T08:20:06.000Z</time>
      </trkpt>
      <trkpt lat="47.31665" lon="-2.2445">
        <ele>41.200000762939</ele>
        <time>2021-07-22T08:20:09.000Z</time>
      </trkpt>
      <trkpt lat="47.31664" lon="-2.24451">
        <ele>41.200000762939</ele>
        <time>2021-07-22T08:20:10.000Z</time>
      </trkpt>
      <trkpt lat="47.31654" lon="-2.24458">
        <ele>41.200000762939</ele>
        <time>2021-07-22T08:20:16.000Z</time>
      </trkpt>
      <trkpt lat="47.31644" lon="-2.24454">
        <ele>41.200000762939</ele>
        <time>2021-07-22T08:20:20.000Z</time>
      </trkpt>
      <trkpt lat="47.31635" lon="-2.24438">
        <ele>41.200000762939</ele>
        <time>2021-07-22T08:20:26.000Z</time>
      </trkpt>
      <trkpt lat="47.31632" lon="-2.24437">
        <ele>41.200000762939</ele>
        <time>2021-07-22T08:20:27.000Z</time>
      </trkpt>
      <trkpt lat="47.31629" lon="-2.2444">
        <ele>41.200000762939</ele>
        <time>2021-07-22T08:20:29.000Z</time>
      </trkpt>
      <trkpt lat="47.31618" lon="-2.24446">
        <ele>41.200000762939</ele>
        <time>2021-07-22T08:20:33.000Z</time>
      </trkpt>
      <trkpt lat="47.31615" lon="-2.24447">
        <ele>41.200000762939</ele>
        <time>2021-07-22T08:20:34.000Z</time>
      </trkpt>
      <trkpt lat="47.31599" lon="-2.24463">
        <ele>41.200000762939</ele>
        <time>2021-07-22T08:20:39.000Z</time>
      </trkpt>
      <trkpt lat="47.3158" lon="-2.24482">
        <ele>41.200000762939</ele>
        <time>2021-07-22T08:20:45.000Z</time>
      </trkpt>
      <trkpt lat="47.31563" lon="-2.24497">
        <ele>41.200000762939</ele>
        <time>2021-07-22T08:20:51.000Z</time>
      </trkpt>
      <trkpt lat="47.31561" lon="-2.24497">
        <ele>41.200000762939</ele>
        <time>2021-07-22T08:20:52.000Z</time>
      </trkpt>
      <trkpt lat="47.31556" lon="-2.24494">
        <ele>41.200000762939</ele>
        <time>2021-07-22T08:20:55.000Z</time>
      </trkpt>
      <trkpt lat="47.31554" lon="-2.24492">
        <ele>41.200000762939</ele>
        <time>2021-07-22T08:20:56.000Z</time>
      </trkpt>
      <trkpt lat="47.31545" lon="-2.24482">
        <ele>41.200000762939</ele>
        <time>2021-07-22T08:21:02.000Z</time>
      </trkpt>
      <trkpt lat="47.31543" lon="-2.24481">
        <ele>41.200000762939</ele>
        <time>2021-07-22T08:21:03.000Z</time>
      </trkpt>
      <trkpt lat="47.31529" lon="-2.24471">
        <ele>41.200000762939</ele>
        <time>2021-07-22T08:21:09.000Z</time>
      </trkpt>
      <trkpt lat="47.3152" lon="-2.24449">
        <ele>41.200000762939</ele>
        <time>2021-07-22T08:21:13.000Z</time>
      </trkpt>
      <trkpt lat="47.31517" lon="-2.24422">
        <ele>41.200000762939</ele>
        <time>2021-07-22T08:21:18.000Z</time>
      </trkpt>
      <trkpt lat="47.31517" lon="-2.2441">
        <ele>41.599998474121</ele>
        <time>2021-07-22T08:21:20.000Z</time>
      </trkpt>
      <trkpt lat="47.31517" lon="-2.24403">
        <ele>42</ele>
        <time>2021-07-22T08:21:21.000Z</time>
      </trkpt>
      <trkpt lat="47.31516" lon="-2.24398">
        <ele>42.599998474121</ele>
        <time>2021-07-22T08:21:22.000Z</time>
      </trkpt>
      <trkpt lat="47.31515" lon="-2.24394">
        <ele>43</ele>
        <time>2021-07-22T08:21:23.000Z</time>
      </trkpt>
      <trkpt lat="47.31513" lon="-2.24391">
        <ele>43.400001525879</ele>
        <time>2021-07-22T08:21:24.000Z</time>
      </trkpt>
      <trkpt lat="47.31505" lon="-2.24384">
        <ele>43.400001525879</ele>
        <time>2021-07-22T08:21:27.000Z</time>
      </trkpt>
      <trkpt lat="47.31486" lon="-2.24385">
        <ele>43.400001525879</ele>
        <time>2021-07-22T08:21:33.000Z</time>
      </trkpt>
      <trkpt lat="47.3148" lon="-2.24389">
        <ele>43.400001525879</ele>
        <time>2021-07-22T08:21:37.000Z</time>
      </trkpt>
      <trkpt lat="47.31478" lon="-2.24391">
        <ele>43.400001525879</ele>
        <time>2021-07-22T08:21:55.000Z</time>
      </trkpt>
      <trkpt lat="47.31471" lon="-2.24393">
        <ele>43.400001525879</ele>
        <time>2021-07-22T08:21:58.000Z</time>
      </trkpt>
      <trkpt lat="47.31457" lon="-2.244">
        <ele>43.400001525879</ele>
        <time>2021-07-22T08:22:02.000Z</time>
      </trkpt>
      <trkpt lat="47.31453" lon="-2.24405">
        <ele>43.400001525879</ele>
        <time>2021-07-22T08:22:03.000Z</time>
      </trkpt>
      <trkpt lat="47.31431" lon="-2.24431">
        <ele>43.400001525879</ele>
        <time>2021-07-22T08:22:09.000Z</time>
      </trkpt>
      <trkpt lat="47.31427" lon="-2.24435">
        <ele>43.400001525879</ele>
        <time>2021-07-22T08:22:10.000Z</time>
      </trkpt>
      <trkpt lat="47.31411" lon="-2.24456">
        <ele>43.400001525879</ele>
        <time>2021-07-22T08:22:14.000Z</time>
      </trkpt>
      <trkpt lat="47.31381" lon="-2.24483">
        <ele>43.400001525879</ele>
        <time>2021-07-22T08:22:20.000Z</time>
      </trkpt>
      <trkpt lat="47.31376" lon="-2.24489">
        <ele>43.400001525879</ele>
        <time>2021-07-22T08:22:21.000Z</time>
      </trkpt>
      <trkpt lat="47.31339" lon="-2.24531">
        <ele>43.400001525879</ele>
        <time>2021-07-22T08:22:29.000Z</time>
      </trkpt>
      <trkpt lat="47.31304" lon="-2.24565">
        <ele>43.400001525879</ele>
        <time>2021-07-22T08:22:36.000Z</time>
      </trkpt>
      <trkpt lat="47.31269" lon="-2.24599">
        <ele>43.400001525879</ele>
        <time>2021-07-22T08:22:43.000Z</time>
      </trkpt>
      <trkpt lat="47.31241" lon="-2.24625">
        <ele>43.400001525879</ele>
        <time>2021-07-22T08:22:49.000Z</time>
      </trkpt>
      <trkpt lat="47.31229" lon="-2.24643">
        <ele>43.400001525879</ele>
        <time>2021-07-22T08:22:52.000Z</time>
      </trkpt>
      <trkpt lat="47.31224" lon="-2.24648">
        <ele>43.400001525879</ele>
        <time>2021-07-22T08:22:53.000Z</time>
      </trkpt>
      <trkpt lat="47.31188" lon="-2.24686">
        <ele>43.400001525879</ele>
        <time>2021-07-22T08:23:00.000Z</time>
      </trkpt>
      <trkpt lat="47.31161" lon="-2.24726">
        <ele>43.400001525879</ele>
        <time>2021-07-22T08:23:06.000Z</time>
      </trkpt>
      <trkpt lat="47.31145" lon="-2.24749">
        <ele>43.400001525879</ele>
        <time>2021-07-22T08:23:10.000Z</time>
      </trkpt>
      <trkpt lat="47.31139" lon="-2.24764">
        <ele>43.400001525879</ele>
        <time>2021-07-22T08:23:12.000Z</time>
      </trkpt>
      <trkpt lat="47.31134" lon="-2.2478">
        <ele>43.400001525879</ele>
        <time>2021-07-22T08:23:14.000Z</time>
      </trkpt>
      <trkpt lat="47.31134" lon="-2.24798">
        <ele>43.400001525879</ele>
        <time>2021-07-22T08:23:16.000Z</time>
      </trkpt>
      <trkpt lat="47.31138" lon="-2.24825">
        <ele>43.400001525879</ele>
        <time>2021-07-22T08:23:19.000Z</time>
      </trkpt>
      <trkpt lat="47.3114" lon="-2.24833">
        <ele>43.400001525879</ele>
        <time>2021-07-22T08:23:20.000Z</time>
      </trkpt>
      <trkpt lat="47.31152" lon="-2.24889">
        <ele>43.400001525879</ele>
        <time>2021-07-22T08:23:27.000Z</time>
      </trkpt>
      <trkpt lat="47.3116" lon="-2.24951">
        <ele>43.400001525879</ele>
        <time>2021-07-22T08:23:34.000Z</time>
      </trkpt>
      <trkpt lat="47.31165" lon="-2.24982">
        <ele>43.400001525879</ele>
        <time>2021-07-22T08:23:38.000Z</time>
      </trkpt>
      <trkpt lat="47.31168" lon="-2.24988">
        <ele>43.400001525879</ele>
        <time>2021-07-22T08:23:39.000Z</time>
      </trkpt>
      <trkpt lat="47.31183" lon="-2.24997">
        <ele>43.400001525879</ele>
        <time>2021-07-22T08:23:42.000Z</time>
      </trkpt>
      <trkpt lat="47.31199" lon="-2.25018">
        <ele>43.400001525879</ele>
        <time>2021-07-22T08:23:45.000Z</time>
      </trkpt>
      <trkpt lat="47.31203" lon="-2.25027">
        <ele>43.400001525879</ele>
        <time>2021-07-22T08:23:46.000Z</time>
      </trkpt>
      <trkpt lat="47.31221" lon="-2.25072">
        <ele>43.400001525879</ele>
        <time>2021-07-22T08:23:51.000Z</time>
      </trkpt>
      <trkpt lat="47.31243" lon="-2.25122">
        <ele>43.400001525879</ele>
        <time>2021-07-22T08:23:57.000Z</time>
      </trkpt>
      <trkpt lat="47.3127" lon="-2.25171">
        <ele>43.400001525879</ele>
        <time>2021-07-22T08:24:03.000Z</time>
      </trkpt>
      <trkpt lat="47.31297" lon="-2.25217">
        <ele>43.400001525879</ele>
        <time>2021-07-22T08:24:09.000Z</time>
      </trkpt>
      <trkpt lat="47.31334" lon="-2.25262">
        <ele>43.400001525879</ele>
        <time>2021-07-22T08:24:16.000Z</time>
      </trkpt>
      <trkpt lat="47.31339" lon="-2.2527">
        <ele>43.400001525879</ele>
        <time>2021-07-22T08:24:17.000Z</time>
      </trkpt>
      <trkpt lat="47.31349" lon="-2.25296">
        <ele>43.400001525879</ele>
        <time>2021-07-22T08:24:20.000Z</time>
      </trkpt>
      <trkpt lat="47.31353" lon="-2.25315">
        <ele>43.400001525879</ele>
        <time>2021-07-22T08:24:22.000Z</time>
      </trkpt>
      <trkpt lat="47.31353" lon="-2.25326">
        <ele>43.400001525879</ele>
        <time>2021-07-22T08:24:23.000Z</time>
      </trkpt>
      <trkpt lat="47.31355" lon="-2.25346">
        <ele>43.400001525879</ele>
        <time>2021-07-22T08:24:25.000Z</time>
      </trkpt>
      <trkpt lat="47.3136" lon="-2.25377">
        <ele>43.400001525879</ele>
        <time>2021-07-22T08:24:28.000Z</time>
      </trkpt>
      <trkpt lat="47.31368" lon="-2.25394">
        <ele>43.400001525879</ele>
        <time>2021-07-22T08:24:30.000Z</time>
      </trkpt>
      <trkpt lat="47.31389" lon="-2.25419">
        <ele>43.400001525879</ele>
        <time>2021-07-22T08:24:34.000Z</time>
      </trkpt>
      <trkpt lat="47.31394" lon="-2.25426">
        <ele>43.400001525879</ele>
        <time>2021-07-22T08:24:35.000Z</time>
      </trkpt>
      <trkpt lat="47.31409" lon="-2.2545">
        <ele>43.400001525879</ele>
        <time>2021-07-22T08:24:38.000Z</time>
      </trkpt>
      <trkpt lat="47.31413" lon="-2.25459">
        <ele>43.400001525879</ele>
        <time>2021-07-22T08:24:39.000Z</time>
      </trkpt>
      <trkpt lat="47.3144" lon="-2.2552">
        <ele>43.400001525879</ele>
        <time>2021-07-22T08:24:46.000Z</time>
      </trkpt>
      <trkpt lat="47.31468" lon="-2.25553">
        <ele>43.400001525879</ele>
        <time>2021-07-22T08:24:51.000Z</time>
      </trkpt>
      <trkpt lat="47.31496" lon="-2.25582">
        <ele>43.400001525879</ele>
        <time>2021-07-22T08:24:56.000Z</time>
      </trkpt>
      <trkpt lat="47.31501" lon="-2.2559">
        <ele>43.400001525879</ele>
        <time>2021-07-22T08:24:57.000Z</time>
      </trkpt>
      <trkpt lat="47.31515" lon="-2.25625">
        <ele>43.400001525879</ele>
        <time>2021-07-22T08:25:01.000Z</time>
      </trkpt>
      <trkpt lat="47.31516" lon="-2.25645">
        <ele>43.400001525879</ele>
        <time>2021-07-22T08:25:04.000Z</time>
      </trkpt>
      <trkpt lat="47.31509" lon="-2.25651">
        <ele>43.400001525879</ele>
        <time>2021-07-22T08:25:07.000Z</time>
      </trkpt>
      <trkpt lat="47.31507" lon="-2.25653">
        <ele>43.400001525879</ele>
        <time>2021-07-22T08:25:08.000Z</time>
      </trkpt>
      <trkpt lat="47.31492" lon="-2.2566">
        <ele>43.400001525879</ele>
        <time>2021-07-22T08:25:13.000Z</time>
      </trkpt>
      <trkpt lat="47.31466" lon="-2.25673">
        <ele>43.400001525879</ele>
        <time>2021-07-22T08:25:21.000Z</time>
      </trkpt>
      <trkpt lat="47.31442" lon="-2.25686">
        <ele>43.400001525879</ele>
        <time>2021-07-22T08:25:28.000Z</time>
      </trkpt>
      <trkpt lat="47.31417" lon="-2.257">
        <ele>43.799999237061</ele>
        <time>2021-07-22T08:25:36.000Z</time>
      </trkpt>
      <trkpt lat="47.31413" lon="-2.25702">
        <ele>44.200000762939</ele>
        <time>2021-07-22T08:25:37.000Z</time>
      </trkpt>
      <trkpt lat="47.3141" lon="-2.25704">
        <ele>44.599998474121</ele>
        <time>2021-07-22T08:25:38.000Z</time>
      </trkpt>
      <trkpt lat="47.31406" lon="-2.25706">
        <ele>45</ele>
        <time>2021-07-22T08:25:39.000Z</time>
      </trkpt>
      <trkpt lat="47.31402" lon="-2.25708">
        <ele>45.400001525879</ele>
        <time>2021-07-22T08:25:40.000Z</time>
      </trkpt>
      <trkpt lat="47.31389" lon="-2.25714">
        <ele>45.400001525879</ele>
        <time>2021-07-22T08:25:43.000Z</time>
      </trkpt>
      <trkpt lat="47.31357" lon="-2.25729">
        <ele>45.400001525879</ele>
        <time>2021-07-22T08:25:51.000Z</time>
      </trkpt>
      <trkpt lat="47.3134" lon="-2.25738">
        <ele>45.799999237061</ele>
        <time>2021-07-22T08:25:55.000Z</time>
      </trkpt>
      <trkpt lat="47.31335" lon="-2.25741">
        <ele>46.200000762939</ele>
        <time>2021-07-22T08:25:56.000Z</time>
      </trkpt>
      <trkpt lat="47.31331" lon="-2.25743">
        <ele>46.599998474121</ele>
        <time>2021-07-22T08:25:57.000Z</time>
      </trkpt>
      <trkpt lat="47.31326" lon="-2.25746">
        <ele>47.200000762939</ele>
        <time>2021-07-22T08:25:58.000Z</time>
      </trkpt>
      <trkpt lat="47.31322" lon="-2.25748">
        <ele>47.599998474121</ele>
        <time>2021-07-22T08:25:59.000Z</time>
      </trkpt>
      <trkpt lat="47.31313" lon="-2.25753">
        <ele>47.599998474121</ele>
        <time>2021-07-22T08:26:01.000Z</time>
      </trkpt>
      <trkpt lat="47.31282" lon="-2.25776">
        <ele>47.599998474121</ele>
        <time>2021-07-22T08:26:07.000Z</time>
      </trkpt>
      <trkpt lat="47.31256" lon="-2.258">
        <ele>47.599998474121</ele>
        <time>2021-07-22T08:26:13.000Z</time>
      </trkpt>
      <trkpt lat="47.31252" lon="-2.25815">
        <ele>47.599998474121</ele>
        <time>2021-07-22T08:26:16.000Z</time>
      </trkpt>
      <trkpt lat="47.31254" lon="-2.25824">
        <ele>47.599998474121</ele>
        <time>2021-07-22T08:26:18.000Z</time>
      </trkpt>
      <trkpt lat="47.31261" lon="-2.25844">
        <ele>47.599998474121</ele>
        <time>2021-07-22T08:26:22.000Z</time>
      </trkpt>
      <trkpt lat="47.31272" lon="-2.25883">
        <ele>47.599998474121</ele>
        <time>2021-07-22T08:26:28.000Z</time>
      </trkpt>
      <trkpt lat="47.31274" lon="-2.2589">
        <ele>47.599998474121</ele>
        <time>2021-07-22T08:26:29.000Z</time>
      </trkpt>
      <trkpt lat="47.31278" lon="-2.25912">
        <ele>47.599998474121</ele>
        <time>2021-07-22T08:26:32.000Z</time>
      </trkpt>
      <trkpt lat="47.31283" lon="-2.25937">
        <ele>47.599998474121</ele>
        <time>2021-07-22T08:26:35.000Z</time>
      </trkpt>
      <trkpt lat="47.31289" lon="-2.25969">
        <ele>47.599998474121</ele>
        <time>2021-07-22T08:26:39.000Z</time>
      </trkpt>
      <trkpt lat="47.31292" lon="-2.25974">
        <ele>47.599998474121</ele>
        <time>2021-07-22T08:26:40.000Z</time>
      </trkpt>
      <trkpt lat="47.31303" lon="-2.25979">
        <ele>47.599998474121</ele>
        <time>2021-07-22T08:26:43.000Z</time>
      </trkpt>
      <trkpt lat="47.31318" lon="-2.25997">
        <ele>47.599998474121</ele>
        <time>2021-07-22T08:26:47.000Z</time>
      </trkpt>
      <trkpt lat="47.31332" lon="-2.2603">
        <ele>47.599998474121</ele>
        <time>2021-07-22T08:26:52.000Z</time>
      </trkpt>
      <trkpt lat="47.3134" lon="-2.26051">
        <ele>47.200000762939</ele>
        <time>2021-07-22T08:26:55.000Z</time>
      </trkpt>
      <trkpt lat="47.31344" lon="-2.2606">
        <ele>46.799999237061</ele>
        <time>2021-07-22T08:26:56.000Z</time>
      </trkpt>
      <trkpt lat="47.31347" lon="-2.26068">
        <ele>46.400001525879</ele>
        <time>2021-07-22T08:26:57.000Z</time>
      </trkpt>
      <trkpt lat="47.31351" lon="-2.26077">
        <ele>45.799999237061</ele>
        <time>2021-07-22T08:26:58.000Z</time>
      </trkpt>
      <trkpt lat="47.31355" lon="-2.26087">
        <ele>45.400001525879</ele>
        <time>2021-07-22T08:26:59.000Z</time>
      </trkpt>
      <trkpt lat="47.31373" lon="-2.26142">
        <ele>45.400001525879</ele>
        <time>2021-07-22T08:27:05.000Z</time>
      </trkpt>
      <trkpt lat="47.31377" lon="-2.26147">
        <ele>45</ele>
        <time>2021-07-22T08:27:06.000Z</time>
      </trkpt>
      <trkpt lat="47.3138" lon="-2.26147">
        <ele>44.200000762939</ele>
        <time>2021-07-22T08:27:07.000Z</time>
      </trkpt>
      <trkpt lat="47.31384" lon="-2.26145">
        <ele>43.799999237061</ele>
        <time>2021-07-22T08:27:08.000Z</time>
      </trkpt>
      <trkpt lat="47.31388" lon="-2.26141">
        <ele>43.400001525879</ele>
        <time>2021-07-22T08:27:09.000Z</time>
      </trkpt>
      <trkpt lat="47.31401" lon="-2.26128">
        <ele>43.400001525879</ele>
        <time>2021-07-22T08:27:12.000Z</time>
      </trkpt>
      <trkpt lat="47.31421" lon="-2.26094">
        <ele>43.400001525879</ele>
        <time>2021-07-22T08:27:17.000Z</time>
      </trkpt>
      <trkpt lat="47.31442" lon="-2.26051">
        <ele>43.400001525879</ele>
        <time>2021-07-22T08:27:23.000Z</time>
      </trkpt>
      <trkpt lat="47.31475" lon="-2.26">
        <ele>43.400001525879</ele>
        <time>2021-07-22T08:27:31.000Z</time>
      </trkpt>
      <trkpt lat="47.31494" lon="-2.25968">
        <ele>43.400001525879</ele>
        <time>2021-07-22T08:27:36.000Z</time>
      </trkpt>
      <trkpt lat="47.31498" lon="-2.25962">
        <ele>43.400001525879</ele>
        <time>2021-07-22T08:27:37.000Z</time>
      </trkpt>
      <trkpt lat="47.31522" lon="-2.25931">
        <ele>43.400001525879</ele>
        <time>2021-07-22T08:27:43.000Z</time>
      </trkpt>
      <trkpt lat="47.31526" lon="-2.25928">
        <ele>43.400001525879</ele>
        <time>2021-07-22T08:27:44.000Z</time>
      </trkpt>
      <trkpt lat="47.31539" lon="-2.25918">
        <ele>43.400001525879</ele>
        <time>2021-07-22T08:27:48.000Z</time>
      </trkpt>
      <trkpt lat="47.31541" lon="-2.25916">
        <ele>43.400001525879</ele>
        <time>2021-07-22T08:27:51.000Z</time>
      </trkpt>
      <trkpt lat="47.31539" lon="-2.25921">
        <ele>43.400001525879</ele>
        <time>2021-07-22T08:45:10.000Z</time>
      </trkpt>
      <trkpt lat="47.31536" lon="-2.25923">
        <ele>43.400001525879</ele>
        <time>2021-07-22T08:45:12.000Z</time>
      </trkpt>
      <trkpt lat="47.3152" lon="-2.25935">
        <ele>43.400001525879</ele>
        <time>2021-07-22T08:45:20.000Z</time>
      </trkpt>
      <trkpt lat="47.31507" lon="-2.25955">
        <ele>43.400001525879</ele>
        <time>2021-07-22T08:45:25.000Z</time>
      </trkpt>
      <trkpt lat="47.31492" lon="-2.25984">
        <ele>43.799999237061</ele>
        <time>2021-07-22T08:45:31.000Z</time>
      </trkpt>
      <trkpt lat="47.31489" lon="-2.25989">
        <ele>44.200000762939</ele>
        <time>2021-07-22T08:45:32.000Z</time>
      </trkpt>
      <trkpt lat="47.31486" lon="-2.25995">
        <ele>44.799999237061</ele>
        <time>2021-07-22T08:45:33.000Z</time>
      </trkpt>
      <trkpt lat="47.31483" lon="-2.25999">
        <ele>45.200000762939</ele>
        <time>2021-07-22T08:45:34.000Z</time>
      </trkpt>
      <trkpt lat="47.3148" lon="-2.26004">
        <ele>45.599998474121</ele>
        <time>2021-07-22T08:45:35.000Z</time>
      </trkpt>
      <trkpt lat="47.31463" lon="-2.26034">
        <ele>45.599998474121</ele>
        <time>2021-07-22T08:45:41.000Z</time>
      </trkpt>
      <trkpt lat="47.31438" lon="-2.26069">
        <ele>45.599998474121</ele>
        <time>2021-07-22T08:45:48.000Z</time>
      </trkpt>
      <trkpt lat="47.31422" lon="-2.26107">
        <ele>45.599998474121</ele>
        <time>2021-07-22T08:45:54.000Z</time>
      </trkpt>
      <trkpt lat="47.31405" lon="-2.26134">
        <ele>45.599998474121</ele>
        <time>2021-07-22T08:45:59.000Z</time>
      </trkpt>
      <trkpt lat="47.31401" lon="-2.26139">
        <ele>45.599998474121</ele>
        <time>2021-07-22T08:46:00.000Z</time>
      </trkpt>
      <trkpt lat="47.31374" lon="-2.26157">
        <ele>45.599998474121</ele>
        <time>2021-07-22T08:46:06.000Z</time>
      </trkpt>
      <trkpt lat="47.31363" lon="-2.26145">
        <ele>45.599998474121</ele>
        <time>2021-07-22T08:46:09.000Z</time>
      </trkpt>
      <trkpt lat="47.31361" lon="-2.26133">
        <ele>45.599998474121</ele>
        <time>2021-07-22T08:46:11.000Z</time>
      </trkpt>
      <trkpt lat="47.31359" lon="-2.26122">
        <ele>45.599998474121</ele>
        <time>2021-07-22T08:46:13.000Z</time>
      </trkpt>
      <trkpt lat="47.31352" lon="-2.26097">
        <ele>45.599998474121</ele>
        <time>2021-07-22T08:46:19.000Z</time>
      </trkpt>
      <trkpt lat="47.31351" lon="-2.26094">
        <ele>46</ele>
        <time>2021-07-22T08:46:20.000Z</time>
      </trkpt>
      <trkpt lat="47.31349" lon="-2.26089">
        <ele>46.400001525879</ele>
        <time>2021-07-22T08:46:21.000Z</time>
      </trkpt>
      <trkpt lat="47.31347" lon="-2.26085">
        <ele>46.799999237061</ele>
        <time>2021-07-22T08:46:22.000Z</time>
      </trkpt>
      <trkpt lat="47.31345" lon="-2.2608">
        <ele>47.200000762939</ele>
        <time>2021-07-22T08:46:23.000Z</time>
      </trkpt>
      <trkpt lat="47.31343" lon="-2.26075">
        <ele>47.599998474121</ele>
        <time>2021-07-22T08:46:24.000Z</time>
      </trkpt>
      <trkpt lat="47.31339" lon="-2.26065">
        <ele>47.599998474121</ele>
        <time>2021-07-22T08:46:26.000Z</time>
      </trkpt>
      <trkpt lat="47.3133" lon="-2.2604">
        <ele>47.599998474121</ele>
        <time>2021-07-22T08:46:32.000Z</time>
      </trkpt>
      <trkpt lat="47.31323" lon="-2.26013">
        <ele>47.599998474121</ele>
        <time>2021-07-22T08:46:38.000Z</time>
      </trkpt>
      <trkpt lat="47.31314" lon="-2.25993">
        <ele>47.599998474121</ele>
        <time>2021-07-22T08:46:44.000Z</time>
      </trkpt>
      <trkpt lat="47.313" lon="-2.25989">
        <ele>47.599998474121</ele>
        <time>2021-07-22T08:46:49.000Z</time>
      </trkpt>
      <trkpt lat="47.3128" lon="-2.26001">
        <ele>47.599998474121</ele>
        <time>2021-07-22T08:46:55.000Z</time>
      </trkpt>
      <trkpt lat="47.31255" lon="-2.26021">
        <ele>47.599998474121</ele>
        <time>2021-07-22T08:47:02.000Z</time>
      </trkpt>
      <trkpt lat="47.31229" lon="-2.26034">
        <ele>47.599998474121</ele>
        <time>2021-07-22T08:47:08.000Z</time>
      </trkpt>
      <trkpt lat="47.31197" lon="-2.26054">
        <ele>47.599998474121</ele>
        <time>2021-07-22T08:47:15.000Z</time>
      </trkpt>
      <trkpt lat="47.3118" lon="-2.26055">
        <ele>47.599998474121</ele>
        <time>2021-07-22T08:47:19.000Z</time>
      </trkpt>
      <trkpt lat="47.31175" lon="-2.26052">
        <ele>47.599998474121</ele>
        <time>2021-07-22T08:47:20.000Z</time>
      </trkpt>
      <trkpt lat="47.3117" lon="-2.26049">
        <ele>47.599998474121</ele>
        <time>2021-07-22T08:47:21.000Z</time>
      </trkpt>
      <trkpt lat="47.31156" lon="-2.2604">
        <ele>47.599998474121</ele>
        <time>2021-07-22T08:47:24.000Z</time>
      </trkpt>
      <trkpt lat="47.31137" lon="-2.26029">
        <ele>47.599998474121</ele>
        <time>2021-07-22T08:47:28.000Z</time>
      </trkpt>
      <trkpt lat="47.31122" lon="-2.26022">
        <ele>47.599998474121</ele>
        <time>2021-07-22T08:47:31.000Z</time>
      </trkpt>
      <trkpt lat="47.31097" lon="-2.26007">
        <ele>47.599998474121</ele>
        <time>2021-07-22T08:47:37.000Z</time>
      </trkpt>
      <trkpt lat="47.31082" lon="-2.26006">
        <ele>47.599998474121</ele>
        <time>2021-07-22T08:47:41.000Z</time>
      </trkpt>
      <trkpt lat="47.3107" lon="-2.26011">
        <ele>47.599998474121</ele>
        <time>2021-07-22T08:47:44.000Z</time>
      </trkpt>
      <trkpt lat="47.31062" lon="-2.26014">
        <ele>47.599998474121</ele>
        <time>2021-07-22T08:47:46.000Z</time>
      </trkpt>
      <trkpt lat="47.31057" lon="-2.26015">
        <ele>48</ele>
        <time>2021-07-22T08:47:47.000Z</time>
      </trkpt>
      <trkpt lat="47.31053" lon="-2.26015">
        <ele>48.400001525879</ele>
        <time>2021-07-22T08:47:48.000Z</time>
      </trkpt>
      <trkpt lat="47.31049" lon="-2.26015">
        <ele>48.799999237061</ele>
        <time>2021-07-22T08:47:49.000Z</time>
      </trkpt>
      <trkpt lat="47.31045" lon="-2.26014">
        <ele>49.200000762939</ele>
        <time>2021-07-22T08:47:50.000Z</time>
      </trkpt>
      <trkpt lat="47.31041" lon="-2.26014">
        <ele>49.599998474121</ele>
        <time>2021-07-22T08:47:51.000Z</time>
      </trkpt>
      <trkpt lat="47.31018" lon="-2.26011">
        <ele>49.599998474121</ele>
        <time>2021-07-22T08:47:58.000Z</time>
      </trkpt>
      <trkpt lat="47.30995" lon="-2.2601">
        <ele>49.599998474121</ele>
        <time>2021-07-22T08:48:04.000Z</time>
      </trkpt>
      <trkpt lat="47.30971" lon="-2.2601">
        <ele>49.599998474121</ele>
        <time>2021-07-22T08:48:11.000Z</time>
      </trkpt>
      <trkpt lat="47.30946" lon="-2.26015">
        <ele>49.599998474121</ele>
        <time>2021-07-22T08:48:17.000Z</time>
      </trkpt>
      <trkpt lat="47.30942" lon="-2.26015">
        <ele>49.599998474121</ele>
        <time>2021-07-22T08:48:18.000Z</time>
      </trkpt>
      <trkpt lat="47.3092" lon="-2.26021">
        <ele>49.599998474121</ele>
        <time>2021-07-22T08:48:23.000Z</time>
      </trkpt>
      <trkpt lat="47.30908" lon="-2.26023">
        <ele>50</ele>
        <time>2021-07-22T08:48:26.000Z</time>
      </trkpt>
      <trkpt lat="47.30905" lon="-2.26024">
        <ele>50.599998474121</ele>
        <time>2021-07-22T08:48:27.000Z</time>
      </trkpt>
      <trkpt lat="47.30902" lon="-2.26024">
        <ele>51</ele>
        <time>2021-07-22T08:48:28.000Z</time>
      </trkpt>
      <trkpt lat="47.30899" lon="-2.26025">
        <ele>51.400001525879</ele>
        <time>2021-07-22T08:48:29.000Z</time>
      </trkpt>
      <trkpt lat="47.30896" lon="-2.26026">
        <ele>51.799999237061</ele>
        <time>2021-07-22T08:48:30.000Z</time>
      </trkpt>
      <trkpt lat="47.30875" lon="-2.26025">
        <ele>51.799999237061</ele>
        <time>2021-07-22T08:48:37.000Z</time>
      </trkpt>
      <trkpt lat="47.30858" lon="-2.26024">
        <ele>51.799999237061</ele>
        <time>2021-07-22T08:48:43.000Z</time>
      </trkpt>
      <trkpt lat="47.30834" lon="-2.26022">
        <ele>51.799999237061</ele>
        <time>2021-07-22T08:48:51.000Z</time>
      </trkpt>
      <trkpt lat="47.30825" lon="-2.2602">
        <ele>52.200000762939</ele>
        <time>2021-07-22T08:48:54.000Z</time>
      </trkpt>
      <trkpt lat="47.30822" lon="-2.2602">
        <ele>52.599998474121</ele>
        <time>2021-07-22T08:48:55.000Z</time>
      </trkpt>
      <trkpt lat="47.3082" lon="-2.26018">
        <ele>53.599998474121</ele>
        <time>2021-07-22T08:48:56.000Z</time>
      </trkpt>
      <trkpt lat="47.30819" lon="-2.26016">
        <ele>54</ele>
        <time>2021-07-22T08:48:57.000Z</time>
      </trkpt>
      <trkpt lat="47.30818" lon="-2.26013">
        <ele>54</ele>
        <time>2021-07-22T08:48:58.000Z</time>
      </trkpt>
      <trkpt lat="47.30814" lon="-2.26009">
        <ele>54</ele>
        <time>2021-07-22T08:49:01.000Z</time>
      </trkpt>
      <trkpt lat="47.30811" lon="-2.2601">
        <ele>54</ele>
        <time>2021-07-22T08:49:03.000Z</time>
      </trkpt>
      <trkpt lat="47.30806" lon="-2.26014">
        <ele>54</ele>
        <time>2021-07-22T08:49:05.000Z</time>
      </trkpt>
      <trkpt lat="47.30796" lon="-2.26022">
        <ele>54</ele>
        <time>2021-07-22T08:49:07.000Z</time>
      </trkpt>
      <trkpt lat="47.3076" lon="-2.26043">
        <ele>54</ele>
        <time>2021-07-22T08:49:14.000Z</time>
      </trkpt>
      <trkpt lat="47.30726" lon="-2.2606">
        <ele>54</ele>
        <time>2021-07-22T08:49:20.000Z</time>
      </trkpt>
      <trkpt lat="47.30679" lon="-2.26087">
        <ele>54</ele>
        <time>2021-07-22T08:49:28.000Z</time>
      </trkpt>
      <trkpt lat="47.30632" lon="-2.26115">
        <ele>54</ele>
        <time>2021-07-22T08:49:36.000Z</time>
      </trkpt>
      <trkpt lat="47.30628" lon="-2.2612">
        <ele>54</ele>
        <time>2021-07-22T08:49:37.000Z</time>
      </trkpt>
      <trkpt lat="47.3062" lon="-2.26134">
        <ele>54</ele>
        <time>2021-07-22T08:49:39.000Z</time>
      </trkpt>
      <trkpt lat="47.30605" lon="-2.2616">
        <ele>54</ele>
        <time>2021-07-22T08:49:43.000Z</time>
      </trkpt>
      <trkpt lat="47.30598" lon="-2.26173">
        <ele>54</ele>
        <time>2021-07-22T08:49:45.000Z</time>
      </trkpt>
      <trkpt lat="47.30586" lon="-2.26203">
        <ele>54</ele>
        <time>2021-07-22T08:49:49.000Z</time>
      </trkpt>
      <trkpt lat="47.30582" lon="-2.26218">
        <ele>54</ele>
        <time>2021-07-22T08:49:51.000Z</time>
      </trkpt>
      <trkpt lat="47.30573" lon="-2.26257">
        <ele>54</ele>
        <time>2021-07-22T08:49:56.000Z</time>
      </trkpt>
      <trkpt lat="47.30571" lon="-2.26264">
        <ele>54</ele>
        <time>2021-07-22T08:49:57.000Z</time>
      </trkpt>
      <trkpt lat="47.30556" lon="-2.26317">
        <ele>54</ele>
        <time>2021-07-22T08:50:04.000Z</time>
      </trkpt>
      <trkpt lat="47.3055" lon="-2.26353">
        <ele>54</ele>
        <time>2021-07-22T08:50:08.000Z</time>
      </trkpt>
      <trkpt lat="47.30547" lon="-2.26361">
        <ele>54</ele>
        <time>2021-07-22T08:50:09.000Z</time>
      </trkpt>
      <trkpt lat="47.30527" lon="-2.26417">
        <ele>54</ele>
        <time>2021-07-22T08:50:16.000Z</time>
      </trkpt>
      <trkpt lat="47.30502" lon="-2.26474">
        <ele>54</ele>
        <time>2021-07-22T08:50:24.000Z</time>
      </trkpt>
      <trkpt lat="47.30485" lon="-2.26513">
        <ele>54</ele>
        <time>2021-07-22T08:50:29.000Z</time>
      </trkpt>
      <trkpt lat="47.30479" lon="-2.26526">
        <ele>54</ele>
        <time>2021-07-22T08:50:31.000Z</time>
      </trkpt>
      <trkpt lat="47.30469" lon="-2.26546">
        <ele>54</ele>
        <time>2021-07-22T08:50:34.000Z</time>
      </trkpt>
      <trkpt lat="47.30444" lon="-2.26597">
        <ele>54</ele>
        <time>2021-07-22T08:50:42.000Z</time>
      </trkpt>
      <trkpt lat="47.30425" lon="-2.26638">
        <ele>54</ele>
        <time>2021-07-22T08:50:48.000Z</time>
      </trkpt>
      <trkpt lat="47.30396" lon="-2.26698">
        <ele>54</ele>
        <time>2021-07-22T08:50:57.000Z</time>
      </trkpt>
      <trkpt lat="47.30377" lon="-2.26732">
        <ele>54</ele>
        <time>2021-07-22T08:51:02.000Z</time>
      </trkpt>
      <trkpt lat="47.30373" lon="-2.2674">
        <ele>54</ele>
        <time>2021-07-22T08:51:03.000Z</time>
      </trkpt>
      <trkpt lat="47.30353" lon="-2.26775">
        <ele>54</ele>
        <time>2021-07-22T08:51:08.000Z</time>
      </trkpt>
      <trkpt lat="47.3035" lon="-2.26783">
        <ele>54</ele>
        <time>2021-07-22T08:51:09.000Z</time>
      </trkpt>
      <trkpt lat="47.30348" lon="-2.26809">
        <ele>54</ele>
        <time>2021-07-22T08:51:12.000Z</time>
      </trkpt>
      <trkpt lat="47.3035" lon="-2.26833">
        <ele>54</ele>
        <time>2021-07-22T08:51:15.000Z</time>
      </trkpt>
      <trkpt lat="47.30352" lon="-2.2685">
        <ele>54</ele>
        <time>2021-07-22T08:51:17.000Z</time>
      </trkpt>
      <trkpt lat="47.30361" lon="-2.26899">
        <ele>54</ele>
        <time>2021-07-22T08:51:23.000Z</time>
      </trkpt>
      <trkpt lat="47.30372" lon="-2.26956">
        <ele>54</ele>
        <time>2021-07-22T08:51:30.000Z</time>
      </trkpt>
      <trkpt lat="47.30372" lon="-2.26963">
        <ele>53.599998474121</ele>
        <time>2021-07-22T08:51:31.000Z</time>
      </trkpt>
      <trkpt lat="47.30373" lon="-2.2697">
        <ele>53.200000762939</ele>
        <time>2021-07-22T08:51:32.000Z</time>
      </trkpt>
      <trkpt lat="47.30373" lon="-2.26978">
        <ele>52.799999237061</ele>
        <time>2021-07-22T08:51:33.000Z</time>
      </trkpt>
      <trkpt lat="47.30374" lon="-2.26986">
        <ele>52.400001525879</ele>
        <time>2021-07-22T08:51:34.000Z</time>
      </trkpt>
      <trkpt lat="47.30374" lon="-2.26994">
        <ele>52</ele>
        <time>2021-07-22T08:51:35.000Z</time>
      </trkpt>
      <trkpt lat="47.30376" lon="-2.2705">
        <ele>52</ele>
        <time>2021-07-22T08:51:42.000Z</time>
      </trkpt>
      <trkpt lat="47.30385" lon="-2.27061">
        <ele>52</ele>
        <time>2021-07-22T08:51:45.000Z</time>
      </trkpt>
      <trkpt lat="47.30399" lon="-2.27078">
        <ele>52</ele>
        <time>2021-07-22T08:51:48.000Z</time>
      </trkpt>
      <trkpt lat="47.30402" lon="-2.27086">
        <ele>52</ele>
        <time>2021-07-22T08:51:49.000Z</time>
      </trkpt>
      <trkpt lat="47.30412" lon="-2.27118">
        <ele>52</ele>
        <time>2021-07-22T08:51:53.000Z</time>
      </trkpt>
      <trkpt lat="47.30416" lon="-2.27146">
        <ele>51.599998474121</ele>
        <time>2021-07-22T08:51:57.000Z</time>
      </trkpt>
      <trkpt lat="47.30415" lon="-2.2715">
        <ele>51.200000762939</ele>
        <time>2021-07-22T08:51:58.000Z</time>
      </trkpt>
      <trkpt lat="47.30415" lon="-2.27153">
        <ele>50.799999237061</ele>
        <time>2021-07-22T08:51:59.000Z</time>
      </trkpt>
      <trkpt lat="47.30414" lon="-2.27156">
        <ele>50.200000762939</ele>
        <time>2021-07-22T08:52:00.000Z</time>
      </trkpt>
      <trkpt lat="47.30413" lon="-2.27158">
        <ele>49.799999237061</ele>
        <time>2021-07-22T08:52:01.000Z</time>
      </trkpt>
      <trkpt lat="47.30411" lon="-2.27159">
        <ele>49.799999237061</ele>
        <time>2021-07-22T08:52:02.000Z</time>
      </trkpt>
      <trkpt lat="47.30409" lon="-2.27152">
        <ele>49.799999237061</ele>
        <time>2021-07-22T08:52:06.000Z</time>
      </trkpt>
      <trkpt lat="47.30414" lon="-2.27143">
        <ele>49.799999237061</ele>
        <time>2021-07-22T08:52:11.000Z</time>
      </trkpt>
      <trkpt lat="47.30413" lon="-2.27133">
        <ele>49.799999237061</ele>
        <time>2021-07-22T08:52:15.000Z</time>
      </trkpt>
      <trkpt lat="47.30412" lon="-2.27128">
        <ele>49.799999237061</ele>
        <time>2021-07-22T08:52:17.000Z</time>
      </trkpt>
      <trkpt lat="47.30407" lon="-2.27106">
        <ele>49.799999237061</ele>
        <time>2021-07-22T08:52:23.000Z</time>
      </trkpt>
      <trkpt lat="47.30405" lon="-2.27091">
        <ele>49.799999237061</ele>
        <time>2021-07-22T08:52:28.000Z</time>
      </trkpt>
      <trkpt lat="47.30405" lon="-2.2709">
        <ele>49.799999237061</ele>
        <time>2021-07-22T08:52:29.000Z</time>
      </trkpt>
      <trkpt lat="47.30408" lon="-2.27092">
        <ele>49.799999237061</ele>
        <time>2021-07-22T08:52:31.000Z</time>
      </trkpt>
      <trkpt lat="47.3041" lon="-2.27096">
        <ele>49.799999237061</ele>
        <time>2021-07-22T08:52:32.000Z</time>
      </trkpt>
      <trkpt lat="47.30414" lon="-2.27114">
        <ele>49.799999237061</ele>
        <time>2021-07-22T08:52:35.000Z</time>
      </trkpt>
      <trkpt lat="47.30415" lon="-2.27121">
        <ele>49.799999237061</ele>
        <time>2021-07-22T08:52:36.000Z</time>
      </trkpt>
      <trkpt lat="47.30417" lon="-2.27142">
        <ele>49.799999237061</ele>
        <time>2021-07-22T08:52:39.000Z</time>
      </trkpt>
      <trkpt lat="47.30412" lon="-2.27153">
        <ele>49.799999237061</ele>
        <time>2021-07-22T08:52:41.000Z</time>
      </trkpt>
      <trkpt lat="47.30401" lon="-2.27157">
        <ele>49.799999237061</ele>
        <time>2021-07-22T08:52:44.000Z</time>
      </trkpt>
      <trkpt lat="47.30394" lon="-2.27159">
        <ele>49.799999237061</ele>
        <time>2021-07-22T08:52:46.000Z</time>
      </trkpt>
      <trkpt lat="47.30382" lon="-2.27162">
        <ele>49.799999237061</ele>
        <time>2021-07-22T08:52:49.000Z</time>
      </trkpt>
      <trkpt lat="47.30373" lon="-2.27165">
        <ele>49.799999237061</ele>
        <time>2021-07-22T08:52:51.000Z</time>
      </trkpt>
      <trkpt lat="47.30343" lon="-2.27175">
        <ele>49.799999237061</ele>
        <time>2021-07-22T08:52:57.000Z</time>
      </trkpt>
      <trkpt lat="47.30312" lon="-2.27183">
        <ele>49.799999237061</ele>
        <time>2021-07-22T08:53:03.000Z</time>
      </trkpt>
      <trkpt lat="47.30286" lon="-2.27186">
        <ele>49.799999237061</ele>
        <time>2021-07-22T08:53:08.000Z</time>
      </trkpt>
      <trkpt lat="47.3026" lon="-2.2718">
        <ele>49.799999237061</ele>
        <time>2021-07-22T08:53:13.000Z</time>
      </trkpt>
      <trkpt lat="47.30256" lon="-2.27178">
        <ele>50.200000762939</ele>
        <time>2021-07-22T08:53:14.000Z</time>
      </trkpt>
      <trkpt lat="47.30252" lon="-2.27176">
        <ele>50.599998474121</ele>
        <time>2021-07-22T08:53:15.000Z</time>
      </trkpt>
      <trkpt lat="47.30247" lon="-2.27174">
        <ele>51</ele>
        <time>2021-07-22T08:53:16.000Z</time>
      </trkpt>
      <trkpt lat="47.30243" lon="-2.27172">
        <ele>51.400001525879</ele>
        <time>2021-07-22T08:53:17.000Z</time>
      </trkpt>
      <trkpt lat="47.30239" lon="-2.2717">
        <ele>52</ele>
        <time>2021-07-22T08:53:18.000Z</time>
      </trkpt>
      <trkpt lat="47.30234" lon="-2.27168">
        <ele>52</ele>
        <time>2021-07-22T08:53:19.000Z</time>
      </trkpt>
      <trkpt lat="47.30227" lon="-2.27163">
        <ele>52</ele>
        <time>2021-07-22T08:53:21.000Z</time>
      </trkpt>
      <trkpt lat="47.30215" lon="-2.27159">
        <ele>52</ele>
        <time>2021-07-22T08:53:24.000Z</time>
      </trkpt>
      <trkpt lat="47.30206" lon="-2.27163">
        <ele>52</ele>
        <time>2021-07-22T08:53:26.000Z</time>
      </trkpt>
      <trkpt lat="47.30191" lon="-2.27177">
        <ele>52</ele>
        <time>2021-07-22T08:53:29.000Z</time>
      </trkpt>
      <trkpt lat="47.30187" lon="-2.27183">
        <ele>52</ele>
        <time>2021-07-22T08:53:30.000Z</time>
      </trkpt>
      <trkpt lat="47.30163" lon="-2.27216">
        <ele>52</ele>
        <time>2021-07-22T08:53:36.000Z</time>
      </trkpt>
      <trkpt lat="47.30122" lon="-2.27267">
        <ele>52</ele>
        <time>2021-07-22T08:53:45.000Z</time>
      </trkpt>
      <trkpt lat="47.30093" lon="-2.27314">
        <ele>52</ele>
        <time>2021-07-22T08:53:52.000Z</time>
      </trkpt>
      <trkpt lat="47.30072" lon="-2.27362">
        <ele>52</ele>
        <time>2021-07-22T08:53:58.000Z</time>
      </trkpt>
      <trkpt lat="47.30061" lon="-2.27385">
        <ele>52</ele>
        <time>2021-07-22T08:54:01.000Z</time>
      </trkpt>
      <trkpt lat="47.3005" lon="-2.27406">
        <ele>52</ele>
        <time>2021-07-22T08:54:04.000Z</time>
      </trkpt>
      <trkpt lat="47.30024" lon="-2.27443">
        <ele>52</ele>
        <time>2021-07-22T08:54:10.000Z</time>
      </trkpt>
      <trkpt lat="47.30005" lon="-2.27474">
        <ele>52</ele>
        <time>2021-07-22T08:54:16.000Z</time>
      </trkpt>
      <trkpt lat="47.29993" lon="-2.27511">
        <ele>52</ele>
        <time>2021-07-22T08:54:22.000Z</time>
      </trkpt>
      <trkpt lat="47.29993" lon="-2.27517">
        <ele>52</ele>
        <time>2021-07-22T08:54:23.000Z</time>
      </trkpt>
      <trkpt lat="47.29987" lon="-2.27541">
        <ele>52</ele>
        <time>2021-07-22T08:54:27.000Z</time>
      </trkpt>
      <trkpt lat="47.29982" lon="-2.27567">
        <ele>52</ele>
        <time>2021-07-22T08:54:31.000Z</time>
      </trkpt>
      <trkpt lat="47.29977" lon="-2.2758">
        <ele>52</ele>
        <time>2021-07-22T08:54:33.000Z</time>
      </trkpt>
      <trkpt lat="47.29966" lon="-2.27627">
        <ele>52</ele>
        <time>2021-07-22T08:54:39.000Z</time>
      </trkpt>
      <trkpt lat="47.29963" lon="-2.27643">
        <ele>52.400001525879</ele>
        <time>2021-07-22T08:54:41.000Z</time>
      </trkpt>
      <trkpt lat="47.29962" lon="-2.27651">
        <ele>52.799999237061</ele>
        <time>2021-07-22T08:54:42.000Z</time>
      </trkpt>
      <trkpt lat="47.29961" lon="-2.27659">
        <ele>53.200000762939</ele>
        <time>2021-07-22T08:54:43.000Z</time>
      </trkpt>
      <trkpt lat="47.2996" lon="-2.27666">
        <ele>53.599998474121</ele>
        <time>2021-07-22T08:54:44.000Z</time>
      </trkpt>
      <trkpt lat="47.29959" lon="-2.27672">
        <ele>54.200000762939</ele>
        <time>2021-07-22T08:54:45.000Z</time>
      </trkpt>
      <trkpt lat="47.29954" lon="-2.27717">
        <ele>54.200000762939</ele>
        <time>2021-07-22T08:54:52.000Z</time>
      </trkpt>
      <trkpt lat="47.29951" lon="-2.27761">
        <ele>54.200000762939</ele>
        <time>2021-07-22T08:54:58.000Z</time>
      </trkpt>
      <trkpt lat="47.29946" lon="-2.27815">
        <ele>54.200000762939</ele>
        <time>2021-07-22T08:55:05.000Z</time>
      </trkpt>
      <trkpt lat="47.29941" lon="-2.27879">
        <ele>54.599998474121</ele>
        <time>2021-07-22T08:55:13.000Z</time>
      </trkpt>
      <trkpt lat="47.2994" lon="-2.27887">
        <ele>55</ele>
        <time>2021-07-22T08:55:14.000Z</time>
      </trkpt>
      <trkpt lat="47.2994" lon="-2.27896">
        <ele>55.400001525879</ele>
        <time>2021-07-22T08:55:15.000Z</time>
      </trkpt>
      <trkpt lat="47.29939" lon="-2.27904">
        <ele>55.799999237061</ele>
        <time>2021-07-22T08:55:16.000Z</time>
      </trkpt>
      <trkpt lat="47.29938" lon="-2.27912">
        <ele>56.200000762939</ele>
        <time>2021-07-22T08:55:17.000Z</time>
      </trkpt>
      <trkpt lat="47.29936" lon="-2.27936">
        <ele>56.200000762939</ele>
        <time>2021-07-22T08:55:20.000Z</time>
      </trkpt>
      <trkpt lat="47.29935" lon="-2.27992">
        <ele>56.200000762939</ele>
        <time>2021-07-22T08:55:27.000Z</time>
      </trkpt>
      <trkpt lat="47.29939" lon="-2.28035">
        <ele>56.200000762939</ele>
        <time>2021-07-22T08:55:32.000Z</time>
      </trkpt>
      <trkpt lat="47.29943" lon="-2.28048">
        <ele>56.200000762939</ele>
        <time>2021-07-22T08:55:34.000Z</time>
      </trkpt>
      <trkpt lat="47.29955" lon="-2.28057">
        <ele>56.200000762939</ele>
        <time>2021-07-22T08:55:37.000Z</time>
      </trkpt>
      <trkpt lat="47.29969" lon="-2.28049">
        <ele>56.200000762939</ele>
        <time>2021-07-22T08:55:40.000Z</time>
      </trkpt>
      <trkpt lat="47.29974" lon="-2.28046">
        <ele>56.200000762939</ele>
        <time>2021-07-22T08:55:41.000Z</time>
      </trkpt>
      <trkpt lat="47.29989" lon="-2.28041">
        <ele>56.200000762939</ele>
        <time>2021-07-22T08:55:45.000Z</time>
      </trkpt>
      <trkpt lat="47.29991" lon="-2.28043">
        <ele>56.200000762939</ele>
        <time>2021-07-22T08:55:46.000Z</time>
      </trkpt>
      <trkpt lat="47.2999" lon="-2.28049">
        <ele>56.200000762939</ele>
        <time>2021-07-22T08:55:48.000Z</time>
      </trkpt>
      <trkpt lat="47.29984" lon="-2.28069">
        <ele>56.200000762939</ele>
        <time>2021-07-22T08:55:53.000Z</time>
      </trkpt>
      <trkpt lat="47.29976" lon="-2.281">
        <ele>56.200000762939</ele>
        <time>2021-07-22T08:55:59.000Z</time>
      </trkpt>
      <trkpt lat="47.29964" lon="-2.28144">
        <ele>56.200000762939</ele>
        <time>2021-07-22T08:56:06.000Z</time>
      </trkpt>
      <trkpt lat="47.29954" lon="-2.28176">
        <ele>56.200000762939</ele>
        <time>2021-07-22T08:56:11.000Z</time>
      </trkpt>
      <trkpt lat="47.2995" lon="-2.28191">
        <ele>56.200000762939</ele>
        <time>2021-07-22T08:56:13.000Z</time>
      </trkpt>
      <trkpt lat="47.29949" lon="-2.28207">
        <ele>56.200000762939</ele>
        <time>2021-07-22T08:56:15.000Z</time>
      </trkpt>
      <trkpt lat="47.2995" lon="-2.28223">
        <ele>56.200000762939</ele>
        <time>2021-07-22T08:56:17.000Z</time>
      </trkpt>
      <trkpt lat="47.29952" lon="-2.28259">
        <ele>56.200000762939</ele>
        <time>2021-07-22T08:56:21.000Z</time>
      </trkpt>
      <trkpt lat="47.29952" lon="-2.28295">
        <ele>56.200000762939</ele>
        <time>2021-07-22T08:56:25.000Z</time>
      </trkpt>
      <trkpt lat="47.29951" lon="-2.28303">
        <ele>56.200000762939</ele>
        <time>2021-07-22T08:56:26.000Z</time>
      </trkpt>
      <trkpt lat="47.29952" lon="-2.28312">
        <ele>56.200000762939</ele>
        <time>2021-07-22T08:56:27.000Z</time>
      </trkpt>
      <trkpt lat="47.29952" lon="-2.28329">
        <ele>56.200000762939</ele>
        <time>2021-07-22T08:56:29.000Z</time>
      </trkpt>
      <trkpt lat="47.29951" lon="-2.28337">
        <ele>56.200000762939</ele>
        <time>2021-07-22T08:56:30.000Z</time>
      </trkpt>
      <trkpt lat="47.29951" lon="-2.28364">
        <ele>56.200000762939</ele>
        <time>2021-07-22T08:56:33.000Z</time>
      </trkpt>
      <trkpt lat="47.2995" lon="-2.28381">
        <ele>56.200000762939</ele>
        <time>2021-07-22T08:56:35.000Z</time>
      </trkpt>
      <trkpt lat="47.29951" lon="-2.28414">
        <ele>56.200000762939</ele>
        <time>2021-07-22T08:56:39.000Z</time>
      </trkpt>
      <trkpt lat="47.29949" lon="-2.28421">
        <ele>56.200000762939</ele>
        <time>2021-07-22T08:56:40.000Z</time>
      </trkpt>
      <trkpt lat="47.29943" lon="-2.28444">
        <ele>56.200000762939</ele>
        <time>2021-07-22T08:56:44.000Z</time>
      </trkpt>
      <trkpt lat="47.29941" lon="-2.28462">
        <ele>56.200000762939</ele>
        <time>2021-07-22T08:56:46.000Z</time>
      </trkpt>
      <trkpt lat="47.29941" lon="-2.28491">
        <ele>56.200000762939</ele>
        <time>2021-07-22T08:56:49.000Z</time>
      </trkpt>
      <trkpt lat="47.2994" lon="-2.28499">
        <ele>56.200000762939</ele>
        <time>2021-07-22T08:56:50.000Z</time>
      </trkpt>
      <trkpt lat="47.29935" lon="-2.28515">
        <ele>56.200000762939</ele>
        <time>2021-07-22T08:56:52.000Z</time>
      </trkpt>
      <trkpt lat="47.29928" lon="-2.28544">
        <ele>56.200000762939</ele>
        <time>2021-07-22T08:56:56.000Z</time>
      </trkpt>
      <trkpt lat="47.29929" lon="-2.28551">
        <ele>56.200000762939</ele>
        <time>2021-07-22T08:56:57.000Z</time>
      </trkpt>
      <trkpt lat="47.29939" lon="-2.28568">
        <ele>56.200000762939</ele>
        <time>2021-07-22T08:57:01.000Z</time>
      </trkpt>
      <trkpt lat="47.29942" lon="-2.28589">
        <ele>56.200000762939</ele>
        <time>2021-07-22T08:57:05.000Z</time>
      </trkpt>
      <trkpt lat="47.29941" lon="-2.28595">
        <ele>56.200000762939</ele>
        <time>2021-07-22T08:57:06.000Z</time>
      </trkpt>
      <trkpt lat="47.29936" lon="-2.28631">
        <ele>56.200000762939</ele>
        <time>2021-07-22T08:57:11.000Z</time>
      </trkpt>
      <trkpt lat="47.29927" lon="-2.28663">
        <ele>55.799999237061</ele>
        <time>2021-07-22T08:57:15.000Z</time>
      </trkpt>
      <trkpt lat="47.29926" lon="-2.28672">
        <ele>55.400001525879</ele>
        <time>2021-07-22T08:57:16.000Z</time>
      </trkpt>
      <trkpt lat="47.29924" lon="-2.2868">
        <ele>55</ele>
        <time>2021-07-22T08:57:17.000Z</time>
      </trkpt>
      <trkpt lat="47.29923" lon="-2.28688">
        <ele>54.599998474121</ele>
        <time>2021-07-22T08:57:18.000Z</time>
      </trkpt>
      <trkpt lat="47.29921" lon="-2.28697">
        <ele>54.200000762939</ele>
        <time>2021-07-22T08:57:19.000Z</time>
      </trkpt>
      <trkpt lat="47.29916" lon="-2.28723">
        <ele>54.200000762939</ele>
        <time>2021-07-22T08:57:22.000Z</time>
      </trkpt>
      <trkpt lat="47.29905" lon="-2.28775">
        <ele>54.200000762939</ele>
        <time>2021-07-22T08:57:27.000Z</time>
      </trkpt>
      <trkpt lat="47.29903" lon="-2.28783">
        <ele>54.200000762939</ele>
        <time>2021-07-22T08:57:28.000Z</time>
      </trkpt>
      <trkpt lat="47.29897" lon="-2.28811">
        <ele>54.200000762939</ele>
        <time>2021-07-22T08:57:31.000Z</time>
      </trkpt>
      <trkpt lat="47.29885" lon="-2.28875">
        <ele>54.200000762939</ele>
        <time>2021-07-22T08:57:38.000Z</time>
      </trkpt>
      <trkpt lat="47.29882" lon="-2.28891">
        <ele>54.200000762939</ele>
        <time>2021-07-22T08:57:40.000Z</time>
      </trkpt>
      <trkpt lat="47.29877" lon="-2.28904">
        <ele>54.200000762939</ele>
        <time>2021-07-22T08:57:42.000Z</time>
      </trkpt>
      <trkpt lat="47.29874" lon="-2.28929">
        <ele>54.200000762939</ele>
        <time>2021-07-22T08:57:45.000Z</time>
      </trkpt>
      <trkpt lat="47.29875" lon="-2.28937">
        <ele>54.200000762939</ele>
        <time>2021-07-22T08:57:46.000Z</time>
      </trkpt>
      <trkpt lat="47.29881" lon="-2.28955">
        <ele>54.200000762939</ele>
        <time>2021-07-22T08:57:50.000Z</time>
      </trkpt>
      <trkpt lat="47.29898" lon="-2.28961">
        <ele>54.200000762939</ele>
        <time>2021-07-22T08:57:54.000Z</time>
      </trkpt>
      <trkpt lat="47.29909" lon="-2.28962">
        <ele>54.200000762939</ele>
        <time>2021-07-22T08:57:56.000Z</time>
      </trkpt>
      <trkpt lat="47.29918" lon="-2.28968">
        <ele>54.200000762939</ele>
        <time>2021-07-22T08:57:58.000Z</time>
      </trkpt>
      <trkpt lat="47.29922" lon="-2.28973">
        <ele>54.200000762939</ele>
        <time>2021-07-22T08:57:59.000Z</time>
      </trkpt>
      <trkpt lat="47.2993" lon="-2.28983">
        <ele>53.799999237061</ele>
        <time>2021-07-22T08:58:01.000Z</time>
      </trkpt>
      <trkpt lat="47.29934" lon="-2.28988">
        <ele>53.400001525879</ele>
        <time>2021-07-22T08:58:02.000Z</time>
      </trkpt>
      <trkpt lat="47.29938" lon="-2.28995">
        <ele>53</ele>
        <time>2021-07-22T08:58:03.000Z</time>
      </trkpt>
      <trkpt lat="47.29941" lon="-2.29">
        <ele>52.599998474121</ele>
        <time>2021-07-22T08:58:04.000Z</time>
      </trkpt>
      <trkpt lat="47.29945" lon="-2.29006">
        <ele>52.200000762939</ele>
        <time>2021-07-22T08:58:05.000Z</time>
      </trkpt>
      <trkpt lat="47.29973" lon="-2.29054">
        <ele>52.200000762939</ele>
        <time>2021-07-22T08:58:12.000Z</time>
      </trkpt>
      <trkpt lat="47.30002" lon="-2.29099">
        <ele>52.200000762939</ele>
        <time>2021-07-22T08:58:19.000Z</time>
      </trkpt>
      <trkpt lat="47.30037" lon="-2.29123">
        <ele>52.200000762939</ele>
        <time>2021-07-22T08:58:25.000Z</time>
      </trkpt>
      <trkpt lat="47.30059" lon="-2.29138">
        <ele>52.200000762939</ele>
        <time>2021-07-22T08:58:29.000Z</time>
      </trkpt>
      <trkpt lat="47.3007" lon="-2.29153">
        <ele>52.200000762939</ele>
        <time>2021-07-22T08:58:31.000Z</time>
      </trkpt>
      <trkpt lat="47.301" lon="-2.29201">
        <ele>52.200000762939</ele>
        <time>2021-07-22T08:58:37.000Z</time>
      </trkpt>
      <trkpt lat="47.30136" lon="-2.29258">
        <ele>51.799999237061</ele>
        <time>2021-07-22T08:58:44.000Z</time>
      </trkpt>
      <trkpt lat="47.30141" lon="-2.29266">
        <ele>51.400001525879</ele>
        <time>2021-07-22T08:58:45.000Z</time>
      </trkpt>
      <trkpt lat="47.30146" lon="-2.29274">
        <ele>51</ele>
        <time>2021-07-22T08:58:46.000Z</time>
      </trkpt>
      <trkpt lat="47.3015" lon="-2.29283">
        <ele>50.599998474121</ele>
        <time>2021-07-22T08:58:47.000Z</time>
      </trkpt>
      <trkpt lat="47.30156" lon="-2.29292">
        <ele>50.200000762939</ele>
        <time>2021-07-22T08:58:48.000Z</time>
      </trkpt>
      <trkpt lat="47.30176" lon="-2.29324">
        <ele>50.200000762939</ele>
        <time>2021-07-22T08:58:52.000Z</time>
      </trkpt>
      <trkpt lat="47.30206" lon="-2.29376">
        <ele>50.200000762939</ele>
        <time>2021-07-22T08:58:59.000Z</time>
      </trkpt>
      <trkpt lat="47.3022" lon="-2.29417">
        <ele>50.200000762939</ele>
        <time>2021-07-22T08:59:05.000Z</time>
      </trkpt>
      <trkpt lat="47.30212" lon="-2.29434">
        <ele>50.200000762939</ele>
        <time>2021-07-22T08:59:08.000Z</time>
      </trkpt>
      <trkpt lat="47.30209" lon="-2.29441">
        <ele>50.200000762939</ele>
        <time>2021-07-22T08:59:09.000Z</time>
      </trkpt>
      <trkpt lat="47.30192" lon="-2.2947">
        <ele>50.200000762939</ele>
        <time>2021-07-22T08:59:13.000Z</time>
      </trkpt>
      <trkpt lat="47.30174" lon="-2.29508">
        <ele>50.200000762939</ele>
        <time>2021-07-22T08:59:18.000Z</time>
      </trkpt>
      <trkpt lat="47.30144" lon="-2.29567">
        <ele>50.200000762939</ele>
        <time>2021-07-22T08:59:26.000Z</time>
      </trkpt>
      <trkpt lat="47.30139" lon="-2.29602">
        <ele>50.200000762939</ele>
        <time>2021-07-22T08:59:30.000Z</time>
      </trkpt>
      <trkpt lat="47.3014" lon="-2.29617">
        <ele>50.200000762939</ele>
        <time>2021-07-22T08:59:32.000Z</time>
      </trkpt>
      <trkpt lat="47.3014" lon="-2.29643">
        <ele>50.200000762939</ele>
        <time>2021-07-22T08:59:36.000Z</time>
      </trkpt>
      <trkpt lat="47.30143" lon="-2.2966">
        <ele>50.200000762939</ele>
        <time>2021-07-22T08:59:40.000Z</time>
      </trkpt>
      <trkpt lat="47.30145" lon="-2.29661">
        <ele>49.599998474121</ele>
        <time>2021-07-22T08:59:42.000Z</time>
      </trkpt>
      <trkpt lat="47.30148" lon="-2.29665">
        <ele>48</ele>
        <time>2021-07-22T09:00:36.000Z</time>
      </trkpt>
      <trkpt lat="47.30163" lon="-2.29672">
        <ele>48</ele>
        <time>2021-07-22T09:00:42.000Z</time>
      </trkpt>
      <trkpt lat="47.30181" lon="-2.29679">
        <ele>48</ele>
        <time>2021-07-22T09:00:48.000Z</time>
      </trkpt>
      <trkpt lat="47.30199" lon="-2.2969">
        <ele>48</ele>
        <time>2021-07-22T09:00:55.000Z</time>
      </trkpt>
      <trkpt lat="47.30215" lon="-2.29697">
        <ele>48</ele>
        <time>2021-07-22T09:01:02.000Z</time>
      </trkpt>
      <trkpt lat="47.30222" lon="-2.29702">
        <ele>48</ele>
        <time>2021-07-22T09:01:06.000Z</time>
      </trkpt>
      <trkpt lat="47.30224" lon="-2.29703">
        <ele>48</ele>
        <time>2021-07-22T09:01:07.000Z</time>
      </trkpt>
      <trkpt lat="47.3023" lon="-2.29705">
        <ele>48</ele>
        <time>2021-07-22T09:01:11.000Z</time>
      </trkpt>
      <trkpt lat="47.30239" lon="-2.2971">
        <ele>48</ele>
        <time>2021-07-22T09:01:19.000Z</time>
      </trkpt>
      <trkpt lat="47.30244" lon="-2.29714">
        <ele>48</ele>
        <time>2021-07-22T09:01:25.000Z</time>
      </trkpt>
      <trkpt lat="47.30246" lon="-2.29718">
        <ele>48</ele>
        <time>2021-07-22T09:04:02.000Z</time>
      </trkpt>
      <trkpt lat="47.30238" lon="-2.29735">
        <ele>48</ele>
        <time>2021-07-22T09:04:08.000Z</time>
      </trkpt>
      <trkpt lat="47.30231" lon="-2.29746">
        <ele>48</ele>
        <time>2021-07-22T09:04:14.000Z</time>
      </trkpt>
      <trkpt lat="47.3022" lon="-2.29764">
        <ele>48</ele>
        <time>2021-07-22T09:04:20.000Z</time>
      </trkpt>
      <trkpt lat="47.30214" lon="-2.29774">
        <ele>48</ele>
        <time>2021-07-22T09:04:23.000Z</time>
      </trkpt>
      <trkpt lat="47.30208" lon="-2.29781">
        <ele>48</ele>
        <time>2021-07-22T09:04:25.000Z</time>
      </trkpt>
      <trkpt lat="47.30189" lon="-2.29809">
        <ele>48</ele>
        <time>2021-07-22T09:04:31.000Z</time>
      </trkpt>
      <trkpt lat="47.30179" lon="-2.29824">
        <ele>48</ele>
        <time>2021-07-22T09:04:36.000Z</time>
      </trkpt>
      <trkpt lat="47.30169" lon="-2.2984">
        <ele>48</ele>
        <time>2021-07-22T09:04:41.000Z</time>
      </trkpt>
      <trkpt lat="47.30151" lon="-2.29866">
        <ele>48</ele>
        <time>2021-07-22T09:04:47.000Z</time>
      </trkpt>
      <trkpt lat="47.30147" lon="-2.29869">
        <ele>48</ele>
        <time>2021-07-22T09:04:48.000Z</time>
      </trkpt>
      <trkpt lat="47.30134" lon="-2.29878">
        <ele>48</ele>
        <time>2021-07-22T09:04:51.000Z</time>
      </trkpt>
      <trkpt lat="47.30131" lon="-2.29881">
        <ele>48</ele>
        <time>2021-07-22T09:04:52.000Z</time>
      </trkpt>
      <trkpt lat="47.30113" lon="-2.29897">
        <ele>48</ele>
        <time>2021-07-22T09:04:57.000Z</time>
      </trkpt>
      <trkpt lat="47.30096" lon="-2.29912">
        <ele>48</ele>
        <time>2021-07-22T09:05:02.000Z</time>
      </trkpt>
      <trkpt lat="47.3009" lon="-2.29929">
        <ele>48</ele>
        <time>2021-07-22T09:05:06.000Z</time>
      </trkpt>
      <trkpt lat="47.3009" lon="-2.29933">
        <ele>48</ele>
        <time>2021-07-22T09:05:07.000Z</time>
      </trkpt>
      <trkpt lat="47.30093" lon="-2.29937">
        <ele>48</ele>
        <time>2021-07-22T09:05:09.000Z</time>
      </trkpt>
      <trkpt lat="47.30098" lon="-2.29957">
        <ele>48</ele>
        <time>2021-07-22T09:05:14.000Z</time>
      </trkpt>
      <trkpt lat="47.30099" lon="-2.29986">
        <ele>48</ele>
        <time>2021-07-22T09:05:20.000Z</time>
      </trkpt>
      <trkpt lat="47.30111" lon="-2.29995">
        <ele>48</ele>
        <time>2021-07-22T09:05:24.000Z</time>
      </trkpt>
      <trkpt lat="47.30133" lon="-2.3001">
        <ele>48</ele>
        <time>2021-07-22T09:05:30.000Z</time>
      </trkpt>
      <trkpt lat="47.30155" lon="-2.30037">
        <ele>48</ele>
        <time>2021-07-22T09:05:36.000Z</time>
      </trkpt>
      <trkpt lat="47.30166" lon="-2.30067">
        <ele>48</ele>
        <time>2021-07-22T09:05:40.000Z</time>
      </trkpt>
      <trkpt lat="47.30168" lon="-2.30076">
        <ele>48.400001525879</ele>
        <time>2021-07-22T09:05:41.000Z</time>
      </trkpt>
      <trkpt lat="47.3017" lon="-2.30086">
        <ele>48.799999237061</ele>
        <time>2021-07-22T09:05:42.000Z</time>
      </trkpt>
      <trkpt lat="47.30171" lon="-2.30097">
        <ele>49.400001525879</ele>
        <time>2021-07-22T09:05:43.000Z</time>
      </trkpt>
      <trkpt lat="47.30173" lon="-2.30104">
        <ele>49.799999237061</ele>
        <time>2021-07-22T09:05:44.000Z</time>
      </trkpt>
      <trkpt lat="47.30175" lon="-2.30111">
        <ele>50.200000762939</ele>
        <time>2021-07-22T09:05:45.000Z</time>
      </trkpt>
      <trkpt lat="47.30179" lon="-2.30125">
        <ele>50.200000762939</ele>
        <time>2021-07-22T09:05:47.000Z</time>
      </trkpt>
      <trkpt lat="47.30193" lon="-2.30173">
        <ele>50.200000762939</ele>
        <time>2021-07-22T09:05:54.000Z</time>
      </trkpt>
      <trkpt lat="47.302" lon="-2.30199">
        <ele>50.200000762939</ele>
        <time>2021-07-22T09:05:59.000Z</time>
      </trkpt>
      <trkpt lat="47.30202" lon="-2.30216">
        <ele>50.200000762939</ele>
        <time>2021-07-22T09:06:03.000Z</time>
      </trkpt>
      <trkpt lat="47.302" lon="-2.30221">
        <ele>50.200000762939</ele>
        <time>2021-07-22T09:06:04.000Z</time>
      </trkpt>
      <trkpt lat="47.30185" lon="-2.30239">
        <ele>50.200000762939</ele>
        <time>2021-07-22T09:06:09.000Z</time>
      </trkpt>
      <trkpt lat="47.30172" lon="-2.30247">
        <ele>50.200000762939</ele>
        <time>2021-07-22T09:06:12.000Z</time>
      </trkpt>
      <trkpt lat="47.30158" lon="-2.30254">
        <ele>50.200000762939</ele>
        <time>2021-07-22T09:06:15.000Z</time>
      </trkpt>
      <trkpt lat="47.30124" lon="-2.30263">
        <ele>50.200000762939</ele>
        <time>2021-07-22T09:06:23.000Z</time>
      </trkpt>
      <trkpt lat="47.30108" lon="-2.30277">
        <ele>50.200000762939</ele>
        <time>2021-07-22T09:06:28.000Z</time>
      </trkpt>
      <trkpt lat="47.30105" lon="-2.30296">
        <ele>50.200000762939</ele>
        <time>2021-07-22T09:06:32.000Z</time>
      </trkpt>
      <trkpt lat="47.30112" lon="-2.30329">
        <ele>50.200000762939</ele>
        <time>2021-07-22T09:06:38.000Z</time>
      </trkpt>
      <trkpt lat="47.30125" lon="-2.30373">
        <ele>50.200000762939</ele>
        <time>2021-07-22T09:06:46.000Z</time>
      </trkpt>
      <trkpt lat="47.30135" lon="-2.30411">
        <ele>50.200000762939</ele>
        <time>2021-07-22T09:06:53.000Z</time>
      </trkpt>
      <trkpt lat="47.30147" lon="-2.30445">
        <ele>50.200000762939</ele>
        <time>2021-07-22T09:06:59.000Z</time>
      </trkpt>
      <trkpt lat="47.30152" lon="-2.30456">
        <ele>50.200000762939</ele>
        <time>2021-07-22T09:07:01.000Z</time>
      </trkpt>
      <trkpt lat="47.30178" lon="-2.30496">
        <ele>50.200000762939</ele>
        <time>2021-07-22T09:07:09.000Z</time>
      </trkpt>
      <trkpt lat="47.30201" lon="-2.30518">
        <ele>50.200000762939</ele>
        <time>2021-07-22T09:07:16.000Z</time>
      </trkpt>
      <trkpt lat="47.30225" lon="-2.30543">
        <ele>50.200000762939</ele>
        <time>2021-07-22T09:07:23.000Z</time>
      </trkpt>
      <trkpt lat="47.30233" lon="-2.30569">
        <ele>50.200000762939</ele>
        <time>2021-07-22T09:07:28.000Z</time>
      </trkpt>
      <trkpt lat="47.30233" lon="-2.3059">
        <ele>50.200000762939</ele>
        <time>2021-07-22T09:07:34.000Z</time>
      </trkpt>
      <trkpt lat="47.30225" lon="-2.30596">
        <ele>50.200000762939</ele>
        <time>2021-07-22T09:07:38.000Z</time>
      </trkpt>
      <trkpt lat="47.30224" lon="-2.30597">
        <ele>50.200000762939</ele>
        <time>2021-07-22T09:07:39.000Z</time>
      </trkpt>
      <trkpt lat="47.30218" lon="-2.30599">
        <ele>50.200000762939</ele>
        <time>2021-07-22T09:07:44.000Z</time>
      </trkpt>
      <trkpt lat="47.30218" lon="-2.30599">
        <ele>50.200000762939</ele>
        <time>2021-07-22T09:07:45.000Z</time>
      </trkpt>
      <trkpt lat="47.30216" lon="-2.306">
        <ele>50.200000762939</ele>
        <time>2021-07-22T09:08:11.000Z</time>
      </trkpt>
      <trkpt lat="47.30214" lon="-2.306">
        <ele>50.200000762939</ele>
        <time>2021-07-22T09:08:12.000Z</time>
      </trkpt>
      <trkpt lat="47.30203" lon="-2.30608">
        <ele>50.200000762939</ele>
        <time>2021-07-22T09:08:16.000Z</time>
      </trkpt>
      <trkpt lat="47.30193" lon="-2.30625">
        <ele>50.200000762939</ele>
        <time>2021-07-22T09:08:20.000Z</time>
      </trkpt>
      <trkpt lat="47.30177" lon="-2.30636">
        <ele>50.200000762939</ele>
        <time>2021-07-22T09:08:25.000Z</time>
      </trkpt>
      <trkpt lat="47.30168" lon="-2.30645">
        <ele>50.200000762939</ele>
        <time>2021-07-22T09:08:29.000Z</time>
      </trkpt>
      <trkpt lat="47.30166" lon="-2.30666">
        <ele>50.200000762939</ele>
        <time>2021-07-22T09:08:33.000Z</time>
      </trkpt>
      <trkpt lat="47.30166" lon="-2.30679">
        <ele>50.200000762939</ele>
        <time>2021-07-22T09:08:35.000Z</time>
      </trkpt>
      <trkpt lat="47.30169" lon="-2.30702">
        <ele>50.200000762939</ele>
        <time>2021-07-22T09:08:38.000Z</time>
      </trkpt>
      <trkpt lat="47.30172" lon="-2.30737">
        <ele>50.200000762939</ele>
        <time>2021-07-22T09:08:42.000Z</time>
      </trkpt>
      <trkpt lat="47.30174" lon="-2.30744">
        <ele>50.200000762939</ele>
        <time>2021-07-22T09:08:43.000Z</time>
      </trkpt>
      <trkpt lat="47.3018" lon="-2.3077">
        <ele>50.200000762939</ele>
        <time>2021-07-22T09:08:47.000Z</time>
      </trkpt>
      <trkpt lat="47.30179" lon="-2.30782">
        <ele>50.200000762939</ele>
        <time>2021-07-22T09:08:49.000Z</time>
      </trkpt>
      <trkpt lat="47.30178" lon="-2.30803">
        <ele>50.200000762939</ele>
        <time>2021-07-22T09:08:53.000Z</time>
      </trkpt>
      <trkpt lat="47.30184" lon="-2.3082">
        <ele>50.200000762939</ele>
        <time>2021-07-22T09:08:56.000Z</time>
      </trkpt>
      <trkpt lat="47.30187" lon="-2.30826">
        <ele>50.200000762939</ele>
        <time>2021-07-22T09:08:57.000Z</time>
      </trkpt>
      <trkpt lat="47.30207" lon="-2.30848">
        <ele>50.200000762939</ele>
        <time>2021-07-22T09:09:02.000Z</time>
      </trkpt>
      <trkpt lat="47.30246" lon="-2.30884">
        <ele>50.200000762939</ele>
        <time>2021-07-22T09:09:10.000Z</time>
      </trkpt>
      <trkpt lat="47.30269" lon="-2.30913">
        <ele>50.599998474121</ele>
        <time>2021-07-22T09:09:15.000Z</time>
      </trkpt>
      <trkpt lat="47.30273" lon="-2.30918">
        <ele>51</ele>
        <time>2021-07-22T09:09:16.000Z</time>
      </trkpt>
      <trkpt lat="47.30277" lon="-2.30923">
        <ele>51.599998474121</ele>
        <time>2021-07-22T09:09:17.000Z</time>
      </trkpt>
      <trkpt lat="47.30281" lon="-2.30929">
        <ele>52</ele>
        <time>2021-07-22T09:09:18.000Z</time>
      </trkpt>
      <trkpt lat="47.30284" lon="-2.30934">
        <ele>52.400001525879</ele>
        <time>2021-07-22T09:09:19.000Z</time>
      </trkpt>
      <trkpt lat="47.303" lon="-2.30957">
        <ele>52.799999237061</ele>
        <time>2021-07-22T09:09:23.000Z</time>
      </trkpt>
      <trkpt lat="47.30304" lon="-2.30963">
        <ele>53.200000762939</ele>
        <time>2021-07-22T09:09:24.000Z</time>
      </trkpt>
      <trkpt lat="47.30308" lon="-2.30969">
        <ele>53.799999237061</ele>
        <time>2021-07-22T09:09:25.000Z</time>
      </trkpt>
      <trkpt lat="47.30312" lon="-2.30975">
        <ele>54.200000762939</ele>
        <time>2021-07-22T09:09:26.000Z</time>
      </trkpt>
      <trkpt lat="47.30315" lon="-2.30981">
        <ele>54.599998474121</ele>
        <time>2021-07-22T09:09:27.000Z</time>
      </trkpt>
      <trkpt lat="47.30323" lon="-2.30991">
        <ele>54.599998474121</ele>
        <time>2021-07-22T09:09:29.000Z</time>
      </trkpt>
      <trkpt lat="47.30339" lon="-2.3101">
        <ele>55</ele>
        <time>2021-07-22T09:09:33.000Z</time>
      </trkpt>
      <trkpt lat="47.30342" lon="-2.31015">
        <ele>55.400001525879</ele>
        <time>2021-07-22T09:09:34.000Z</time>
      </trkpt>
      <trkpt lat="47.30346" lon="-2.3102">
        <ele>55.799999237061</ele>
        <time>2021-07-22T09:09:35.000Z</time>
      </trkpt>
      <trkpt lat="47.3035" lon="-2.31024">
        <ele>56.200000762939</ele>
        <time>2021-07-22T09:09:36.000Z</time>
      </trkpt>
      <trkpt lat="47.30353" lon="-2.31029">
        <ele>56.599998474121</ele>
        <time>2021-07-22T09:09:37.000Z</time>
      </trkpt>
      <trkpt lat="47.30374" lon="-2.31059">
        <ele>56.599998474121</ele>
        <time>2021-07-22T09:09:43.000Z</time>
      </trkpt>
      <trkpt lat="47.30385" lon="-2.31074">
        <ele>57</ele>
        <time>2021-07-22T09:09:46.000Z</time>
      </trkpt>
      <trkpt lat="47.30389" lon="-2.31079">
        <ele>57.400001525879</ele>
        <time>2021-07-22T09:09:47.000Z</time>
      </trkpt>
      <trkpt lat="47.30393" lon="-2.31084">
        <ele>57.799999237061</ele>
        <time>2021-07-22T09:09:48.000Z</time>
      </trkpt>
      <trkpt lat="47.30397" lon="-2.31088">
        <ele>58.200000762939</ele>
        <time>2021-07-22T09:09:49.000Z</time>
      </trkpt>
      <trkpt lat="47.30401" lon="-2.31092">
        <ele>58.799999237061</ele>
        <time>2021-07-22T09:09:50.000Z</time>
      </trkpt>
      <trkpt lat="47.3041" lon="-2.311">
        <ele>58.799999237061</ele>
        <time>2021-07-22T09:09:52.000Z</time>
      </trkpt>
      <trkpt lat="47.30429" lon="-2.31115">
        <ele>58.799999237061</ele>
        <time>2021-07-22T09:09:56.000Z</time>
      </trkpt>
      <trkpt lat="47.30442" lon="-2.31125">
        <ele>59.200000762939</ele>
        <time>2021-07-22T09:09:59.000Z</time>
      </trkpt>
      <trkpt lat="47.30446" lon="-2.31129">
        <ele>59.599998474121</ele>
        <time>2021-07-22T09:10:00.000Z</time>
      </trkpt>
      <trkpt lat="47.3045" lon="-2.31134">
        <ele>60</ele>
        <time>2021-07-22T09:10:01.000Z</time>
      </trkpt>
      <trkpt lat="47.30453" lon="-2.31139">
        <ele>60.400001525879</ele>
        <time>2021-07-22T09:10:02.000Z</time>
      </trkpt>
      <trkpt lat="47.30456" lon="-2.31146">
        <ele>60.799999237061</ele>
        <time>2021-07-22T09:10:03.000Z</time>
      </trkpt>
      <trkpt lat="47.30473" lon="-2.31179">
        <ele>60.799999237061</ele>
        <time>2021-07-22T09:10:08.000Z</time>
      </trkpt>
      <trkpt lat="47.30478" lon="-2.31195">
        <ele>60.799999237061</ele>
        <time>2021-07-22T09:10:10.000Z</time>
      </trkpt>
      <trkpt lat="47.30487" lon="-2.31228">
        <ele>60.799999237061</ele>
        <time>2021-07-22T09:10:14.000Z</time>
      </trkpt>
      <trkpt lat="47.30506" lon="-2.31271">
        <ele>60.799999237061</ele>
        <time>2021-07-22T09:10:20.000Z</time>
      </trkpt>
      <trkpt lat="47.30534" lon="-2.31317">
        <ele>60.799999237061</ele>
        <time>2021-07-22T09:10:27.000Z</time>
      </trkpt>
      <trkpt lat="47.30556" lon="-2.31354">
        <ele>60.799999237061</ele>
        <time>2021-07-22T09:10:33.000Z</time>
      </trkpt>
      <trkpt lat="47.30579" lon="-2.31393">
        <ele>60.799999237061</ele>
        <time>2021-07-22T09:10:40.000Z</time>
      </trkpt>
      <trkpt lat="47.30585" lon="-2.31405">
        <ele>60.799999237061</ele>
        <time>2021-07-22T09:10:42.000Z</time>
      </trkpt>
      <trkpt lat="47.30596" lon="-2.31433">
        <ele>60.799999237061</ele>
        <time>2021-07-22T09:10:46.000Z</time>
      </trkpt>
      <trkpt lat="47.3062" lon="-2.31493">
        <ele>60.799999237061</ele>
        <time>2021-07-22T09:10:54.000Z</time>
      </trkpt>
      <trkpt lat="47.30637" lon="-2.31537">
        <ele>60.799999237061</ele>
        <time>2021-07-22T09:11:00.000Z</time>
      </trkpt>
      <trkpt lat="47.30646" lon="-2.31561">
        <ele>60.400001525879</ele>
        <time>2021-07-22T09:11:03.000Z</time>
      </trkpt>
      <trkpt lat="47.3065" lon="-2.31569">
        <ele>60</ele>
        <time>2021-07-22T09:11:04.000Z</time>
      </trkpt>
      <trkpt lat="47.30653" lon="-2.31577">
        <ele>59.599998474121</ele>
        <time>2021-07-22T09:11:05.000Z</time>
      </trkpt>
      <trkpt lat="47.30657" lon="-2.31585">
        <ele>59.200000762939</ele>
        <time>2021-07-22T09:11:06.000Z</time>
      </trkpt>
      <trkpt lat="47.3066" lon="-2.31593">
        <ele>58.599998474121</ele>
        <time>2021-07-22T09:11:07.000Z</time>
      </trkpt>
      <trkpt lat="47.30664" lon="-2.31601">
        <ele>58.599998474121</ele>
        <time>2021-07-22T09:11:08.000Z</time>
      </trkpt>
      <trkpt lat="47.30685" lon="-2.31652">
        <ele>58.599998474121</ele>
        <time>2021-07-22T09:11:14.000Z</time>
      </trkpt>
      <trkpt lat="47.30688" lon="-2.3166">
        <ele>58.200000762939</ele>
        <time>2021-07-22T09:11:15.000Z</time>
      </trkpt>
      <trkpt lat="47.30691" lon="-2.31668">
        <ele>57.799999237061</ele>
        <time>2021-07-22T09:11:16.000Z</time>
      </trkpt>
      <trkpt lat="47.30694" lon="-2.31675">
        <ele>57.400001525879</ele>
        <time>2021-07-22T09:11:17.000Z</time>
      </trkpt>
      <trkpt lat="47.30697" lon="-2.31682">
        <ele>57</ele>
        <time>2021-07-22T09:11:18.000Z</time>
      </trkpt>
      <trkpt lat="47.307" lon="-2.31689">
        <ele>56.599998474121</ele>
        <time>2021-07-22T09:11:19.000Z</time>
      </trkpt>
      <trkpt lat="47.30715" lon="-2.31724">
        <ele>56.599998474121</ele>
        <time>2021-07-22T09:11:25.000Z</time>
      </trkpt>
      <trkpt lat="47.3073" lon="-2.31758">
        <ele>56.599998474121</ele>
        <time>2021-07-22T09:11:31.000Z</time>
      </trkpt>
      <trkpt lat="47.30733" lon="-2.3176">
        <ele>56.599998474121</ele>
        <time>2021-07-22T09:11:32.000Z</time>
      </trkpt>
      <trkpt lat="47.30739" lon="-2.31755">
        <ele>56.599998474121</ele>
        <time>2021-07-22T09:11:36.000Z</time>
      </trkpt>
      <trkpt lat="47.30742" lon="-2.31751">
        <ele>56.599998474121</ele>
        <time>2021-07-22T09:11:38.000Z</time>
      </trkpt>
      <trkpt lat="47.3075" lon="-2.3175">
        <ele>56.599998474121</ele>
        <time>2021-07-22T09:11:41.000Z</time>
      </trkpt>
      <trkpt lat="47.30763" lon="-2.3174">
        <ele>56.599998474121</ele>
        <time>2021-07-22T09:11:45.000Z</time>
      </trkpt>
      <trkpt lat="47.30773" lon="-2.31729">
        <ele>56.599998474121</ele>
        <time>2021-07-22T09:11:48.000Z</time>
      </trkpt>
      <trkpt lat="47.30787" lon="-2.31712">
        <ele>56.599998474121</ele>
        <time>2021-07-22T09:11:52.000Z</time>
      </trkpt>
      <trkpt lat="47.30794" lon="-2.31704">
        <ele>57</ele>
        <time>2021-07-22T09:11:54.000Z</time>
      </trkpt>
      <trkpt lat="47.30798" lon="-2.31701">
        <ele>57.400001525879</ele>
        <time>2021-07-22T09:11:55.000Z</time>
      </trkpt>
      <trkpt lat="47.30801" lon="-2.31697">
        <ele>57.799999237061</ele>
        <time>2021-07-22T09:11:56.000Z</time>
      </trkpt>
      <trkpt lat="47.30804" lon="-2.31694">
        <ele>58.400001525879</ele>
        <time>2021-07-22T09:11:57.000Z</time>
      </trkpt>
      <trkpt lat="47.30807" lon="-2.31691">
        <ele>58.799999237061</ele>
        <time>2021-07-22T09:11:58.000Z</time>
      </trkpt>
      <trkpt lat="47.30817" lon="-2.31679">
        <ele>58.799999237061</ele>
        <time>2021-07-22T09:12:03.000Z</time>
      </trkpt>
      <trkpt lat="47.30828" lon="-2.31664">
        <ele>58.799999237061</ele>
        <time>2021-07-22T09:12:08.000Z</time>
      </trkpt>
      <trkpt lat="47.30842" lon="-2.3165">
        <ele>58.799999237061</ele>
        <time>2021-07-22T09:12:13.000Z</time>
      </trkpt>
      <trkpt lat="47.30849" lon="-2.31649">
        <ele>58.799999237061</ele>
        <time>2021-07-22T09:12:15.000Z</time>
      </trkpt>
      <trkpt lat="47.30852" lon="-2.31651">
        <ele>58.799999237061</ele>
        <time>2021-07-22T09:12:16.000Z</time>
      </trkpt>
      <trkpt lat="47.30855" lon="-2.31655">
        <ele>59.200000762939</ele>
        <time>2021-07-22T09:12:17.000Z</time>
      </trkpt>
      <trkpt lat="47.30858" lon="-2.31659">
        <ele>59.599998474121</ele>
        <time>2021-07-22T09:12:18.000Z</time>
      </trkpt>
      <trkpt lat="47.30862" lon="-2.31664">
        <ele>60</ele>
        <time>2021-07-22T09:12:19.000Z</time>
      </trkpt>
      <trkpt lat="47.30865" lon="-2.31669">
        <ele>60.400001525879</ele>
        <time>2021-07-22T09:12:20.000Z</time>
      </trkpt>
      <trkpt lat="47.30869" lon="-2.31674">
        <ele>60.799999237061</ele>
        <time>2021-07-22T09:12:21.000Z</time>
      </trkpt>
      <trkpt lat="47.30899" lon="-2.31713">
        <ele>60.799999237061</ele>
        <time>2021-07-22T09:12:29.000Z</time>
      </trkpt>
      <trkpt lat="47.30903" lon="-2.31718">
        <ele>60.799999237061</ele>
        <time>2021-07-22T09:12:30.000Z</time>
      </trkpt>
      <trkpt lat="47.30919" lon="-2.31735">
        <ele>60.799999237061</ele>
        <time>2021-07-22T09:12:34.000Z</time>
      </trkpt>
      <trkpt lat="47.3095" lon="-2.3177">
        <ele>60.799999237061</ele>
        <time>2021-07-22T09:12:41.000Z</time>
      </trkpt>
      <trkpt lat="47.30987" lon="-2.31808">
        <ele>60.799999237061</ele>
        <time>2021-07-22T09:12:49.000Z</time>
      </trkpt>
      <trkpt lat="47.30998" lon="-2.3182">
        <ele>60.799999237061</ele>
        <time>2021-07-22T09:12:52.000Z</time>
      </trkpt>
      <trkpt lat="47.31002" lon="-2.31831">
        <ele>60.799999237061</ele>
        <time>2021-07-22T09:12:54.000Z</time>
      </trkpt>
      <trkpt lat="47.30996" lon="-2.3185">
        <ele>60.799999237061</ele>
        <time>2021-07-22T09:12:57.000Z</time>
      </trkpt>
      <trkpt lat="47.30985" lon="-2.31884">
        <ele>60.799999237061</ele>
        <time>2021-07-22T09:13:02.000Z</time>
      </trkpt>
      <trkpt lat="47.30984" lon="-2.31891">
        <ele>60.799999237061</ele>
        <time>2021-07-22T09:13:03.000Z</time>
      </trkpt>
      <trkpt lat="47.30982" lon="-2.31906">
        <ele>60.799999237061</ele>
        <time>2021-07-22T09:13:05.000Z</time>
      </trkpt>
      <trkpt lat="47.30975" lon="-2.3192">
        <ele>60.799999237061</ele>
        <time>2021-07-22T09:13:07.000Z</time>
      </trkpt>
      <trkpt lat="47.30972" lon="-2.31927">
        <ele>60.799999237061</ele>
        <time>2021-07-22T09:13:08.000Z</time>
      </trkpt>
      <trkpt lat="47.30967" lon="-2.31942">
        <ele>60.799999237061</ele>
        <time>2021-07-22T09:13:10.000Z</time>
      </trkpt>
      <trkpt lat="47.30964" lon="-2.31959">
        <ele>60.799999237061</ele>
        <time>2021-07-22T09:13:12.000Z</time>
      </trkpt>
      <trkpt lat="47.30972" lon="-2.31992">
        <ele>60.799999237061</ele>
        <time>2021-07-22T09:13:16.000Z</time>
      </trkpt>
      <trkpt lat="47.30974" lon="-2.31999">
        <ele>60.799999237061</ele>
        <time>2021-07-22T09:13:17.000Z</time>
      </trkpt>
      <trkpt lat="47.30988" lon="-2.32031">
        <ele>60.799999237061</ele>
        <time>2021-07-22T09:13:22.000Z</time>
      </trkpt>
      <trkpt lat="47.31009" lon="-2.32074">
        <ele>60.799999237061</ele>
        <time>2021-07-22T09:13:29.000Z</time>
      </trkpt>
      <trkpt lat="47.31028" lon="-2.32101">
        <ele>60.799999237061</ele>
        <time>2021-07-22T09:13:34.000Z</time>
      </trkpt>
      <trkpt lat="47.3105" lon="-2.32134">
        <ele>61.200000762939</ele>
        <time>2021-07-22T09:13:40.000Z</time>
      </trkpt>
      <trkpt lat="47.31054" lon="-2.32139">
        <ele>61.799999237061</ele>
        <time>2021-07-22T09:13:41.000Z</time>
      </trkpt>
      <trkpt lat="47.31057" lon="-2.32145">
        <ele>62.200000762939</ele>
        <time>2021-07-22T09:13:42.000Z</time>
      </trkpt>
      <trkpt lat="47.31061" lon="-2.32151">
        <ele>62.599998474121</ele>
        <time>2021-07-22T09:13:43.000Z</time>
      </trkpt>
      <trkpt lat="47.31064" lon="-2.32156">
        <ele>63</ele>
        <time>2021-07-22T09:13:44.000Z</time>
      </trkpt>
      <trkpt lat="47.31071" lon="-2.32166">
        <ele>63</ele>
        <time>2021-07-22T09:13:46.000Z</time>
      </trkpt>
      <trkpt lat="47.31081" lon="-2.32185">
        <ele>63</ele>
        <time>2021-07-22T09:13:50.000Z</time>
      </trkpt>
      <trkpt lat="47.31086" lon="-2.32197">
        <ele>63</ele>
        <time>2021-07-22T09:13:52.000Z</time>
      </trkpt>
      <trkpt lat="47.31099" lon="-2.32228">
        <ele>63.400001525879</ele>
        <time>2021-07-22T09:13:58.000Z</time>
      </trkpt>
      <trkpt lat="47.31101" lon="-2.32233">
        <ele>63.799999237061</ele>
        <time>2021-07-22T09:13:59.000Z</time>
      </trkpt>
      <trkpt lat="47.31103" lon="-2.32237">
        <ele>64.199996948242</ele>
        <time>2021-07-22T09:14:00.000Z</time>
      </trkpt>
      <trkpt lat="47.31105" lon="-2.32241">
        <ele>64.599998474121</ele>
        <time>2021-07-22T09:14:01.000Z</time>
      </trkpt>
      <trkpt lat="47.31107" lon="-2.32246">
        <ele>65</ele>
        <time>2021-07-22T09:14:02.000Z</time>
      </trkpt>
      <trkpt lat="47.31117" lon="-2.32267">
        <ele>65</ele>
        <time>2021-07-22T09:14:07.000Z</time>
      </trkpt>
      <trkpt lat="47.31121" lon="-2.32275">
        <ele>65.400001525879</ele>
        <time>2021-07-22T09:14:09.000Z</time>
      </trkpt>
      <trkpt lat="47.31123" lon="-2.3228">
        <ele>66</ele>
        <time>2021-07-22T09:14:10.000Z</time>
      </trkpt>
      <trkpt lat="47.31125" lon="-2.32284">
        <ele>66.400001525879</ele>
        <time>2021-07-22T09:14:11.000Z</time>
      </trkpt>
      <trkpt lat="47.31127" lon="-2.32289">
        <ele>66.800003051758</ele>
        <time>2021-07-22T09:14:12.000Z</time>
      </trkpt>
      <trkpt lat="47.31129" lon="-2.32294">
        <ele>67.199996948242</ele>
        <time>2021-07-22T09:14:13.000Z</time>
      </trkpt>
      <trkpt lat="47.31131" lon="-2.32299">
        <ele>67.199996948242</ele>
        <time>2021-07-22T09:14:14.000Z</time>
      </trkpt>
      <trkpt lat="47.31143" lon="-2.32342">
        <ele>67.199996948242</ele>
        <time>2021-07-22T09:14:21.000Z</time>
      </trkpt>
      <trkpt lat="47.31146" lon="-2.3236">
        <ele>67.599998474121</ele>
        <time>2021-07-22T09:14:24.000Z</time>
      </trkpt>
      <trkpt lat="47.31146" lon="-2.32366">
        <ele>68</ele>
        <time>2021-07-22T09:14:25.000Z</time>
      </trkpt>
      <trkpt lat="47.31147" lon="-2.32372">
        <ele>68.800003051758</ele>
        <time>2021-07-22T09:14:26.000Z</time>
      </trkpt>
      <trkpt lat="47.31147" lon="-2.32378">
        <ele>69.199996948242</ele>
        <time>2021-07-22T09:14:27.000Z</time>
      </trkpt>
      <trkpt lat="47.31147" lon="-2.32383">
        <ele>69.199996948242</ele>
        <time>2021-07-22T09:14:28.000Z</time>
      </trkpt>
      <trkpt lat="47.31153" lon="-2.3242">
        <ele>69.199996948242</ele>
        <time>2021-07-22T09:14:35.000Z</time>
      </trkpt>
      <trkpt lat="47.31163" lon="-2.32428">
        <ele>69.199996948242</ele>
        <time>2021-07-22T09:14:39.000Z</time>
      </trkpt>
      <trkpt lat="47.31176" lon="-2.32434">
        <ele>69.199996948242</ele>
        <time>2021-07-22T09:14:45.000Z</time>
      </trkpt>
      <trkpt lat="47.3118" lon="-2.32437">
        <ele>69.199996948242</ele>
        <time>2021-07-22T09:14:49.000Z</time>
      </trkpt>
      <trkpt lat="47.31184" lon="-2.32437">
        <ele>69.199996948242</ele>
        <time>2021-07-22T09:15:52.000Z</time>
      </trkpt>
      <trkpt lat="47.31197" lon="-2.32429">
        <ele>69.199996948242</ele>
        <time>2021-07-22T09:15:56.000Z</time>
      </trkpt>
      <trkpt lat="47.31215" lon="-2.32419">
        <ele>69.599998474121</ele>
        <time>2021-07-22T09:16:00.000Z</time>
      </trkpt>
      <trkpt lat="47.3122" lon="-2.32416">
        <ele>70</ele>
        <time>2021-07-22T09:16:01.000Z</time>
      </trkpt>
      <trkpt lat="47.31225" lon="-2.32413">
        <ele>70.400001525879</ele>
        <time>2021-07-22T09:16:02.000Z</time>
      </trkpt>
      <trkpt lat="47.31229" lon="-2.3241">
        <ele>70.800003051758</ele>
        <time>2021-07-22T09:16:03.000Z</time>
      </trkpt>
      <trkpt lat="47.31234" lon="-2.32407">
        <ele>71.199996948242</ele>
        <time>2021-07-22T09:16:04.000Z</time>
      </trkpt>
      <trkpt lat="47.31253" lon="-2.32391">
        <ele>71.199996948242</ele>
        <time>2021-07-22T09:16:08.000Z</time>
      </trkpt>
      <trkpt lat="47.31289" lon="-2.32356">
        <ele>71.199996948242</ele>
        <time>2021-07-22T09:16:16.000Z</time>
      </trkpt>
      <trkpt lat="47.31313" lon="-2.3233">
        <ele>71.199996948242</ele>
        <time>2021-07-22T09:16:22.000Z</time>
      </trkpt>
      <trkpt lat="47.31333" lon="-2.32311">
        <ele>70.800003051758</ele>
        <time>2021-07-22T09:16:26.000Z</time>
      </trkpt>
      <trkpt lat="47.31339" lon="-2.32306">
        <ele>70.400001525879</ele>
        <time>2021-07-22T09:16:27.000Z</time>
      </trkpt>
      <trkpt lat="47.31345" lon="-2.32301">
        <ele>70</ele>
        <time>2021-07-22T09:16:28.000Z</time>
      </trkpt>
      <trkpt lat="47.31351" lon="-2.32297">
        <ele>69.599998474121</ele>
        <time>2021-07-22T09:16:29.000Z</time>
      </trkpt>
      <trkpt lat="47.31358" lon="-2.32294">
        <ele>69.199996948242</ele>
        <time>2021-07-22T09:16:30.000Z</time>
      </trkpt>
      <trkpt lat="47.31371" lon="-2.32289">
        <ele>69.199996948242</ele>
        <time>2021-07-22T09:16:32.000Z</time>
      </trkpt>
      <trkpt lat="47.31413" lon="-2.32275">
        <ele>69.199996948242</ele>
        <time>2021-07-22T09:16:39.000Z</time>
      </trkpt>
      <trkpt lat="47.3144" lon="-2.32267">
        <ele>69.199996948242</ele>
        <time>2021-07-22T09:16:44.000Z</time>
      </trkpt>
      <trkpt lat="47.31445" lon="-2.32264">
        <ele>69.199996948242</ele>
        <time>2021-07-22T09:16:45.000Z</time>
      </trkpt>
      <trkpt lat="47.31456" lon="-2.32248">
        <ele>69.199996948242</ele>
        <time>2021-07-22T09:16:48.000Z</time>
      </trkpt>
      <trkpt lat="47.31462" lon="-2.32235">
        <ele>69.599998474121</ele>
        <time>2021-07-22T09:16:50.000Z</time>
      </trkpt>
      <trkpt lat="47.31464" lon="-2.32229">
        <ele>70</ele>
        <time>2021-07-22T09:16:51.000Z</time>
      </trkpt>
      <trkpt lat="47.31467" lon="-2.32222">
        <ele>70.400001525879</ele>
        <time>2021-07-22T09:16:52.000Z</time>
      </trkpt>
      <trkpt lat="47.31469" lon="-2.32215">
        <ele>70.800003051758</ele>
        <time>2021-07-22T09:16:53.000Z</time>
      </trkpt>
      <trkpt lat="47.31471" lon="-2.32208">
        <ele>71.199996948242</ele>
        <time>2021-07-22T09:16:54.000Z</time>
      </trkpt>
      <trkpt lat="47.31484" lon="-2.32176">
        <ele>71.199996948242</ele>
        <time>2021-07-22T09:16:59.000Z</time>
      </trkpt>
      <trkpt lat="47.31488" lon="-2.32173">
        <ele>71.199996948242</ele>
        <time>2021-07-22T09:17:00.000Z</time>
      </trkpt>
      <trkpt lat="47.31499" lon="-2.3218">
        <ele>71.199996948242</ele>
        <time>2021-07-22T09:17:03.000Z</time>
      </trkpt>
      <trkpt lat="47.31509" lon="-2.32183">
        <ele>71.199996948242</ele>
        <time>2021-07-22T09:17:06.000Z</time>
      </trkpt>
      <trkpt lat="47.31511" lon="-2.3218">
        <ele>71.199996948242</ele>
        <time>2021-07-22T09:17:07.000Z</time>
      </trkpt>
      <trkpt lat="47.31511" lon="-2.32164">
        <ele>71.199996948242</ele>
        <time>2021-07-22T09:17:10.000Z</time>
      </trkpt>
      <trkpt lat="47.31496" lon="-2.32131">
        <ele>71.199996948242</ele>
        <time>2021-07-22T09:17:16.000Z</time>
      </trkpt>
      <trkpt lat="47.31494" lon="-2.32124">
        <ele>71.199996948242</ele>
        <time>2021-07-22T09:17:17.000Z</time>
      </trkpt>
      <trkpt lat="47.31494" lon="-2.32114">
        <ele>71.199996948242</ele>
        <time>2021-07-22T09:17:19.000Z</time>
      </trkpt>
      <trkpt lat="47.315" lon="-2.32108">
        <ele>71.199996948242</ele>
        <time>2021-07-22T09:17:22.000Z</time>
      </trkpt>
      <trkpt lat="47.31509" lon="-2.32108">
        <ele>71.199996948242</ele>
        <time>2021-07-22T09:17:27.000Z</time>
      </trkpt>
      <trkpt lat="47.31511" lon="-2.32111">
        <ele>71.199996948242</ele>
        <time>2021-07-22T09:17:28.000Z</time>
      </trkpt>
      <trkpt lat="47.31514" lon="-2.32112">
        <ele>71.199996948242</ele>
        <time>2021-07-22T09:17:29.000Z</time>
      </trkpt>
      <trkpt lat="47.31521" lon="-2.32114">
        <ele>71.199996948242</ele>
        <time>2021-07-22T09:17:31.000Z</time>
      </trkpt>
      <trkpt lat="47.3154" lon="-2.32117">
        <ele>71.199996948242</ele>
        <time>2021-07-22T09:17:35.000Z</time>
      </trkpt>
      <trkpt lat="47.31555" lon="-2.32119">
        <ele>71.599998474121</ele>
        <time>2021-07-22T09:17:38.000Z</time>
      </trkpt>
      <trkpt lat="47.3156" lon="-2.32121">
        <ele>72</ele>
        <time>2021-07-22T09:17:39.000Z</time>
      </trkpt>
      <trkpt lat="47.31565" lon="-2.32122">
        <ele>72.400001525879</ele>
        <time>2021-07-22T09:17:40.000Z</time>
      </trkpt>
      <trkpt lat="47.3157" lon="-2.32123">
        <ele>72.800003051758</ele>
        <time>2021-07-22T09:17:41.000Z</time>
      </trkpt>
      <trkpt lat="47.31576" lon="-2.32124">
        <ele>73.400001525879</ele>
        <time>2021-07-22T09:17:42.000Z</time>
      </trkpt>
      <trkpt lat="47.31611" lon="-2.32134">
        <ele>73.400001525879</ele>
        <time>2021-07-22T09:17:49.000Z</time>
      </trkpt>
      <trkpt lat="47.31646" lon="-2.32143">
        <ele>73.400001525879</ele>
        <time>2021-07-22T09:17:57.000Z</time>
      </trkpt>
      <trkpt lat="47.31664" lon="-2.32146">
        <ele>73.400001525879</ele>
        <time>2021-07-22T09:18:01.000Z</time>
      </trkpt>
      <trkpt lat="47.31673" lon="-2.32148">
        <ele>73.400001525879</ele>
        <time>2021-07-22T09:18:03.000Z</time>
      </trkpt>
      <trkpt lat="47.31695" lon="-2.32154">
        <ele>73.400001525879</ele>
        <time>2021-07-22T09:18:08.000Z</time>
      </trkpt>
      <trkpt lat="47.317" lon="-2.32155">
        <ele>74.199996948242</ele>
        <time>2021-07-22T09:18:09.000Z</time>
      </trkpt>
      <trkpt lat="47.31704" lon="-2.32157">
        <ele>74.599998474121</ele>
        <time>2021-07-22T09:18:10.000Z</time>
      </trkpt>
      <trkpt lat="47.31709" lon="-2.32158">
        <ele>75</ele>
        <time>2021-07-22T09:18:11.000Z</time>
      </trkpt>
      <trkpt lat="47.31713" lon="-2.32159">
        <ele>75.400001525879</ele>
        <time>2021-07-22T09:18:12.000Z</time>
      </trkpt>
      <trkpt lat="47.31723" lon="-2.32161">
        <ele>75.400001525879</ele>
        <time>2021-07-22T09:18:14.000Z</time>
      </trkpt>
      <trkpt lat="47.3176" lon="-2.3217">
        <ele>75.400001525879</ele>
        <time>2021-07-22T09:18:21.000Z</time>
      </trkpt>
      <trkpt lat="47.3181" lon="-2.32181">
        <ele>75.400001525879</ele>
        <time>2021-07-22T09:18:29.000Z</time>
      </trkpt>
      <trkpt lat="47.31843" lon="-2.32188">
        <ele>75</ele>
        <time>2021-07-22T09:18:34.000Z</time>
      </trkpt>
      <trkpt lat="47.3185" lon="-2.3219">
        <ele>74.599998474121</ele>
        <time>2021-07-22T09:18:35.000Z</time>
      </trkpt>
      <trkpt lat="47.31857" lon="-2.32191">
        <ele>74.199996948242</ele>
        <time>2021-07-22T09:18:36.000Z</time>
      </trkpt>
      <trkpt lat="47.31863" lon="-2.32193">
        <ele>73.800003051758</ele>
        <time>2021-07-22T09:18:37.000Z</time>
      </trkpt>
      <trkpt lat="47.3187" lon="-2.32194">
        <ele>73.199996948242</ele>
        <time>2021-07-22T09:18:38.000Z</time>
      </trkpt>
      <trkpt lat="47.31877" lon="-2.32195">
        <ele>72.599998474121</ele>
        <time>2021-07-22T09:18:39.000Z</time>
      </trkpt>
      <trkpt lat="47.31884" lon="-2.32195">
        <ele>72.199996948242</ele>
        <time>2021-07-22T09:18:40.000Z</time>
      </trkpt>
      <trkpt lat="47.31889" lon="-2.32196">
        <ele>71.599998474121</ele>
        <time>2021-07-22T09:18:41.000Z</time>
      </trkpt>
      <trkpt lat="47.31894" lon="-2.32197">
        <ele>71</ele>
        <time>2021-07-22T09:18:42.000Z</time>
      </trkpt>
      <trkpt lat="47.31895" lon="-2.322">
        <ele>70.599998474121</ele>
        <time>2021-07-22T09:18:43.000Z</time>
      </trkpt>
      <trkpt lat="47.31895" lon="-2.32203">
        <ele>70</ele>
        <time>2021-07-22T09:18:44.000Z</time>
      </trkpt>
      <trkpt lat="47.31893" lon="-2.32206">
        <ele>69.599998474121</ele>
        <time>2021-07-22T09:18:45.000Z</time>
      </trkpt>
      <trkpt lat="47.3189" lon="-2.32208">
        <ele>69</ele>
        <time>2021-07-22T09:18:46.000Z</time>
      </trkpt>
      <trkpt lat="47.31882" lon="-2.32211">
        <ele>69</ele>
        <time>2021-07-22T09:18:48.000Z</time>
      </trkpt>
      <trkpt lat="47.31853" lon="-2.32219">
        <ele>69</ele>
        <time>2021-07-22T09:18:54.000Z</time>
      </trkpt>
      <trkpt lat="47.31826" lon="-2.32228">
        <ele>69.400001525879</ele>
        <time>2021-07-22T09:19:00.000Z</time>
      </trkpt>
      <trkpt lat="47.31821" lon="-2.32228">
        <ele>70</ele>
        <time>2021-07-22T09:19:01.000Z</time>
      </trkpt>
      <trkpt lat="47.31817" lon="-2.32229">
        <ele>70.400001525879</ele>
        <time>2021-07-22T09:19:02.000Z</time>
      </trkpt>
      <trkpt lat="47.31812" lon="-2.32229">
        <ele>70.800003051758</ele>
        <time>2021-07-22T09:19:03.000Z</time>
      </trkpt>
      <trkpt lat="47.31808" lon="-2.3223">
        <ele>71.400001525879</ele>
        <time>2021-07-22T09:19:04.000Z</time>
      </trkpt>
      <trkpt lat="47.31788" lon="-2.32231">
        <ele>71.800003051758</ele>
        <time>2021-07-22T09:19:08.000Z</time>
      </trkpt>
      <trkpt lat="47.31783" lon="-2.32232">
        <ele>72.199996948242</ele>
        <time>2021-07-22T09:19:09.000Z</time>
      </trkpt>
      <trkpt lat="47.31778" lon="-2.32233">
        <ele>72.599998474121</ele>
        <time>2021-07-22T09:19:10.000Z</time>
      </trkpt>
      <trkpt lat="47.31773" lon="-2.32233">
        <ele>73</ele>
        <time>2021-07-22T09:19:11.000Z</time>
      </trkpt>
      <trkpt lat="47.31768" lon="-2.32234">
        <ele>73.400001525879</ele>
        <time>2021-07-22T09:19:12.000Z</time>
      </trkpt>
      <trkpt lat="47.31759" lon="-2.32235">
        <ele>73.400001525879</ele>
        <time>2021-07-22T09:19:14.000Z</time>
      </trkpt>
      <trkpt lat="47.31755" lon="-2.32238">
        <ele>73.400001525879</ele>
        <time>2021-07-22T09:19:15.000Z</time>
      </trkpt>
      <trkpt lat="47.31753" lon="-2.32255">
        <ele>73.400001525879</ele>
        <time>2021-07-22T09:19:18.000Z</time>
      </trkpt>
      <trkpt lat="47.31754" lon="-2.32261">
        <ele>73.400001525879</ele>
        <time>2021-07-22T09:19:19.000Z</time>
      </trkpt>
      <trkpt lat="47.31763" lon="-2.32296">
        <ele>73.400001525879</ele>
        <time>2021-07-22T09:19:24.000Z</time>
      </trkpt>
      <trkpt lat="47.31774" lon="-2.32353">
        <ele>73.400001525879</ele>
        <time>2021-07-22T09:19:31.000Z</time>
      </trkpt>
      <trkpt lat="47.31788" lon="-2.32418">
        <ele>73.400001525879</ele>
        <time>2021-07-22T09:19:39.000Z</time>
      </trkpt>
      <trkpt lat="47.31792" lon="-2.32445">
        <ele>73.400001525879</ele>
        <time>2021-07-22T09:19:42.000Z</time>
      </trkpt>
      <trkpt lat="47.31792" lon="-2.32453">
        <ele>73</ele>
        <time>2021-07-22T09:19:43.000Z</time>
      </trkpt>
      <trkpt lat="47.31794" lon="-2.32461">
        <ele>72.599998474121</ele>
        <time>2021-07-22T09:19:44.000Z</time>
      </trkpt>
      <trkpt lat="47.31795" lon="-2.32467">
        <ele>72.199996948242</ele>
        <time>2021-07-22T09:19:45.000Z</time>
      </trkpt>
      <trkpt lat="47.31797" lon="-2.32474">
        <ele>71.800003051758</ele>
        <time>2021-07-22T09:19:46.000Z</time>
      </trkpt>
      <trkpt lat="47.31799" lon="-2.32481">
        <ele>71.400001525879</ele>
        <time>2021-07-22T09:19:47.000Z</time>
      </trkpt>
      <trkpt lat="47.31801" lon="-2.32488">
        <ele>70.599998474121</ele>
        <time>2021-07-22T09:19:48.000Z</time>
      </trkpt>
      <trkpt lat="47.31803" lon="-2.32495">
        <ele>70</ele>
        <time>2021-07-22T09:19:49.000Z</time>
      </trkpt>
      <trkpt lat="47.31805" lon="-2.32503">
        <ele>69.599998474121</ele>
        <time>2021-07-22T09:19:50.000Z</time>
      </trkpt>
      <trkpt lat="47.31807" lon="-2.3251">
        <ele>69.199996948242</ele>
        <time>2021-07-22T09:19:51.000Z</time>
      </trkpt>
      <trkpt lat="47.31809" lon="-2.32517">
        <ele>68.800003051758</ele>
        <time>2021-07-22T09:19:52.000Z</time>
      </trkpt>
      <trkpt lat="47.31811" lon="-2.32524">
        <ele>68.400001525879</ele>
        <time>2021-07-22T09:19:53.000Z</time>
      </trkpt>
      <trkpt lat="47.31812" lon="-2.32531">
        <ele>68</ele>
        <time>2021-07-22T09:19:54.000Z</time>
      </trkpt>
      <trkpt lat="47.31815" lon="-2.32539">
        <ele>67.599998474121</ele>
        <time>2021-07-22T09:19:55.000Z</time>
      </trkpt>
      <trkpt lat="47.31817" lon="-2.32546">
        <ele>67.199996948242</ele>
        <time>2021-07-22T09:19:56.000Z</time>
      </trkpt>
      <trkpt lat="47.31822" lon="-2.32562">
        <ele>67.199996948242</ele>
        <time>2021-07-22T09:19:58.000Z</time>
      </trkpt>
      <trkpt lat="47.31836" lon="-2.32619">
        <ele>67.199996948242</ele>
        <time>2021-07-22T09:20:04.000Z</time>
      </trkpt>
      <trkpt lat="47.31839" lon="-2.32638">
        <ele>66.800003051758</ele>
        <time>2021-07-22T09:20:06.000Z</time>
      </trkpt>
      <trkpt lat="47.31841" lon="-2.32647">
        <ele>66.199996948242</ele>
        <time>2021-07-22T09:20:07.000Z</time>
      </trkpt>
      <trkpt lat="47.31843" lon="-2.32655">
        <ele>65.800003051758</ele>
        <time>2021-07-22T09:20:08.000Z</time>
      </trkpt>
      <trkpt lat="47.31846" lon="-2.32663">
        <ele>65.400001525879</ele>
        <time>2021-07-22T09:20:09.000Z</time>
      </trkpt>
      <trkpt lat="47.31849" lon="-2.32671">
        <ele>65</ele>
        <time>2021-07-22T09:20:10.000Z</time>
      </trkpt>
      <trkpt lat="47.31855" lon="-2.32686">
        <ele>64.599998474121</ele>
        <time>2021-07-22T09:20:12.000Z</time>
      </trkpt>
      <trkpt lat="47.31859" lon="-2.32693">
        <ele>63.799999237061</ele>
        <time>2021-07-22T09:20:13.000Z</time>
      </trkpt>
      <trkpt lat="47.31862" lon="-2.327">
        <ele>63.400001525879</ele>
        <time>2021-07-22T09:20:14.000Z</time>
      </trkpt>
      <trkpt lat="47.31865" lon="-2.32707">
        <ele>63</ele>
        <time>2021-07-22T09:20:15.000Z</time>
      </trkpt>
      <trkpt lat="47.31868" lon="-2.32714">
        <ele>63</ele>
        <time>2021-07-22T09:20:16.000Z</time>
      </trkpt>
      <trkpt lat="47.31882" lon="-2.32766">
        <ele>63</ele>
        <time>2021-07-22T09:20:22.000Z</time>
      </trkpt>
      <trkpt lat="47.31886" lon="-2.32825">
        <ele>63</ele>
        <time>2021-07-22T09:20:28.000Z</time>
      </trkpt>
      <trkpt lat="47.31883" lon="-2.32884">
        <ele>63</ele>
        <time>2021-07-22T09:20:34.000Z</time>
      </trkpt>
      <trkpt lat="47.31881" lon="-2.32902">
        <ele>62.599998474121</ele>
        <time>2021-07-22T09:20:36.000Z</time>
      </trkpt>
      <trkpt lat="47.31882" lon="-2.3291">
        <ele>61.799999237061</ele>
        <time>2021-07-22T09:20:37.000Z</time>
      </trkpt>
      <trkpt lat="47.31883" lon="-2.32919">
        <ele>61.200000762939</ele>
        <time>2021-07-22T09:20:38.000Z</time>
      </trkpt>
      <trkpt lat="47.31883" lon="-2.32929">
        <ele>60.799999237061</ele>
        <time>2021-07-22T09:20:39.000Z</time>
      </trkpt>
      <trkpt lat="47.31879" lon="-2.3299">
        <ele>60.799999237061</ele>
        <time>2021-07-22T09:20:45.000Z</time>
      </trkpt>
      <trkpt lat="47.31878" lon="-2.33">
        <ele>60.799999237061</ele>
        <time>2021-07-22T09:20:46.000Z</time>
      </trkpt>
      <trkpt lat="47.3188" lon="-2.33029">
        <ele>60.799999237061</ele>
        <time>2021-07-22T09:20:49.000Z</time>
      </trkpt>
      <trkpt lat="47.3188" lon="-2.33074">
        <ele>60.799999237061</ele>
        <time>2021-07-22T09:20:54.000Z</time>
      </trkpt>
      <trkpt lat="47.31878" lon="-2.3312">
        <ele>60.799999237061</ele>
        <time>2021-07-22T09:21:01.000Z</time>
      </trkpt>
      <trkpt lat="47.31877" lon="-2.33132">
        <ele>60.799999237061</ele>
        <time>2021-07-22T09:21:03.000Z</time>
      </trkpt>
      <trkpt lat="47.31872" lon="-2.33152">
        <ele>60.799999237061</ele>
        <time>2021-07-22T09:21:06.000Z</time>
      </trkpt>
      <trkpt lat="47.31868" lon="-2.33184">
        <ele>61.400001525879</ele>
        <time>2021-07-22T09:21:11.000Z</time>
      </trkpt>
      <trkpt lat="47.31868" lon="-2.33191">
        <ele>61.799999237061</ele>
        <time>2021-07-22T09:21:12.000Z</time>
      </trkpt>
      <trkpt lat="47.31868" lon="-2.33199">
        <ele>62.200000762939</ele>
        <time>2021-07-22T09:21:13.000Z</time>
      </trkpt>
      <trkpt lat="47.31867" lon="-2.33206">
        <ele>62.599998474121</ele>
        <time>2021-07-22T09:21:14.000Z</time>
      </trkpt>
      <trkpt lat="47.31867" lon="-2.33213">
        <ele>63.200000762939</ele>
        <time>2021-07-22T09:21:15.000Z</time>
      </trkpt>
      <trkpt lat="47.31864" lon="-2.33233">
        <ele>63.200000762939</ele>
        <time>2021-07-22T09:21:18.000Z</time>
      </trkpt>
      <trkpt lat="47.31862" lon="-2.3324">
        <ele>63.200000762939</ele>
        <time>2021-07-22T09:21:19.000Z</time>
      </trkpt>
      <trkpt lat="47.31845" lon="-2.3327">
        <ele>63.599998474121</ele>
        <time>2021-07-22T09:21:24.000Z</time>
      </trkpt>
      <trkpt lat="47.31842" lon="-2.33276">
        <ele>64</ele>
        <time>2021-07-22T09:21:25.000Z</time>
      </trkpt>
      <trkpt lat="47.31839" lon="-2.33281">
        <ele>64.400001525879</ele>
        <time>2021-07-22T09:21:26.000Z</time>
      </trkpt>
      <trkpt lat="47.31835" lon="-2.33285">
        <ele>64.800003051758</ele>
        <time>2021-07-22T09:21:27.000Z</time>
      </trkpt>
      <trkpt lat="47.31831" lon="-2.33288">
        <ele>65.199996948242</ele>
        <time>2021-07-22T09:21:28.000Z</time>
      </trkpt>
      <trkpt lat="47.31827" lon="-2.3329">
        <ele>65.199996948242</ele>
        <time>2021-07-22T09:21:29.000Z</time>
      </trkpt>
      <trkpt lat="47.31814" lon="-2.33302">
        <ele>65.199996948242</ele>
        <time>2021-07-22T09:21:33.000Z</time>
      </trkpt>
      <trkpt lat="47.31808" lon="-2.33308">
        <ele>65.599998474121</ele>
        <time>2021-07-22T09:21:35.000Z</time>
      </trkpt>
      <trkpt lat="47.31804" lon="-2.33312">
        <ele>66</ele>
        <time>2021-07-22T09:21:36.000Z</time>
      </trkpt>
      <trkpt lat="47.31801" lon="-2.33315">
        <ele>66.400001525879</ele>
        <time>2021-07-22T09:21:37.000Z</time>
      </trkpt>
      <trkpt lat="47.31798" lon="-2.33317">
        <ele>66.800003051758</ele>
        <time>2021-07-22T09:21:38.000Z</time>
      </trkpt>
      <trkpt lat="47.31795" lon="-2.33319">
        <ele>67.400001525879</ele>
        <time>2021-07-22T09:21:39.000Z</time>
      </trkpt>
      <trkpt lat="47.31783" lon="-2.33326">
        <ele>67.800003051758</ele>
        <time>2021-07-22T09:21:43.000Z</time>
      </trkpt>
      <trkpt lat="47.31779" lon="-2.33326">
        <ele>68.199996948242</ele>
        <time>2021-07-22T09:21:44.000Z</time>
      </trkpt>
      <trkpt lat="47.31776" lon="-2.33325">
        <ele>68.599998474121</ele>
        <time>2021-07-22T09:21:45.000Z</time>
      </trkpt>
      <trkpt lat="47.31773" lon="-2.33323">
        <ele>69</ele>
        <time>2021-07-22T09:21:46.000Z</time>
      </trkpt>
      <trkpt lat="47.3177" lon="-2.33319">
        <ele>69.400001525879</ele>
        <time>2021-07-22T09:21:47.000Z</time>
      </trkpt>
      <trkpt lat="47.31765" lon="-2.33311">
        <ele>69.400001525879</ele>
        <time>2021-07-22T09:21:49.000Z</time>
      </trkpt>
      <trkpt lat="47.31761" lon="-2.33301">
        <ele>69.800003051758</ele>
        <time>2021-07-22T09:21:51.000Z</time>
      </trkpt>
      <trkpt lat="47.31759" lon="-2.33295">
        <ele>70.599998474121</ele>
        <time>2021-07-22T09:21:52.000Z</time>
      </trkpt>
      <trkpt lat="47.31757" lon="-2.3329">
        <ele>71.199996948242</ele>
        <time>2021-07-22T09:21:53.000Z</time>
      </trkpt>
      <trkpt lat="47.31755" lon="-2.33284">
        <ele>71.599998474121</ele>
        <time>2021-07-22T09:21:54.000Z</time>
      </trkpt>
      <trkpt lat="47.31751" lon="-2.33265">
        <ele>71.599998474121</ele>
        <time>2021-07-22T09:21:57.000Z</time>
      </trkpt>
      <trkpt lat="47.31747" lon="-2.33254">
        <ele>71.599998474121</ele>
        <time>2021-07-22T09:21:59.000Z</time>
      </trkpt>
      <trkpt lat="47.31734" lon="-2.3325">
        <ele>71.599998474121</ele>
        <time>2021-07-22T09:22:02.000Z</time>
      </trkpt>
      <trkpt lat="47.31725" lon="-2.33254">
        <ele>71.599998474121</ele>
        <time>2021-07-22T09:22:04.000Z</time>
      </trkpt>
      <trkpt lat="47.31711" lon="-2.3326">
        <ele>71.599998474121</ele>
        <time>2021-07-22T09:22:07.000Z</time>
      </trkpt>
      <trkpt lat="47.31703" lon="-2.33263">
        <ele>72</ele>
        <time>2021-07-22T09:22:09.000Z</time>
      </trkpt>
      <trkpt lat="47.31699" lon="-2.33265">
        <ele>72.400001525879</ele>
        <time>2021-07-22T09:22:10.000Z</time>
      </trkpt>
      <trkpt lat="47.31695" lon="-2.33266">
        <ele>72.800003051758</ele>
        <time>2021-07-22T09:22:11.000Z</time>
      </trkpt>
      <trkpt lat="47.31691" lon="-2.33268">
        <ele>73.400001525879</ele>
        <time>2021-07-22T09:22:12.000Z</time>
      </trkpt>
      <trkpt lat="47.31686" lon="-2.3327">
        <ele>73.800003051758</ele>
        <time>2021-07-22T09:22:13.000Z</time>
      </trkpt>
      <trkpt lat="47.31681" lon="-2.33271">
        <ele>73.800003051758</ele>
        <time>2021-07-22T09:22:14.000Z</time>
      </trkpt>
      <trkpt lat="47.31644" lon="-2.33289">
        <ele>74.199996948242</ele>
        <time>2021-07-22T09:22:22.000Z</time>
      </trkpt>
      <trkpt lat="47.31639" lon="-2.33292">
        <ele>74.599998474121</ele>
        <time>2021-07-22T09:22:23.000Z</time>
      </trkpt>
      <trkpt lat="47.31635" lon="-2.33295">
        <ele>75</ele>
        <time>2021-07-22T09:22:24.000Z</time>
      </trkpt>
      <trkpt lat="47.3163" lon="-2.33297">
        <ele>75.400001525879</ele>
        <time>2021-07-22T09:22:25.000Z</time>
      </trkpt>
      <trkpt lat="47.31626" lon="-2.33299">
        <ele>76</ele>
        <time>2021-07-22T09:22:26.000Z</time>
      </trkpt>
      <trkpt lat="47.31617" lon="-2.33303">
        <ele>76</ele>
        <time>2021-07-22T09:22:28.000Z</time>
      </trkpt>
      <trkpt lat="47.31575" lon="-2.33329">
        <ele>76</ele>
        <time>2021-07-22T09:22:37.000Z</time>
      </trkpt>
      <trkpt lat="47.31543" lon="-2.33341">
        <ele>76</ele>
        <time>2021-07-22T09:22:43.000Z</time>
      </trkpt>
      <trkpt lat="47.31538" lon="-2.33343">
        <ele>76.400001525879</ele>
        <time>2021-07-22T09:22:44.000Z</time>
      </trkpt>
      <trkpt lat="47.31533" lon="-2.33346">
        <ele>76.800003051758</ele>
        <time>2021-07-22T09:22:45.000Z</time>
      </trkpt>
      <trkpt lat="47.31529" lon="-2.33349">
        <ele>77.199996948242</ele>
        <time>2021-07-22T09:22:46.000Z</time>
      </trkpt>
      <trkpt lat="47.31524" lon="-2.33352">
        <ele>77.599998474121</ele>
        <time>2021-07-22T09:22:47.000Z</time>
      </trkpt>
      <trkpt lat="47.3152" lon="-2.33354">
        <ele>78</ele>
        <time>2021-07-22T09:22:48.000Z</time>
      </trkpt>
      <trkpt lat="47.31488" lon="-2.33375">
        <ele>78</ele>
        <time>2021-07-22T09:22:56.000Z</time>
      </trkpt>
      <trkpt lat="47.31482" lon="-2.33379">
        <ele>78</ele>
        <time>2021-07-22T09:23:01.000Z</time>
      </trkpt>
      <trkpt lat="47.31481" lon="-2.33375">
        <ele>76</ele>
        <time>2021-07-22T09:24:26.000Z</time>
      </trkpt>
      <trkpt lat="47.31479" lon="-2.33369">
        <ele>76</ele>
        <time>2021-07-22T09:24:28.000Z</time>
      </trkpt>
      <trkpt lat="47.31474" lon="-2.33361">
        <ele>76</ele>
        <time>2021-07-22T09:24:30.000Z</time>
      </trkpt>
      <trkpt lat="47.3147" lon="-2.33352">
        <ele>76</ele>
        <time>2021-07-22T09:24:32.000Z</time>
      </trkpt>
      <trkpt lat="47.31453" lon="-2.33319">
        <ele>76</ele>
        <time>2021-07-22T09:24:39.000Z</time>
      </trkpt>
      <trkpt lat="47.31435" lon="-2.33289">
        <ele>76</ele>
        <time>2021-07-22T09:24:46.000Z</time>
      </trkpt>
      <trkpt lat="47.31402" lon="-2.3326">
        <ele>76</ele>
        <time>2021-07-22T09:24:55.000Z</time>
      </trkpt>
      <trkpt lat="47.31367" lon="-2.33237">
        <ele>76</ele>
        <time>2021-07-22T09:25:04.000Z</time>
      </trkpt>
      <trkpt lat="47.31331" lon="-2.33209">
        <ele>76</ele>
        <time>2021-07-22T09:25:12.000Z</time>
      </trkpt>
      <trkpt lat="47.31299" lon="-2.3318">
        <ele>76</ele>
        <time>2021-07-22T09:25:19.000Z</time>
      </trkpt>
      <trkpt lat="47.31273" lon="-2.33163">
        <ele>75.400001525879</ele>
        <time>2021-07-22T09:25:24.000Z</time>
      </trkpt>
      <trkpt lat="47.31268" lon="-2.3316">
        <ele>75</ele>
        <time>2021-07-22T09:25:25.000Z</time>
      </trkpt>
      <trkpt lat="47.31262" lon="-2.33157">
        <ele>74.599998474121</ele>
        <time>2021-07-22T09:25:26.000Z</time>
      </trkpt>
      <trkpt lat="47.31257" lon="-2.33155">
        <ele>74.199996948242</ele>
        <time>2021-07-22T09:25:27.000Z</time>
      </trkpt>
      <trkpt lat="47.31251" lon="-2.33154">
        <ele>73.800003051758</ele>
        <time>2021-07-22T09:25:28.000Z</time>
      </trkpt>
      <trkpt lat="47.31239" lon="-2.33153">
        <ele>73.800003051758</ele>
        <time>2021-07-22T09:25:30.000Z</time>
      </trkpt>
      <trkpt lat="47.31214" lon="-2.33155">
        <ele>73.800003051758</ele>
        <time>2021-07-22T09:25:34.000Z</time>
      </trkpt>
      <trkpt lat="47.31202" lon="-2.33159">
        <ele>73.800003051758</ele>
        <time>2021-07-22T09:25:36.000Z</time>
      </trkpt>
      <trkpt lat="47.31184" lon="-2.33168">
        <ele>73.800003051758</ele>
        <time>2021-07-22T09:25:39.000Z</time>
      </trkpt>
      <trkpt lat="47.31169" lon="-2.33179">
        <ele>73.800003051758</ele>
        <time>2021-07-22T09:25:42.000Z</time>
      </trkpt>
      <trkpt lat="47.31136" lon="-2.332">
        <ele>73.800003051758</ele>
        <time>2021-07-22T09:25:49.000Z</time>
      </trkpt>
      <trkpt lat="47.31111" lon="-2.33218">
        <ele>73.800003051758</ele>
        <time>2021-07-22T09:25:55.000Z</time>
      </trkpt>
      <trkpt lat="47.31106" lon="-2.33239">
        <ele>73.800003051758</ele>
        <time>2021-07-22T09:25:58.000Z</time>
      </trkpt>
      <trkpt lat="47.31104" lon="-2.33253">
        <ele>73.800003051758</ele>
        <time>2021-07-22T09:26:00.000Z</time>
      </trkpt>
      <trkpt lat="47.31104" lon="-2.3326">
        <ele>73.800003051758</ele>
        <time>2021-07-22T09:26:01.000Z</time>
      </trkpt>
      <trkpt lat="47.31103" lon="-2.33275">
        <ele>74.199996948242</ele>
        <time>2021-07-22T09:26:03.000Z</time>
      </trkpt>
      <trkpt lat="47.31103" lon="-2.33283">
        <ele>74.599998474121</ele>
        <time>2021-07-22T09:26:04.000Z</time>
      </trkpt>
      <trkpt lat="47.31103" lon="-2.33291">
        <ele>75</ele>
        <time>2021-07-22T09:26:05.000Z</time>
      </trkpt>
      <trkpt lat="47.31102" lon="-2.33299">
        <ele>75.400001525879</ele>
        <time>2021-07-22T09:26:06.000Z</time>
      </trkpt>
      <trkpt lat="47.31102" lon="-2.33307">
        <ele>75.800003051758</ele>
        <time>2021-07-22T09:26:07.000Z</time>
      </trkpt>
      <trkpt lat="47.31102" lon="-2.33339">
        <ele>75.800003051758</ele>
        <time>2021-07-22T09:26:11.000Z</time>
      </trkpt>
      <trkpt lat="47.31102" lon="-2.33377">
        <ele>75.800003051758</ele>
        <time>2021-07-22T09:26:16.000Z</time>
      </trkpt>
      <trkpt lat="47.31101" lon="-2.33408">
        <ele>75.800003051758</ele>
        <time>2021-07-22T09:26:20.000Z</time>
      </trkpt>
      <trkpt lat="47.31101" lon="-2.33423">
        <ele>75.800003051758</ele>
        <time>2021-07-22T09:26:22.000Z</time>
      </trkpt>
      <trkpt lat="47.31101" lon="-2.33437">
        <ele>75.800003051758</ele>
        <time>2021-07-22T09:26:24.000Z</time>
      </trkpt>
      <trkpt lat="47.311" lon="-2.33465">
        <ele>75.800003051758</ele>
        <time>2021-07-22T09:26:28.000Z</time>
      </trkpt>
      <trkpt lat="47.31101" lon="-2.33472">
        <ele>76.199996948242</ele>
        <time>2021-07-22T09:26:29.000Z</time>
      </trkpt>
      <trkpt lat="47.31101" lon="-2.33479">
        <ele>76.599998474121</ele>
        <time>2021-07-22T09:26:30.000Z</time>
      </trkpt>
      <trkpt lat="47.31101" lon="-2.33485">
        <ele>77</ele>
        <time>2021-07-22T09:26:31.000Z</time>
      </trkpt>
      <trkpt lat="47.31101" lon="-2.33492">
        <ele>77.400001525879</ele>
        <time>2021-07-22T09:26:32.000Z</time>
      </trkpt>
      <trkpt lat="47.31103" lon="-2.33498">
        <ele>77.800003051758</ele>
        <time>2021-07-22T09:26:33.000Z</time>
      </trkpt>
      <trkpt lat="47.31105" lon="-2.33505">
        <ele>77.800003051758</ele>
        <time>2021-07-22T09:26:34.000Z</time>
      </trkpt>
      <trkpt lat="47.31109" lon="-2.33524">
        <ele>77.800003051758</ele>
        <time>2021-07-22T09:26:37.000Z</time>
      </trkpt>
      <trkpt lat="47.31112" lon="-2.33538">
        <ele>77.800003051758</ele>
        <time>2021-07-22T09:26:39.000Z</time>
      </trkpt>
      <trkpt lat="47.31117" lon="-2.33579">
        <ele>77.800003051758</ele>
        <time>2021-07-22T09:26:45.000Z</time>
      </trkpt>
      <trkpt lat="47.31114" lon="-2.33621">
        <ele>77.800003051758</ele>
        <time>2021-07-22T09:26:50.000Z</time>
      </trkpt>
      <trkpt lat="47.31108" lon="-2.33688">
        <ele>77.800003051758</ele>
        <time>2021-07-22T09:26:58.000Z</time>
      </trkpt>
      <trkpt lat="47.31099" lon="-2.33748">
        <ele>77.800003051758</ele>
        <time>2021-07-22T09:27:05.000Z</time>
      </trkpt>
      <trkpt lat="47.31087" lon="-2.33776">
        <ele>77.800003051758</ele>
        <time>2021-07-22T09:27:09.000Z</time>
      </trkpt>
      <trkpt lat="47.31084" lon="-2.33783">
        <ele>77.800003051758</ele>
        <time>2021-07-22T09:27:10.000Z</time>
      </trkpt>
      <trkpt lat="47.31073" lon="-2.33813">
        <ele>77.800003051758</ele>
        <time>2021-07-22T09:27:14.000Z</time>
      </trkpt>
      <trkpt lat="47.31071" lon="-2.33829">
        <ele>77.800003051758</ele>
        <time>2021-07-22T09:27:16.000Z</time>
      </trkpt>
      <trkpt lat="47.31067" lon="-2.33894">
        <ele>77.800003051758</ele>
        <time>2021-07-22T09:27:24.000Z</time>
      </trkpt>
      <trkpt lat="47.31067" lon="-2.33902">
        <ele>77.800003051758</ele>
        <time>2021-07-22T09:27:25.000Z</time>
      </trkpt>
      <trkpt lat="47.31063" lon="-2.33938">
        <ele>77.800003051758</ele>
        <time>2021-07-22T09:27:30.000Z</time>
      </trkpt>
      <trkpt lat="47.31049" lon="-2.3395">
        <ele>77.800003051758</ele>
        <time>2021-07-22T09:27:33.000Z</time>
      </trkpt>
      <trkpt lat="47.31029" lon="-2.33954">
        <ele>77.800003051758</ele>
        <time>2021-07-22T09:27:37.000Z</time>
      </trkpt>
      <trkpt lat="47.3102" lon="-2.33955">
        <ele>78.400001525879</ele>
        <time>2021-07-22T09:27:39.000Z</time>
      </trkpt>
      <trkpt lat="47.31015" lon="-2.33956">
        <ele>78.800003051758</ele>
        <time>2021-07-22T09:27:40.000Z</time>
      </trkpt>
      <trkpt lat="47.3101" lon="-2.33956">
        <ele>79.199996948242</ele>
        <time>2021-07-22T09:27:41.000Z</time>
      </trkpt>
      <trkpt lat="47.31005" lon="-2.33957">
        <ele>79.599998474121</ele>
        <time>2021-07-22T09:27:42.000Z</time>
      </trkpt>
      <trkpt lat="47.31001" lon="-2.33958">
        <ele>80</ele>
        <time>2021-07-22T09:27:43.000Z</time>
      </trkpt>
      <trkpt lat="47.30987" lon="-2.33958">
        <ele>80</ele>
        <time>2021-07-22T09:27:46.000Z</time>
      </trkpt>
      <trkpt lat="47.30953" lon="-2.33955">
        <ele>80</ele>
        <time>2021-07-22T09:27:53.000Z</time>
      </trkpt>
      <trkpt lat="47.30921" lon="-2.33949">
        <ele>80</ele>
        <time>2021-07-22T09:28:00.000Z</time>
      </trkpt>
      <trkpt lat="47.30883" lon="-2.33949">
        <ele>80</ele>
        <time>2021-07-22T09:28:08.000Z</time>
      </trkpt>
      <trkpt lat="47.30848" lon="-2.33954">
        <ele>80</ele>
        <time>2021-07-22T09:28:15.000Z</time>
      </trkpt>
      <trkpt lat="47.30816" lon="-2.33964">
        <ele>80</ele>
        <time>2021-07-22T09:28:22.000Z</time>
      </trkpt>
      <trkpt lat="47.30802" lon="-2.33968">
        <ele>80.599998474121</ele>
        <time>2021-07-22T09:28:25.000Z</time>
      </trkpt>
      <trkpt lat="47.30797" lon="-2.33969">
        <ele>81</ele>
        <time>2021-07-22T09:28:26.000Z</time>
      </trkpt>
      <trkpt lat="47.30792" lon="-2.33969">
        <ele>81.400001525879</ele>
        <time>2021-07-22T09:28:27.000Z</time>
      </trkpt>
      <trkpt lat="47.30787" lon="-2.33971">
        <ele>82.199996948242</ele>
        <time>2021-07-22T09:28:28.000Z</time>
      </trkpt>
      <trkpt lat="47.30783" lon="-2.33976">
        <ele>82.199996948242</ele>
        <time>2021-07-22T09:28:29.000Z</time>
      </trkpt>
      <trkpt lat="47.30782" lon="-2.33996">
        <ele>82.199996948242</ele>
        <time>2021-07-22T09:28:32.000Z</time>
      </trkpt>
      <trkpt lat="47.30781" lon="-2.34003">
        <ele>82.199996948242</ele>
        <time>2021-07-22T09:28:33.000Z</time>
      </trkpt>
      <trkpt lat="47.3078" lon="-2.34041">
        <ele>82.199996948242</ele>
        <time>2021-07-22T09:28:39.000Z</time>
      </trkpt>
      <trkpt lat="47.30781" lon="-2.34077">
        <ele>82.199996948242</ele>
        <time>2021-07-22T09:28:45.000Z</time>
      </trkpt>
      <trkpt lat="47.30778" lon="-2.34127">
        <ele>82.199996948242</ele>
        <time>2021-07-22T09:28:51.000Z</time>
      </trkpt>
      <trkpt lat="47.30774" lon="-2.34181">
        <ele>82.199996948242</ele>
        <time>2021-07-22T09:28:57.000Z</time>
      </trkpt>
      <trkpt lat="47.30772" lon="-2.34205">
        <ele>82.199996948242</ele>
        <time>2021-07-22T09:29:00.000Z</time>
      </trkpt>
      <trkpt lat="47.30769" lon="-2.34211">
        <ele>82.199996948242</ele>
        <time>2021-07-22T09:29:01.000Z</time>
      </trkpt>
      <trkpt lat="47.30757" lon="-2.34214">
        <ele>82.199996948242</ele>
        <time>2021-07-22T09:29:03.000Z</time>
      </trkpt>
      <trkpt lat="47.30751" lon="-2.34216">
        <ele>82.199996948242</ele>
        <time>2021-07-22T09:29:04.000Z</time>
      </trkpt>
      <trkpt lat="47.30731" lon="-2.34227">
        <ele>82.199996948242</ele>
        <time>2021-07-22T09:29:08.000Z</time>
      </trkpt>
      <trkpt lat="47.30731" lon="-2.34243">
        <ele>82.199996948242</ele>
        <time>2021-07-22T09:29:11.000Z</time>
      </trkpt>
      <trkpt lat="47.3073" lon="-2.34262">
        <ele>82.199996948242</ele>
        <time>2021-07-22T09:29:14.000Z</time>
      </trkpt>
      <trkpt lat="47.30727" lon="-2.34276">
        <ele>82.199996948242</ele>
        <time>2021-07-22T09:29:16.000Z</time>
      </trkpt>
      <trkpt lat="47.30718" lon="-2.34295">
        <ele>82.199996948242</ele>
        <time>2021-07-22T09:29:19.000Z</time>
      </trkpt>
      <trkpt lat="47.30711" lon="-2.34307">
        <ele>82.199996948242</ele>
        <time>2021-07-22T09:29:21.000Z</time>
      </trkpt>
      <trkpt lat="47.30699" lon="-2.3433">
        <ele>82.599998474121</ele>
        <time>2021-07-22T09:29:25.000Z</time>
      </trkpt>
      <trkpt lat="47.30696" lon="-2.34336">
        <ele>83</ele>
        <time>2021-07-22T09:29:26.000Z</time>
      </trkpt>
      <trkpt lat="47.30693" lon="-2.34342">
        <ele>83.400001525879</ele>
        <time>2021-07-22T09:29:27.000Z</time>
      </trkpt>
      <trkpt lat="47.30689" lon="-2.3435">
        <ele>83.800003051758</ele>
        <time>2021-07-22T09:29:28.000Z</time>
      </trkpt>
      <trkpt lat="47.30685" lon="-2.34357">
        <ele>84.199996948242</ele>
        <time>2021-07-22T09:29:29.000Z</time>
      </trkpt>
      <trkpt lat="47.30665" lon="-2.34389">
        <ele>84.199996948242</ele>
        <time>2021-07-22T09:29:34.000Z</time>
      </trkpt>
      <trkpt lat="47.30628" lon="-2.3444">
        <ele>84.199996948242</ele>
        <time>2021-07-22T09:29:42.000Z</time>
      </trkpt>
      <trkpt lat="47.30601" lon="-2.34483">
        <ele>84.199996948242</ele>
        <time>2021-07-22T09:29:48.000Z</time>
      </trkpt>
      <trkpt lat="47.30572" lon="-2.3454">
        <ele>84.199996948242</ele>
        <time>2021-07-22T09:29:55.000Z</time>
      </trkpt>
      <trkpt lat="47.30562" lon="-2.34554">
        <ele>84.199996948242</ele>
        <time>2021-07-22T09:29:57.000Z</time>
      </trkpt>
      <trkpt lat="47.30552" lon="-2.34569">
        <ele>84.199996948242</ele>
        <time>2021-07-22T09:29:59.000Z</time>
      </trkpt>
      <trkpt lat="47.30521" lon="-2.34611">
        <ele>84.199996948242</ele>
        <time>2021-07-22T09:30:05.000Z</time>
      </trkpt>
      <trkpt lat="47.30516" lon="-2.34618">
        <ele>84.199996948242</ele>
        <time>2021-07-22T09:30:06.000Z</time>
      </trkpt>
      <trkpt lat="47.30498" lon="-2.34648">
        <ele>84.199996948242</ele>
        <time>2021-07-22T09:30:10.000Z</time>
      </trkpt>
      <trkpt lat="47.30492" lon="-2.34654">
        <ele>84.199996948242</ele>
        <time>2021-07-22T09:30:11.000Z</time>
      </trkpt>
      <trkpt lat="47.3047" lon="-2.34678">
        <ele>84.199996948242</ele>
        <time>2021-07-22T09:30:15.000Z</time>
      </trkpt>
      <trkpt lat="47.30439" lon="-2.34705">
        <ele>84.199996948242</ele>
        <time>2021-07-22T09:30:21.000Z</time>
      </trkpt>
      <trkpt lat="47.30425" lon="-2.3472">
        <ele>84.199996948242</ele>
        <time>2021-07-22T09:30:24.000Z</time>
      </trkpt>
      <trkpt lat="47.30415" lon="-2.34727">
        <ele>84.199996948242</ele>
        <time>2021-07-22T09:30:26.000Z</time>
      </trkpt>
      <trkpt lat="47.30382" lon="-2.34747">
        <ele>84.199996948242</ele>
        <time>2021-07-22T09:30:32.000Z</time>
      </trkpt>
      <trkpt lat="47.30377" lon="-2.34751">
        <ele>84.199996948242</ele>
        <time>2021-07-22T09:30:33.000Z</time>
      </trkpt>
      <trkpt lat="47.3035" lon="-2.34771">
        <ele>84.199996948242</ele>
        <time>2021-07-22T09:30:38.000Z</time>
      </trkpt>
      <trkpt lat="47.30339" lon="-2.34782">
        <ele>84.199996948242</ele>
        <time>2021-07-22T09:30:40.000Z</time>
      </trkpt>
      <trkpt lat="47.3033" lon="-2.34797">
        <ele>84.199996948242</ele>
        <time>2021-07-22T09:30:42.000Z</time>
      </trkpt>
      <trkpt lat="47.30307" lon="-2.34834">
        <ele>84.199996948242</ele>
        <time>2021-07-22T09:30:47.000Z</time>
      </trkpt>
      <trkpt lat="47.30292" lon="-2.34852">
        <ele>84.199996948242</ele>
        <time>2021-07-22T09:30:50.000Z</time>
      </trkpt>
      <trkpt lat="47.3028" lon="-2.34859">
        <ele>84.199996948242</ele>
        <time>2021-07-22T09:30:52.000Z</time>
      </trkpt>
      <trkpt lat="47.30246" lon="-2.34878">
        <ele>84.199996948242</ele>
        <time>2021-07-22T09:30:58.000Z</time>
      </trkpt>
      <trkpt lat="47.30228" lon="-2.34894">
        <ele>84.199996948242</ele>
        <time>2021-07-22T09:31:01.000Z</time>
      </trkpt>
      <trkpt lat="47.30217" lon="-2.34904">
        <ele>84.199996948242</ele>
        <time>2021-07-22T09:31:03.000Z</time>
      </trkpt>
      <trkpt lat="47.30213" lon="-2.3491">
        <ele>84.199996948242</ele>
        <time>2021-07-22T09:31:04.000Z</time>
      </trkpt>
      <trkpt lat="47.3021" lon="-2.34928">
        <ele>84.199996948242</ele>
        <time>2021-07-22T09:31:06.000Z</time>
      </trkpt>
      <trkpt lat="47.3021" lon="-2.34948">
        <ele>83.800003051758</ele>
        <time>2021-07-22T09:31:08.000Z</time>
      </trkpt>
      <trkpt lat="47.3021" lon="-2.34959">
        <ele>83.400001525879</ele>
        <time>2021-07-22T09:31:09.000Z</time>
      </trkpt>
      <trkpt lat="47.3021" lon="-2.34969">
        <ele>83</ele>
        <time>2021-07-22T09:31:10.000Z</time>
      </trkpt>
      <trkpt lat="47.30209" lon="-2.3498">
        <ele>82.599998474121</ele>
        <time>2021-07-22T09:31:11.000Z</time>
      </trkpt>
      <trkpt lat="47.30208" lon="-2.3499">
        <ele>82.199996948242</ele>
        <time>2021-07-22T09:31:12.000Z</time>
      </trkpt>
      <trkpt lat="47.3021" lon="-2.35035">
        <ele>82.199996948242</ele>
        <time>2021-07-22T09:31:16.000Z</time>
      </trkpt>
      <trkpt lat="47.3021" lon="-2.35068">
        <ele>81.599998474121</ele>
        <time>2021-07-22T09:31:19.000Z</time>
      </trkpt>
      <trkpt lat="47.3021" lon="-2.35078">
        <ele>80.800003051758</ele>
        <time>2021-07-22T09:31:20.000Z</time>
      </trkpt>
      <trkpt lat="47.3021" lon="-2.35089">
        <ele>80.400001525879</ele>
        <time>2021-07-22T09:31:21.000Z</time>
      </trkpt>
      <trkpt lat="47.30209" lon="-2.351">
        <ele>79.800003051758</ele>
        <time>2021-07-22T09:31:22.000Z</time>
      </trkpt>
      <trkpt lat="47.30207" lon="-2.35162">
        <ele>79.800003051758</ele>
        <time>2021-07-22T09:31:28.000Z</time>
      </trkpt>
      <trkpt lat="47.30204" lon="-2.35168">
        <ele>79.400001525879</ele>
        <time>2021-07-22T09:31:29.000Z</time>
      </trkpt>
      <trkpt lat="47.30199" lon="-2.35171">
        <ele>79</ele>
        <time>2021-07-22T09:31:30.000Z</time>
      </trkpt>
      <trkpt lat="47.30194" lon="-2.35173">
        <ele>78.599998474121</ele>
        <time>2021-07-22T09:31:31.000Z</time>
      </trkpt>
      <trkpt lat="47.3019" lon="-2.35174">
        <ele>78.199996948242</ele>
        <time>2021-07-22T09:31:32.000Z</time>
      </trkpt>
      <trkpt lat="47.30186" lon="-2.35176">
        <ele>77.800003051758</ele>
        <time>2021-07-22T09:31:33.000Z</time>
      </trkpt>
      <trkpt lat="47.30174" lon="-2.35178">
        <ele>77.800003051758</ele>
        <time>2021-07-22T09:31:36.000Z</time>
      </trkpt>
      <trkpt lat="47.30166" lon="-2.35184">
        <ele>77.800003051758</ele>
        <time>2021-07-22T09:31:38.000Z</time>
      </trkpt>
      <trkpt lat="47.30153" lon="-2.35197">
        <ele>77.800003051758</ele>
        <time>2021-07-22T09:31:42.000Z</time>
      </trkpt>
      <trkpt lat="47.30146" lon="-2.35197">
        <ele>77.800003051758</ele>
        <time>2021-07-22T09:31:44.000Z</time>
      </trkpt>
      <trkpt lat="47.30137" lon="-2.35197">
        <ele>77.800003051758</ele>
        <time>2021-07-22T09:31:46.000Z</time>
      </trkpt>
      <trkpt lat="47.30133" lon="-2.35198">
        <ele>77.800003051758</ele>
        <time>2021-07-22T09:31:47.000Z</time>
      </trkpt>
      <trkpt lat="47.30112" lon="-2.35207">
        <ele>77.800003051758</ele>
        <time>2021-07-22T09:31:51.000Z</time>
      </trkpt>
      <trkpt lat="47.30079" lon="-2.35222">
        <ele>77.800003051758</ele>
        <time>2021-07-22T09:31:57.000Z</time>
      </trkpt>
      <trkpt lat="47.30074" lon="-2.35225">
        <ele>77.800003051758</ele>
        <time>2021-07-22T09:31:58.000Z</time>
      </trkpt>
      <trkpt lat="47.30054" lon="-2.35236">
        <ele>77.800003051758</ele>
        <time>2021-07-22T09:32:02.000Z</time>
      </trkpt>
      <trkpt lat="47.30034" lon="-2.35247">
        <ele>77.400001525879</ele>
        <time>2021-07-22T09:32:06.000Z</time>
      </trkpt>
      <trkpt lat="47.30031" lon="-2.35249">
        <ele>77</ele>
        <time>2021-07-22T09:32:07.000Z</time>
      </trkpt>
      <trkpt lat="47.30029" lon="-2.35251">
        <ele>76.599998474121</ele>
        <time>2021-07-22T09:32:08.000Z</time>
      </trkpt>
      <trkpt lat="47.30028" lon="-2.35251">
        <ele>76.199996948242</ele>
        <time>2021-07-22T09:32:09.000Z</time>
      </trkpt>
      <trkpt lat="47.30026" lon="-2.35251">
        <ele>75.800003051758</ele>
        <time>2021-07-22T09:32:10.000Z</time>
      </trkpt>
      <trkpt lat="47.3002" lon="-2.35254">
        <ele>75.800003051758</ele>
        <time>2021-07-22T09:32:12.000Z</time>
      </trkpt>
      <trkpt lat="47.30003" lon="-2.35261">
        <ele>75.800003051758</ele>
        <time>2021-07-22T09:32:19.000Z</time>
      </trkpt>
      <trkpt lat="47.29999" lon="-2.35261">
        <ele>75.800003051758</ele>
        <time>2021-07-22T09:32:22.000Z</time>
      </trkpt>
      <trkpt lat="47.29996" lon="-2.35264">
        <ele>75.800003051758</ele>
        <time>2021-07-22T09:35:52.000Z</time>
      </trkpt>
      <trkpt lat="47.29987" lon="-2.35277">
        <ele>75.800003051758</ele>
        <time>2021-07-22T09:35:57.000Z</time>
      </trkpt>
      <trkpt lat="47.29969" lon="-2.35299">
        <ele>75.800003051758</ele>
        <time>2021-07-22T09:36:03.000Z</time>
      </trkpt>
      <trkpt lat="47.29948" lon="-2.35325">
        <ele>75.800003051758</ele>
        <time>2021-07-22T09:36:09.000Z</time>
      </trkpt>
      <trkpt lat="47.29918" lon="-2.35363">
        <ele>75.800003051758</ele>
        <time>2021-07-22T09:36:17.000Z</time>
      </trkpt>
      <trkpt lat="47.2988" lon="-2.35407">
        <ele>75.800003051758</ele>
        <time>2021-07-22T09:36:26.000Z</time>
      </trkpt>
      <trkpt lat="47.2985" lon="-2.35437">
        <ele>75.800003051758</ele>
        <time>2021-07-22T09:36:33.000Z</time>
      </trkpt>
      <trkpt lat="47.2983" lon="-2.35462">
        <ele>75.800003051758</ele>
        <time>2021-07-22T09:36:38.000Z</time>
      </trkpt>
      <trkpt lat="47.29827" lon="-2.35469">
        <ele>75.800003051758</ele>
        <time>2021-07-22T09:36:39.000Z</time>
      </trkpt>
      <trkpt lat="47.29829" lon="-2.35493">
        <ele>75.800003051758</ele>
        <time>2021-07-22T09:36:42.000Z</time>
      </trkpt>
      <trkpt lat="47.29835" lon="-2.35513">
        <ele>75.800003051758</ele>
        <time>2021-07-22T09:36:45.000Z</time>
      </trkpt>
      <trkpt lat="47.29837" lon="-2.35519">
        <ele>75.800003051758</ele>
        <time>2021-07-22T09:36:46.000Z</time>
      </trkpt>
      <trkpt lat="47.2985" lon="-2.3556">
        <ele>76.199996948242</ele>
        <time>2021-07-22T09:36:52.000Z</time>
      </trkpt>
      <trkpt lat="47.29852" lon="-2.35566">
        <ele>76.599998474121</ele>
        <time>2021-07-22T09:36:53.000Z</time>
      </trkpt>
      <trkpt lat="47.29853" lon="-2.35573">
        <ele>77</ele>
        <time>2021-07-22T09:36:54.000Z</time>
      </trkpt>
      <trkpt lat="47.29855" lon="-2.3558">
        <ele>77.400001525879</ele>
        <time>2021-07-22T09:36:55.000Z</time>
      </trkpt>
      <trkpt lat="47.29857" lon="-2.35586">
        <ele>78</ele>
        <time>2021-07-22T09:36:56.000Z</time>
      </trkpt>
      <trkpt lat="47.29868" lon="-2.35627">
        <ele>78</ele>
        <time>2021-07-22T09:37:02.000Z</time>
      </trkpt>
      <trkpt lat="47.29875" lon="-2.3566">
        <ele>78.400001525879</ele>
        <time>2021-07-22T09:37:07.000Z</time>
      </trkpt>
      <trkpt lat="47.29876" lon="-2.35667">
        <ele>78.800003051758</ele>
        <time>2021-07-22T09:37:08.000Z</time>
      </trkpt>
      <trkpt lat="47.29877" lon="-2.35674">
        <ele>79.199996948242</ele>
        <time>2021-07-22T09:37:09.000Z</time>
      </trkpt>
      <trkpt lat="47.29878" lon="-2.35681">
        <ele>79.599998474121</ele>
        <time>2021-07-22T09:37:10.000Z</time>
      </trkpt>
      <trkpt lat="47.2988" lon="-2.35688">
        <ele>80</ele>
        <time>2021-07-22T09:37:11.000Z</time>
      </trkpt>
      <trkpt lat="47.29883" lon="-2.35707">
        <ele>80</ele>
        <time>2021-07-22T09:37:14.000Z</time>
      </trkpt>
      <trkpt lat="47.29886" lon="-2.35719">
        <ele>80</ele>
        <time>2021-07-22T09:37:16.000Z</time>
      </trkpt>
      <trkpt lat="47.29894" lon="-2.35758">
        <ele>80</ele>
        <time>2021-07-22T09:37:24.000Z</time>
      </trkpt>
      <trkpt lat="47.29881" lon="-2.35772">
        <ele>80</ele>
        <time>2021-07-22T09:37:28.000Z</time>
      </trkpt>
      <trkpt lat="47.29871" lon="-2.35775">
        <ele>80</ele>
        <time>2021-07-22T09:37:30.000Z</time>
      </trkpt>
      <trkpt lat="47.29851" lon="-2.35783">
        <ele>80</ele>
        <time>2021-07-22T09:37:34.000Z</time>
      </trkpt>
      <trkpt lat="47.2983" lon="-2.35791">
        <ele>80</ele>
        <time>2021-07-22T09:37:38.000Z</time>
      </trkpt>
      <trkpt lat="47.29821" lon="-2.35794">
        <ele>80</ele>
        <time>2021-07-22T09:37:40.000Z</time>
      </trkpt>
      <trkpt lat="47.29808" lon="-2.35798">
        <ele>80.599998474121</ele>
        <time>2021-07-22T09:37:43.000Z</time>
      </trkpt>
      <trkpt lat="47.29804" lon="-2.35799">
        <ele>81</ele>
        <time>2021-07-22T09:37:44.000Z</time>
      </trkpt>
      <trkpt lat="47.29799" lon="-2.358">
        <ele>81.400001525879</ele>
        <time>2021-07-22T09:37:45.000Z</time>
      </trkpt>
      <trkpt lat="47.29795" lon="-2.35802">
        <ele>81.800003051758</ele>
        <time>2021-07-22T09:37:46.000Z</time>
      </trkpt>
      <trkpt lat="47.2979" lon="-2.35803">
        <ele>82.199996948242</ele>
        <time>2021-07-22T09:37:47.000Z</time>
      </trkpt>
      <trkpt lat="47.29757" lon="-2.35815">
        <ele>82.199996948242</ele>
        <time>2021-07-22T09:37:54.000Z</time>
      </trkpt>
      <trkpt lat="47.29724" lon="-2.35831">
        <ele>82.199996948242</ele>
        <time>2021-07-22T09:38:00.000Z</time>
      </trkpt>
      <trkpt lat="47.29687" lon="-2.35848">
        <ele>82.199996948242</ele>
        <time>2021-07-22T09:38:05.000Z</time>
      </trkpt>
      <trkpt lat="47.29673" lon="-2.35854">
        <ele>82.199996948242</ele>
        <time>2021-07-22T09:38:07.000Z</time>
      </trkpt>
      <trkpt lat="47.29668" lon="-2.35859">
        <ele>82.199996948242</ele>
        <time>2021-07-22T09:38:08.000Z</time>
      </trkpt>
      <trkpt lat="47.29663" lon="-2.35864">
        <ele>81.800003051758</ele>
        <time>2021-07-22T09:38:09.000Z</time>
      </trkpt>
      <trkpt lat="47.29657" lon="-2.35869">
        <ele>81.400001525879</ele>
        <time>2021-07-22T09:38:10.000Z</time>
      </trkpt>
      <trkpt lat="47.29651" lon="-2.35872">
        <ele>80.800003051758</ele>
        <time>2021-07-22T09:38:11.000Z</time>
      </trkpt>
      <trkpt lat="47.29645" lon="-2.35875">
        <ele>80.400001525879</ele>
        <time>2021-07-22T09:38:12.000Z</time>
      </trkpt>
      <trkpt lat="47.29639" lon="-2.35878">
        <ele>79.800003051758</ele>
        <time>2021-07-22T09:38:13.000Z</time>
      </trkpt>
      <trkpt lat="47.29599" lon="-2.35899">
        <ele>79.800003051758</ele>
        <time>2021-07-22T09:38:20.000Z</time>
      </trkpt>
      <trkpt lat="47.29583" lon="-2.35909">
        <ele>79.800003051758</ele>
        <time>2021-07-22T09:38:23.000Z</time>
      </trkpt>
      <trkpt lat="47.29572" lon="-2.35914">
        <ele>79.800003051758</ele>
        <time>2021-07-22T09:38:25.000Z</time>
      </trkpt>
      <trkpt lat="47.29537" lon="-2.35934">
        <ele>79.800003051758</ele>
        <time>2021-07-22T09:38:32.000Z</time>
      </trkpt>
      <trkpt lat="47.29519" lon="-2.35943">
        <ele>79.800003051758</ele>
        <time>2021-07-22T09:38:36.000Z</time>
      </trkpt>
      <trkpt lat="47.29511" lon="-2.35942">
        <ele>79.800003051758</ele>
        <time>2021-07-22T09:38:38.000Z</time>
      </trkpt>
      <trkpt lat="47.29505" lon="-2.35927">
        <ele>79.800003051758</ele>
        <time>2021-07-22T09:38:41.000Z</time>
      </trkpt>
      <trkpt lat="47.29502" lon="-2.35913">
        <ele>79.800003051758</ele>
        <time>2021-07-22T09:38:44.000Z</time>
      </trkpt>
      <trkpt lat="47.295" lon="-2.35905">
        <ele>79.800003051758</ele>
        <time>2021-07-22T09:38:46.000Z</time>
      </trkpt>
      <trkpt lat="47.29496" lon="-2.359">
        <ele>79.800003051758</ele>
        <time>2021-07-22T09:38:48.000Z</time>
      </trkpt>
      <trkpt lat="47.29489" lon="-2.35901">
        <ele>79.800003051758</ele>
        <time>2021-07-22T09:38:50.000Z</time>
      </trkpt>
      <trkpt lat="47.29464" lon="-2.35903">
        <ele>79.800003051758</ele>
        <time>2021-07-22T09:38:58.000Z</time>
      </trkpt>
      <trkpt lat="47.29449" lon="-2.35909">
        <ele>79.400001525879</ele>
        <time>2021-07-22T09:39:04.000Z</time>
      </trkpt>
      <trkpt lat="47.29447" lon="-2.35911">
        <ele>79</ele>
        <time>2021-07-22T09:39:05.000Z</time>
      </trkpt>
      <trkpt lat="47.29444" lon="-2.35914">
        <ele>78.599998474121</ele>
        <time>2021-07-22T09:39:06.000Z</time>
      </trkpt>
      <trkpt lat="47.29442" lon="-2.35916">
        <ele>78.199996948242</ele>
        <time>2021-07-22T09:39:07.000Z</time>
      </trkpt>
      <trkpt lat="47.29438" lon="-2.35916">
        <ele>77.800003051758</ele>
        <time>2021-07-22T09:39:08.000Z</time>
      </trkpt>
      <trkpt lat="47.29435" lon="-2.35913">
        <ele>77.800003051758</ele>
        <time>2021-07-22T09:39:09.000Z</time>
      </trkpt>
      <trkpt lat="47.29428" lon="-2.35898">
        <ele>77.800003051758</ele>
        <time>2021-07-22T09:39:12.000Z</time>
      </trkpt>
      <trkpt lat="47.29414" lon="-2.35881">
        <ele>77.800003051758</ele>
        <time>2021-07-22T09:39:16.000Z</time>
      </trkpt>
      <trkpt lat="47.29407" lon="-2.35872">
        <ele>77.800003051758</ele>
        <time>2021-07-22T09:39:18.000Z</time>
      </trkpt>
      <trkpt lat="47.2938" lon="-2.35844">
        <ele>77.800003051758</ele>
        <time>2021-07-22T09:39:25.000Z</time>
      </trkpt>
      <trkpt lat="47.29363" lon="-2.35826">
        <ele>77.800003051758</ele>
        <time>2021-07-22T09:39:29.000Z</time>
      </trkpt>
      <trkpt lat="47.29349" lon="-2.35815">
        <ele>77.800003051758</ele>
        <time>2021-07-22T09:39:32.000Z</time>
      </trkpt>
      <trkpt lat="47.29311" lon="-2.35782">
        <ele>77.800003051758</ele>
        <time>2021-07-22T09:39:40.000Z</time>
      </trkpt>
      <trkpt lat="47.29286" lon="-2.35761">
        <ele>78.199996948242</ele>
        <time>2021-07-22T09:39:45.000Z</time>
      </trkpt>
      <trkpt lat="47.29281" lon="-2.35757">
        <ele>78.800003051758</ele>
        <time>2021-07-22T09:39:46.000Z</time>
      </trkpt>
      <trkpt lat="47.29277" lon="-2.35753">
        <ele>79.199996948242</ele>
        <time>2021-07-22T09:39:47.000Z</time>
      </trkpt>
      <trkpt lat="47.29272" lon="-2.35749">
        <ele>79.599998474121</ele>
        <time>2021-07-22T09:39:48.000Z</time>
      </trkpt>
      <trkpt lat="47.29268" lon="-2.35745">
        <ele>80</ele>
        <time>2021-07-22T09:39:49.000Z</time>
      </trkpt>
      <trkpt lat="47.29255" lon="-2.35735">
        <ele>80</ele>
        <time>2021-07-22T09:39:52.000Z</time>
      </trkpt>
      <trkpt lat="47.29248" lon="-2.35744">
        <ele>80</ele>
        <time>2021-07-22T09:39:54.000Z</time>
      </trkpt>
      <trkpt lat="47.29229" lon="-2.35773">
        <ele>80</ele>
        <time>2021-07-22T09:39:59.000Z</time>
      </trkpt>
      <trkpt lat="47.29225" lon="-2.35778">
        <ele>80</ele>
        <time>2021-07-22T09:40:00.000Z</time>
      </trkpt>
      <trkpt lat="47.29219" lon="-2.35783">
        <ele>80</ele>
        <time>2021-07-22T09:40:01.000Z</time>
      </trkpt>
      <trkpt lat="47.29193" lon="-2.35806">
        <ele>80</ele>
        <time>2021-07-22T09:40:06.000Z</time>
      </trkpt>
      <trkpt lat="47.29153" lon="-2.35834">
        <ele>80</ele>
        <time>2021-07-22T09:40:13.000Z</time>
      </trkpt>
      <trkpt lat="47.29118" lon="-2.35871">
        <ele>80</ele>
        <time>2021-07-22T09:40:20.000Z</time>
      </trkpt>
      <trkpt lat="47.29081" lon="-2.35917">
        <ele>80</ele>
        <time>2021-07-22T09:40:28.000Z</time>
      </trkpt>
      <trkpt lat="47.29041" lon="-2.35962">
        <ele>80</ele>
        <time>2021-07-22T09:40:36.000Z</time>
      </trkpt>
      <trkpt lat="47.28993" lon="-2.3601">
        <ele>80</ele>
        <time>2021-07-22T09:40:45.000Z</time>
      </trkpt>
      <trkpt lat="47.28945" lon="-2.36053">
        <ele>80</ele>
        <time>2021-07-22T09:40:54.000Z</time>
      </trkpt>
      <trkpt lat="47.289" lon="-2.36087">
        <ele>80</ele>
        <time>2021-07-22T09:41:02.000Z</time>
      </trkpt>
      <trkpt lat="47.28864" lon="-2.36123">
        <ele>80</ele>
        <time>2021-07-22T09:41:09.000Z</time>
      </trkpt>
      <trkpt lat="47.28831" lon="-2.36163">
        <ele>80</ele>
        <time>2021-07-22T09:41:16.000Z</time>
      </trkpt>
      <trkpt lat="47.28817" lon="-2.3618">
        <ele>80</ele>
        <time>2021-07-22T09:41:19.000Z</time>
      </trkpt>
      <trkpt lat="47.28807" lon="-2.36188">
        <ele>80</ele>
        <time>2021-07-22T09:41:21.000Z</time>
      </trkpt>
      <trkpt lat="47.28772" lon="-2.36212">
        <ele>80</ele>
        <time>2021-07-22T09:41:28.000Z</time>
      </trkpt>
      <trkpt lat="47.2876" lon="-2.3622">
        <ele>80</ele>
        <time>2021-07-22T09:41:31.000Z</time>
      </trkpt>
      <trkpt lat="47.28753" lon="-2.36223">
        <ele>80</ele>
        <time>2021-07-22T09:41:33.000Z</time>
      </trkpt>
      <trkpt lat="47.28747" lon="-2.36226">
        <ele>80</ele>
        <time>2021-07-22T09:41:35.000Z</time>
      </trkpt>
      <trkpt lat="47.28744" lon="-2.36227">
        <ele>80</ele>
        <time>2021-07-22T09:41:37.000Z</time>
      </trkpt>
      <trkpt lat="47.28743" lon="-2.36227">
        <ele>80</ele>
        <time>2021-07-22T09:41:38.000Z</time>
      </trkpt>
      <trkpt lat="47.28741" lon="-2.36229">
        <ele>80</ele>
        <time>2021-07-22T09:42:36.000Z</time>
      </trkpt>
      <trkpt lat="47.28738" lon="-2.36233">
        <ele>80</ele>
        <time>2021-07-22T09:42:38.000Z</time>
      </trkpt>
      <trkpt lat="47.28727" lon="-2.36247">
        <ele>80</ele>
        <time>2021-07-22T09:42:43.000Z</time>
      </trkpt>
      <trkpt lat="47.28718" lon="-2.36261">
        <ele>80</ele>
        <time>2021-07-22T09:42:49.000Z</time>
      </trkpt>
      <trkpt lat="47.28701" lon="-2.36275">
        <ele>80.400001525879</ele>
        <time>2021-07-22T09:42:56.000Z</time>
      </trkpt>
      <trkpt lat="47.28698" lon="-2.36277">
        <ele>80.800003051758</ele>
        <time>2021-07-22T09:42:57.000Z</time>
      </trkpt>
      <trkpt lat="47.28695" lon="-2.36278">
        <ele>81.199996948242</ele>
        <time>2021-07-22T09:42:58.000Z</time>
      </trkpt>
      <trkpt lat="47.28692" lon="-2.36279">
        <ele>81.599998474121</ele>
        <time>2021-07-22T09:42:59.000Z</time>
      </trkpt>
      <trkpt lat="47.28689" lon="-2.3628">
        <ele>82</ele>
        <time>2021-07-22T09:43:00.000Z</time>
      </trkpt>
      <trkpt lat="47.28684" lon="-2.36282">
        <ele>82</ele>
        <time>2021-07-22T09:43:02.000Z</time>
      </trkpt>
      <trkpt lat="47.28673" lon="-2.36274">
        <ele>82</ele>
        <time>2021-07-22T09:43:07.000Z</time>
      </trkpt>
      <trkpt lat="47.28672" lon="-2.36253">
        <ele>82</ele>
        <time>2021-07-22T09:43:12.000Z</time>
      </trkpt>
      <trkpt lat="47.28672" lon="-2.36236">
        <ele>82.599998474121</ele>
        <time>2021-07-22T09:43:15.000Z</time>
      </trkpt>
      <trkpt lat="47.28672" lon="-2.3623">
        <ele>83.400001525879</ele>
        <time>2021-07-22T09:43:16.000Z</time>
      </trkpt>
      <trkpt lat="47.28671" lon="-2.36225">
        <ele>84</ele>
        <time>2021-07-22T09:43:17.000Z</time>
      </trkpt>
      <trkpt lat="47.28671" lon="-2.36219">
        <ele>84.400001525879</ele>
        <time>2021-07-22T09:43:18.000Z</time>
      </trkpt>
      <trkpt lat="47.28662" lon="-2.36192">
        <ele>84.400001525879</ele>
        <time>2021-07-22T09:43:24.000Z</time>
      </trkpt>
      <trkpt lat="47.28645" lon="-2.36176">
        <ele>84.400001525879</ele>
        <time>2021-07-22T09:43:29.000Z</time>
      </trkpt>
      <trkpt lat="47.28642" lon="-2.36173">
        <ele>84.800003051758</ele>
        <time>2021-07-22T09:43:30.000Z</time>
      </trkpt>
      <trkpt lat="47.28639" lon="-2.3617">
        <ele>85.400001525879</ele>
        <time>2021-07-22T09:43:31.000Z</time>
      </trkpt>
      <trkpt lat="47.28636" lon="-2.36165">
        <ele>85.800003051758</ele>
        <time>2021-07-22T09:43:32.000Z</time>
      </trkpt>
      <trkpt lat="47.28634" lon="-2.36159">
        <ele>86.400001525879</ele>
        <time>2021-07-22T09:43:33.000Z</time>
      </trkpt>
      <trkpt lat="47.28631" lon="-2.36155">
        <ele>86.800003051758</ele>
        <time>2021-07-22T09:43:34.000Z</time>
      </trkpt>
      <trkpt lat="47.28623" lon="-2.36148">
        <ele>86.800003051758</ele>
        <time>2021-07-22T09:43:37.000Z</time>
      </trkpt>
      <trkpt lat="47.28621" lon="-2.36148">
        <ele>86.800003051758</ele>
        <time>2021-07-22T09:43:38.000Z</time>
      </trkpt>
      <trkpt lat="47.28613" lon="-2.36152">
        <ele>86.800003051758</ele>
        <time>2021-07-22T09:43:41.000Z</time>
      </trkpt>
      <trkpt lat="47.28604" lon="-2.36157">
        <ele>86.800003051758</ele>
        <time>2021-07-22T09:43:44.000Z</time>
      </trkpt>
      <trkpt lat="47.28589" lon="-2.36157">
        <ele>87.199996948242</ele>
        <time>2021-07-22T09:43:48.000Z</time>
      </trkpt>
      <trkpt lat="47.28586" lon="-2.36157">
        <ele>87.599998474121</ele>
        <time>2021-07-22T09:43:49.000Z</time>
      </trkpt>
      <trkpt lat="47.28582" lon="-2.36156">
        <ele>88</ele>
        <time>2021-07-22T09:43:50.000Z</time>
      </trkpt>
      <trkpt lat="47.28579" lon="-2.36155">
        <ele>88.400001525879</ele>
        <time>2021-07-22T09:43:51.000Z</time>
      </trkpt>
      <trkpt lat="47.28575" lon="-2.36154">
        <ele>88.800003051758</ele>
        <time>2021-07-22T09:43:52.000Z</time>
      </trkpt>
      <trkpt lat="47.28566" lon="-2.36153">
        <ele>88.800003051758</ele>
        <time>2021-07-22T09:43:54.000Z</time>
      </trkpt>
      <trkpt lat="47.28548" lon="-2.36164">
        <ele>88.400001525879</ele>
        <time>2021-07-22T09:43:58.000Z</time>
      </trkpt>
      <trkpt lat="47.28543" lon="-2.36164">
        <ele>87.800003051758</ele>
        <time>2021-07-22T09:43:59.000Z</time>
      </trkpt>
      <trkpt lat="47.28537" lon="-2.36163">
        <ele>87.400001525879</ele>
        <time>2021-07-22T09:44:00.000Z</time>
      </trkpt>
      <trkpt lat="47.28531" lon="-2.36162">
        <ele>86.800003051758</ele>
        <time>2021-07-22T09:44:01.000Z</time>
      </trkpt>
      <trkpt lat="47.28525" lon="-2.36161">
        <ele>86</ele>
        <time>2021-07-22T09:44:02.000Z</time>
      </trkpt>
      <trkpt lat="47.28518" lon="-2.36158">
        <ele>85.400001525879</ele>
        <time>2021-07-22T09:44:03.000Z</time>
      </trkpt>
      <trkpt lat="47.28512" lon="-2.36155">
        <ele>84.800003051758</ele>
        <time>2021-07-22T09:44:04.000Z</time>
      </trkpt>
      <trkpt lat="47.28505" lon="-2.36152">
        <ele>83.599998474121</ele>
        <time>2021-07-22T09:44:05.000Z</time>
      </trkpt>
      <trkpt lat="47.28499" lon="-2.36151">
        <ele>83</ele>
        <time>2021-07-22T09:44:06.000Z</time>
      </trkpt>
      <trkpt lat="47.28493" lon="-2.36152">
        <ele>82.599998474121</ele>
        <time>2021-07-22T09:44:07.000Z</time>
      </trkpt>
      <trkpt lat="47.28487" lon="-2.36156">
        <ele>82</ele>
        <time>2021-07-22T09:44:08.000Z</time>
      </trkpt>
      <trkpt lat="47.28482" lon="-2.36161">
        <ele>81.400001525879</ele>
        <time>2021-07-22T09:44:09.000Z</time>
      </trkpt>
      <trkpt lat="47.28478" lon="-2.36167">
        <ele>80.800003051758</ele>
        <time>2021-07-22T09:44:10.000Z</time>
      </trkpt>
      <trkpt lat="47.28474" lon="-2.36174">
        <ele>80.199996948242</ele>
        <time>2021-07-22T09:44:11.000Z</time>
      </trkpt>
      <trkpt lat="47.2847" lon="-2.3618">
        <ele>79.599998474121</ele>
        <time>2021-07-22T09:44:12.000Z</time>
      </trkpt>
      <trkpt lat="47.28465" lon="-2.36187">
        <ele>79.199996948242</ele>
        <time>2021-07-22T09:44:13.000Z</time>
      </trkpt>
      <trkpt lat="47.28461" lon="-2.36192">
        <ele>78.800003051758</ele>
        <time>2021-07-22T09:44:14.000Z</time>
      </trkpt>
      <trkpt lat="47.28457" lon="-2.36197">
        <ele>78.199996948242</ele>
        <time>2021-07-22T09:44:15.000Z</time>
      </trkpt>
      <trkpt lat="47.28454" lon="-2.36202">
        <ele>77.800003051758</ele>
        <time>2021-07-22T09:44:16.000Z</time>
      </trkpt>
      <trkpt lat="47.28452" lon="-2.36207">
        <ele>77.400001525879</ele>
        <time>2021-07-22T09:44:17.000Z</time>
      </trkpt>
      <trkpt lat="47.28452" lon="-2.36214">
        <ele>77</ele>
        <time>2021-07-22T09:44:18.000Z</time>
      </trkpt>
      <trkpt lat="47.28453" lon="-2.3622">
        <ele>76.599998474121</ele>
        <time>2021-07-22T09:44:19.000Z</time>
      </trkpt>
      <trkpt lat="47.28454" lon="-2.36226">
        <ele>76</ele>
        <time>2021-07-22T09:44:20.000Z</time>
      </trkpt>
      <trkpt lat="47.28456" lon="-2.36231">
        <ele>75.599998474121</ele>
        <time>2021-07-22T09:44:21.000Z</time>
      </trkpt>
      <trkpt lat="47.28457" lon="-2.36236">
        <ele>75.199996948242</ele>
        <time>2021-07-22T09:44:22.000Z</time>
      </trkpt>
      <trkpt lat="47.28462" lon="-2.36265">
        <ele>75.199996948242</ele>
        <time>2021-07-22T09:44:26.000Z</time>
      </trkpt>
      <trkpt lat="47.28462" lon="-2.36283">
        <ele>75.199996948242</ele>
        <time>2021-07-22T09:44:29.000Z</time>
      </trkpt>
      <trkpt lat="47.28459" lon="-2.36286">
        <ele>75.199996948242</ele>
        <time>2021-07-22T09:44:30.000Z</time>
      </trkpt>
      <trkpt lat="47.28445" lon="-2.36289">
        <ele>75.199996948242</ele>
        <time>2021-07-22T09:44:34.000Z</time>
      </trkpt>
      <trkpt lat="47.28437" lon="-2.36285">
        <ele>75.199996948242</ele>
        <time>2021-07-22T09:44:36.000Z</time>
      </trkpt>
      <trkpt lat="47.28428" lon="-2.36281">
        <ele>74.800003051758</ele>
        <time>2021-07-22T09:44:38.000Z</time>
      </trkpt>
      <trkpt lat="47.28423" lon="-2.36279">
        <ele>74.400001525879</ele>
        <time>2021-07-22T09:44:39.000Z</time>
      </trkpt>
      <trkpt lat="47.28418" lon="-2.36276">
        <ele>74</ele>
        <time>2021-07-22T09:44:40.000Z</time>
      </trkpt>
      <trkpt lat="47.28412" lon="-2.36274">
        <ele>73.400001525879</ele>
        <time>2021-07-22T09:44:41.000Z</time>
      </trkpt>
      <trkpt lat="47.28406" lon="-2.36272">
        <ele>73</ele>
        <time>2021-07-22T09:44:42.000Z</time>
      </trkpt>
      <trkpt lat="47.28394" lon="-2.36267">
        <ele>73</ele>
        <time>2021-07-22T09:44:44.000Z</time>
      </trkpt>
      <trkpt lat="47.2838" lon="-2.36263">
        <ele>72.599998474121</ele>
        <time>2021-07-22T09:44:46.000Z</time>
      </trkpt>
      <trkpt lat="47.28374" lon="-2.36262">
        <ele>72.199996948242</ele>
        <time>2021-07-22T09:44:47.000Z</time>
      </trkpt>
      <trkpt lat="47.28367" lon="-2.36259">
        <ele>71.800003051758</ele>
        <time>2021-07-22T09:44:48.000Z</time>
      </trkpt>
      <trkpt lat="47.2836" lon="-2.36257">
        <ele>71.400001525879</ele>
        <time>2021-07-22T09:44:49.000Z</time>
      </trkpt>
      <trkpt lat="47.28353" lon="-2.36255">
        <ele>71</ele>
        <time>2021-07-22T09:44:50.000Z</time>
      </trkpt>
      <trkpt lat="47.28346" lon="-2.36253">
        <ele>70.599998474121</ele>
        <time>2021-07-22T09:44:51.000Z</time>
      </trkpt>
      <trkpt lat="47.28338" lon="-2.36252">
        <ele>70.199996948242</ele>
        <time>2021-07-22T09:44:52.000Z</time>
      </trkpt>
      <trkpt lat="47.28331" lon="-2.36249">
        <ele>69.800003051758</ele>
        <time>2021-07-22T09:44:53.000Z</time>
      </trkpt>
      <trkpt lat="47.28325" lon="-2.36247">
        <ele>69.400001525879</ele>
        <time>2021-07-22T09:44:54.000Z</time>
      </trkpt>
      <trkpt lat="47.2832" lon="-2.36246">
        <ele>69</ele>
        <time>2021-07-22T09:44:55.000Z</time>
      </trkpt>
      <trkpt lat="47.28314" lon="-2.36245">
        <ele>69</ele>
        <time>2021-07-22T09:44:56.000Z</time>
      </trkpt>
      <trkpt lat="47.28303" lon="-2.36243">
        <ele>68.599998474121</ele>
        <time>2021-07-22T09:44:58.000Z</time>
      </trkpt>
      <trkpt lat="47.28298" lon="-2.36243">
        <ele>68.199996948242</ele>
        <time>2021-07-22T09:44:59.000Z</time>
      </trkpt>
      <trkpt lat="47.28292" lon="-2.36242">
        <ele>67.599998474121</ele>
        <time>2021-07-22T09:45:00.000Z</time>
      </trkpt>
      <trkpt lat="47.28287" lon="-2.3624">
        <ele>67.199996948242</ele>
        <time>2021-07-22T09:45:01.000Z</time>
      </trkpt>
      <trkpt lat="47.28281" lon="-2.36236">
        <ele>66.800003051758</ele>
        <time>2021-07-22T09:45:02.000Z</time>
      </trkpt>
      <trkpt lat="47.28269" lon="-2.36219">
        <ele>66.800003051758</ele>
        <time>2021-07-22T09:45:05.000Z</time>
      </trkpt>
      <trkpt lat="47.28266" lon="-2.36213">
        <ele>66.800003051758</ele>
        <time>2021-07-22T09:45:06.000Z</time>
      </trkpt>
      <trkpt lat="47.28249" lon="-2.3617">
        <ele>66.800003051758</ele>
        <time>2021-07-22T09:45:13.000Z</time>
      </trkpt>
      <trkpt lat="47.28241" lon="-2.36142">
        <ele>66.800003051758</ele>
        <time>2021-07-22T09:45:18.000Z</time>
      </trkpt>
      <trkpt lat="47.28238" lon="-2.36136">
        <ele>66.800003051758</ele>
        <time>2021-07-22T09:45:20.000Z</time>
      </trkpt>
      <trkpt lat="47.28232" lon="-2.36126">
        <ele>66.800003051758</ele>
        <time>2021-07-22T09:45:23.000Z</time>
      </trkpt>
      <trkpt lat="47.28228" lon="-2.3612">
        <ele>66.800003051758</ele>
        <time>2021-07-22T09:45:25.000Z</time>
      </trkpt>
      <trkpt lat="47.28223" lon="-2.3611">
        <ele>66.800003051758</ele>
        <time>2021-07-22T09:45:27.000Z</time>
      </trkpt>
      <trkpt lat="47.2822" lon="-2.36104">
        <ele>66.800003051758</ele>
        <time>2021-07-22T09:45:28.000Z</time>
      </trkpt>
      <trkpt lat="47.28209" lon="-2.36076">
        <ele>66.800003051758</ele>
        <time>2021-07-22T09:45:32.000Z</time>
      </trkpt>
      <trkpt lat="47.28207" lon="-2.3607">
        <ele>66.800003051758</ele>
        <time>2021-07-22T09:45:33.000Z</time>
      </trkpt>
      <trkpt lat="47.28198" lon="-2.36046">
        <ele>66.800003051758</ele>
        <time>2021-07-22T09:45:38.000Z</time>
      </trkpt>
      <trkpt lat="47.28187" lon="-2.36017">
        <ele>66.800003051758</ele>
        <time>2021-07-22T09:45:43.000Z</time>
      </trkpt>
      <trkpt lat="47.28178" lon="-2.35996">
        <ele>66.800003051758</ele>
        <time>2021-07-22T09:45:48.000Z</time>
      </trkpt>
      <trkpt lat="47.28167" lon="-2.35966">
        <ele>66.800003051758</ele>
        <time>2021-07-22T09:45:55.000Z</time>
      </trkpt>
      <trkpt lat="47.28156" lon="-2.35948">
        <ele>66.800003051758</ele>
        <time>2021-07-22T09:46:00.000Z</time>
      </trkpt>
      <trkpt lat="47.28146" lon="-2.35931">
        <ele>66.800003051758</ele>
        <time>2021-07-22T09:46:05.000Z</time>
      </trkpt>
      <trkpt lat="47.28145" lon="-2.35926">
        <ele>67.199996948242</ele>
        <time>2021-07-22T09:46:06.000Z</time>
      </trkpt>
      <trkpt lat="47.28144" lon="-2.35923">
        <ele>67.599998474121</ele>
        <time>2021-07-22T09:46:07.000Z</time>
      </trkpt>
      <trkpt lat="47.28142" lon="-2.3592">
        <ele>68</ele>
        <time>2021-07-22T09:46:08.000Z</time>
      </trkpt>
      <trkpt lat="47.28142" lon="-2.35917">
        <ele>69</ele>
        <time>2021-07-22T09:46:09.000Z</time>
      </trkpt>
      <trkpt lat="47.28139" lon="-2.35914">
        <ele>69</ele>
        <time>2021-07-22T09:46:11.000Z</time>
      </trkpt>
      <trkpt lat="47.28127" lon="-2.35898">
        <ele>69</ele>
        <time>2021-07-22T09:46:16.000Z</time>
      </trkpt>
      <trkpt lat="47.28108" lon="-2.35875">
        <ele>69</ele>
        <time>2021-07-22T09:46:22.000Z</time>
      </trkpt>
      <trkpt lat="47.28088" lon="-2.35845">
        <ele>69</ele>
        <time>2021-07-22T09:46:29.000Z</time>
      </trkpt>
      <trkpt lat="47.28077" lon="-2.35829">
        <ele>69</ele>
        <time>2021-07-22T09:46:32.000Z</time>
      </trkpt>
      <trkpt lat="47.28071" lon="-2.35819">
        <ele>69</ele>
        <time>2021-07-22T09:46:34.000Z</time>
      </trkpt>
      <trkpt lat="47.2807" lon="-2.35811">
        <ele>69</ele>
        <time>2021-07-22T09:46:35.000Z</time>
      </trkpt>
      <trkpt lat="47.28071" lon="-2.35803">
        <ele>69</ele>
        <time>2021-07-22T09:46:36.000Z</time>
      </trkpt>
      <trkpt lat="47.28073" lon="-2.35792">
        <ele>69</ele>
        <time>2021-07-22T09:46:38.000Z</time>
      </trkpt>
      <trkpt lat="47.28081" lon="-2.35763">
        <ele>69</ele>
        <time>2021-07-22T09:46:43.000Z</time>
      </trkpt>
      <trkpt lat="47.28084" lon="-2.35742">
        <ele>69.400001525879</ele>
        <time>2021-07-22T09:46:47.000Z</time>
      </trkpt>
      <trkpt lat="47.28085" lon="-2.35737">
        <ele>69.800003051758</ele>
        <time>2021-07-22T09:46:48.000Z</time>
      </trkpt>
      <trkpt lat="47.28086" lon="-2.35733">
        <ele>70.199996948242</ele>
        <time>2021-07-22T09:46:49.000Z</time>
      </trkpt>
      <trkpt lat="47.28088" lon="-2.35729">
        <ele>70.599998474121</ele>
        <time>2021-07-22T09:46:50.000Z</time>
      </trkpt>
      <trkpt lat="47.28089" lon="-2.35725">
        <ele>71.199996948242</ele>
        <time>2021-07-22T09:46:51.000Z</time>
      </trkpt>
      <trkpt lat="47.28091" lon="-2.3571">
        <ele>71.199996948242</ele>
        <time>2021-07-22T09:46:55.000Z</time>
      </trkpt>
      <trkpt lat="47.28088" lon="-2.35685">
        <ele>71.199996948242</ele>
        <time>2021-07-22T09:46:59.000Z</time>
      </trkpt>
      <trkpt lat="47.2808" lon="-2.35648">
        <ele>71.199996948242</ele>
        <time>2021-07-22T09:47:04.000Z</time>
      </trkpt>
      <trkpt lat="47.28076" lon="-2.35633">
        <ele>71.199996948242</ele>
        <time>2021-07-22T09:47:06.000Z</time>
      </trkpt>
      <trkpt lat="47.28075" lon="-2.35626">
        <ele>70.599998474121</ele>
        <time>2021-07-22T09:47:07.000Z</time>
      </trkpt>
      <trkpt lat="47.28073" lon="-2.35617">
        <ele>70.199996948242</ele>
        <time>2021-07-22T09:47:08.000Z</time>
      </trkpt>
      <trkpt lat="47.28072" lon="-2.35609">
        <ele>69.800003051758</ele>
        <time>2021-07-22T09:47:09.000Z</time>
      </trkpt>
      <trkpt lat="47.2807" lon="-2.35601">
        <ele>69.400001525879</ele>
        <time>2021-07-22T09:47:10.000Z</time>
      </trkpt>
      <trkpt lat="47.28068" lon="-2.35595">
        <ele>69</ele>
        <time>2021-07-22T09:47:11.000Z</time>
      </trkpt>
      <trkpt lat="47.28066" lon="-2.3559">
        <ele>69</ele>
        <time>2021-07-22T09:47:12.000Z</time>
      </trkpt>
      <trkpt lat="47.28063" lon="-2.35586">
        <ele>68.400001525879</ele>
        <time>2021-07-22T09:47:13.000Z</time>
      </trkpt>
      <trkpt lat="47.28061" lon="-2.35584">
        <ele>68</ele>
        <time>2021-07-22T09:47:14.000Z</time>
      </trkpt>
      <trkpt lat="47.2806" lon="-2.35582">
        <ele>67.599998474121</ele>
        <time>2021-07-22T09:47:15.000Z</time>
      </trkpt>
      <trkpt lat="47.28059" lon="-2.35581">
        <ele>67.199996948242</ele>
        <time>2021-07-22T09:47:16.000Z</time>
      </trkpt>
      <trkpt lat="47.28053" lon="-2.35577">
        <ele>64.599998474121</ele>
        <time>2021-07-22T09:53:19.000Z</time>
      </trkpt>
      <trkpt lat="47.28047" lon="-2.35578">
        <ele>64.599998474121</ele>
        <time>2021-07-22T09:53:22.000Z</time>
      </trkpt>
      <trkpt lat="47.28041" lon="-2.35578">
        <ele>64.599998474121</ele>
        <time>2021-07-22T09:53:25.000Z</time>
      </trkpt>
      <trkpt lat="47.28031" lon="-2.35568">
        <ele>64.599998474121</ele>
        <time>2021-07-22T09:53:29.000Z</time>
      </trkpt>
      <trkpt lat="47.28029" lon="-2.35564">
        <ele>64.599998474121</ele>
        <time>2021-07-22T09:53:30.000Z</time>
      </trkpt>
      <trkpt lat="47.28022" lon="-2.35558">
        <ele>64.599998474121</ele>
        <time>2021-07-22T09:53:32.000Z</time>
      </trkpt>
      <trkpt lat="47.28018" lon="-2.35557">
        <ele>64.599998474121</ele>
        <time>2021-07-22T09:53:33.000Z</time>
      </trkpt>
      <trkpt lat="47.28005" lon="-2.3556">
        <ele>64.599998474121</ele>
        <time>2021-07-22T09:53:36.000Z</time>
      </trkpt>
      <trkpt lat="47.27992" lon="-2.35565">
        <ele>64.599998474121</ele>
        <time>2021-07-22T09:53:39.000Z</time>
      </trkpt>
      <trkpt lat="47.27955" lon="-2.3558">
        <ele>64.599998474121</ele>
        <time>2021-07-22T09:53:47.000Z</time>
      </trkpt>
      <trkpt lat="47.27946" lon="-2.35583">
        <ele>64.599998474121</ele>
        <time>2021-07-22T09:53:49.000Z</time>
      </trkpt>
      <trkpt lat="47.27926" lon="-2.35587">
        <ele>64.599998474121</ele>
        <time>2021-07-22T09:53:53.000Z</time>
      </trkpt>
      <trkpt lat="47.27897" lon="-2.35595">
        <ele>64.599998474121</ele>
        <time>2021-07-22T09:53:59.000Z</time>
      </trkpt>
      <trkpt lat="47.27861" lon="-2.35605">
        <ele>64.199996948242</ele>
        <time>2021-07-22T09:54:05.000Z</time>
      </trkpt>
      <trkpt lat="47.27855" lon="-2.35606">
        <ele>63.799999237061</ele>
        <time>2021-07-22T09:54:06.000Z</time>
      </trkpt>
      <trkpt lat="47.27849" lon="-2.35607">
        <ele>63.400001525879</ele>
        <time>2021-07-22T09:54:07.000Z</time>
      </trkpt>
      <trkpt lat="47.27842" lon="-2.35609">
        <ele>63</ele>
        <time>2021-07-22T09:54:08.000Z</time>
      </trkpt>
      <trkpt lat="47.27835" lon="-2.3561">
        <ele>62.599998474121</ele>
        <time>2021-07-22T09:54:09.000Z</time>
      </trkpt>
      <trkpt lat="47.27817" lon="-2.35615">
        <ele>62.599998474121</ele>
        <time>2021-07-22T09:54:12.000Z</time>
      </trkpt>
      <trkpt lat="47.2778" lon="-2.35632">
        <ele>62.200000762939</ele>
        <time>2021-07-22T09:54:18.000Z</time>
      </trkpt>
      <trkpt lat="47.27774" lon="-2.35636">
        <ele>61.599998474121</ele>
        <time>2021-07-22T09:54:19.000Z</time>
      </trkpt>
      <trkpt lat="47.27769" lon="-2.35641">
        <ele>61.200000762939</ele>
        <time>2021-07-22T09:54:20.000Z</time>
      </trkpt>
      <trkpt lat="47.27764" lon="-2.35646">
        <ele>60.799999237061</ele>
        <time>2021-07-22T09:54:21.000Z</time>
      </trkpt>
      <trkpt lat="47.27759" lon="-2.35652">
        <ele>60.200000762939</ele>
        <time>2021-07-22T09:54:22.000Z</time>
      </trkpt>
      <trkpt lat="47.2775" lon="-2.35665">
        <ele>60.200000762939</ele>
        <time>2021-07-22T09:54:24.000Z</time>
      </trkpt>
      <trkpt lat="47.27727" lon="-2.35701">
        <ele>60.200000762939</ele>
        <time>2021-07-22T09:54:29.000Z</time>
      </trkpt>
      <trkpt lat="47.27721" lon="-2.35708">
        <ele>60.200000762939</ele>
        <time>2021-07-22T09:54:30.000Z</time>
      </trkpt>
      <trkpt lat="47.27697" lon="-2.35731">
        <ele>59.799999237061</ele>
        <time>2021-07-22T09:54:34.000Z</time>
      </trkpt>
      <trkpt lat="47.27691" lon="-2.35736">
        <ele>59.400001525879</ele>
        <time>2021-07-22T09:54:35.000Z</time>
      </trkpt>
      <trkpt lat="47.27686" lon="-2.35742">
        <ele>59</ele>
        <time>2021-07-22T09:54:36.000Z</time>
      </trkpt>
      <trkpt lat="47.27681" lon="-2.35747">
        <ele>58.599998474121</ele>
        <time>2021-07-22T09:54:37.000Z</time>
      </trkpt>
      <trkpt lat="47.27675" lon="-2.35749">
        <ele>58.200000762939</ele>
        <time>2021-07-22T09:54:38.000Z</time>
      </trkpt>
      <trkpt lat="47.27666" lon="-2.35742">
        <ele>58.200000762939</ele>
        <time>2021-07-22T09:54:40.000Z</time>
      </trkpt>
      <trkpt lat="47.27661" lon="-2.35736">
        <ele>58.200000762939</ele>
        <time>2021-07-22T09:54:41.000Z</time>
      </trkpt>
      <trkpt lat="47.27652" lon="-2.35726">
        <ele>58.200000762939</ele>
        <time>2021-07-22T09:54:43.000Z</time>
      </trkpt>
      <trkpt lat="47.27641" lon="-2.35721">
        <ele>58.200000762939</ele>
        <time>2021-07-22T09:54:45.000Z</time>
      </trkpt>
      <trkpt lat="47.27634" lon="-2.35719">
        <ele>58.200000762939</ele>
        <time>2021-07-22T09:54:46.000Z</time>
      </trkpt>
      <trkpt lat="47.27608" lon="-2.35712">
        <ele>58.200000762939</ele>
        <time>2021-07-22T09:54:50.000Z</time>
      </trkpt>
      <trkpt lat="47.27601" lon="-2.35711">
        <ele>57.799999237061</ele>
        <time>2021-07-22T09:54:51.000Z</time>
      </trkpt>
      <trkpt lat="47.27595" lon="-2.35709">
        <ele>57.400001525879</ele>
        <time>2021-07-22T09:54:52.000Z</time>
      </trkpt>
      <trkpt lat="47.27588" lon="-2.35707">
        <ele>57</ele>
        <time>2021-07-22T09:54:53.000Z</time>
      </trkpt>
      <trkpt lat="47.27582" lon="-2.35705">
        <ele>56.599998474121</ele>
        <time>2021-07-22T09:54:54.000Z</time>
      </trkpt>
      <trkpt lat="47.27575" lon="-2.35703">
        <ele>56.200000762939</ele>
        <time>2021-07-22T09:54:55.000Z</time>
      </trkpt>
      <trkpt lat="47.27561" lon="-2.35701">
        <ele>56.200000762939</ele>
        <time>2021-07-22T09:54:57.000Z</time>
      </trkpt>
      <trkpt lat="47.27521" lon="-2.35693">
        <ele>56.200000762939</ele>
        <time>2021-07-22T09:55:03.000Z</time>
      </trkpt>
      <trkpt lat="47.27514" lon="-2.35691">
        <ele>55.799999237061</ele>
        <time>2021-07-22T09:55:04.000Z</time>
      </trkpt>
      <trkpt lat="47.27508" lon="-2.35689">
        <ele>55.200000762939</ele>
        <time>2021-07-22T09:55:05.000Z</time>
      </trkpt>
      <trkpt lat="47.27501" lon="-2.35688">
        <ele>54.799999237061</ele>
        <time>2021-07-22T09:55:06.000Z</time>
      </trkpt>
      <trkpt lat="47.27494" lon="-2.35686">
        <ele>54.400001525879</ele>
        <time>2021-07-22T09:55:07.000Z</time>
      </trkpt>
      <trkpt lat="47.27487" lon="-2.35685">
        <ele>54</ele>
        <time>2021-07-22T09:55:08.000Z</time>
      </trkpt>
      <trkpt lat="47.27442" lon="-2.35674">
        <ele>53.599998474121</ele>
        <time>2021-07-22T09:55:15.000Z</time>
      </trkpt>
      <trkpt lat="47.27436" lon="-2.35673">
        <ele>53.200000762939</ele>
        <time>2021-07-22T09:55:16.000Z</time>
      </trkpt>
      <trkpt lat="47.27431" lon="-2.35672">
        <ele>52.799999237061</ele>
        <time>2021-07-22T09:55:17.000Z</time>
      </trkpt>
      <trkpt lat="47.27425" lon="-2.3567">
        <ele>52.400001525879</ele>
        <time>2021-07-22T09:55:18.000Z</time>
      </trkpt>
      <trkpt lat="47.27419" lon="-2.3567">
        <ele>52</ele>
        <time>2021-07-22T09:55:19.000Z</time>
      </trkpt>
      <trkpt lat="47.27407" lon="-2.35671">
        <ele>52</ele>
        <time>2021-07-22T09:55:21.000Z</time>
      </trkpt>
      <trkpt lat="47.27395" lon="-2.35675">
        <ele>52</ele>
        <time>2021-07-22T09:55:23.000Z</time>
      </trkpt>
      <trkpt lat="47.27384" lon="-2.35682">
        <ele>52</ele>
        <time>2021-07-22T09:55:25.000Z</time>
      </trkpt>
      <trkpt lat="47.27345" lon="-2.35711">
        <ele>52</ele>
        <time>2021-07-22T09:55:32.000Z</time>
      </trkpt>
      <trkpt lat="47.27325" lon="-2.35729">
        <ele>52</ele>
        <time>2021-07-22T09:55:37.000Z</time>
      </trkpt>
      <trkpt lat="47.2732" lon="-2.35738">
        <ele>52</ele>
        <time>2021-07-22T09:55:42.000Z</time>
      </trkpt>
      <trkpt lat="47.27314" lon="-2.35741">
        <ele>52</ele>
        <time>2021-07-22T09:55:44.000Z</time>
      </trkpt>
      <trkpt lat="47.2731" lon="-2.35738">
        <ele>52</ele>
        <time>2021-07-22T09:55:45.000Z</time>
      </trkpt>
      <trkpt lat="47.27304" lon="-2.3572">
        <ele>52</ele>
        <time>2021-07-22T09:55:48.000Z</time>
      </trkpt>
      <trkpt lat="47.27302" lon="-2.35714">
        <ele>52</ele>
        <time>2021-07-22T09:55:49.000Z</time>
      </trkpt>
      <trkpt lat="47.2729" lon="-2.35696">
        <ele>52</ele>
        <time>2021-07-22T09:55:52.000Z</time>
      </trkpt>
      <trkpt lat="47.27279" lon="-2.35675">
        <ele>52.599998474121</ele>
        <time>2021-07-22T09:55:55.000Z</time>
      </trkpt>
      <trkpt lat="47.27276" lon="-2.35667">
        <ele>53</ele>
        <time>2021-07-22T09:55:56.000Z</time>
      </trkpt>
      <trkpt lat="47.27273" lon="-2.3566">
        <ele>53.599998474121</ele>
        <time>2021-07-22T09:55:57.000Z</time>
      </trkpt>
      <trkpt lat="47.2727" lon="-2.35653">
        <ele>54.200000762939</ele>
        <time>2021-07-22T09:55:58.000Z</time>
      </trkpt>
      <trkpt lat="47.27267" lon="-2.35646">
        <ele>54.799999237061</ele>
        <time>2021-07-22T09:55:59.000Z</time>
      </trkpt>
      <trkpt lat="47.27251" lon="-2.3561">
        <ele>54.799999237061</ele>
        <time>2021-07-22T09:56:04.000Z</time>
      </trkpt>
      <trkpt lat="47.27231" lon="-2.35564">
        <ele>54.799999237061</ele>
        <time>2021-07-22T09:56:11.000Z</time>
      </trkpt>
      <trkpt lat="47.27211" lon="-2.3552">
        <ele>54.799999237061</ele>
        <time>2021-07-22T09:56:18.000Z</time>
      </trkpt>
      <trkpt lat="47.27199" lon="-2.35494">
        <ele>54.799999237061</ele>
        <time>2021-07-22T09:56:22.000Z</time>
      </trkpt>
      <trkpt lat="47.27189" lon="-2.35475">
        <ele>54.799999237061</ele>
        <time>2021-07-22T09:56:25.000Z</time>
      </trkpt>
      <trkpt lat="47.27168" lon="-2.35435">
        <ele>54.799999237061</ele>
        <time>2021-07-22T09:56:32.000Z</time>
      </trkpt>
      <trkpt lat="47.27144" lon="-2.35388">
        <ele>54.799999237061</ele>
        <time>2021-07-22T09:56:40.000Z</time>
      </trkpt>
      <trkpt lat="47.27114" lon="-2.35336">
        <ele>54.799999237061</ele>
        <time>2021-07-22T09:56:49.000Z</time>
      </trkpt>
      <trkpt lat="47.27082" lon="-2.35284">
        <ele>54.799999237061</ele>
        <time>2021-07-22T09:56:58.000Z</time>
      </trkpt>
      <trkpt lat="47.27052" lon="-2.35237">
        <ele>54.799999237061</ele>
        <time>2021-07-22T09:57:06.000Z</time>
      </trkpt>
      <trkpt lat="47.27019" lon="-2.35186">
        <ele>54.799999237061</ele>
        <time>2021-07-22T09:57:15.000Z</time>
      </trkpt>
      <trkpt lat="47.26993" lon="-2.35144">
        <ele>54.799999237061</ele>
        <time>2021-07-22T09:57:22.000Z</time>
      </trkpt>
      <trkpt lat="47.26965" lon="-2.35104">
        <ele>54.799999237061</ele>
        <time>2021-07-22T09:57:29.000Z</time>
      </trkpt>
      <trkpt lat="47.26936" lon="-2.35063">
        <ele>54.799999237061</ele>
        <time>2021-07-22T09:57:36.000Z</time>
      </trkpt>
      <trkpt lat="47.26908" lon="-2.35022">
        <ele>54.799999237061</ele>
        <time>2021-07-22T09:57:43.000Z</time>
      </trkpt>
      <trkpt lat="47.26875" lon="-2.34974">
        <ele>54.799999237061</ele>
        <time>2021-07-22T09:57:51.000Z</time>
      </trkpt>
      <trkpt lat="47.2685" lon="-2.34935">
        <ele>54.799999237061</ele>
        <time>2021-07-22T09:57:58.000Z</time>
      </trkpt>
      <trkpt lat="47.26823" lon="-2.34895">
        <ele>54.799999237061</ele>
        <time>2021-07-22T09:58:05.000Z</time>
      </trkpt>
      <trkpt lat="47.26811" lon="-2.34878">
        <ele>54.400001525879</ele>
        <time>2021-07-22T09:58:08.000Z</time>
      </trkpt>
      <trkpt lat="47.26807" lon="-2.34872">
        <ele>54</ele>
        <time>2021-07-22T09:58:09.000Z</time>
      </trkpt>
      <trkpt lat="47.26803" lon="-2.34866">
        <ele>53.400001525879</ele>
        <time>2021-07-22T09:58:10.000Z</time>
      </trkpt>
      <trkpt lat="47.26799" lon="-2.3486">
        <ele>53</ele>
        <time>2021-07-22T09:58:11.000Z</time>
      </trkpt>
      <trkpt lat="47.26795" lon="-2.34854">
        <ele>52.599998474121</ele>
        <time>2021-07-22T09:58:12.000Z</time>
      </trkpt>
      <trkpt lat="47.26791" lon="-2.34848">
        <ele>52.599998474121</ele>
        <time>2021-07-22T09:58:13.000Z</time>
      </trkpt>
      <trkpt lat="47.26766" lon="-2.34815">
        <ele>52.599998474121</ele>
        <time>2021-07-22T09:58:20.000Z</time>
      </trkpt>
      <trkpt lat="47.26752" lon="-2.34794">
        <ele>52.599998474121</ele>
        <time>2021-07-22T09:58:24.000Z</time>
      </trkpt>
      <trkpt lat="47.26744" lon="-2.34784">
        <ele>52.599998474121</ele>
        <time>2021-07-22T09:58:26.000Z</time>
      </trkpt>
      <trkpt lat="47.2673" lon="-2.34768">
        <ele>52.599998474121</ele>
        <time>2021-07-22T09:58:29.000Z</time>
      </trkpt>
      <trkpt lat="47.26695" lon="-2.34724">
        <ele>52.599998474121</ele>
        <time>2021-07-22T09:58:37.000Z</time>
      </trkpt>
      <trkpt lat="47.26663" lon="-2.34684">
        <ele>52.599998474121</ele>
        <time>2021-07-22T09:58:45.000Z</time>
      </trkpt>
      <trkpt lat="47.26632" lon="-2.34645">
        <ele>52.599998474121</ele>
        <time>2021-07-22T09:58:53.000Z</time>
      </trkpt>
      <trkpt lat="47.26628" lon="-2.3464">
        <ele>52.599998474121</ele>
        <time>2021-07-22T09:58:54.000Z</time>
      </trkpt>
      <trkpt lat="47.2659" lon="-2.34595">
        <ele>52.599998474121</ele>
        <time>2021-07-22T09:59:03.000Z</time>
      </trkpt>
      <trkpt lat="47.26554" lon="-2.34557">
        <ele>52.599998474121</ele>
        <time>2021-07-22T09:59:11.000Z</time>
      </trkpt>
      <trkpt lat="47.26517" lon="-2.34523">
        <ele>52.599998474121</ele>
        <time>2021-07-22T09:59:19.000Z</time>
      </trkpt>
      <trkpt lat="47.26478" lon="-2.34494">
        <ele>52.599998474121</ele>
        <time>2021-07-22T09:59:26.000Z</time>
      </trkpt>
      <trkpt lat="47.26467" lon="-2.34487">
        <ele>53</ele>
        <time>2021-07-22T09:59:28.000Z</time>
      </trkpt>
      <trkpt lat="47.26462" lon="-2.34483">
        <ele>53.599998474121</ele>
        <time>2021-07-22T09:59:29.000Z</time>
      </trkpt>
      <trkpt lat="47.26456" lon="-2.34479">
        <ele>54</ele>
        <time>2021-07-22T09:59:30.000Z</time>
      </trkpt>
      <trkpt lat="47.26451" lon="-2.34475">
        <ele>54.400001525879</ele>
        <time>2021-07-22T09:59:31.000Z</time>
      </trkpt>
      <trkpt lat="47.26445" lon="-2.34472">
        <ele>55</ele>
        <time>2021-07-22T09:59:32.000Z</time>
      </trkpt>
      <trkpt lat="47.26435" lon="-2.34465">
        <ele>55</ele>
        <time>2021-07-22T09:59:34.000Z</time>
      </trkpt>
      <trkpt lat="47.26409" lon="-2.34446">
        <ele>54.400001525879</ele>
        <time>2021-07-22T09:59:39.000Z</time>
      </trkpt>
      <trkpt lat="47.26403" lon="-2.34442">
        <ele>54</ele>
        <time>2021-07-22T09:59:40.000Z</time>
      </trkpt>
      <trkpt lat="47.26398" lon="-2.34438">
        <ele>53.599998474121</ele>
        <time>2021-07-22T09:59:41.000Z</time>
      </trkpt>
      <trkpt lat="47.26393" lon="-2.34433">
        <ele>53.200000762939</ele>
        <time>2021-07-22T09:59:42.000Z</time>
      </trkpt>
      <trkpt lat="47.26388" lon="-2.34429">
        <ele>52.799999237061</ele>
        <time>2021-07-22T09:59:43.000Z</time>
      </trkpt>
      <trkpt lat="47.2636" lon="-2.34404">
        <ele>53.200000762939</ele>
        <time>2021-07-22T09:59:49.000Z</time>
      </trkpt>
      <trkpt lat="47.26356" lon="-2.34399">
        <ele>53.799999237061</ele>
        <time>2021-07-22T09:59:50.000Z</time>
      </trkpt>
      <trkpt lat="47.26352" lon="-2.34395">
        <ele>54.200000762939</ele>
        <time>2021-07-22T09:59:51.000Z</time>
      </trkpt>
      <trkpt lat="47.26349" lon="-2.34391">
        <ele>54.599998474121</ele>
        <time>2021-07-22T09:59:52.000Z</time>
      </trkpt>
      <trkpt lat="47.26344" lon="-2.34387">
        <ele>55</ele>
        <time>2021-07-22T09:59:54.000Z</time>
      </trkpt>
      <trkpt lat="47.2634" lon="-2.34384">
        <ele>55</ele>
        <time>2021-07-22T09:59:55.000Z</time>
      </trkpt>
      <trkpt lat="47.2633" lon="-2.34381">
        <ele>55</ele>
        <time>2021-07-22T09:59:57.000Z</time>
      </trkpt>
      <trkpt lat="47.26325" lon="-2.34378">
        <ele>55</ele>
        <time>2021-07-22T09:59:58.000Z</time>
      </trkpt>
      <trkpt lat="47.26317" lon="-2.34367">
        <ele>55</ele>
        <time>2021-07-22T10:00:00.000Z</time>
      </trkpt>
      <trkpt lat="47.26309" lon="-2.34353">
        <ele>54.599998474121</ele>
        <time>2021-07-22T10:00:02.000Z</time>
      </trkpt>
      <trkpt lat="47.26304" lon="-2.34349">
        <ele>54.200000762939</ele>
        <time>2021-07-22T10:00:03.000Z</time>
      </trkpt>
      <trkpt lat="47.26298" lon="-2.34345">
        <ele>53.799999237061</ele>
        <time>2021-07-22T10:00:04.000Z</time>
      </trkpt>
      <trkpt lat="47.26293" lon="-2.3434">
        <ele>53.400001525879</ele>
        <time>2021-07-22T10:00:05.000Z</time>
      </trkpt>
      <trkpt lat="47.26288" lon="-2.34335">
        <ele>53</ele>
        <time>2021-07-22T10:00:06.000Z</time>
      </trkpt>
      <trkpt lat="47.26279" lon="-2.34325">
        <ele>53</ele>
        <time>2021-07-22T10:00:08.000Z</time>
      </trkpt>
      <trkpt lat="47.26241" lon="-2.34283">
        <ele>53</ele>
        <time>2021-07-22T10:00:16.000Z</time>
      </trkpt>
      <trkpt lat="47.26208" lon="-2.34246">
        <ele>53</ele>
        <time>2021-07-22T10:00:23.000Z</time>
      </trkpt>
      <trkpt lat="47.26176" lon="-2.34215">
        <ele>53</ele>
        <time>2021-07-22T10:00:30.000Z</time>
      </trkpt>
      <trkpt lat="47.26149" lon="-2.3419">
        <ele>53</ele>
        <time>2021-07-22T10:00:37.000Z</time>
      </trkpt>
      <trkpt lat="47.26145" lon="-2.34188">
        <ele>53</ele>
        <time>2021-07-22T10:00:38.000Z</time>
      </trkpt>
      <trkpt lat="47.26129" lon="-2.3418">
        <ele>53</ele>
        <time>2021-07-22T10:00:41.000Z</time>
      </trkpt>
      <trkpt lat="47.26111" lon="-2.34162">
        <ele>53</ele>
        <time>2021-07-22T10:00:45.000Z</time>
      </trkpt>
      <trkpt lat="47.26073" lon="-2.34141">
        <ele>53</ele>
        <time>2021-07-22T10:00:52.000Z</time>
      </trkpt>
      <trkpt lat="47.26024" lon="-2.34117">
        <ele>53</ele>
        <time>2021-07-22T10:01:01.000Z</time>
      </trkpt>
      <trkpt lat="47.25986" lon="-2.34099">
        <ele>53</ele>
        <time>2021-07-22T10:01:08.000Z</time>
      </trkpt>
      <trkpt lat="47.25955" lon="-2.34086">
        <ele>53</ele>
        <time>2021-07-22T10:01:15.000Z</time>
      </trkpt>
      <trkpt lat="47.25941" lon="-2.34081">
        <ele>53</ele>
        <time>2021-07-22T10:01:21.000Z</time>
      </trkpt>
      <trkpt lat="47.25931" lon="-2.34075">
        <ele>52.599998474121</ele>
        <time>2021-07-22T10:01:24.000Z</time>
      </trkpt>
      <trkpt lat="47.25926" lon="-2.34074">
        <ele>51.799999237061</ele>
        <time>2021-07-22T10:01:25.000Z</time>
      </trkpt>
      <trkpt lat="47.25921" lon="-2.34074">
        <ele>51.200000762939</ele>
        <time>2021-07-22T10:01:26.000Z</time>
      </trkpt>
      <trkpt lat="47.25917" lon="-2.34073">
        <ele>50.799999237061</ele>
        <time>2021-07-22T10:01:27.000Z</time>
      </trkpt>
      <trkpt lat="47.25912" lon="-2.34072">
        <ele>50.799999237061</ele>
        <time>2021-07-22T10:01:28.000Z</time>
      </trkpt>
      <trkpt lat="47.25899" lon="-2.34059">
        <ele>50.799999237061</ele>
        <time>2021-07-22T10:01:31.000Z</time>
      </trkpt>
      <trkpt lat="47.25899" lon="-2.34036">
        <ele>50.799999237061</ele>
        <time>2021-07-22T10:01:34.000Z</time>
      </trkpt>
      <trkpt lat="47.25904" lon="-2.34022">
        <ele>50.799999237061</ele>
        <time>2021-07-22T10:01:36.000Z</time>
      </trkpt>
      <trkpt lat="47.2591" lon="-2.34001">
        <ele>50.799999237061</ele>
        <time>2021-07-22T10:01:39.000Z</time>
      </trkpt>
      <trkpt lat="47.25928" lon="-2.33952">
        <ele>50.799999237061</ele>
        <time>2021-07-22T10:01:46.000Z</time>
      </trkpt>
      <trkpt lat="47.25945" lon="-2.33921">
        <ele>50.799999237061</ele>
        <time>2021-07-22T10:01:51.000Z</time>
      </trkpt>
      <trkpt lat="47.25947" lon="-2.33914">
        <ele>50.799999237061</ele>
        <time>2021-07-22T10:01:52.000Z</time>
      </trkpt>
      <trkpt lat="47.25954" lon="-2.33888">
        <ele>50.799999237061</ele>
        <time>2021-07-22T10:01:56.000Z</time>
      </trkpt>
      <trkpt lat="47.25956" lon="-2.33881">
        <ele>50.799999237061</ele>
        <time>2021-07-22T10:01:57.000Z</time>
      </trkpt>
      <trkpt lat="47.25968" lon="-2.33844">
        <ele>50.799999237061</ele>
        <time>2021-07-22T10:02:03.000Z</time>
      </trkpt>
      <trkpt lat="47.25972" lon="-2.33833">
        <ele>50.799999237061</ele>
        <time>2021-07-22T10:02:05.000Z</time>
      </trkpt>
      <trkpt lat="47.2598" lon="-2.33807">
        <ele>50.799999237061</ele>
        <time>2021-07-22T10:02:09.000Z</time>
      </trkpt>
      <trkpt lat="47.25995" lon="-2.33761">
        <ele>50.799999237061</ele>
        <time>2021-07-22T10:02:16.000Z</time>
      </trkpt>
      <trkpt lat="47.26013" lon="-2.33709">
        <ele>50.400001525879</ele>
        <time>2021-07-22T10:02:24.000Z</time>
      </trkpt>
      <trkpt lat="47.26015" lon="-2.33702">
        <ele>50</ele>
        <time>2021-07-22T10:02:25.000Z</time>
      </trkpt>
      <trkpt lat="47.26017" lon="-2.33695">
        <ele>49.599998474121</ele>
        <time>2021-07-22T10:02:26.000Z</time>
      </trkpt>
      <trkpt lat="47.26018" lon="-2.33689">
        <ele>49.200000762939</ele>
        <time>2021-07-22T10:02:27.000Z</time>
      </trkpt>
      <trkpt lat="47.2602" lon="-2.33683">
        <ele>48.799999237061</ele>
        <time>2021-07-22T10:02:28.000Z</time>
      </trkpt>
      <trkpt lat="47.26024" lon="-2.33672">
        <ele>48.799999237061</ele>
        <time>2021-07-22T10:02:30.000Z</time>
      </trkpt>
      <trkpt lat="47.26037" lon="-2.3367">
        <ele>48.799999237061</ele>
        <time>2021-07-22T10:02:33.000Z</time>
      </trkpt>
      <trkpt lat="47.2605" lon="-2.33671">
        <ele>48.799999237061</ele>
        <time>2021-07-22T10:02:37.000Z</time>
      </trkpt>
      <trkpt lat="47.26057" lon="-2.33659">
        <ele>48.799999237061</ele>
        <time>2021-07-22T10:02:40.000Z</time>
      </trkpt>
      <trkpt lat="47.2606" lon="-2.33648">
        <ele>48.799999237061</ele>
        <time>2021-07-22T10:02:42.000Z</time>
      </trkpt>
      <trkpt lat="47.26066" lon="-2.3363">
        <ele>49.200000762939</ele>
        <time>2021-07-22T10:02:45.000Z</time>
      </trkpt>
      <trkpt lat="47.26068" lon="-2.33624">
        <ele>49.599998474121</ele>
        <time>2021-07-22T10:02:46.000Z</time>
      </trkpt>
      <trkpt lat="47.2607" lon="-2.33618">
        <ele>50</ele>
        <time>2021-07-22T10:02:47.000Z</time>
      </trkpt>
      <trkpt lat="47.26072" lon="-2.33612">
        <ele>50.400001525879</ele>
        <time>2021-07-22T10:02:48.000Z</time>
      </trkpt>
      <trkpt lat="47.26074" lon="-2.33605">
        <ele>50.799999237061</ele>
        <time>2021-07-22T10:02:49.000Z</time>
      </trkpt>
      <trkpt lat="47.26076" lon="-2.336">
        <ele>50.799999237061</ele>
        <time>2021-07-22T10:02:50.000Z</time>
      </trkpt>
      <trkpt lat="47.26082" lon="-2.33581">
        <ele>50.799999237061</ele>
        <time>2021-07-22T10:02:53.000Z</time>
      </trkpt>
      <trkpt lat="47.26099" lon="-2.33531">
        <ele>50.799999237061</ele>
        <time>2021-07-22T10:03:01.000Z</time>
      </trkpt>
      <trkpt lat="47.2611" lon="-2.335">
        <ele>50.799999237061</ele>
        <time>2021-07-22T10:03:06.000Z</time>
      </trkpt>
      <trkpt lat="47.26118" lon="-2.33477">
        <ele>50.799999237061</ele>
        <time>2021-07-22T10:03:10.000Z</time>
      </trkpt>
      <trkpt lat="47.26132" lon="-2.33445">
        <ele>50.799999237061</ele>
        <time>2021-07-22T10:03:17.000Z</time>
      </trkpt>
      <trkpt lat="47.26132" lon="-2.33439">
        <ele>50.799999237061</ele>
        <time>2021-07-22T10:03:18.000Z</time>
      </trkpt>
      <trkpt lat="47.2613" lon="-2.33429">
        <ele>50.799999237061</ele>
        <time>2021-07-22T10:03:20.000Z</time>
      </trkpt>
      <trkpt lat="47.26122" lon="-2.33419">
        <ele>50.799999237061</ele>
        <time>2021-07-22T10:03:23.000Z</time>
      </trkpt>
      <trkpt lat="47.26115" lon="-2.33412">
        <ele>50.799999237061</ele>
        <time>2021-07-22T10:03:25.000Z</time>
      </trkpt>
      <trkpt lat="47.26101" lon="-2.33396">
        <ele>50.799999237061</ele>
        <time>2021-07-22T10:03:31.000Z</time>
      </trkpt>
      <trkpt lat="47.26094" lon="-2.33381">
        <ele>50.799999237061</ele>
        <time>2021-07-22T10:03:37.000Z</time>
      </trkpt>
      <trkpt lat="47.26095" lon="-2.33379">
        <ele>50.799999237061</ele>
        <time>2021-07-22T10:03:40.000Z</time>
      </trkpt>
      <trkpt lat="47.26092" lon="-2.33378">
        <ele>50.799999237061</ele>
        <time>2021-07-22T10:04:00.000Z</time>
      </trkpt>
      <trkpt lat="47.26082" lon="-2.33368">
        <ele>50.799999237061</ele>
        <time>2021-07-22T10:04:04.000Z</time>
      </trkpt>
      <trkpt lat="47.26079" lon="-2.33362">
        <ele>50.799999237061</ele>
        <time>2021-07-22T10:04:05.000Z</time>
      </trkpt>
      <trkpt lat="47.26072" lon="-2.33345">
        <ele>50.799999237061</ele>
        <time>2021-07-22T10:04:08.000Z</time>
      </trkpt>
      <trkpt lat="47.2607" lon="-2.33338">
        <ele>50.799999237061</ele>
        <time>2021-07-22T10:04:09.000Z</time>
      </trkpt>
      <trkpt lat="47.26054" lon="-2.33289">
        <ele>50.799999237061</ele>
        <time>2021-07-22T10:04:17.000Z</time>
      </trkpt>
      <trkpt lat="47.26053" lon="-2.33283">
        <ele>50.799999237061</ele>
        <time>2021-07-22T10:04:18.000Z</time>
      </trkpt>
      <trkpt lat="47.26039" lon="-2.33242">
        <ele>50.799999237061</ele>
        <time>2021-07-22T10:04:25.000Z</time>
      </trkpt>
      <trkpt lat="47.26021" lon="-2.33193">
        <ele>50.799999237061</ele>
        <time>2021-07-22T10:04:33.000Z</time>
      </trkpt>
      <trkpt lat="47.26001" lon="-2.33137">
        <ele>50.799999237061</ele>
        <time>2021-07-22T10:04:42.000Z</time>
      </trkpt>
      <trkpt lat="47.25993" lon="-2.33111">
        <ele>50.799999237061</ele>
        <time>2021-07-22T10:04:46.000Z</time>
      </trkpt>
      <trkpt lat="47.25991" lon="-2.33098">
        <ele>50.799999237061</ele>
        <time>2021-07-22T10:04:48.000Z</time>
      </trkpt>
      <trkpt lat="47.25986" lon="-2.33084">
        <ele>50.799999237061</ele>
        <time>2021-07-22T10:04:50.000Z</time>
      </trkpt>
      <trkpt lat="47.25979" lon="-2.33066">
        <ele>50.799999237061</ele>
        <time>2021-07-22T10:04:53.000Z</time>
      </trkpt>
      <trkpt lat="47.25964" lon="-2.33029">
        <ele>50.799999237061</ele>
        <time>2021-07-22T10:04:59.000Z</time>
      </trkpt>
      <trkpt lat="47.25948" lon="-2.32984">
        <ele>50.799999237061</ele>
        <time>2021-07-22T10:05:06.000Z</time>
      </trkpt>
      <trkpt lat="47.25932" lon="-2.32941">
        <ele>50.799999237061</ele>
        <time>2021-07-22T10:05:13.000Z</time>
      </trkpt>
      <trkpt lat="47.25925" lon="-2.32921">
        <ele>50.799999237061</ele>
        <time>2021-07-22T10:05:16.000Z</time>
      </trkpt>
      <trkpt lat="47.25917" lon="-2.32903">
        <ele>50.799999237061</ele>
        <time>2021-07-22T10:05:19.000Z</time>
      </trkpt>
      <trkpt lat="47.25898" lon="-2.32852">
        <ele>50.799999237061</ele>
        <time>2021-07-22T10:05:27.000Z</time>
      </trkpt>
      <trkpt lat="47.25881" lon="-2.32799">
        <ele>50.799999237061</ele>
        <time>2021-07-22T10:05:35.000Z</time>
      </trkpt>
      <trkpt lat="47.25879" lon="-2.32793">
        <ele>50.799999237061</ele>
        <time>2021-07-22T10:05:36.000Z</time>
      </trkpt>
      <trkpt lat="47.25866" lon="-2.32747">
        <ele>50.799999237061</ele>
        <time>2021-07-22T10:05:43.000Z</time>
      </trkpt>
      <trkpt lat="47.25863" lon="-2.32722">
        <ele>50.799999237061</ele>
        <time>2021-07-22T10:05:47.000Z</time>
      </trkpt>
      <trkpt lat="47.25863" lon="-2.32715">
        <ele>50.799999237061</ele>
        <time>2021-07-22T10:05:48.000Z</time>
      </trkpt>
      <trkpt lat="47.25853" lon="-2.32702">
        <ele>50.799999237061</ele>
        <time>2021-07-22T10:05:51.000Z</time>
      </trkpt>
      <trkpt lat="47.2585" lon="-2.32696">
        <ele>50.799999237061</ele>
        <time>2021-07-22T10:05:52.000Z</time>
      </trkpt>
      <trkpt lat="47.25847" lon="-2.32682">
        <ele>50.799999237061</ele>
        <time>2021-07-22T10:05:54.000Z</time>
      </trkpt>
      <trkpt lat="47.25832" lon="-2.32635">
        <ele>50.799999237061</ele>
        <time>2021-07-22T10:06:01.000Z</time>
      </trkpt>
      <trkpt lat="47.25821" lon="-2.32584">
        <ele>50.799999237061</ele>
        <time>2021-07-22T10:06:08.000Z</time>
      </trkpt>
      <trkpt lat="47.25808" lon="-2.32528">
        <ele>50.799999237061</ele>
        <time>2021-07-22T10:06:16.000Z</time>
      </trkpt>
      <trkpt lat="47.25799" lon="-2.32485">
        <ele>50.799999237061</ele>
        <time>2021-07-22T10:06:23.000Z</time>
      </trkpt>
      <trkpt lat="47.25803" lon="-2.32466">
        <ele>50.799999237061</ele>
        <time>2021-07-22T10:06:27.000Z</time>
      </trkpt>
      <trkpt lat="47.25805" lon="-2.32463">
        <ele>50.400001525879</ele>
        <time>2021-07-22T10:06:28.000Z</time>
      </trkpt>
      <trkpt lat="47.25807" lon="-2.32459">
        <ele>50</ele>
        <time>2021-07-22T10:06:29.000Z</time>
      </trkpt>
      <trkpt lat="47.25811" lon="-2.32457">
        <ele>49.599998474121</ele>
        <time>2021-07-22T10:06:30.000Z</time>
      </trkpt>
      <trkpt lat="47.25815" lon="-2.32458">
        <ele>49.200000762939</ele>
        <time>2021-07-22T10:06:31.000Z</time>
      </trkpt>
      <trkpt lat="47.25819" lon="-2.3246">
        <ele>48.799999237061</ele>
        <time>2021-07-22T10:06:32.000Z</time>
      </trkpt>
      <trkpt lat="47.25832" lon="-2.32467">
        <ele>48.799999237061</ele>
        <time>2021-07-22T10:06:35.000Z</time>
      </trkpt>
      <trkpt lat="47.25859" lon="-2.32474">
        <ele>48.799999237061</ele>
        <time>2021-07-22T10:06:41.000Z</time>
      </trkpt>
      <trkpt lat="47.25863" lon="-2.32473">
        <ele>48.799999237061</ele>
        <time>2021-07-22T10:06:42.000Z</time>
      </trkpt>
      <trkpt lat="47.25892" lon="-2.32467">
        <ele>48.799999237061</ele>
        <time>2021-07-22T10:06:48.000Z</time>
      </trkpt>
      <trkpt lat="47.25908" lon="-2.32449">
        <ele>48.799999237061</ele>
        <time>2021-07-22T10:06:52.000Z</time>
      </trkpt>
      <trkpt lat="47.25912" lon="-2.32444">
        <ele>48.799999237061</ele>
        <time>2021-07-22T10:06:53.000Z</time>
      </trkpt>
      <trkpt lat="47.25931" lon="-2.32418">
        <ele>48.799999237061</ele>
        <time>2021-07-22T10:06:58.000Z</time>
      </trkpt>
      <trkpt lat="47.25965" lon="-2.32376">
        <ele>48.799999237061</ele>
        <time>2021-07-22T10:07:07.000Z</time>
      </trkpt>
      <trkpt lat="47.25991" lon="-2.32343">
        <ele>48.799999237061</ele>
        <time>2021-07-22T10:07:14.000Z</time>
      </trkpt>
      <trkpt lat="47.25998" lon="-2.32332">
        <ele>48.799999237061</ele>
        <time>2021-07-22T10:07:16.000Z</time>
      </trkpt>
      <trkpt lat="47.26012" lon="-2.32313">
        <ele>48.799999237061</ele>
        <time>2021-07-22T10:07:20.000Z</time>
      </trkpt>
      <trkpt lat="47.2604" lon="-2.32282">
        <ele>48.799999237061</ele>
        <time>2021-07-22T10:07:27.000Z</time>
      </trkpt>
      <trkpt lat="47.26064" lon="-2.32257">
        <ele>48.799999237061</ele>
        <time>2021-07-22T10:07:33.000Z</time>
      </trkpt>
      <trkpt lat="47.26086" lon="-2.3223">
        <ele>48.799999237061</ele>
        <time>2021-07-22T10:07:39.000Z</time>
      </trkpt>
      <trkpt lat="47.26095" lon="-2.32214">
        <ele>48.799999237061</ele>
        <time>2021-07-22T10:07:42.000Z</time>
      </trkpt>
      <trkpt lat="47.26103" lon="-2.32198">
        <ele>48.799999237061</ele>
        <time>2021-07-22T10:07:45.000Z</time>
      </trkpt>
      <trkpt lat="47.26106" lon="-2.32192">
        <ele>48.799999237061</ele>
        <time>2021-07-22T10:07:46.000Z</time>
      </trkpt>
      <trkpt lat="47.26124" lon="-2.32144">
        <ele>48.799999237061</ele>
        <time>2021-07-22T10:07:54.000Z</time>
      </trkpt>
      <trkpt lat="47.26126" lon="-2.32138">
        <ele>48.799999237061</ele>
        <time>2021-07-22T10:07:55.000Z</time>
      </trkpt>
      <trkpt lat="47.26131" lon="-2.32113">
        <ele>48.799999237061</ele>
        <time>2021-07-22T10:07:59.000Z</time>
      </trkpt>
      <trkpt lat="47.26145" lon="-2.32071">
        <ele>48.799999237061</ele>
        <time>2021-07-22T10:08:06.000Z</time>
      </trkpt>
      <trkpt lat="47.26157" lon="-2.32039">
        <ele>48.799999237061</ele>
        <time>2021-07-22T10:08:12.000Z</time>
      </trkpt>
      <trkpt lat="47.26172" lon="-2.32023">
        <ele>48.799999237061</ele>
        <time>2021-07-22T10:08:17.000Z</time>
      </trkpt>
      <trkpt lat="47.26187" lon="-2.32027">
        <ele>48.799999237061</ele>
        <time>2021-07-22T10:08:22.000Z</time>
      </trkpt>
      <trkpt lat="47.26194" lon="-2.32025">
        <ele>48.799999237061</ele>
        <time>2021-07-22T10:08:28.000Z</time>
      </trkpt>
      <trkpt lat="47.26199" lon="-2.3201">
        <ele>48.799999237061</ele>
        <time>2021-07-22T10:08:33.000Z</time>
      </trkpt>
      <trkpt lat="47.26218" lon="-2.3199">
        <ele>48.799999237061</ele>
        <time>2021-07-22T10:08:39.000Z</time>
      </trkpt>
      <trkpt lat="47.26225" lon="-2.31982">
        <ele>48.799999237061</ele>
        <time>2021-07-22T10:08:41.000Z</time>
      </trkpt>
      <trkpt lat="47.26232" lon="-2.31978">
        <ele>48.799999237061</ele>
        <time>2021-07-22T10:08:43.000Z</time>
      </trkpt>
      <trkpt lat="47.26237" lon="-2.31971">
        <ele>48.799999237061</ele>
        <time>2021-07-22T10:08:45.000Z</time>
      </trkpt>
      <trkpt lat="47.26242" lon="-2.31961">
        <ele>48.799999237061</ele>
        <time>2021-07-22T10:08:47.000Z</time>
      </trkpt>
      <trkpt lat="47.26258" lon="-2.31932">
        <ele>48.799999237061</ele>
        <time>2021-07-22T10:08:54.000Z</time>
      </trkpt>
      <trkpt lat="47.26268" lon="-2.31917">
        <ele>48.799999237061</ele>
        <time>2021-07-22T10:08:58.000Z</time>
      </trkpt>
      <trkpt lat="47.26285" lon="-2.31899">
        <ele>48.799999237061</ele>
        <time>2021-07-22T10:09:03.000Z</time>
      </trkpt>
      <trkpt lat="47.26299" lon="-2.31877">
        <ele>48.799999237061</ele>
        <time>2021-07-22T10:09:09.000Z</time>
      </trkpt>
      <trkpt lat="47.263" lon="-2.31854">
        <ele>48.799999237061</ele>
        <time>2021-07-22T10:09:13.000Z</time>
      </trkpt>
      <trkpt lat="47.26303" lon="-2.31811">
        <ele>48.799999237061</ele>
        <time>2021-07-22T10:09:21.000Z</time>
      </trkpt>
      <trkpt lat="47.26303" lon="-2.31768">
        <ele>48.799999237061</ele>
        <time>2021-07-22T10:09:28.000Z</time>
      </trkpt>
      <trkpt lat="47.26302" lon="-2.31723">
        <ele>48.799999237061</ele>
        <time>2021-07-22T10:09:35.000Z</time>
      </trkpt>
      <trkpt lat="47.26316" lon="-2.31713">
        <ele>48.799999237061</ele>
        <time>2021-07-22T10:09:39.000Z</time>
      </trkpt>
      <trkpt lat="47.26333" lon="-2.31695">
        <ele>48.799999237061</ele>
        <time>2021-07-22T10:09:45.000Z</time>
      </trkpt>
      <trkpt lat="47.2634" lon="-2.31687">
        <ele>49.200000762939</ele>
        <time>2021-07-22T10:09:48.000Z</time>
      </trkpt>
      <trkpt lat="47.26343" lon="-2.31686">
        <ele>49.599998474121</ele>
        <time>2021-07-22T10:09:49.000Z</time>
      </trkpt>
      <trkpt lat="47.26346" lon="-2.31684">
        <ele>50.200000762939</ele>
        <time>2021-07-22T10:09:50.000Z</time>
      </trkpt>
      <trkpt lat="47.26349" lon="-2.31682">
        <ele>50.599998474121</ele>
        <time>2021-07-22T10:09:51.000Z</time>
      </trkpt>
      <trkpt lat="47.26353" lon="-2.31681">
        <ele>51</ele>
        <time>2021-07-22T10:09:52.000Z</time>
      </trkpt>
      <trkpt lat="47.26366" lon="-2.31675">
        <ele>51</ele>
        <time>2021-07-22T10:09:56.000Z</time>
      </trkpt>
      <trkpt lat="47.26385" lon="-2.31664">
        <ele>51</ele>
        <time>2021-07-22T10:10:02.000Z</time>
      </trkpt>
      <trkpt lat="47.26401" lon="-2.31657">
        <ele>51</ele>
        <time>2021-07-22T10:10:08.000Z</time>
      </trkpt>
      <trkpt lat="47.2641" lon="-2.31646">
        <ele>51</ele>
        <time>2021-07-22T10:10:12.000Z</time>
      </trkpt>
      <trkpt lat="47.26411" lon="-2.31642">
        <ele>51</ele>
        <time>2021-07-22T10:10:13.000Z</time>
      </trkpt>
      <trkpt lat="47.26411" lon="-2.31639">
        <ele>51.400001525879</ele>
        <time>2021-07-22T10:10:14.000Z</time>
      </trkpt>
      <trkpt lat="47.26411" lon="-2.31634">
        <ele>51.799999237061</ele>
        <time>2021-07-22T10:10:15.000Z</time>
      </trkpt>
      <trkpt lat="47.26411" lon="-2.3163">
        <ele>52.200000762939</ele>
        <time>2021-07-22T10:10:16.000Z</time>
      </trkpt>
      <trkpt lat="47.26411" lon="-2.31625">
        <ele>52.799999237061</ele>
        <time>2021-07-22T10:10:17.000Z</time>
      </trkpt>
      <trkpt lat="47.2641" lon="-2.3162">
        <ele>53.200000762939</ele>
        <time>2021-07-22T10:10:18.000Z</time>
      </trkpt>
      <trkpt lat="47.2641" lon="-2.31592">
        <ele>53.200000762939</ele>
        <time>2021-07-22T10:10:24.000Z</time>
      </trkpt>
      <trkpt lat="47.26411" lon="-2.31557">
        <ele>53.200000762939</ele>
        <time>2021-07-22T10:10:32.000Z</time>
      </trkpt>
      <trkpt lat="47.26412" lon="-2.31554">
        <ele>53.200000762939</ele>
        <time>2021-07-22T10:10:33.000Z</time>
      </trkpt>
      <trkpt lat="47.26415" lon="-2.31554">
        <ele>53.200000762939</ele>
        <time>2021-07-22T10:10:35.000Z</time>
      </trkpt>
      <trkpt lat="47.26417" lon="-2.31555">
        <ele>53.200000762939</ele>
        <time>2021-07-22T10:10:39.000Z</time>
      </trkpt>
    </trkseg>
  </trk>
</gpx>